<?xml version="1.0" encoding="UTF-8" standalone="no" ?>
<gpx xmlns="http://www.topografix.com/GPX/1/1" xmlns:xsi="http://www.w3.org/2001/XMLSchema-instance" xsi:schemaLocation="http://www.topografix.com/GPX/1/1 http://www.topografix.com/GPX/1/1/gpx.xsd" version="1.1" creator="VisuGPX - https://www.visugpx.com">
  <metadata>
    <name>Pornichet 26/01/2020</name>
    <desc><![CDATA[Sortie VTT du dimanche 26 janvier 2020
]]></desc>
  </metadata>
  <trk>
    <name><![CDATA[Pornichet Cyclisme]]></name>
    <trkseg>
      <trkpt lat="47.26405" lon="-2.31539">
        <ele>10.2</ele>
        <time>2020-01-26T07:59:16.000Z</time>
      </trkpt>
      <trkpt lat="47.26406" lon="-2.31558">
        <ele>9.6</ele>
        <time>2020-01-26T07:59:19.000Z</time>
      </trkpt>
      <trkpt lat="47.26406" lon="-2.31565">
        <ele>9.6</ele>
        <time>2020-01-26T07:59:20.000Z</time>
      </trkpt>
      <trkpt lat="47.26406" lon="-2.31572">
        <ele>-0.40000000596046</ele>
        <time>2020-01-26T07:59:21.000Z</time>
      </trkpt>
      <trkpt lat="47.26406" lon="-2.31586">
        <ele>-0.40000000596046</ele>
        <time>2020-01-26T07:59:23.000Z</time>
      </trkpt>
      <trkpt lat="47.26408" lon="-2.31615">
        <ele>-0.40000000596046</ele>
        <time>2020-01-26T07:59:26.000Z</time>
      </trkpt>
      <trkpt lat="47.26409" lon="-2.3164">
        <ele>-0.40000000596046</ele>
        <time>2020-01-26T07:59:30.000Z</time>
      </trkpt>
      <trkpt lat="47.26407" lon="-2.31643">
        <ele>-0.40000000596046</ele>
        <time>2020-01-26T07:59:31.000Z</time>
      </trkpt>
      <trkpt lat="47.26398" lon="-2.3165">
        <ele>-0.40000000596046</ele>
        <time>2020-01-26T07:59:34.000Z</time>
      </trkpt>
      <trkpt lat="47.26374" lon="-2.31664">
        <ele>-0.40000000596046</ele>
        <time>2020-01-26T07:59:39.000Z</time>
      </trkpt>
      <trkpt lat="47.26345" lon="-2.3168">
        <ele>-0.80000001192093</ele>
        <time>2020-01-26T07:59:44.000Z</time>
      </trkpt>
      <trkpt lat="47.26339" lon="-2.31683">
        <ele>-1.2000000476837</ele>
        <time>2020-01-26T07:59:45.000Z</time>
      </trkpt>
      <trkpt lat="47.26334" lon="-2.31686">
        <ele>-1.6000000238419</ele>
        <time>2020-01-26T07:59:46.000Z</time>
      </trkpt>
      <trkpt lat="47.26328" lon="-2.3169">
        <ele>-2.4000000953674</ele>
        <time>2020-01-26T07:59:47.000Z</time>
      </trkpt>
      <trkpt lat="47.26313" lon="-2.31697">
        <ele>-2.4000000953674</ele>
        <time>2020-01-26T07:59:50.000Z</time>
      </trkpt>
      <trkpt lat="47.26309" lon="-2.31697">
        <ele>-3</ele>
        <time>2020-01-26T07:59:51.000Z</time>
      </trkpt>
      <trkpt lat="47.26306" lon="-2.31697">
        <ele>-3.4000000953674</ele>
        <time>2020-01-26T07:59:52.000Z</time>
      </trkpt>
      <trkpt lat="47.26303" lon="-2.31695">
        <ele>-3.7999999523163</ele>
        <time>2020-01-26T07:59:53.000Z</time>
      </trkpt>
      <trkpt lat="47.263" lon="-2.31692">
        <ele>-4.1999998092651</ele>
        <time>2020-01-26T07:59:54.000Z</time>
      </trkpt>
      <trkpt lat="47.26297" lon="-2.31689">
        <ele>-4.5999999046326</ele>
        <time>2020-01-26T07:59:55.000Z</time>
      </trkpt>
      <trkpt lat="47.26291" lon="-2.3168">
        <ele>-4.5999999046326</ele>
        <time>2020-01-26T07:59:57.000Z</time>
      </trkpt>
      <trkpt lat="47.26286" lon="-2.3167">
        <ele>-4.5999999046326</ele>
        <time>2020-01-26T07:59:59.000Z</time>
      </trkpt>
      <trkpt lat="47.26274" lon="-2.31645">
        <ele>-4.5999999046326</ele>
        <time>2020-01-26T08:00:04.000Z</time>
      </trkpt>
      <trkpt lat="47.26271" lon="-2.3164">
        <ele>-4.5999999046326</ele>
        <time>2020-01-26T08:00:05.000Z</time>
      </trkpt>
      <trkpt lat="47.26263" lon="-2.31624">
        <ele>-4.5999999046326</ele>
        <time>2020-01-26T08:00:08.000Z</time>
      </trkpt>
      <trkpt lat="47.26256" lon="-2.31613">
        <ele>-4.5999999046326</ele>
        <time>2020-01-26T08:00:10.000Z</time>
      </trkpt>
      <trkpt lat="47.26251" lon="-2.31608">
        <ele>-4.5999999046326</ele>
        <time>2020-01-26T08:00:11.000Z</time>
      </trkpt>
      <trkpt lat="47.26236" lon="-2.31596">
        <ele>-4.5999999046326</ele>
        <time>2020-01-26T08:00:14.000Z</time>
      </trkpt>
      <trkpt lat="47.26231" lon="-2.31593">
        <ele>-4.5999999046326</ele>
        <time>2020-01-26T08:00:15.000Z</time>
      </trkpt>
      <trkpt lat="47.26214" lon="-2.31587">
        <ele>-4.5999999046326</ele>
        <time>2020-01-26T08:00:18.000Z</time>
      </trkpt>
      <trkpt lat="47.26189" lon="-2.3159">
        <ele>-4.5999999046326</ele>
        <time>2020-01-26T08:00:23.000Z</time>
      </trkpt>
      <trkpt lat="47.26142" lon="-2.31603">
        <ele>-4.5999999046326</ele>
        <time>2020-01-26T08:00:31.000Z</time>
      </trkpt>
      <trkpt lat="47.26133" lon="-2.31605">
        <ele>-4.5999999046326</ele>
        <time>2020-01-26T08:00:35.000Z</time>
      </trkpt>
      <trkpt lat="47.2612" lon="-2.31612">
        <ele>-4.5999999046326</ele>
        <time>2020-01-26T08:00:38.000Z</time>
      </trkpt>
      <trkpt lat="47.26117" lon="-2.31628">
        <ele>-4.5999999046326</ele>
        <time>2020-01-26T08:00:41.000Z</time>
      </trkpt>
      <trkpt lat="47.26121" lon="-2.31642">
        <ele>-4.5999999046326</ele>
        <time>2020-01-26T08:00:43.000Z</time>
      </trkpt>
      <trkpt lat="47.26125" lon="-2.31656">
        <ele>-4.5999999046326</ele>
        <time>2020-01-26T08:00:45.000Z</time>
      </trkpt>
      <trkpt lat="47.26127" lon="-2.31678">
        <ele>-4.5999999046326</ele>
        <time>2020-01-26T08:00:48.000Z</time>
      </trkpt>
      <trkpt lat="47.26129" lon="-2.31693">
        <ele>-4.5999999046326</ele>
        <time>2020-01-26T08:00:50.000Z</time>
      </trkpt>
      <trkpt lat="47.26134" lon="-2.3174">
        <ele>-4.5999999046326</ele>
        <time>2020-01-26T08:00:56.000Z</time>
      </trkpt>
      <trkpt lat="47.26141" lon="-2.31805">
        <ele>-4.5999999046326</ele>
        <time>2020-01-26T08:01:04.000Z</time>
      </trkpt>
      <trkpt lat="47.26142" lon="-2.31813">
        <ele>-4.5999999046326</ele>
        <time>2020-01-26T08:01:05.000Z</time>
      </trkpt>
      <trkpt lat="47.26143" lon="-2.3183">
        <ele>-4.5999999046326</ele>
        <time>2020-01-26T08:01:07.000Z</time>
      </trkpt>
      <trkpt lat="47.26145" lon="-2.31846">
        <ele>-4.5999999046326</ele>
        <time>2020-01-26T08:01:09.000Z</time>
      </trkpt>
      <trkpt lat="47.2615" lon="-2.31885">
        <ele>-4.5999999046326</ele>
        <time>2020-01-26T08:01:14.000Z</time>
      </trkpt>
      <trkpt lat="47.26158" lon="-2.3195">
        <ele>-4.5999999046326</ele>
        <time>2020-01-26T08:01:22.000Z</time>
      </trkpt>
      <trkpt lat="47.26163" lon="-2.31979">
        <ele>-5</ele>
        <time>2020-01-26T08:01:26.000Z</time>
      </trkpt>
      <trkpt lat="47.26163" lon="-2.31987">
        <ele>-5.4000000953674</ele>
        <time>2020-01-26T08:01:27.000Z</time>
      </trkpt>
      <trkpt lat="47.26163" lon="-2.31994">
        <ele>-5.8000001907349</ele>
        <time>2020-01-26T08:01:28.000Z</time>
      </trkpt>
      <trkpt lat="47.26162" lon="-2.32002">
        <ele>-6.1999998092651</ele>
        <time>2020-01-26T08:01:29.000Z</time>
      </trkpt>
      <trkpt lat="47.26161" lon="-2.3201">
        <ele>-6.5999999046326</ele>
        <time>2020-01-26T08:01:30.000Z</time>
      </trkpt>
      <trkpt lat="47.2616" lon="-2.32017">
        <ele>-6.5999999046326</ele>
        <time>2020-01-26T08:01:31.000Z</time>
      </trkpt>
      <trkpt lat="47.26159" lon="-2.32025">
        <ele>-6.5999999046326</ele>
        <time>2020-01-26T08:01:32.000Z</time>
      </trkpt>
      <trkpt lat="47.26146" lon="-2.32072">
        <ele>-6.5999999046326</ele>
        <time>2020-01-26T08:01:38.000Z</time>
      </trkpt>
      <trkpt lat="47.26128" lon="-2.3213">
        <ele>-6.5999999046326</ele>
        <time>2020-01-26T08:01:46.000Z</time>
      </trkpt>
      <trkpt lat="47.26111" lon="-2.32171">
        <ele>-6.5999999046326</ele>
        <time>2020-01-26T08:01:52.000Z</time>
      </trkpt>
      <trkpt lat="47.26097" lon="-2.32197">
        <ele>-6.5999999046326</ele>
        <time>2020-01-26T08:01:56.000Z</time>
      </trkpt>
      <trkpt lat="47.26089" lon="-2.32209">
        <ele>-6.5999999046326</ele>
        <time>2020-01-26T08:01:58.000Z</time>
      </trkpt>
      <trkpt lat="47.2606" lon="-2.32244">
        <ele>-6.5999999046326</ele>
        <time>2020-01-26T08:02:05.000Z</time>
      </trkpt>
      <trkpt lat="47.26028" lon="-2.3228">
        <ele>-6.5999999046326</ele>
        <time>2020-01-26T08:02:12.000Z</time>
      </trkpt>
      <trkpt lat="47.25999" lon="-2.32315">
        <ele>-6.5999999046326</ele>
        <time>2020-01-26T08:02:19.000Z</time>
      </trkpt>
      <trkpt lat="47.2597" lon="-2.3235">
        <ele>-6.5999999046326</ele>
        <time>2020-01-26T08:02:26.000Z</time>
      </trkpt>
      <trkpt lat="47.25948" lon="-2.32381">
        <ele>-6.5999999046326</ele>
        <time>2020-01-26T08:02:32.000Z</time>
      </trkpt>
      <trkpt lat="47.25928" lon="-2.32407">
        <ele>-6.5999999046326</ele>
        <time>2020-01-26T08:02:37.000Z</time>
      </trkpt>
      <trkpt lat="47.25916" lon="-2.32422">
        <ele>-6.5999999046326</ele>
        <time>2020-01-26T08:02:40.000Z</time>
      </trkpt>
      <trkpt lat="47.25909" lon="-2.32432">
        <ele>-6.5999999046326</ele>
        <time>2020-01-26T08:02:42.000Z</time>
      </trkpt>
      <trkpt lat="47.25898" lon="-2.32448">
        <ele>-6.5999999046326</ele>
        <time>2020-01-26T08:02:45.000Z</time>
      </trkpt>
      <trkpt lat="47.2589" lon="-2.32454">
        <ele>-6.5999999046326</ele>
        <time>2020-01-26T08:02:47.000Z</time>
      </trkpt>
      <trkpt lat="47.2588" lon="-2.32458">
        <ele>-6.5999999046326</ele>
        <time>2020-01-26T08:02:49.000Z</time>
      </trkpt>
      <trkpt lat="47.25865" lon="-2.32463">
        <ele>-6.5999999046326</ele>
        <time>2020-01-26T08:02:52.000Z</time>
      </trkpt>
      <trkpt lat="47.25854" lon="-2.32463">
        <ele>-6.5999999046326</ele>
        <time>2020-01-26T08:02:54.000Z</time>
      </trkpt>
      <trkpt lat="47.25838" lon="-2.3246">
        <ele>-6.5999999046326</ele>
        <time>2020-01-26T08:02:57.000Z</time>
      </trkpt>
      <trkpt lat="47.25827" lon="-2.32455">
        <ele>-6.5999999046326</ele>
        <time>2020-01-26T08:02:59.000Z</time>
      </trkpt>
      <trkpt lat="47.25812" lon="-2.32447">
        <ele>-6.5999999046326</ele>
        <time>2020-01-26T08:03:02.000Z</time>
      </trkpt>
      <trkpt lat="47.25807" lon="-2.32446">
        <ele>-6.5999999046326</ele>
        <time>2020-01-26T08:03:03.000Z</time>
      </trkpt>
      <trkpt lat="47.25792" lon="-2.32447">
        <ele>-6.5999999046326</ele>
        <time>2020-01-26T08:03:06.000Z</time>
      </trkpt>
      <trkpt lat="47.25788" lon="-2.32447">
        <ele>-6.5999999046326</ele>
        <time>2020-01-26T08:03:07.000Z</time>
      </trkpt>
      <trkpt lat="47.25777" lon="-2.32437">
        <ele>-6.5999999046326</ele>
        <time>2020-01-26T08:03:10.000Z</time>
      </trkpt>
      <trkpt lat="47.25771" lon="-2.32428">
        <ele>-6.5999999046326</ele>
        <time>2020-01-26T08:03:12.000Z</time>
      </trkpt>
      <trkpt lat="47.25767" lon="-2.32423">
        <ele>-6.5999999046326</ele>
        <time>2020-01-26T08:03:13.000Z</time>
      </trkpt>
      <trkpt lat="47.25758" lon="-2.32419">
        <ele>-6.5999999046326</ele>
        <time>2020-01-26T08:03:15.000Z</time>
      </trkpt>
      <trkpt lat="47.25747" lon="-2.32418">
        <ele>-6.5999999046326</ele>
        <time>2020-01-26T08:03:17.000Z</time>
      </trkpt>
      <trkpt lat="47.25724" lon="-2.32418">
        <ele>-6.5999999046326</ele>
        <time>2020-01-26T08:03:21.000Z</time>
      </trkpt>
      <trkpt lat="47.25686" lon="-2.32416">
        <ele>-6.5999999046326</ele>
        <time>2020-01-26T08:03:28.000Z</time>
      </trkpt>
      <trkpt lat="47.25667" lon="-2.32415">
        <ele>-6.5999999046326</ele>
        <time>2020-01-26T08:03:33.000Z</time>
      </trkpt>
      <trkpt lat="47.25664" lon="-2.32417">
        <ele>-6.5999999046326</ele>
        <time>2020-01-26T08:03:34.000Z</time>
      </trkpt>
      <trkpt lat="47.2566" lon="-2.32426">
        <ele>-6.5999999046326</ele>
        <time>2020-01-26T08:03:36.000Z</time>
      </trkpt>
      <trkpt lat="47.25664" lon="-2.32452">
        <ele>-6.5999999046326</ele>
        <time>2020-01-26T08:03:40.000Z</time>
      </trkpt>
      <trkpt lat="47.25666" lon="-2.32458">
        <ele>-6.5999999046326</ele>
        <time>2020-01-26T08:03:41.000Z</time>
      </trkpt>
      <trkpt lat="47.25678" lon="-2.32498">
        <ele>-6.5999999046326</ele>
        <time>2020-01-26T08:03:47.000Z</time>
      </trkpt>
      <trkpt lat="47.25692" lon="-2.32541">
        <ele>-6.5999999046326</ele>
        <time>2020-01-26T08:03:54.000Z</time>
      </trkpt>
      <trkpt lat="47.25694" lon="-2.32548">
        <ele>-6.1999998092651</ele>
        <time>2020-01-26T08:03:55.000Z</time>
      </trkpt>
      <trkpt lat="47.25695" lon="-2.32554">
        <ele>-5.8000001907349</ele>
        <time>2020-01-26T08:03:56.000Z</time>
      </trkpt>
      <trkpt lat="47.25697" lon="-2.3256">
        <ele>-5.4000000953674</ele>
        <time>2020-01-26T08:03:57.000Z</time>
      </trkpt>
      <trkpt lat="47.25699" lon="-2.32567">
        <ele>-5</ele>
        <time>2020-01-26T08:03:58.000Z</time>
      </trkpt>
      <trkpt lat="47.25701" lon="-2.32573">
        <ele>-4.5999999046326</ele>
        <time>2020-01-26T08:03:59.000Z</time>
      </trkpt>
      <trkpt lat="47.25705" lon="-2.32585">
        <ele>-4.5999999046326</ele>
        <time>2020-01-26T08:04:01.000Z</time>
      </trkpt>
      <trkpt lat="47.25707" lon="-2.32598">
        <ele>-4.5999999046326</ele>
        <time>2020-01-26T08:04:03.000Z</time>
      </trkpt>
      <trkpt lat="47.25706" lon="-2.32611">
        <ele>-4.1999998092651</ele>
        <time>2020-01-26T08:04:05.000Z</time>
      </trkpt>
      <trkpt lat="47.25703" lon="-2.32616">
        <ele>-3.7999999523163</ele>
        <time>2020-01-26T08:04:06.000Z</time>
      </trkpt>
      <trkpt lat="47.25699" lon="-2.3262">
        <ele>-3.4000000953674</ele>
        <time>2020-01-26T08:04:07.000Z</time>
      </trkpt>
      <trkpt lat="47.25695" lon="-2.32624">
        <ele>-3</ele>
        <time>2020-01-26T08:04:08.000Z</time>
      </trkpt>
      <trkpt lat="47.25691" lon="-2.32626">
        <ele>-2.5999999046326</ele>
        <time>2020-01-26T08:04:09.000Z</time>
      </trkpt>
      <trkpt lat="47.25687" lon="-2.32629">
        <ele>-2.5999999046326</ele>
        <time>2020-01-26T08:04:10.000Z</time>
      </trkpt>
      <trkpt lat="47.25683" lon="-2.32631">
        <ele>-2.5999999046326</ele>
        <time>2020-01-26T08:04:11.000Z</time>
      </trkpt>
      <trkpt lat="47.2567" lon="-2.32637">
        <ele>-2.5999999046326</ele>
        <time>2020-01-26T08:04:14.000Z</time>
      </trkpt>
      <trkpt lat="47.25649" lon="-2.32646">
        <ele>-2</ele>
        <time>2020-01-26T08:04:19.000Z</time>
      </trkpt>
      <trkpt lat="47.25645" lon="-2.32648">
        <ele>-1.6000000238419</ele>
        <time>2020-01-26T08:04:20.000Z</time>
      </trkpt>
      <trkpt lat="47.25641" lon="-2.3265">
        <ele>-1.2000000476837</ele>
        <time>2020-01-26T08:04:21.000Z</time>
      </trkpt>
      <trkpt lat="47.25636" lon="-2.32652">
        <ele>-0.80000001192093</ele>
        <time>2020-01-26T08:04:22.000Z</time>
      </trkpt>
      <trkpt lat="47.25632" lon="-2.32653">
        <ele>-0.40000000596046</ele>
        <time>2020-01-26T08:04:23.000Z</time>
      </trkpt>
      <trkpt lat="47.25597" lon="-2.32668">
        <ele>-0.40000000596046</ele>
        <time>2020-01-26T08:04:31.000Z</time>
      </trkpt>
      <trkpt lat="47.25564" lon="-2.32682">
        <ele>-0.40000000596046</ele>
        <time>2020-01-26T08:04:38.000Z</time>
      </trkpt>
      <trkpt lat="47.25521" lon="-2.32698">
        <ele>-0.40000000596046</ele>
        <time>2020-01-26T08:04:47.000Z</time>
      </trkpt>
      <trkpt lat="47.25497" lon="-2.32701">
        <ele>-0.40000000596046</ele>
        <time>2020-01-26T08:04:52.000Z</time>
      </trkpt>
      <trkpt lat="47.25492" lon="-2.32703">
        <ele>-0.40000000596046</ele>
        <time>2020-01-26T08:04:53.000Z</time>
      </trkpt>
      <trkpt lat="47.25487" lon="-2.32705">
        <ele>-0.40000000596046</ele>
        <time>2020-01-26T08:04:54.000Z</time>
      </trkpt>
      <trkpt lat="47.2547" lon="-2.3272">
        <ele>-0.40000000596046</ele>
        <time>2020-01-26T08:04:58.000Z</time>
      </trkpt>
      <trkpt lat="47.25456" lon="-2.32742">
        <ele>-0.40000000596046</ele>
        <time>2020-01-26T08:05:02.000Z</time>
      </trkpt>
      <trkpt lat="47.25449" lon="-2.32751">
        <ele>-0.40000000596046</ele>
        <time>2020-01-26T08:05:04.000Z</time>
      </trkpt>
      <trkpt lat="47.25445" lon="-2.32756">
        <ele>-0.40000000596046</ele>
        <time>2020-01-26T08:05:05.000Z</time>
      </trkpt>
      <trkpt lat="47.25435" lon="-2.32781">
        <ele>-0.40000000596046</ele>
        <time>2020-01-26T08:05:09.000Z</time>
      </trkpt>
      <trkpt lat="47.25423" lon="-2.32797">
        <ele>-0.40000000596046</ele>
        <time>2020-01-26T08:05:12.000Z</time>
      </trkpt>
      <trkpt lat="47.25419" lon="-2.32803">
        <ele>-0.40000000596046</ele>
        <time>2020-01-26T08:05:13.000Z</time>
      </trkpt>
      <trkpt lat="47.25388" lon="-2.32843">
        <ele>-0.40000000596046</ele>
        <time>2020-01-26T08:05:20.000Z</time>
      </trkpt>
      <trkpt lat="47.25374" lon="-2.32856">
        <ele>-0.80000001192093</ele>
        <time>2020-01-26T08:05:23.000Z</time>
      </trkpt>
      <trkpt lat="47.25369" lon="-2.32861">
        <ele>-1.2000000476837</ele>
        <time>2020-01-26T08:05:24.000Z</time>
      </trkpt>
      <trkpt lat="47.25365" lon="-2.32865">
        <ele>-1.7999999523163</ele>
        <time>2020-01-26T08:05:25.000Z</time>
      </trkpt>
      <trkpt lat="47.25361" lon="-2.3287">
        <ele>-2.2000000476837</ele>
        <time>2020-01-26T08:05:26.000Z</time>
      </trkpt>
      <trkpt lat="47.25356" lon="-2.32874">
        <ele>-2.5999999046326</ele>
        <time>2020-01-26T08:05:27.000Z</time>
      </trkpt>
      <trkpt lat="47.2532" lon="-2.32909">
        <ele>-2.5999999046326</ele>
        <time>2020-01-26T08:05:35.000Z</time>
      </trkpt>
      <trkpt lat="47.25312" lon="-2.32918">
        <ele>-2.5999999046326</ele>
        <time>2020-01-26T08:05:37.000Z</time>
      </trkpt>
      <trkpt lat="47.25308" lon="-2.3293">
        <ele>-2.5999999046326</ele>
        <time>2020-01-26T08:05:39.000Z</time>
      </trkpt>
      <trkpt lat="47.25311" lon="-2.32951">
        <ele>-2.5999999046326</ele>
        <time>2020-01-26T08:05:42.000Z</time>
      </trkpt>
      <trkpt lat="47.25313" lon="-2.32958">
        <ele>-2.5999999046326</ele>
        <time>2020-01-26T08:05:43.000Z</time>
      </trkpt>
      <trkpt lat="47.25328" lon="-2.33">
        <ele>-2.5999999046326</ele>
        <time>2020-01-26T08:05:49.000Z</time>
      </trkpt>
      <trkpt lat="47.25343" lon="-2.3304">
        <ele>-3</ele>
        <time>2020-01-26T08:05:55.000Z</time>
      </trkpt>
      <trkpt lat="47.25346" lon="-2.33046">
        <ele>-3.7999999523163</ele>
        <time>2020-01-26T08:05:56.000Z</time>
      </trkpt>
      <trkpt lat="47.25348" lon="-2.33052">
        <ele>-4.1999998092651</ele>
        <time>2020-01-26T08:05:57.000Z</time>
      </trkpt>
      <trkpt lat="47.2535" lon="-2.33059">
        <ele>-4.5999999046326</ele>
        <time>2020-01-26T08:05:58.000Z</time>
      </trkpt>
      <trkpt lat="47.25358" lon="-2.33079">
        <ele>-4.5999999046326</ele>
        <time>2020-01-26T08:06:01.000Z</time>
      </trkpt>
      <trkpt lat="47.25366" lon="-2.33104">
        <ele>-4.5999999046326</ele>
        <time>2020-01-26T08:06:06.000Z</time>
      </trkpt>
      <trkpt lat="47.25369" lon="-2.33111">
        <ele>-5</ele>
        <time>2020-01-26T08:06:11.000Z</time>
      </trkpt>
      <trkpt lat="47.25372" lon="-2.33116">
        <ele>-10.800000190735</ele>
        <time>2020-01-26T08:13:03.000Z</time>
      </trkpt>
      <trkpt lat="47.25377" lon="-2.33122">
        <ele>-10.800000190735</ele>
        <time>2020-01-26T08:13:06.000Z</time>
      </trkpt>
      <trkpt lat="47.25385" lon="-2.3314">
        <ele>-10.800000190735</ele>
        <time>2020-01-26T08:13:11.000Z</time>
      </trkpt>
      <trkpt lat="47.254" lon="-2.3317">
        <ele>-10.800000190735</ele>
        <time>2020-01-26T08:13:17.000Z</time>
      </trkpt>
      <trkpt lat="47.25408" lon="-2.33187">
        <ele>-10.800000190735</ele>
        <time>2020-01-26T08:13:20.000Z</time>
      </trkpt>
      <trkpt lat="47.25415" lon="-2.33204">
        <ele>-10.800000190735</ele>
        <time>2020-01-26T08:13:23.000Z</time>
      </trkpt>
      <trkpt lat="47.25423" lon="-2.33227">
        <ele>-10.800000190735</ele>
        <time>2020-01-26T08:13:27.000Z</time>
      </trkpt>
      <trkpt lat="47.25428" lon="-2.33238">
        <ele>-10.800000190735</ele>
        <time>2020-01-26T08:13:29.000Z</time>
      </trkpt>
      <trkpt lat="47.25437" lon="-2.33252">
        <ele>-10.800000190735</ele>
        <time>2020-01-26T08:13:32.000Z</time>
      </trkpt>
      <trkpt lat="47.25441" lon="-2.33262">
        <ele>-10.800000190735</ele>
        <time>2020-01-26T08:13:34.000Z</time>
      </trkpt>
      <trkpt lat="47.25446" lon="-2.33275">
        <ele>-10.800000190735</ele>
        <time>2020-01-26T08:13:37.000Z</time>
      </trkpt>
      <trkpt lat="47.25451" lon="-2.33287">
        <ele>-10.800000190735</ele>
        <time>2020-01-26T08:13:40.000Z</time>
      </trkpt>
      <trkpt lat="47.25451" lon="-2.33307">
        <ele>-10.800000190735</ele>
        <time>2020-01-26T08:13:44.000Z</time>
      </trkpt>
      <trkpt lat="47.25437" lon="-2.33335">
        <ele>-10.800000190735</ele>
        <time>2020-01-26T08:13:50.000Z</time>
      </trkpt>
      <trkpt lat="47.25432" lon="-2.33357">
        <ele>-10.800000190735</ele>
        <time>2020-01-26T08:13:54.000Z</time>
      </trkpt>
      <trkpt lat="47.25434" lon="-2.33394">
        <ele>-10.800000190735</ele>
        <time>2020-01-26T08:14:00.000Z</time>
      </trkpt>
      <trkpt lat="47.25434" lon="-2.33436">
        <ele>-10.800000190735</ele>
        <time>2020-01-26T08:14:07.000Z</time>
      </trkpt>
      <trkpt lat="47.25437" lon="-2.33471">
        <ele>-10.800000190735</ele>
        <time>2020-01-26T08:14:13.000Z</time>
      </trkpt>
      <trkpt lat="47.25445" lon="-2.33497">
        <ele>-10.800000190735</ele>
        <time>2020-01-26T08:14:18.000Z</time>
      </trkpt>
      <trkpt lat="47.25454" lon="-2.33537">
        <ele>-10.800000190735</ele>
        <time>2020-01-26T08:14:25.000Z</time>
      </trkpt>
      <trkpt lat="47.25456" lon="-2.33549">
        <ele>-11.199999809265</ele>
        <time>2020-01-26T08:14:27.000Z</time>
      </trkpt>
      <trkpt lat="47.25457" lon="-2.33555">
        <ele>-11.60000038147</ele>
        <time>2020-01-26T08:14:28.000Z</time>
      </trkpt>
      <trkpt lat="47.25458" lon="-2.3356">
        <ele>-12</ele>
        <time>2020-01-26T08:14:29.000Z</time>
      </trkpt>
      <trkpt lat="47.25459" lon="-2.33565">
        <ele>-12.39999961853</ele>
        <time>2020-01-26T08:14:30.000Z</time>
      </trkpt>
      <trkpt lat="47.2546" lon="-2.33569">
        <ele>-12.800000190735</ele>
        <time>2020-01-26T08:14:31.000Z</time>
      </trkpt>
      <trkpt lat="47.25458" lon="-2.33577">
        <ele>-12.800000190735</ele>
        <time>2020-01-26T08:14:33.000Z</time>
      </trkpt>
      <trkpt lat="47.25454" lon="-2.33579">
        <ele>-12.800000190735</ele>
        <time>2020-01-26T08:14:34.000Z</time>
      </trkpt>
      <trkpt lat="47.25441" lon="-2.33593">
        <ele>-12.800000190735</ele>
        <time>2020-01-26T08:14:39.000Z</time>
      </trkpt>
      <trkpt lat="47.25441" lon="-2.33602">
        <ele>-12.800000190735</ele>
        <time>2020-01-26T08:14:41.000Z</time>
      </trkpt>
      <trkpt lat="47.25443" lon="-2.33619">
        <ele>-12.800000190735</ele>
        <time>2020-01-26T08:14:44.000Z</time>
      </trkpt>
      <trkpt lat="47.25448" lon="-2.33656">
        <ele>-12.800000190735</ele>
        <time>2020-01-26T08:14:50.000Z</time>
      </trkpt>
      <trkpt lat="47.25453" lon="-2.33694">
        <ele>-12.800000190735</ele>
        <time>2020-01-26T08:14:56.000Z</time>
      </trkpt>
      <trkpt lat="47.25454" lon="-2.337">
        <ele>-12.800000190735</ele>
        <time>2020-01-26T08:14:57.000Z</time>
      </trkpt>
      <trkpt lat="47.25455" lon="-2.3372">
        <ele>-12.800000190735</ele>
        <time>2020-01-26T08:15:00.000Z</time>
      </trkpt>
      <trkpt lat="47.2546" lon="-2.33737">
        <ele>-12.800000190735</ele>
        <time>2020-01-26T08:15:03.000Z</time>
      </trkpt>
      <trkpt lat="47.2547" lon="-2.33747">
        <ele>-12.800000190735</ele>
        <time>2020-01-26T08:15:06.000Z</time>
      </trkpt>
      <trkpt lat="47.25479" lon="-2.33751">
        <ele>-12.800000190735</ele>
        <time>2020-01-26T08:15:08.000Z</time>
      </trkpt>
      <trkpt lat="47.25491" lon="-2.33753">
        <ele>-12.800000190735</ele>
        <time>2020-01-26T08:15:11.000Z</time>
      </trkpt>
      <trkpt lat="47.25513" lon="-2.33754">
        <ele>-12.800000190735</ele>
        <time>2020-01-26T08:15:16.000Z</time>
      </trkpt>
      <trkpt lat="47.25521" lon="-2.33753">
        <ele>-12.800000190735</ele>
        <time>2020-01-26T08:15:18.000Z</time>
      </trkpt>
      <trkpt lat="47.25557" lon="-2.33753">
        <ele>-12.800000190735</ele>
        <time>2020-01-26T08:15:26.000Z</time>
      </trkpt>
      <trkpt lat="47.25588" lon="-2.33751">
        <ele>-12.800000190735</ele>
        <time>2020-01-26T08:15:33.000Z</time>
      </trkpt>
      <trkpt lat="47.25611" lon="-2.33756">
        <ele>-12.800000190735</ele>
        <time>2020-01-26T08:15:39.000Z</time>
      </trkpt>
      <trkpt lat="47.25625" lon="-2.33769">
        <ele>-12.800000190735</ele>
        <time>2020-01-26T08:15:44.000Z</time>
      </trkpt>
      <trkpt lat="47.25633" lon="-2.33784">
        <ele>-12.800000190735</ele>
        <time>2020-01-26T08:15:46.000Z</time>
      </trkpt>
      <trkpt lat="47.25639" lon="-2.33804">
        <ele>-12.800000190735</ele>
        <time>2020-01-26T08:15:48.000Z</time>
      </trkpt>
      <trkpt lat="47.25644" lon="-2.33834">
        <ele>-12.800000190735</ele>
        <time>2020-01-26T08:15:52.000Z</time>
      </trkpt>
      <trkpt lat="47.25646" lon="-2.33847">
        <ele>-12.800000190735</ele>
        <time>2020-01-26T08:15:54.000Z</time>
      </trkpt>
      <trkpt lat="47.25653" lon="-2.3388">
        <ele>-12.800000190735</ele>
        <time>2020-01-26T08:15:59.000Z</time>
      </trkpt>
      <trkpt lat="47.25661" lon="-2.33932">
        <ele>-12.800000190735</ele>
        <time>2020-01-26T08:16:07.000Z</time>
      </trkpt>
      <trkpt lat="47.25664" lon="-2.33951">
        <ele>-12.800000190735</ele>
        <time>2020-01-26T08:16:10.000Z</time>
      </trkpt>
      <trkpt lat="47.25663" lon="-2.33957">
        <ele>-12.800000190735</ele>
        <time>2020-01-26T08:16:11.000Z</time>
      </trkpt>
      <trkpt lat="47.25656" lon="-2.33995">
        <ele>-12.800000190735</ele>
        <time>2020-01-26T08:16:17.000Z</time>
      </trkpt>
      <trkpt lat="47.25652" lon="-2.34014">
        <ele>-12.800000190735</ele>
        <time>2020-01-26T08:16:20.000Z</time>
      </trkpt>
      <trkpt lat="47.2565" lon="-2.34028">
        <ele>-12.800000190735</ele>
        <time>2020-01-26T08:16:22.000Z</time>
      </trkpt>
      <trkpt lat="47.25645" lon="-2.34062">
        <ele>-12.800000190735</ele>
        <time>2020-01-26T08:16:27.000Z</time>
      </trkpt>
      <trkpt lat="47.2564" lon="-2.34087">
        <ele>-12.800000190735</ele>
        <time>2020-01-26T08:16:31.000Z</time>
      </trkpt>
      <trkpt lat="47.25641" lon="-2.34101">
        <ele>-12.800000190735</ele>
        <time>2020-01-26T08:16:33.000Z</time>
      </trkpt>
      <trkpt lat="47.25647" lon="-2.34136">
        <ele>-12.800000190735</ele>
        <time>2020-01-26T08:16:38.000Z</time>
      </trkpt>
      <trkpt lat="47.2565" lon="-2.34142">
        <ele>-12.800000190735</ele>
        <time>2020-01-26T08:16:39.000Z</time>
      </trkpt>
      <trkpt lat="47.25658" lon="-2.34161">
        <ele>-12.800000190735</ele>
        <time>2020-01-26T08:16:42.000Z</time>
      </trkpt>
      <trkpt lat="47.25667" lon="-2.34179">
        <ele>-13.199999809265</ele>
        <time>2020-01-26T08:16:45.000Z</time>
      </trkpt>
      <trkpt lat="47.25671" lon="-2.34184">
        <ele>-13.800000190735</ele>
        <time>2020-01-26T08:16:46.000Z</time>
      </trkpt>
      <trkpt lat="47.25674" lon="-2.34189">
        <ele>-14.199999809265</ele>
        <time>2020-01-26T08:16:47.000Z</time>
      </trkpt>
      <trkpt lat="47.25679" lon="-2.34193">
        <ele>-14.60000038147</ele>
        <time>2020-01-26T08:16:48.000Z</time>
      </trkpt>
      <trkpt lat="47.25683" lon="-2.34194">
        <ele>-15</ele>
        <time>2020-01-26T08:16:49.000Z</time>
      </trkpt>
      <trkpt lat="47.25699" lon="-2.34193">
        <ele>-15</ele>
        <time>2020-01-26T08:16:52.000Z</time>
      </trkpt>
      <trkpt lat="47.25705" lon="-2.34192">
        <ele>-15</ele>
        <time>2020-01-26T08:16:53.000Z</time>
      </trkpt>
      <trkpt lat="47.25746" lon="-2.34183">
        <ele>-15</ele>
        <time>2020-01-26T08:17:00.000Z</time>
      </trkpt>
      <trkpt lat="47.25786" lon="-2.34174">
        <ele>-15</ele>
        <time>2020-01-26T08:17:07.000Z</time>
      </trkpt>
      <trkpt lat="47.25795" lon="-2.34174">
        <ele>-15</ele>
        <time>2020-01-26T08:17:09.000Z</time>
      </trkpt>
      <trkpt lat="47.2581" lon="-2.34175">
        <ele>-15</ele>
        <time>2020-01-26T08:17:12.000Z</time>
      </trkpt>
      <trkpt lat="47.25814" lon="-2.34175">
        <ele>-15</ele>
        <time>2020-01-26T08:17:13.000Z</time>
      </trkpt>
      <trkpt lat="47.25832" lon="-2.34176">
        <ele>-15</ele>
        <time>2020-01-26T08:17:17.000Z</time>
      </trkpt>
      <trkpt lat="47.25835" lon="-2.34172">
        <ele>-15</ele>
        <time>2020-01-26T08:17:18.000Z</time>
      </trkpt>
      <trkpt lat="47.25838" lon="-2.34163">
        <ele>-15</ele>
        <time>2020-01-26T08:17:20.000Z</time>
      </trkpt>
      <trkpt lat="47.25843" lon="-2.34157">
        <ele>-15</ele>
        <time>2020-01-26T08:17:24.000Z</time>
      </trkpt>
      <trkpt lat="47.25855" lon="-2.34162">
        <ele>-15</ele>
        <time>2020-01-26T08:17:28.000Z</time>
      </trkpt>
      <trkpt lat="47.25859" lon="-2.34164">
        <ele>-15</ele>
        <time>2020-01-26T08:17:29.000Z</time>
      </trkpt>
      <trkpt lat="47.25863" lon="-2.34166">
        <ele>-15.39999961853</ele>
        <time>2020-01-26T08:17:30.000Z</time>
      </trkpt>
      <trkpt lat="47.25865" lon="-2.34167">
        <ele>-15.800000190735</ele>
        <time>2020-01-26T08:17:31.000Z</time>
      </trkpt>
      <trkpt lat="47.25868" lon="-2.34168">
        <ele>-16.200000762939</ele>
        <time>2020-01-26T08:17:32.000Z</time>
      </trkpt>
      <trkpt lat="47.2587" lon="-2.34168">
        <ele>-16.60000038147</ele>
        <time>2020-01-26T08:17:33.000Z</time>
      </trkpt>
      <trkpt lat="47.25872" lon="-2.34165">
        <ele>-17</ele>
        <time>2020-01-26T08:17:34.000Z</time>
      </trkpt>
      <trkpt lat="47.25874" lon="-2.34158">
        <ele>-17</ele>
        <time>2020-01-26T08:17:36.000Z</time>
      </trkpt>
      <trkpt lat="47.25884" lon="-2.34147">
        <ele>-17</ele>
        <time>2020-01-26T08:17:40.000Z</time>
      </trkpt>
      <trkpt lat="47.25891" lon="-2.34147">
        <ele>-17</ele>
        <time>2020-01-26T08:17:42.000Z</time>
      </trkpt>
      <trkpt lat="47.25901" lon="-2.34143">
        <ele>-17</ele>
        <time>2020-01-26T08:17:45.000Z</time>
      </trkpt>
      <trkpt lat="47.25925" lon="-2.34129">
        <ele>-17</ele>
        <time>2020-01-26T08:17:51.000Z</time>
      </trkpt>
      <trkpt lat="47.25953" lon="-2.3411">
        <ele>-17</ele>
        <time>2020-01-26T08:17:58.000Z</time>
      </trkpt>
      <trkpt lat="47.25963" lon="-2.34109">
        <ele>-17</ele>
        <time>2020-01-26T08:18:00.000Z</time>
      </trkpt>
      <trkpt lat="47.25974" lon="-2.34111">
        <ele>-17</ele>
        <time>2020-01-26T08:18:02.000Z</time>
      </trkpt>
      <trkpt lat="47.26014" lon="-2.34122">
        <ele>-17</ele>
        <time>2020-01-26T08:18:10.000Z</time>
      </trkpt>
      <trkpt lat="47.26051" lon="-2.3414">
        <ele>-17</ele>
        <time>2020-01-26T08:18:18.000Z</time>
      </trkpt>
      <trkpt lat="47.26086" lon="-2.34158">
        <ele>-17</ele>
        <time>2020-01-26T08:18:26.000Z</time>
      </trkpt>
      <trkpt lat="47.26094" lon="-2.34163">
        <ele>-17</ele>
        <time>2020-01-26T08:18:28.000Z</time>
      </trkpt>
      <trkpt lat="47.26111" lon="-2.34171">
        <ele>-17</ele>
        <time>2020-01-26T08:18:33.000Z</time>
      </trkpt>
      <trkpt lat="47.26115" lon="-2.34168">
        <ele>-17</ele>
        <time>2020-01-26T08:18:35.000Z</time>
      </trkpt>
      <trkpt lat="47.26116" lon="-2.34163">
        <ele>-17</ele>
        <time>2020-01-26T08:18:37.000Z</time>
      </trkpt>
      <trkpt lat="47.26117" lon="-2.34155">
        <ele>-17</ele>
        <time>2020-01-26T08:18:39.000Z</time>
      </trkpt>
      <trkpt lat="47.26122" lon="-2.34148">
        <ele>-17</ele>
        <time>2020-01-26T08:18:42.000Z</time>
      </trkpt>
      <trkpt lat="47.26133" lon="-2.34151">
        <ele>-17</ele>
        <time>2020-01-26T08:18:45.000Z</time>
      </trkpt>
      <trkpt lat="47.26141" lon="-2.34155">
        <ele>-17</ele>
        <time>2020-01-26T08:18:47.000Z</time>
      </trkpt>
      <trkpt lat="47.26145" lon="-2.34159">
        <ele>-17</ele>
        <time>2020-01-26T08:18:48.000Z</time>
      </trkpt>
      <trkpt lat="47.26152" lon="-2.34167">
        <ele>-17</ele>
        <time>2020-01-26T08:18:50.000Z</time>
      </trkpt>
      <trkpt lat="47.26183" lon="-2.34196">
        <ele>-17</ele>
        <time>2020-01-26T08:18:57.000Z</time>
      </trkpt>
      <trkpt lat="47.2622" lon="-2.34236">
        <ele>-17</ele>
        <time>2020-01-26T08:19:05.000Z</time>
      </trkpt>
      <trkpt lat="47.26252" lon="-2.34271">
        <ele>-17</ele>
        <time>2020-01-26T08:19:12.000Z</time>
      </trkpt>
      <trkpt lat="47.26292" lon="-2.34313">
        <ele>-17</ele>
        <time>2020-01-26T08:19:21.000Z</time>
      </trkpt>
      <trkpt lat="47.26322" lon="-2.34345">
        <ele>-17</ele>
        <time>2020-01-26T08:19:28.000Z</time>
      </trkpt>
      <trkpt lat="47.26327" lon="-2.34347">
        <ele>-17</ele>
        <time>2020-01-26T08:19:29.000Z</time>
      </trkpt>
      <trkpt lat="47.26337" lon="-2.34355">
        <ele>-17</ele>
        <time>2020-01-26T08:19:31.000Z</time>
      </trkpt>
      <trkpt lat="47.26342" lon="-2.3436">
        <ele>-17</ele>
        <time>2020-01-26T08:19:32.000Z</time>
      </trkpt>
      <trkpt lat="47.26361" lon="-2.34379">
        <ele>-17</ele>
        <time>2020-01-26T08:19:36.000Z</time>
      </trkpt>
      <trkpt lat="47.26366" lon="-2.34383">
        <ele>-17</ele>
        <time>2020-01-26T08:19:37.000Z</time>
      </trkpt>
      <trkpt lat="47.264" lon="-2.34414">
        <ele>-17</ele>
        <time>2020-01-26T08:19:44.000Z</time>
      </trkpt>
      <trkpt lat="47.26436" lon="-2.34442">
        <ele>-17</ele>
        <time>2020-01-26T08:19:51.000Z</time>
      </trkpt>
      <trkpt lat="47.26482" lon="-2.34476">
        <ele>-17</ele>
        <time>2020-01-26T08:20:00.000Z</time>
      </trkpt>
      <trkpt lat="47.26519" lon="-2.34501">
        <ele>-17</ele>
        <time>2020-01-26T08:20:07.000Z</time>
      </trkpt>
      <trkpt lat="47.26544" lon="-2.34522">
        <ele>-17</ele>
        <time>2020-01-26T08:20:12.000Z</time>
      </trkpt>
      <trkpt lat="47.26553" lon="-2.34532">
        <ele>-17</ele>
        <time>2020-01-26T08:20:14.000Z</time>
      </trkpt>
      <trkpt lat="47.26585" lon="-2.34567">
        <ele>-17</ele>
        <time>2020-01-26T08:20:21.000Z</time>
      </trkpt>
      <trkpt lat="47.26613" lon="-2.34596">
        <ele>-17</ele>
        <time>2020-01-26T08:20:27.000Z</time>
      </trkpt>
      <trkpt lat="47.26626" lon="-2.34612">
        <ele>-17</ele>
        <time>2020-01-26T08:20:30.000Z</time>
      </trkpt>
      <trkpt lat="47.26661" lon="-2.34657">
        <ele>-17</ele>
        <time>2020-01-26T08:20:38.000Z</time>
      </trkpt>
      <trkpt lat="47.26693" lon="-2.34696">
        <ele>-17</ele>
        <time>2020-01-26T08:20:45.000Z</time>
      </trkpt>
      <trkpt lat="47.26735" lon="-2.34746">
        <ele>-17</ele>
        <time>2020-01-26T08:20:54.000Z</time>
      </trkpt>
      <trkpt lat="47.26739" lon="-2.34752">
        <ele>-17</ele>
        <time>2020-01-26T08:20:55.000Z</time>
      </trkpt>
      <trkpt lat="47.2678" lon="-2.34804">
        <ele>-17</ele>
        <time>2020-01-26T08:21:04.000Z</time>
      </trkpt>
      <trkpt lat="47.26809" lon="-2.34847">
        <ele>-17</ele>
        <time>2020-01-26T08:21:11.000Z</time>
      </trkpt>
      <trkpt lat="47.26837" lon="-2.3489">
        <ele>-17</ele>
        <time>2020-01-26T08:21:18.000Z</time>
      </trkpt>
      <trkpt lat="47.26875" lon="-2.34947">
        <ele>-17</ele>
        <time>2020-01-26T08:21:27.000Z</time>
      </trkpt>
      <trkpt lat="47.26879" lon="-2.34953">
        <ele>-17</ele>
        <time>2020-01-26T08:21:28.000Z</time>
      </trkpt>
      <trkpt lat="47.26913" lon="-2.35004">
        <ele>-17</ele>
        <time>2020-01-26T08:21:36.000Z</time>
      </trkpt>
      <trkpt lat="47.26949" lon="-2.3506">
        <ele>-17</ele>
        <time>2020-01-26T08:21:45.000Z</time>
      </trkpt>
      <trkpt lat="47.26979" lon="-2.35108">
        <ele>-17</ele>
        <time>2020-01-26T08:21:53.000Z</time>
      </trkpt>
      <trkpt lat="47.27018" lon="-2.35168">
        <ele>-17</ele>
        <time>2020-01-26T08:22:03.000Z</time>
      </trkpt>
      <trkpt lat="47.27047" lon="-2.3521">
        <ele>-17</ele>
        <time>2020-01-26T08:22:10.000Z</time>
      </trkpt>
      <trkpt lat="47.27074" lon="-2.35254">
        <ele>-17</ele>
        <time>2020-01-26T08:22:17.000Z</time>
      </trkpt>
      <trkpt lat="47.27109" lon="-2.35309">
        <ele>-17</ele>
        <time>2020-01-26T08:22:26.000Z</time>
      </trkpt>
      <trkpt lat="47.27139" lon="-2.35359">
        <ele>-17</ele>
        <time>2020-01-26T08:22:34.000Z</time>
      </trkpt>
      <trkpt lat="47.2715" lon="-2.35378">
        <ele>-17</ele>
        <time>2020-01-26T08:22:37.000Z</time>
      </trkpt>
      <trkpt lat="47.2716" lon="-2.35397">
        <ele>-17</ele>
        <time>2020-01-26T08:22:40.000Z</time>
      </trkpt>
      <trkpt lat="47.27185" lon="-2.35444">
        <ele>-17</ele>
        <time>2020-01-26T08:22:47.000Z</time>
      </trkpt>
      <trkpt lat="47.2721" lon="-2.3549">
        <ele>-17</ele>
        <time>2020-01-26T08:22:54.000Z</time>
      </trkpt>
      <trkpt lat="47.27237" lon="-2.35548">
        <ele>-17</ele>
        <time>2020-01-26T08:23:02.000Z</time>
      </trkpt>
      <trkpt lat="47.27262" lon="-2.35603">
        <ele>-17</ele>
        <time>2020-01-26T08:23:10.000Z</time>
      </trkpt>
      <trkpt lat="47.27277" lon="-2.35639">
        <ele>-17.39999961853</ele>
        <time>2020-01-26T08:23:15.000Z</time>
      </trkpt>
      <trkpt lat="47.27281" lon="-2.35646">
        <ele>-17.799999237061</ele>
        <time>2020-01-26T08:23:16.000Z</time>
      </trkpt>
      <trkpt lat="47.27284" lon="-2.35652">
        <ele>-18.200000762939</ele>
        <time>2020-01-26T08:23:17.000Z</time>
      </trkpt>
      <trkpt lat="47.27288" lon="-2.3566">
        <ele>-18.60000038147</ele>
        <time>2020-01-26T08:23:18.000Z</time>
      </trkpt>
      <trkpt lat="47.27291" lon="-2.35667">
        <ele>-19</ele>
        <time>2020-01-26T08:23:19.000Z</time>
      </trkpt>
      <trkpt lat="47.27312" lon="-2.3571">
        <ele>-19</ele>
        <time>2020-01-26T08:23:26.000Z</time>
      </trkpt>
      <trkpt lat="47.27325" lon="-2.35735">
        <ele>-19</ele>
        <time>2020-01-26T08:23:30.000Z</time>
      </trkpt>
      <trkpt lat="47.2733" lon="-2.35751">
        <ele>-19</ele>
        <time>2020-01-26T08:23:32.000Z</time>
      </trkpt>
      <trkpt lat="47.27349" lon="-2.35805">
        <ele>-19</ele>
        <time>2020-01-26T08:23:39.000Z</time>
      </trkpt>
      <trkpt lat="47.27372" lon="-2.35863">
        <ele>-19</ele>
        <time>2020-01-26T08:23:47.000Z</time>
      </trkpt>
      <trkpt lat="47.27399" lon="-2.35933">
        <ele>-19</ele>
        <time>2020-01-26T08:23:57.000Z</time>
      </trkpt>
      <trkpt lat="47.2742" lon="-2.35983">
        <ele>-19</ele>
        <time>2020-01-26T08:24:04.000Z</time>
      </trkpt>
      <trkpt lat="47.27444" lon="-2.36038">
        <ele>-19</ele>
        <time>2020-01-26T08:24:12.000Z</time>
      </trkpt>
      <trkpt lat="47.27465" lon="-2.3609">
        <ele>-19</ele>
        <time>2020-01-26T08:24:19.000Z</time>
      </trkpt>
      <trkpt lat="47.27487" lon="-2.36152">
        <ele>-19</ele>
        <time>2020-01-26T08:24:27.000Z</time>
      </trkpt>
      <trkpt lat="47.27509" lon="-2.36213">
        <ele>-19</ele>
        <time>2020-01-26T08:24:35.000Z</time>
      </trkpt>
      <trkpt lat="47.27536" lon="-2.36282">
        <ele>-19</ele>
        <time>2020-01-26T08:24:44.000Z</time>
      </trkpt>
      <trkpt lat="47.27558" lon="-2.36342">
        <ele>-19</ele>
        <time>2020-01-26T08:24:52.000Z</time>
      </trkpt>
      <trkpt lat="47.27587" lon="-2.36416">
        <ele>-19</ele>
        <time>2020-01-26T08:25:02.000Z</time>
      </trkpt>
      <trkpt lat="47.27609" lon="-2.36477">
        <ele>-19</ele>
        <time>2020-01-26T08:25:10.000Z</time>
      </trkpt>
      <trkpt lat="47.2763" lon="-2.36539">
        <ele>-19</ele>
        <time>2020-01-26T08:25:18.000Z</time>
      </trkpt>
      <trkpt lat="47.27649" lon="-2.36592">
        <ele>-19</ele>
        <time>2020-01-26T08:25:25.000Z</time>
      </trkpt>
      <trkpt lat="47.27671" lon="-2.36654">
        <ele>-19</ele>
        <time>2020-01-26T08:25:33.000Z</time>
      </trkpt>
      <trkpt lat="47.27694" lon="-2.36723">
        <ele>-19</ele>
        <time>2020-01-26T08:25:42.000Z</time>
      </trkpt>
      <trkpt lat="47.27717" lon="-2.36791">
        <ele>-19</ele>
        <time>2020-01-26T08:25:51.000Z</time>
      </trkpt>
      <trkpt lat="47.27735" lon="-2.36855">
        <ele>-19</ele>
        <time>2020-01-26T08:25:59.000Z</time>
      </trkpt>
      <trkpt lat="47.27758" lon="-2.36934">
        <ele>-19</ele>
        <time>2020-01-26T08:26:09.000Z</time>
      </trkpt>
      <trkpt lat="47.2778" lon="-2.37007">
        <ele>-19</ele>
        <time>2020-01-26T08:26:18.000Z</time>
      </trkpt>
      <trkpt lat="47.27795" lon="-2.37066">
        <ele>-19</ele>
        <time>2020-01-26T08:26:25.000Z</time>
      </trkpt>
      <trkpt lat="47.2781" lon="-2.37122">
        <ele>-19</ele>
        <time>2020-01-26T08:26:32.000Z</time>
      </trkpt>
      <trkpt lat="47.27825" lon="-2.37167">
        <ele>-19</ele>
        <time>2020-01-26T08:26:38.000Z</time>
      </trkpt>
      <trkpt lat="47.27828" lon="-2.37174">
        <ele>-19</ele>
        <time>2020-01-26T08:26:39.000Z</time>
      </trkpt>
      <trkpt lat="47.27833" lon="-2.37187">
        <ele>-19</ele>
        <time>2020-01-26T08:26:41.000Z</time>
      </trkpt>
      <trkpt lat="47.27835" lon="-2.37212">
        <ele>-19</ele>
        <time>2020-01-26T08:26:44.000Z</time>
      </trkpt>
      <trkpt lat="47.27837" lon="-2.37221">
        <ele>-19</ele>
        <time>2020-01-26T08:26:45.000Z</time>
      </trkpt>
      <trkpt lat="47.27843" lon="-2.37247">
        <ele>-19</ele>
        <time>2020-01-26T08:26:48.000Z</time>
      </trkpt>
      <trkpt lat="47.27859" lon="-2.37314">
        <ele>-19</ele>
        <time>2020-01-26T08:26:56.000Z</time>
      </trkpt>
      <trkpt lat="47.27877" lon="-2.3738">
        <ele>-19</ele>
        <time>2020-01-26T08:27:04.000Z</time>
      </trkpt>
      <trkpt lat="47.27894" lon="-2.37445">
        <ele>-19</ele>
        <time>2020-01-26T08:27:12.000Z</time>
      </trkpt>
      <trkpt lat="47.27909" lon="-2.3751">
        <ele>-19</ele>
        <time>2020-01-26T08:27:20.000Z</time>
      </trkpt>
      <trkpt lat="47.27925" lon="-2.37573">
        <ele>-19</ele>
        <time>2020-01-26T08:27:28.000Z</time>
      </trkpt>
      <trkpt lat="47.27941" lon="-2.37644">
        <ele>-19</ele>
        <time>2020-01-26T08:27:37.000Z</time>
      </trkpt>
      <trkpt lat="47.2796" lon="-2.37722">
        <ele>-19</ele>
        <time>2020-01-26T08:27:47.000Z</time>
      </trkpt>
      <trkpt lat="47.27973" lon="-2.37774">
        <ele>-19</ele>
        <time>2020-01-26T08:27:54.000Z</time>
      </trkpt>
      <trkpt lat="47.27983" lon="-2.3781">
        <ele>-19</ele>
        <time>2020-01-26T08:27:59.000Z</time>
      </trkpt>
      <trkpt lat="47.27984" lon="-2.37827">
        <ele>-19</ele>
        <time>2020-01-26T08:28:01.000Z</time>
      </trkpt>
      <trkpt lat="47.27985" lon="-2.37835">
        <ele>-19</ele>
        <time>2020-01-26T08:28:02.000Z</time>
      </trkpt>
      <trkpt lat="47.27991" lon="-2.37876">
        <ele>-19</ele>
        <time>2020-01-26T08:28:07.000Z</time>
      </trkpt>
      <trkpt lat="47.28002" lon="-2.37933">
        <ele>-19</ele>
        <time>2020-01-26T08:28:14.000Z</time>
      </trkpt>
      <trkpt lat="47.28016" lon="-2.3801">
        <ele>-19</ele>
        <time>2020-01-26T08:28:23.000Z</time>
      </trkpt>
      <trkpt lat="47.28031" lon="-2.38097">
        <ele>-19</ele>
        <time>2020-01-26T08:28:32.000Z</time>
      </trkpt>
      <trkpt lat="47.28042" lon="-2.38156">
        <ele>-19</ele>
        <time>2020-01-26T08:28:39.000Z</time>
      </trkpt>
      <trkpt lat="47.28059" lon="-2.38238">
        <ele>-19</ele>
        <time>2020-01-26T08:28:49.000Z</time>
      </trkpt>
      <trkpt lat="47.28068" lon="-2.38288">
        <ele>-19</ele>
        <time>2020-01-26T08:28:55.000Z</time>
      </trkpt>
      <trkpt lat="47.28082" lon="-2.38357">
        <ele>-19</ele>
        <time>2020-01-26T08:29:03.000Z</time>
      </trkpt>
      <trkpt lat="47.28093" lon="-2.38415">
        <ele>-19</ele>
        <time>2020-01-26T08:29:10.000Z</time>
      </trkpt>
      <trkpt lat="47.28104" lon="-2.38483">
        <ele>-19</ele>
        <time>2020-01-26T08:29:18.000Z</time>
      </trkpt>
      <trkpt lat="47.28111" lon="-2.38535">
        <ele>-19</ele>
        <time>2020-01-26T08:29:24.000Z</time>
      </trkpt>
      <trkpt lat="47.28112" lon="-2.38544">
        <ele>-19</ele>
        <time>2020-01-26T08:29:25.000Z</time>
      </trkpt>
      <trkpt lat="47.28119" lon="-2.38602">
        <ele>-19.39999961853</ele>
        <time>2020-01-26T08:29:32.000Z</time>
      </trkpt>
      <trkpt lat="47.28121" lon="-2.38611">
        <ele>-19.799999237061</ele>
        <time>2020-01-26T08:29:33.000Z</time>
      </trkpt>
      <trkpt lat="47.28121" lon="-2.3862">
        <ele>-20.200000762939</ele>
        <time>2020-01-26T08:29:34.000Z</time>
      </trkpt>
      <trkpt lat="47.28122" lon="-2.38629">
        <ele>-20.799999237061</ele>
        <time>2020-01-26T08:29:35.000Z</time>
      </trkpt>
      <trkpt lat="47.28123" lon="-2.38637">
        <ele>-21.200000762939</ele>
        <time>2020-01-26T08:29:36.000Z</time>
      </trkpt>
      <trkpt lat="47.28126" lon="-2.38672">
        <ele>-21.200000762939</ele>
        <time>2020-01-26T08:29:40.000Z</time>
      </trkpt>
      <trkpt lat="47.28133" lon="-2.38742">
        <ele>-21.200000762939</ele>
        <time>2020-01-26T08:29:48.000Z</time>
      </trkpt>
      <trkpt lat="47.28142" lon="-2.38826">
        <ele>-21.200000762939</ele>
        <time>2020-01-26T08:29:58.000Z</time>
      </trkpt>
      <trkpt lat="47.28146" lon="-2.38868">
        <ele>-21.200000762939</ele>
        <time>2020-01-26T08:30:03.000Z</time>
      </trkpt>
      <trkpt lat="47.28152" lon="-2.38899">
        <ele>-21.200000762939</ele>
        <time>2020-01-26T08:30:07.000Z</time>
      </trkpt>
      <trkpt lat="47.28164" lon="-2.38957">
        <ele>-21.200000762939</ele>
        <time>2020-01-26T08:30:15.000Z</time>
      </trkpt>
      <trkpt lat="47.28167" lon="-2.38975">
        <ele>-21.200000762939</ele>
        <time>2020-01-26T08:30:18.000Z</time>
      </trkpt>
      <trkpt lat="47.28169" lon="-2.39002">
        <ele>-21.200000762939</ele>
        <time>2020-01-26T08:30:22.000Z</time>
      </trkpt>
      <trkpt lat="47.28172" lon="-2.39052">
        <ele>-21.200000762939</ele>
        <time>2020-01-26T08:30:29.000Z</time>
      </trkpt>
      <trkpt lat="47.28176" lon="-2.3908">
        <ele>-21.200000762939</ele>
        <time>2020-01-26T08:30:35.000Z</time>
      </trkpt>
      <trkpt lat="47.28184" lon="-2.39092">
        <ele>-21.200000762939</ele>
        <time>2020-01-26T08:30:41.000Z</time>
      </trkpt>
      <trkpt lat="47.28194" lon="-2.39089">
        <ele>-21.200000762939</ele>
        <time>2020-01-26T08:30:45.000Z</time>
      </trkpt>
      <trkpt lat="47.28206" lon="-2.39086">
        <ele>-21.200000762939</ele>
        <time>2020-01-26T08:30:48.000Z</time>
      </trkpt>
      <trkpt lat="47.28215" lon="-2.39084">
        <ele>-21.200000762939</ele>
        <time>2020-01-26T08:30:50.000Z</time>
      </trkpt>
      <trkpt lat="47.28219" lon="-2.39083">
        <ele>-21.200000762939</ele>
        <time>2020-01-26T08:30:51.000Z</time>
      </trkpt>
      <trkpt lat="47.28227" lon="-2.39081">
        <ele>-21.200000762939</ele>
        <time>2020-01-26T08:30:53.000Z</time>
      </trkpt>
      <trkpt lat="47.28241" lon="-2.39077">
        <ele>-21.200000762939</ele>
        <time>2020-01-26T08:30:56.000Z</time>
      </trkpt>
      <trkpt lat="47.28267" lon="-2.39073">
        <ele>-21.200000762939</ele>
        <time>2020-01-26T08:31:02.000Z</time>
      </trkpt>
      <trkpt lat="47.28277" lon="-2.39071">
        <ele>-21.200000762939</ele>
        <time>2020-01-26T08:31:04.000Z</time>
      </trkpt>
      <trkpt lat="47.28296" lon="-2.39067">
        <ele>-21.200000762939</ele>
        <time>2020-01-26T08:31:08.000Z</time>
      </trkpt>
      <trkpt lat="47.28325" lon="-2.39062">
        <ele>-21.200000762939</ele>
        <time>2020-01-26T08:31:14.000Z</time>
      </trkpt>
      <trkpt lat="47.28362" lon="-2.39058">
        <ele>-21.200000762939</ele>
        <time>2020-01-26T08:31:21.000Z</time>
      </trkpt>
      <trkpt lat="47.28401" lon="-2.39053">
        <ele>-21.60000038147</ele>
        <time>2020-01-26T08:31:29.000Z</time>
      </trkpt>
      <trkpt lat="47.28406" lon="-2.39051">
        <ele>-22</ele>
        <time>2020-01-26T08:31:30.000Z</time>
      </trkpt>
      <trkpt lat="47.28411" lon="-2.3905">
        <ele>-22.39999961853</ele>
        <time>2020-01-26T08:31:31.000Z</time>
      </trkpt>
      <trkpt lat="47.28416" lon="-2.3905">
        <ele>-22.799999237061</ele>
        <time>2020-01-26T08:31:32.000Z</time>
      </trkpt>
      <trkpt lat="47.28421" lon="-2.39049">
        <ele>-23.200000762939</ele>
        <time>2020-01-26T08:31:33.000Z</time>
      </trkpt>
      <trkpt lat="47.28432" lon="-2.39047">
        <ele>-23.200000762939</ele>
        <time>2020-01-26T08:31:35.000Z</time>
      </trkpt>
      <trkpt lat="47.28443" lon="-2.39046">
        <ele>-23.200000762939</ele>
        <time>2020-01-26T08:31:37.000Z</time>
      </trkpt>
      <trkpt lat="47.28458" lon="-2.39043">
        <ele>-23.200000762939</ele>
        <time>2020-01-26T08:31:40.000Z</time>
      </trkpt>
      <trkpt lat="47.28495" lon="-2.39039">
        <ele>-23.200000762939</ele>
        <time>2020-01-26T08:31:47.000Z</time>
      </trkpt>
      <trkpt lat="47.28514" lon="-2.39036">
        <ele>-23.200000762939</ele>
        <time>2020-01-26T08:31:51.000Z</time>
      </trkpt>
      <trkpt lat="47.28524" lon="-2.39034">
        <ele>-23.200000762939</ele>
        <time>2020-01-26T08:31:53.000Z</time>
      </trkpt>
      <trkpt lat="47.28555" lon="-2.3903">
        <ele>-23.200000762939</ele>
        <time>2020-01-26T08:32:00.000Z</time>
      </trkpt>
      <trkpt lat="47.28577" lon="-2.39025">
        <ele>-23.200000762939</ele>
        <time>2020-01-26T08:32:06.000Z</time>
      </trkpt>
      <trkpt lat="47.2858" lon="-2.39023">
        <ele>-23.200000762939</ele>
        <time>2020-01-26T08:32:07.000Z</time>
      </trkpt>
      <trkpt lat="47.28583" lon="-2.39016">
        <ele>-23.200000762939</ele>
        <time>2020-01-26T08:32:09.000Z</time>
      </trkpt>
      <trkpt lat="47.28583" lon="-2.39007">
        <ele>-23.200000762939</ele>
        <time>2020-01-26T08:32:11.000Z</time>
      </trkpt>
      <trkpt lat="47.28586" lon="-2.38992">
        <ele>-23.200000762939</ele>
        <time>2020-01-26T08:32:14.000Z</time>
      </trkpt>
      <trkpt lat="47.28607" lon="-2.38963">
        <ele>-23.200000762939</ele>
        <time>2020-01-26T08:32:20.000Z</time>
      </trkpt>
      <trkpt lat="47.28622" lon="-2.38943">
        <ele>-23.200000762939</ele>
        <time>2020-01-26T08:32:25.000Z</time>
      </trkpt>
      <trkpt lat="47.28635" lon="-2.38949">
        <ele>-23.200000762939</ele>
        <time>2020-01-26T08:32:28.000Z</time>
      </trkpt>
      <trkpt lat="47.28642" lon="-2.38967">
        <ele>-23.200000762939</ele>
        <time>2020-01-26T08:32:31.000Z</time>
      </trkpt>
      <trkpt lat="47.28645" lon="-2.38974">
        <ele>-23.200000762939</ele>
        <time>2020-01-26T08:32:32.000Z</time>
      </trkpt>
      <trkpt lat="47.28669" lon="-2.39025">
        <ele>-23.200000762939</ele>
        <time>2020-01-26T08:32:40.000Z</time>
      </trkpt>
      <trkpt lat="47.28688" lon="-2.39067">
        <ele>-23.200000762939</ele>
        <time>2020-01-26T08:32:47.000Z</time>
      </trkpt>
      <trkpt lat="47.28691" lon="-2.39071">
        <ele>-23.200000762939</ele>
        <time>2020-01-26T08:32:48.000Z</time>
      </trkpt>
      <trkpt lat="47.28703" lon="-2.39087">
        <ele>-23.200000762939</ele>
        <time>2020-01-26T08:32:52.000Z</time>
      </trkpt>
      <trkpt lat="47.28706" lon="-2.39101">
        <ele>-23.200000762939</ele>
        <time>2020-01-26T08:32:55.000Z</time>
      </trkpt>
      <trkpt lat="47.28705" lon="-2.39107">
        <ele>-23.200000762939</ele>
        <time>2020-01-26T08:32:56.000Z</time>
      </trkpt>
      <trkpt lat="47.28704" lon="-2.39119">
        <ele>-23.200000762939</ele>
        <time>2020-01-26T08:32:58.000Z</time>
      </trkpt>
      <trkpt lat="47.28704" lon="-2.39125">
        <ele>-23.200000762939</ele>
        <time>2020-01-26T08:32:59.000Z</time>
      </trkpt>
      <trkpt lat="47.28711" lon="-2.39143">
        <ele>-23.200000762939</ele>
        <time>2020-01-26T08:33:02.000Z</time>
      </trkpt>
      <trkpt lat="47.28714" lon="-2.39149">
        <ele>-23.200000762939</ele>
        <time>2020-01-26T08:33:03.000Z</time>
      </trkpt>
      <trkpt lat="47.28738" lon="-2.39199">
        <ele>-23.200000762939</ele>
        <time>2020-01-26T08:33:11.000Z</time>
      </trkpt>
      <trkpt lat="47.28761" lon="-2.39243">
        <ele>-23.200000762939</ele>
        <time>2020-01-26T08:33:18.000Z</time>
      </trkpt>
      <trkpt lat="47.28767" lon="-2.39258">
        <ele>-23.200000762939</ele>
        <time>2020-01-26T08:33:20.000Z</time>
      </trkpt>
      <trkpt lat="47.28781" lon="-2.39282">
        <ele>-23.200000762939</ele>
        <time>2020-01-26T08:33:24.000Z</time>
      </trkpt>
      <trkpt lat="47.28801" lon="-2.39324">
        <ele>-23.200000762939</ele>
        <time>2020-01-26T08:33:31.000Z</time>
      </trkpt>
      <trkpt lat="47.28808" lon="-2.39341">
        <ele>-22.799999237061</ele>
        <time>2020-01-26T08:33:34.000Z</time>
      </trkpt>
      <trkpt lat="47.28811" lon="-2.39346">
        <ele>-22.200000762939</ele>
        <time>2020-01-26T08:33:35.000Z</time>
      </trkpt>
      <trkpt lat="47.28814" lon="-2.39352">
        <ele>-21.799999237061</ele>
        <time>2020-01-26T08:33:36.000Z</time>
      </trkpt>
      <trkpt lat="47.28816" lon="-2.39358">
        <ele>-21.39999961853</ele>
        <time>2020-01-26T08:33:37.000Z</time>
      </trkpt>
      <trkpt lat="47.28818" lon="-2.39363">
        <ele>-21</ele>
        <time>2020-01-26T08:33:38.000Z</time>
      </trkpt>
      <trkpt lat="47.28824" lon="-2.39374">
        <ele>-21</ele>
        <time>2020-01-26T08:33:40.000Z</time>
      </trkpt>
      <trkpt lat="47.28838" lon="-2.39388">
        <ele>-20.60000038147</ele>
        <time>2020-01-26T08:33:44.000Z</time>
      </trkpt>
      <trkpt lat="47.28841" lon="-2.39391">
        <ele>-20.200000762939</ele>
        <time>2020-01-26T08:33:45.000Z</time>
      </trkpt>
      <trkpt lat="47.28845" lon="-2.39393">
        <ele>-19.799999237061</ele>
        <time>2020-01-26T08:33:46.000Z</time>
      </trkpt>
      <trkpt lat="47.28849" lon="-2.39396">
        <ele>-19.39999961853</ele>
        <time>2020-01-26T08:33:47.000Z</time>
      </trkpt>
      <trkpt lat="47.28853" lon="-2.39397">
        <ele>-19</ele>
        <time>2020-01-26T08:33:48.000Z</time>
      </trkpt>
      <trkpt lat="47.28862" lon="-2.394">
        <ele>-19</ele>
        <time>2020-01-26T08:33:50.000Z</time>
      </trkpt>
      <trkpt lat="47.28895" lon="-2.39411">
        <ele>-19</ele>
        <time>2020-01-26T08:33:57.000Z</time>
      </trkpt>
      <trkpt lat="47.28906" lon="-2.39415">
        <ele>-19</ele>
        <time>2020-01-26T08:33:59.000Z</time>
      </trkpt>
      <trkpt lat="47.28929" lon="-2.39423">
        <ele>-19</ele>
        <time>2020-01-26T08:34:03.000Z</time>
      </trkpt>
      <trkpt lat="47.28985" lon="-2.3944">
        <ele>-19</ele>
        <time>2020-01-26T08:34:12.000Z</time>
      </trkpt>
      <trkpt lat="47.28997" lon="-2.39443">
        <ele>-19.39999961853</ele>
        <time>2020-01-26T08:34:14.000Z</time>
      </trkpt>
      <trkpt lat="47.29002" lon="-2.39443">
        <ele>-19.799999237061</ele>
        <time>2020-01-26T08:34:15.000Z</time>
      </trkpt>
      <trkpt lat="47.29008" lon="-2.39443">
        <ele>-20.200000762939</ele>
        <time>2020-01-26T08:34:16.000Z</time>
      </trkpt>
      <trkpt lat="47.29013" lon="-2.39442">
        <ele>-20.60000038147</ele>
        <time>2020-01-26T08:34:17.000Z</time>
      </trkpt>
      <trkpt lat="47.29018" lon="-2.3944">
        <ele>-21</ele>
        <time>2020-01-26T08:34:18.000Z</time>
      </trkpt>
      <trkpt lat="47.29037" lon="-2.39429">
        <ele>-21</ele>
        <time>2020-01-26T08:34:22.000Z</time>
      </trkpt>
      <trkpt lat="47.29057" lon="-2.39413">
        <ele>-21</ele>
        <time>2020-01-26T08:34:27.000Z</time>
      </trkpt>
      <trkpt lat="47.29061" lon="-2.39409">
        <ele>-21</ele>
        <time>2020-01-26T08:34:28.000Z</time>
      </trkpt>
      <trkpt lat="47.29093" lon="-2.39383">
        <ele>-21</ele>
        <time>2020-01-26T08:34:35.000Z</time>
      </trkpt>
      <trkpt lat="47.2912" lon="-2.39362">
        <ele>-21.39999961853</ele>
        <time>2020-01-26T08:34:40.000Z</time>
      </trkpt>
      <trkpt lat="47.29125" lon="-2.39358">
        <ele>-21.799999237061</ele>
        <time>2020-01-26T08:34:41.000Z</time>
      </trkpt>
      <trkpt lat="47.2913" lon="-2.39353">
        <ele>-22.39999961853</ele>
        <time>2020-01-26T08:34:42.000Z</time>
      </trkpt>
      <trkpt lat="47.29136" lon="-2.39349">
        <ele>-22.799999237061</ele>
        <time>2020-01-26T08:34:43.000Z</time>
      </trkpt>
      <trkpt lat="47.29141" lon="-2.39344">
        <ele>-23.200000762939</ele>
        <time>2020-01-26T08:34:44.000Z</time>
      </trkpt>
      <trkpt lat="47.29147" lon="-2.3934">
        <ele>-23.60000038147</ele>
        <time>2020-01-26T08:34:45.000Z</time>
      </trkpt>
      <trkpt lat="47.29154" lon="-2.39335">
        <ele>-24</ele>
        <time>2020-01-26T08:34:46.000Z</time>
      </trkpt>
      <trkpt lat="47.2916" lon="-2.39331">
        <ele>-24.60000038147</ele>
        <time>2020-01-26T08:34:47.000Z</time>
      </trkpt>
      <trkpt lat="47.29166" lon="-2.39327">
        <ele>-25</ele>
        <time>2020-01-26T08:34:48.000Z</time>
      </trkpt>
      <trkpt lat="47.29172" lon="-2.39324">
        <ele>-25.39999961853</ele>
        <time>2020-01-26T08:34:49.000Z</time>
      </trkpt>
      <trkpt lat="47.29191" lon="-2.39318">
        <ele>-25.39999961853</ele>
        <time>2020-01-26T08:34:52.000Z</time>
      </trkpt>
      <trkpt lat="47.29215" lon="-2.39311">
        <ele>-25.799999237061</ele>
        <time>2020-01-26T08:34:56.000Z</time>
      </trkpt>
      <trkpt lat="47.2922" lon="-2.39308">
        <ele>-26.200000762939</ele>
        <time>2020-01-26T08:34:57.000Z</time>
      </trkpt>
      <trkpt lat="47.29226" lon="-2.39306">
        <ele>-26.60000038147</ele>
        <time>2020-01-26T08:34:58.000Z</time>
      </trkpt>
      <trkpt lat="47.29231" lon="-2.39303">
        <ele>-27</ele>
        <time>2020-01-26T08:34:59.000Z</time>
      </trkpt>
      <trkpt lat="47.29237" lon="-2.393">
        <ele>-27.39999961853</ele>
        <time>2020-01-26T08:35:00.000Z</time>
      </trkpt>
      <trkpt lat="47.29251" lon="-2.39291">
        <ele>-27.39999961853</ele>
        <time>2020-01-26T08:35:03.000Z</time>
      </trkpt>
      <trkpt lat="47.29256" lon="-2.39289">
        <ele>-27.39999961853</ele>
        <time>2020-01-26T08:35:04.000Z</time>
      </trkpt>
      <trkpt lat="47.29281" lon="-2.39286">
        <ele>-27.39999961853</ele>
        <time>2020-01-26T08:35:09.000Z</time>
      </trkpt>
      <trkpt lat="47.29286" lon="-2.39287">
        <ele>-27.39999961853</ele>
        <time>2020-01-26T08:35:10.000Z</time>
      </trkpt>
      <trkpt lat="47.29301" lon="-2.39296">
        <ele>-27.39999961853</ele>
        <time>2020-01-26T08:35:13.000Z</time>
      </trkpt>
      <trkpt lat="47.29327" lon="-2.39312">
        <ele>-27.39999961853</ele>
        <time>2020-01-26T08:35:19.000Z</time>
      </trkpt>
      <trkpt lat="47.29335" lon="-2.39317">
        <ele>-27.39999961853</ele>
        <time>2020-01-26T08:35:21.000Z</time>
      </trkpt>
      <trkpt lat="47.29347" lon="-2.39324">
        <ele>-27.39999961853</ele>
        <time>2020-01-26T08:35:24.000Z</time>
      </trkpt>
      <trkpt lat="47.29349" lon="-2.39329">
        <ele>-27</ele>
        <time>2020-01-26T08:35:25.000Z</time>
      </trkpt>
      <trkpt lat="47.29351" lon="-2.39335">
        <ele>-26.60000038147</ele>
        <time>2020-01-26T08:35:26.000Z</time>
      </trkpt>
      <trkpt lat="47.29351" lon="-2.39342">
        <ele>-26.200000762939</ele>
        <time>2020-01-26T08:35:27.000Z</time>
      </trkpt>
      <trkpt lat="47.29351" lon="-2.39349">
        <ele>-25.799999237061</ele>
        <time>2020-01-26T08:35:28.000Z</time>
      </trkpt>
      <trkpt lat="47.29351" lon="-2.39357">
        <ele>-25.39999961853</ele>
        <time>2020-01-26T08:35:29.000Z</time>
      </trkpt>
      <trkpt lat="47.29352" lon="-2.39385">
        <ele>-25.39999961853</ele>
        <time>2020-01-26T08:35:33.000Z</time>
      </trkpt>
      <trkpt lat="47.29357" lon="-2.3944">
        <ele>-25.39999961853</ele>
        <time>2020-01-26T08:35:41.000Z</time>
      </trkpt>
      <trkpt lat="47.29359" lon="-2.39447">
        <ele>-25.39999961853</ele>
        <time>2020-01-26T08:35:42.000Z</time>
      </trkpt>
      <trkpt lat="47.29366" lon="-2.39458">
        <ele>-25.39999961853</ele>
        <time>2020-01-26T08:35:44.000Z</time>
      </trkpt>
      <trkpt lat="47.29381" lon="-2.39462">
        <ele>-25.39999961853</ele>
        <time>2020-01-26T08:35:47.000Z</time>
      </trkpt>
      <trkpt lat="47.29391" lon="-2.39462">
        <ele>-25.39999961853</ele>
        <time>2020-01-26T08:35:49.000Z</time>
      </trkpt>
      <trkpt lat="47.29412" lon="-2.39464">
        <ele>-25.39999961853</ele>
        <time>2020-01-26T08:35:53.000Z</time>
      </trkpt>
      <trkpt lat="47.29447" lon="-2.39468">
        <ele>-25.39999961853</ele>
        <time>2020-01-26T08:35:59.000Z</time>
      </trkpt>
      <trkpt lat="47.29492" lon="-2.39469">
        <ele>-25.39999961853</ele>
        <time>2020-01-26T08:36:07.000Z</time>
      </trkpt>
      <trkpt lat="47.29503" lon="-2.39468">
        <ele>-25.39999961853</ele>
        <time>2020-01-26T08:36:09.000Z</time>
      </trkpt>
      <trkpt lat="47.29519" lon="-2.3947">
        <ele>-25.39999961853</ele>
        <time>2020-01-26T08:36:12.000Z</time>
      </trkpt>
      <trkpt lat="47.29547" lon="-2.39478">
        <ele>-25.39999961853</ele>
        <time>2020-01-26T08:36:18.000Z</time>
      </trkpt>
      <trkpt lat="47.29561" lon="-2.39489">
        <ele>-25.39999961853</ele>
        <time>2020-01-26T08:36:23.000Z</time>
      </trkpt>
      <trkpt lat="47.29557" lon="-2.39501">
        <ele>-25.39999961853</ele>
        <time>2020-01-26T08:36:26.000Z</time>
      </trkpt>
      <trkpt lat="47.29556" lon="-2.39513">
        <ele>-25.39999961853</ele>
        <time>2020-01-26T08:36:29.000Z</time>
      </trkpt>
      <trkpt lat="47.29556" lon="-2.39518">
        <ele>-25.39999961853</ele>
        <time>2020-01-26T08:36:30.000Z</time>
      </trkpt>
      <trkpt lat="47.29557" lon="-2.3953">
        <ele>-25.39999961853</ele>
        <time>2020-01-26T08:36:34.000Z</time>
      </trkpt>
      <trkpt lat="47.29557" lon="-2.39534">
        <ele>-25</ele>
        <time>2020-01-26T08:36:35.000Z</time>
      </trkpt>
      <trkpt lat="47.29557" lon="-2.39537">
        <ele>-24.60000038147</ele>
        <time>2020-01-26T08:36:36.000Z</time>
      </trkpt>
      <trkpt lat="47.29558" lon="-2.3954">
        <ele>-24</ele>
        <time>2020-01-26T08:36:37.000Z</time>
      </trkpt>
      <trkpt lat="47.2956" lon="-2.39542">
        <ele>-23.60000038147</ele>
        <time>2020-01-26T08:36:38.000Z</time>
      </trkpt>
      <trkpt lat="47.29563" lon="-2.39543">
        <ele>-23.200000762939</ele>
        <time>2020-01-26T08:36:39.000Z</time>
      </trkpt>
      <trkpt lat="47.29571" lon="-2.39543">
        <ele>-23.200000762939</ele>
        <time>2020-01-26T08:36:42.000Z</time>
      </trkpt>
      <trkpt lat="47.29573" lon="-2.39544">
        <ele>-23.200000762939</ele>
        <time>2020-01-26T08:36:43.000Z</time>
      </trkpt>
      <trkpt lat="47.29582" lon="-2.39546">
        <ele>-22.799999237061</ele>
        <time>2020-01-26T08:36:47.000Z</time>
      </trkpt>
      <trkpt lat="47.29583" lon="-2.39546">
        <ele>-22.39999961853</ele>
        <time>2020-01-26T08:36:48.000Z</time>
      </trkpt>
      <trkpt lat="47.29585" lon="-2.39546">
        <ele>-22</ele>
        <time>2020-01-26T08:36:49.000Z</time>
      </trkpt>
      <trkpt lat="47.29587" lon="-2.39546">
        <ele>-21.60000038147</ele>
        <time>2020-01-26T08:36:50.000Z</time>
      </trkpt>
      <trkpt lat="47.2959" lon="-2.39547">
        <ele>-21.200000762939</ele>
        <time>2020-01-26T08:36:51.000Z</time>
      </trkpt>
      <trkpt lat="47.29606" lon="-2.3955">
        <ele>-21.200000762939</ele>
        <time>2020-01-26T08:36:57.000Z</time>
      </trkpt>
      <trkpt lat="47.29632" lon="-2.39555">
        <ele>-21.200000762939</ele>
        <time>2020-01-26T08:37:02.000Z</time>
      </trkpt>
      <trkpt lat="47.29668" lon="-2.39561">
        <ele>-21.200000762939</ele>
        <time>2020-01-26T08:37:08.000Z</time>
      </trkpt>
      <trkpt lat="47.29673" lon="-2.39563">
        <ele>-21.200000762939</ele>
        <time>2020-01-26T08:37:09.000Z</time>
      </trkpt>
      <trkpt lat="47.29717" lon="-2.39572">
        <ele>-21.200000762939</ele>
        <time>2020-01-26T08:37:17.000Z</time>
      </trkpt>
      <trkpt lat="47.29745" lon="-2.39577">
        <ele>-21.200000762939</ele>
        <time>2020-01-26T08:37:23.000Z</time>
      </trkpt>
      <trkpt lat="47.29778" lon="-2.39584">
        <ele>-21.200000762939</ele>
        <time>2020-01-26T08:37:30.000Z</time>
      </trkpt>
      <trkpt lat="47.29815" lon="-2.39592">
        <ele>-21.200000762939</ele>
        <time>2020-01-26T08:37:38.000Z</time>
      </trkpt>
      <trkpt lat="47.2986" lon="-2.396">
        <ele>-21.200000762939</ele>
        <time>2020-01-26T08:37:47.000Z</time>
      </trkpt>
      <trkpt lat="47.29893" lon="-2.39606">
        <ele>-20.799999237061</ele>
        <time>2020-01-26T08:37:54.000Z</time>
      </trkpt>
      <trkpt lat="47.29898" lon="-2.39607">
        <ele>-20.200000762939</ele>
        <time>2020-01-26T08:37:55.000Z</time>
      </trkpt>
      <trkpt lat="47.29903" lon="-2.39608">
        <ele>-19.799999237061</ele>
        <time>2020-01-26T08:37:56.000Z</time>
      </trkpt>
      <trkpt lat="47.29907" lon="-2.39609">
        <ele>-19.39999961853</ele>
        <time>2020-01-26T08:37:57.000Z</time>
      </trkpt>
      <trkpt lat="47.29911" lon="-2.3961">
        <ele>-19</ele>
        <time>2020-01-26T08:37:58.000Z</time>
      </trkpt>
      <trkpt lat="47.29923" lon="-2.39612">
        <ele>-19</ele>
        <time>2020-01-26T08:38:01.000Z</time>
      </trkpt>
      <trkpt lat="47.29933" lon="-2.39616">
        <ele>-19</ele>
        <time>2020-01-26T08:38:05.000Z</time>
      </trkpt>
      <trkpt lat="47.29945" lon="-2.39617">
        <ele>-19</ele>
        <time>2020-01-26T08:38:10.000Z</time>
      </trkpt>
      <trkpt lat="47.29952" lon="-2.39622">
        <ele>-19</ele>
        <time>2020-01-26T08:38:13.000Z</time>
      </trkpt>
      <trkpt lat="47.29958" lon="-2.39635">
        <ele>-19</ele>
        <time>2020-01-26T08:38:16.000Z</time>
      </trkpt>
      <trkpt lat="47.2997" lon="-2.39637">
        <ele>-19</ele>
        <time>2020-01-26T08:38:19.000Z</time>
      </trkpt>
      <trkpt lat="47.29974" lon="-2.39636">
        <ele>-18.60000038147</ele>
        <time>2020-01-26T08:38:20.000Z</time>
      </trkpt>
      <trkpt lat="47.29978" lon="-2.39636">
        <ele>-18.200000762939</ele>
        <time>2020-01-26T08:38:21.000Z</time>
      </trkpt>
      <trkpt lat="47.29983" lon="-2.39635">
        <ele>-17.799999237061</ele>
        <time>2020-01-26T08:38:22.000Z</time>
      </trkpt>
      <trkpt lat="47.29987" lon="-2.39636">
        <ele>-17.200000762939</ele>
        <time>2020-01-26T08:38:23.000Z</time>
      </trkpt>
      <trkpt lat="47.29992" lon="-2.39636">
        <ele>-16.799999237061</ele>
        <time>2020-01-26T08:38:24.000Z</time>
      </trkpt>
      <trkpt lat="47.29997" lon="-2.39636">
        <ele>-16.799999237061</ele>
        <time>2020-01-26T08:38:25.000Z</time>
      </trkpt>
      <trkpt lat="47.30024" lon="-2.3964">
        <ele>-16.799999237061</ele>
        <time>2020-01-26T08:38:31.000Z</time>
      </trkpt>
      <trkpt lat="47.30029" lon="-2.39641">
        <ele>-16.799999237061</ele>
        <time>2020-01-26T08:38:32.000Z</time>
      </trkpt>
      <trkpt lat="47.30064" lon="-2.39652">
        <ele>-16.799999237061</ele>
        <time>2020-01-26T08:38:39.000Z</time>
      </trkpt>
      <trkpt lat="47.30093" lon="-2.39658">
        <ele>-16.799999237061</ele>
        <time>2020-01-26T08:38:45.000Z</time>
      </trkpt>
      <trkpt lat="47.30135" lon="-2.39668">
        <ele>-16.799999237061</ele>
        <time>2020-01-26T08:38:53.000Z</time>
      </trkpt>
      <trkpt lat="47.30178" lon="-2.39676">
        <ele>-16.799999237061</ele>
        <time>2020-01-26T08:39:01.000Z</time>
      </trkpt>
      <trkpt lat="47.30183" lon="-2.39678">
        <ele>-16.799999237061</ele>
        <time>2020-01-26T08:39:02.000Z</time>
      </trkpt>
      <trkpt lat="47.30191" lon="-2.39688">
        <ele>-16.799999237061</ele>
        <time>2020-01-26T08:39:04.000Z</time>
      </trkpt>
      <trkpt lat="47.30196" lon="-2.39702">
        <ele>-16.799999237061</ele>
        <time>2020-01-26T08:39:06.000Z</time>
      </trkpt>
      <trkpt lat="47.30201" lon="-2.39718">
        <ele>-16.799999237061</ele>
        <time>2020-01-26T08:39:08.000Z</time>
      </trkpt>
      <trkpt lat="47.30212" lon="-2.39756">
        <ele>-16.39999961853</ele>
        <time>2020-01-26T08:39:13.000Z</time>
      </trkpt>
      <trkpt lat="47.30214" lon="-2.39764">
        <ele>-16</ele>
        <time>2020-01-26T08:39:14.000Z</time>
      </trkpt>
      <trkpt lat="47.30217" lon="-2.39772">
        <ele>-15.60000038147</ele>
        <time>2020-01-26T08:39:15.000Z</time>
      </trkpt>
      <trkpt lat="47.30219" lon="-2.3978">
        <ele>-14.800000190735</ele>
        <time>2020-01-26T08:39:16.000Z</time>
      </trkpt>
      <trkpt lat="47.30221" lon="-2.39788">
        <ele>-14.800000190735</ele>
        <time>2020-01-26T08:39:17.000Z</time>
      </trkpt>
      <trkpt lat="47.30239" lon="-2.39845">
        <ele>-14.800000190735</ele>
        <time>2020-01-26T08:39:24.000Z</time>
      </trkpt>
      <trkpt lat="47.30264" lon="-2.39919">
        <ele>-14.800000190735</ele>
        <time>2020-01-26T08:39:33.000Z</time>
      </trkpt>
      <trkpt lat="47.30267" lon="-2.39926">
        <ele>-15.199999809265</ele>
        <time>2020-01-26T08:39:34.000Z</time>
      </trkpt>
      <trkpt lat="47.30269" lon="-2.39934">
        <ele>-15.60000038147</ele>
        <time>2020-01-26T08:39:35.000Z</time>
      </trkpt>
      <trkpt lat="47.30272" lon="-2.39942">
        <ele>-16</ele>
        <time>2020-01-26T08:39:36.000Z</time>
      </trkpt>
      <trkpt lat="47.30274" lon="-2.3995">
        <ele>-16.39999961853</ele>
        <time>2020-01-26T08:39:37.000Z</time>
      </trkpt>
      <trkpt lat="47.30276" lon="-2.39958">
        <ele>-16.799999237061</ele>
        <time>2020-01-26T08:39:38.000Z</time>
      </trkpt>
      <trkpt lat="47.3028" lon="-2.39974">
        <ele>-16.799999237061</ele>
        <time>2020-01-26T08:39:40.000Z</time>
      </trkpt>
      <trkpt lat="47.30299" lon="-2.40038">
        <ele>-16.799999237061</ele>
        <time>2020-01-26T08:39:48.000Z</time>
      </trkpt>
      <trkpt lat="47.30317" lon="-2.40091">
        <ele>-16.799999237061</ele>
        <time>2020-01-26T08:39:55.000Z</time>
      </trkpt>
      <trkpt lat="47.30333" lon="-2.40153">
        <ele>-16.799999237061</ele>
        <time>2020-01-26T08:40:03.000Z</time>
      </trkpt>
      <trkpt lat="47.30342" lon="-2.40181">
        <ele>-16.799999237061</ele>
        <time>2020-01-26T08:40:07.000Z</time>
      </trkpt>
      <trkpt lat="47.3035" lon="-2.40192">
        <ele>-16.799999237061</ele>
        <time>2020-01-26T08:40:09.000Z</time>
      </trkpt>
      <trkpt lat="47.30362" lon="-2.40207">
        <ele>-16.799999237061</ele>
        <time>2020-01-26T08:40:12.000Z</time>
      </trkpt>
      <trkpt lat="47.30368" lon="-2.40221">
        <ele>-16.799999237061</ele>
        <time>2020-01-26T08:40:14.000Z</time>
      </trkpt>
      <trkpt lat="47.30372" lon="-2.40235">
        <ele>-16.799999237061</ele>
        <time>2020-01-26T08:40:16.000Z</time>
      </trkpt>
      <trkpt lat="47.3039" lon="-2.40286">
        <ele>-16.799999237061</ele>
        <time>2020-01-26T08:40:23.000Z</time>
      </trkpt>
      <trkpt lat="47.30406" lon="-2.4033">
        <ele>-16.799999237061</ele>
        <time>2020-01-26T08:40:29.000Z</time>
      </trkpt>
      <trkpt lat="47.30432" lon="-2.40396">
        <ele>-16.799999237061</ele>
        <time>2020-01-26T08:40:37.000Z</time>
      </trkpt>
      <trkpt lat="47.30444" lon="-2.40422">
        <ele>-17.200000762939</ele>
        <time>2020-01-26T08:40:40.000Z</time>
      </trkpt>
      <trkpt lat="47.30448" lon="-2.40431">
        <ele>-17.60000038147</ele>
        <time>2020-01-26T08:40:41.000Z</time>
      </trkpt>
      <trkpt lat="47.30452" lon="-2.40441">
        <ele>-18</ele>
        <time>2020-01-26T08:40:42.000Z</time>
      </trkpt>
      <trkpt lat="47.30455" lon="-2.4045">
        <ele>-18.39999961853</ele>
        <time>2020-01-26T08:40:43.000Z</time>
      </trkpt>
      <trkpt lat="47.30458" lon="-2.40459">
        <ele>-18.799999237061</ele>
        <time>2020-01-26T08:40:44.000Z</time>
      </trkpt>
      <trkpt lat="47.30475" lon="-2.40504">
        <ele>-18.799999237061</ele>
        <time>2020-01-26T08:40:49.000Z</time>
      </trkpt>
      <trkpt lat="47.30482" lon="-2.40523">
        <ele>-19.200000762939</ele>
        <time>2020-01-26T08:40:51.000Z</time>
      </trkpt>
      <trkpt lat="47.30486" lon="-2.40532">
        <ele>-19.799999237061</ele>
        <time>2020-01-26T08:40:52.000Z</time>
      </trkpt>
      <trkpt lat="47.30489" lon="-2.4054">
        <ele>-20.200000762939</ele>
        <time>2020-01-26T08:40:53.000Z</time>
      </trkpt>
      <trkpt lat="47.30493" lon="-2.40548">
        <ele>-20.60000038147</ele>
        <time>2020-01-26T08:40:54.000Z</time>
      </trkpt>
      <trkpt lat="47.30496" lon="-2.40556">
        <ele>-21</ele>
        <time>2020-01-26T08:40:55.000Z</time>
      </trkpt>
      <trkpt lat="47.30512" lon="-2.406">
        <ele>-21</ele>
        <time>2020-01-26T08:41:00.000Z</time>
      </trkpt>
      <trkpt lat="47.30532" lon="-2.40648">
        <ele>-21</ele>
        <time>2020-01-26T08:41:06.000Z</time>
      </trkpt>
      <trkpt lat="47.30557" lon="-2.40713">
        <ele>-21</ele>
        <time>2020-01-26T08:41:14.000Z</time>
      </trkpt>
      <trkpt lat="47.30582" lon="-2.40775">
        <ele>-21</ele>
        <time>2020-01-26T08:41:22.000Z</time>
      </trkpt>
      <trkpt lat="47.30591" lon="-2.40795">
        <ele>-21</ele>
        <time>2020-01-26T08:41:25.000Z</time>
      </trkpt>
      <trkpt lat="47.30599" lon="-2.40815">
        <ele>-21</ele>
        <time>2020-01-26T08:41:28.000Z</time>
      </trkpt>
      <trkpt lat="47.30602" lon="-2.40829">
        <ele>-21</ele>
        <time>2020-01-26T08:41:31.000Z</time>
      </trkpt>
      <trkpt lat="47.30601" lon="-2.40832">
        <ele>-21</ele>
        <time>2020-01-26T08:41:32.000Z</time>
      </trkpt>
      <trkpt lat="47.30596" lon="-2.40836">
        <ele>-21</ele>
        <time>2020-01-26T08:41:35.000Z</time>
      </trkpt>
      <trkpt lat="47.30593" lon="-2.40847">
        <ele>-21</ele>
        <time>2020-01-26T08:41:39.000Z</time>
      </trkpt>
      <trkpt lat="47.30599" lon="-2.40856">
        <ele>-21</ele>
        <time>2020-01-26T08:41:42.000Z</time>
      </trkpt>
      <trkpt lat="47.30602" lon="-2.40859">
        <ele>-21</ele>
        <time>2020-01-26T08:41:43.000Z</time>
      </trkpt>
      <trkpt lat="47.30611" lon="-2.4087">
        <ele>-21</ele>
        <time>2020-01-26T08:41:46.000Z</time>
      </trkpt>
      <trkpt lat="47.30614" lon="-2.40875">
        <ele>-21</ele>
        <time>2020-01-26T08:41:47.000Z</time>
      </trkpt>
      <trkpt lat="47.30631" lon="-2.40907">
        <ele>-21</ele>
        <time>2020-01-26T08:41:52.000Z</time>
      </trkpt>
      <trkpt lat="47.30635" lon="-2.40913">
        <ele>-21</ele>
        <time>2020-01-26T08:41:53.000Z</time>
      </trkpt>
      <trkpt lat="47.30656" lon="-2.40946">
        <ele>-21</ele>
        <time>2020-01-26T08:41:58.000Z</time>
      </trkpt>
      <trkpt lat="47.3069" lon="-2.41001">
        <ele>-21</ele>
        <time>2020-01-26T08:42:06.000Z</time>
      </trkpt>
      <trkpt lat="47.30714" lon="-2.41041">
        <ele>-21</ele>
        <time>2020-01-26T08:42:12.000Z</time>
      </trkpt>
      <trkpt lat="47.30732" lon="-2.41088">
        <ele>-21</ele>
        <time>2020-01-26T08:42:18.000Z</time>
      </trkpt>
      <trkpt lat="47.30742" lon="-2.41138">
        <ele>-21</ele>
        <time>2020-01-26T08:42:24.000Z</time>
      </trkpt>
      <trkpt lat="47.30746" lon="-2.41155">
        <ele>-21</ele>
        <time>2020-01-26T08:42:26.000Z</time>
      </trkpt>
      <trkpt lat="47.30753" lon="-2.41171">
        <ele>-21</ele>
        <time>2020-01-26T08:42:28.000Z</time>
      </trkpt>
      <trkpt lat="47.30765" lon="-2.41194">
        <ele>-21.60000038147</ele>
        <time>2020-01-26T08:42:31.000Z</time>
      </trkpt>
      <trkpt lat="47.30769" lon="-2.41201">
        <ele>-22</ele>
        <time>2020-01-26T08:42:32.000Z</time>
      </trkpt>
      <trkpt lat="47.30772" lon="-2.41209">
        <ele>-22.39999961853</ele>
        <time>2020-01-26T08:42:33.000Z</time>
      </trkpt>
      <trkpt lat="47.30776" lon="-2.41216">
        <ele>-23.200000762939</ele>
        <time>2020-01-26T08:42:34.000Z</time>
      </trkpt>
      <trkpt lat="47.30782" lon="-2.41231">
        <ele>-23.200000762939</ele>
        <time>2020-01-26T08:42:36.000Z</time>
      </trkpt>
      <trkpt lat="47.30802" lon="-2.41277">
        <ele>-23.200000762939</ele>
        <time>2020-01-26T08:42:42.000Z</time>
      </trkpt>
      <trkpt lat="47.30811" lon="-2.4129">
        <ele>-23.200000762939</ele>
        <time>2020-01-26T08:42:44.000Z</time>
      </trkpt>
      <trkpt lat="47.3082" lon="-2.41301">
        <ele>-23.200000762939</ele>
        <time>2020-01-26T08:42:46.000Z</time>
      </trkpt>
      <trkpt lat="47.30853" lon="-2.41336">
        <ele>-23.200000762939</ele>
        <time>2020-01-26T08:42:53.000Z</time>
      </trkpt>
      <trkpt lat="47.3089" lon="-2.41378">
        <ele>-23.200000762939</ele>
        <time>2020-01-26T08:43:01.000Z</time>
      </trkpt>
      <trkpt lat="47.30899" lon="-2.4139">
        <ele>-23.200000762939</ele>
        <time>2020-01-26T08:43:03.000Z</time>
      </trkpt>
      <trkpt lat="47.30909" lon="-2.41412">
        <ele>-23.200000762939</ele>
        <time>2020-01-26T08:43:06.000Z</time>
      </trkpt>
      <trkpt lat="47.30918" lon="-2.41445">
        <ele>-23.200000762939</ele>
        <time>2020-01-26T08:43:10.000Z</time>
      </trkpt>
      <trkpt lat="47.30919" lon="-2.41453">
        <ele>-23.200000762939</ele>
        <time>2020-01-26T08:43:11.000Z</time>
      </trkpt>
      <trkpt lat="47.30921" lon="-2.41462">
        <ele>-22.799999237061</ele>
        <time>2020-01-26T08:43:12.000Z</time>
      </trkpt>
      <trkpt lat="47.30923" lon="-2.4147">
        <ele>-22.39999961853</ele>
        <time>2020-01-26T08:43:13.000Z</time>
      </trkpt>
      <trkpt lat="47.30924" lon="-2.41479">
        <ele>-22</ele>
        <time>2020-01-26T08:43:14.000Z</time>
      </trkpt>
      <trkpt lat="47.30926" lon="-2.41488">
        <ele>-21.39999961853</ele>
        <time>2020-01-26T08:43:15.000Z</time>
      </trkpt>
      <trkpt lat="47.30927" lon="-2.41497">
        <ele>-21</ele>
        <time>2020-01-26T08:43:16.000Z</time>
      </trkpt>
      <trkpt lat="47.30929" lon="-2.41506">
        <ele>-21</ele>
        <time>2020-01-26T08:43:17.000Z</time>
      </trkpt>
      <trkpt lat="47.30938" lon="-2.4156">
        <ele>-21</ele>
        <time>2020-01-26T08:43:23.000Z</time>
      </trkpt>
      <trkpt lat="47.30949" lon="-2.4164">
        <ele>-21</ele>
        <time>2020-01-26T08:43:32.000Z</time>
      </trkpt>
      <trkpt lat="47.30955" lon="-2.41665">
        <ele>-21</ele>
        <time>2020-01-26T08:43:35.000Z</time>
      </trkpt>
      <trkpt lat="47.3096" lon="-2.41681">
        <ele>-21</ele>
        <time>2020-01-26T08:43:37.000Z</time>
      </trkpt>
      <trkpt lat="47.30983" lon="-2.41723">
        <ele>-21</ele>
        <time>2020-01-26T08:43:43.000Z</time>
      </trkpt>
      <trkpt lat="47.31011" lon="-2.41766">
        <ele>-21</ele>
        <time>2020-01-26T08:43:50.000Z</time>
      </trkpt>
      <trkpt lat="47.31041" lon="-2.41821">
        <ele>-21</ele>
        <time>2020-01-26T08:43:58.000Z</time>
      </trkpt>
      <trkpt lat="47.31053" lon="-2.41854">
        <ele>-21.39999961853</ele>
        <time>2020-01-26T08:44:02.000Z</time>
      </trkpt>
      <trkpt lat="47.31056" lon="-2.41862">
        <ele>-21.799999237061</ele>
        <time>2020-01-26T08:44:03.000Z</time>
      </trkpt>
      <trkpt lat="47.31058" lon="-2.41871">
        <ele>-22.200000762939</ele>
        <time>2020-01-26T08:44:04.000Z</time>
      </trkpt>
      <trkpt lat="47.31061" lon="-2.41879">
        <ele>-22.60000038147</ele>
        <time>2020-01-26T08:44:05.000Z</time>
      </trkpt>
      <trkpt lat="47.31063" lon="-2.41888">
        <ele>-23.200000762939</ele>
        <time>2020-01-26T08:44:06.000Z</time>
      </trkpt>
      <trkpt lat="47.31073" lon="-2.4192">
        <ele>-23.200000762939</ele>
        <time>2020-01-26T08:44:10.000Z</time>
      </trkpt>
      <trkpt lat="47.31075" lon="-2.41941">
        <ele>-23.200000762939</ele>
        <time>2020-01-26T08:44:14.000Z</time>
      </trkpt>
      <trkpt lat="47.31066" lon="-2.41956">
        <ele>-23.200000762939</ele>
        <time>2020-01-26T08:44:18.000Z</time>
      </trkpt>
      <trkpt lat="47.31062" lon="-2.4196">
        <ele>-23.200000762939</ele>
        <time>2020-01-26T08:44:19.000Z</time>
      </trkpt>
      <trkpt lat="47.31058" lon="-2.41963">
        <ele>-23.60000038147</ele>
        <time>2020-01-26T08:44:20.000Z</time>
      </trkpt>
      <trkpt lat="47.31054" lon="-2.41968">
        <ele>-24</ele>
        <time>2020-01-26T08:44:21.000Z</time>
      </trkpt>
      <trkpt lat="47.3105" lon="-2.41972">
        <ele>-24.39999961853</ele>
        <time>2020-01-26T08:44:22.000Z</time>
      </trkpt>
      <trkpt lat="47.31046" lon="-2.41977">
        <ele>-24.799999237061</ele>
        <time>2020-01-26T08:44:23.000Z</time>
      </trkpt>
      <trkpt lat="47.31041" lon="-2.41982">
        <ele>-25.200000762939</ele>
        <time>2020-01-26T08:44:24.000Z</time>
      </trkpt>
      <trkpt lat="47.31037" lon="-2.41988">
        <ele>-25.200000762939</ele>
        <time>2020-01-26T08:44:25.000Z</time>
      </trkpt>
      <trkpt lat="47.3101" lon="-2.4202">
        <ele>-25.200000762939</ele>
        <time>2020-01-26T08:44:31.000Z</time>
      </trkpt>
      <trkpt lat="47.30982" lon="-2.42049">
        <ele>-25.200000762939</ele>
        <time>2020-01-26T08:44:37.000Z</time>
      </trkpt>
      <trkpt lat="47.30976" lon="-2.42054">
        <ele>-25.200000762939</ele>
        <time>2020-01-26T08:44:38.000Z</time>
      </trkpt>
      <trkpt lat="47.30951" lon="-2.42076">
        <ele>-25.200000762939</ele>
        <time>2020-01-26T08:44:43.000Z</time>
      </trkpt>
      <trkpt lat="47.30947" lon="-2.42082">
        <ele>-25.200000762939</ele>
        <time>2020-01-26T08:44:44.000Z</time>
      </trkpt>
      <trkpt lat="47.30922" lon="-2.42109">
        <ele>-25.200000762939</ele>
        <time>2020-01-26T08:44:49.000Z</time>
      </trkpt>
      <trkpt lat="47.30917" lon="-2.42114">
        <ele>-25.60000038147</ele>
        <time>2020-01-26T08:44:50.000Z</time>
      </trkpt>
      <trkpt lat="47.30912" lon="-2.42119">
        <ele>-26</ele>
        <time>2020-01-26T08:44:51.000Z</time>
      </trkpt>
      <trkpt lat="47.30907" lon="-2.42124">
        <ele>-26.39999961853</ele>
        <time>2020-01-26T08:44:52.000Z</time>
      </trkpt>
      <trkpt lat="47.30902" lon="-2.4213">
        <ele>-26.799999237061</ele>
        <time>2020-01-26T08:44:53.000Z</time>
      </trkpt>
      <trkpt lat="47.30897" lon="-2.42136">
        <ele>-27.200000762939</ele>
        <time>2020-01-26T08:44:54.000Z</time>
      </trkpt>
      <trkpt lat="47.30888" lon="-2.42149">
        <ele>-27.200000762939</ele>
        <time>2020-01-26T08:44:56.000Z</time>
      </trkpt>
      <trkpt lat="47.30871" lon="-2.42174">
        <ele>-27.200000762939</ele>
        <time>2020-01-26T08:45:00.000Z</time>
      </trkpt>
      <trkpt lat="47.30867" lon="-2.42185">
        <ele>-27.200000762939</ele>
        <time>2020-01-26T08:45:02.000Z</time>
      </trkpt>
      <trkpt lat="47.30866" lon="-2.42189">
        <ele>-28.200000762939</ele>
        <time>2020-01-26T08:45:03.000Z</time>
      </trkpt>
      <trkpt lat="47.30866" lon="-2.42193">
        <ele>-28.60000038147</ele>
        <time>2020-01-26T08:45:04.000Z</time>
      </trkpt>
      <trkpt lat="47.30868" lon="-2.42197">
        <ele>-29</ele>
        <time>2020-01-26T08:45:05.000Z</time>
      </trkpt>
      <trkpt lat="47.3087" lon="-2.42201">
        <ele>-29.39999961853</ele>
        <time>2020-01-26T08:45:06.000Z</time>
      </trkpt>
      <trkpt lat="47.30879" lon="-2.42213">
        <ele>-29.39999961853</ele>
        <time>2020-01-26T08:45:09.000Z</time>
      </trkpt>
      <trkpt lat="47.30885" lon="-2.42223">
        <ele>-29.39999961853</ele>
        <time>2020-01-26T08:45:11.000Z</time>
      </trkpt>
      <trkpt lat="47.30896" lon="-2.42238">
        <ele>-29.39999961853</ele>
        <time>2020-01-26T08:45:14.000Z</time>
      </trkpt>
      <trkpt lat="47.30906" lon="-2.42247">
        <ele>-29.39999961853</ele>
        <time>2020-01-26T08:45:16.000Z</time>
      </trkpt>
      <trkpt lat="47.30921" lon="-2.42258">
        <ele>-29.39999961853</ele>
        <time>2020-01-26T08:45:19.000Z</time>
      </trkpt>
      <trkpt lat="47.30936" lon="-2.42272">
        <ele>-29.39999961853</ele>
        <time>2020-01-26T08:45:22.000Z</time>
      </trkpt>
      <trkpt lat="47.30944" lon="-2.42284">
        <ele>-29.39999961853</ele>
        <time>2020-01-26T08:45:24.000Z</time>
      </trkpt>
      <trkpt lat="47.3095" lon="-2.42307">
        <ele>-29.39999961853</ele>
        <time>2020-01-26T08:45:27.000Z</time>
      </trkpt>
      <trkpt lat="47.30952" lon="-2.42315">
        <ele>-29.39999961853</ele>
        <time>2020-01-26T08:45:28.000Z</time>
      </trkpt>
      <trkpt lat="47.30954" lon="-2.42324">
        <ele>-29.39999961853</ele>
        <time>2020-01-26T08:45:29.000Z</time>
      </trkpt>
      <trkpt lat="47.30967" lon="-2.4239">
        <ele>-29.39999961853</ele>
        <time>2020-01-26T08:45:37.000Z</time>
      </trkpt>
      <trkpt lat="47.30982" lon="-2.42447">
        <ele>-29.39999961853</ele>
        <time>2020-01-26T08:45:45.000Z</time>
      </trkpt>
      <trkpt lat="47.30994" lon="-2.42496">
        <ele>-29.39999961853</ele>
        <time>2020-01-26T08:45:53.000Z</time>
      </trkpt>
      <trkpt lat="47.30997" lon="-2.42509">
        <ele>-29.39999961853</ele>
        <time>2020-01-26T08:45:55.000Z</time>
      </trkpt>
      <trkpt lat="47.31005" lon="-2.4254">
        <ele>-29.39999961853</ele>
        <time>2020-01-26T08:46:00.000Z</time>
      </trkpt>
      <trkpt lat="47.31018" lon="-2.42593">
        <ele>-29.39999961853</ele>
        <time>2020-01-26T08:46:08.000Z</time>
      </trkpt>
      <trkpt lat="47.3103" lon="-2.4264">
        <ele>-29.39999961853</ele>
        <time>2020-01-26T08:46:15.000Z</time>
      </trkpt>
      <trkpt lat="47.31044" lon="-2.42697">
        <ele>-29.39999961853</ele>
        <time>2020-01-26T08:46:23.000Z</time>
      </trkpt>
      <trkpt lat="47.31048" lon="-2.42725">
        <ele>-29.39999961853</ele>
        <time>2020-01-26T08:46:27.000Z</time>
      </trkpt>
      <trkpt lat="47.31047" lon="-2.42732">
        <ele>-29.39999961853</ele>
        <time>2020-01-26T08:46:28.000Z</time>
      </trkpt>
      <trkpt lat="47.31035" lon="-2.42747">
        <ele>-29.39999961853</ele>
        <time>2020-01-26T08:46:31.000Z</time>
      </trkpt>
      <trkpt lat="47.31019" lon="-2.42754">
        <ele>-29.39999961853</ele>
        <time>2020-01-26T08:46:34.000Z</time>
      </trkpt>
      <trkpt lat="47.31013" lon="-2.42755">
        <ele>-29.39999961853</ele>
        <time>2020-01-26T08:46:35.000Z</time>
      </trkpt>
      <trkpt lat="47.31008" lon="-2.42756">
        <ele>-29</ele>
        <time>2020-01-26T08:46:36.000Z</time>
      </trkpt>
      <trkpt lat="47.31002" lon="-2.42757">
        <ele>-28.60000038147</ele>
        <time>2020-01-26T08:46:37.000Z</time>
      </trkpt>
      <trkpt lat="47.30997" lon="-2.42757">
        <ele>-28.200000762939</ele>
        <time>2020-01-26T08:46:38.000Z</time>
      </trkpt>
      <trkpt lat="47.30991" lon="-2.42758">
        <ele>-27.799999237061</ele>
        <time>2020-01-26T08:46:39.000Z</time>
      </trkpt>
      <trkpt lat="47.30985" lon="-2.42759">
        <ele>-27.39999961853</ele>
        <time>2020-01-26T08:46:40.000Z</time>
      </trkpt>
      <trkpt lat="47.30962" lon="-2.42762">
        <ele>-27.39999961853</ele>
        <time>2020-01-26T08:46:44.000Z</time>
      </trkpt>
      <trkpt lat="47.30908" lon="-2.4277">
        <ele>-27.39999961853</ele>
        <time>2020-01-26T08:46:53.000Z</time>
      </trkpt>
      <trkpt lat="47.30858" lon="-2.42776">
        <ele>-27.39999961853</ele>
        <time>2020-01-26T08:47:01.000Z</time>
      </trkpt>
      <trkpt lat="47.30821" lon="-2.42781">
        <ele>-27.39999961853</ele>
        <time>2020-01-26T08:47:07.000Z</time>
      </trkpt>
      <trkpt lat="47.30796" lon="-2.42784">
        <ele>-27.799999237061</ele>
        <time>2020-01-26T08:47:11.000Z</time>
      </trkpt>
      <trkpt lat="47.3079" lon="-2.42785">
        <ele>-28.200000762939</ele>
        <time>2020-01-26T08:47:12.000Z</time>
      </trkpt>
      <trkpt lat="47.30785" lon="-2.42786">
        <ele>-28.799999237061</ele>
        <time>2020-01-26T08:47:13.000Z</time>
      </trkpt>
      <trkpt lat="47.30779" lon="-2.42787">
        <ele>-29.200000762939</ele>
        <time>2020-01-26T08:47:14.000Z</time>
      </trkpt>
      <trkpt lat="47.30773" lon="-2.42787">
        <ele>-29.60000038147</ele>
        <time>2020-01-26T08:47:15.000Z</time>
      </trkpt>
      <trkpt lat="47.30737" lon="-2.42795">
        <ele>-29.60000038147</ele>
        <time>2020-01-26T08:47:21.000Z</time>
      </trkpt>
      <trkpt lat="47.30732" lon="-2.42797">
        <ele>-29.60000038147</ele>
        <time>2020-01-26T08:47:22.000Z</time>
      </trkpt>
      <trkpt lat="47.30712" lon="-2.42814">
        <ele>-29.60000038147</ele>
        <time>2020-01-26T08:47:26.000Z</time>
      </trkpt>
      <trkpt lat="47.30692" lon="-2.4283">
        <ele>-29.60000038147</ele>
        <time>2020-01-26T08:47:30.000Z</time>
      </trkpt>
      <trkpt lat="47.30682" lon="-2.42839">
        <ele>-29.60000038147</ele>
        <time>2020-01-26T08:47:32.000Z</time>
      </trkpt>
      <trkpt lat="47.30678" lon="-2.42843">
        <ele>-29.60000038147</ele>
        <time>2020-01-26T08:47:33.000Z</time>
      </trkpt>
      <trkpt lat="47.30638" lon="-2.42876">
        <ele>-29.60000038147</ele>
        <time>2020-01-26T08:47:42.000Z</time>
      </trkpt>
      <trkpt lat="47.30608" lon="-2.42901">
        <ele>-29.60000038147</ele>
        <time>2020-01-26T08:47:48.000Z</time>
      </trkpt>
      <trkpt lat="47.30559" lon="-2.42941">
        <ele>-29.60000038147</ele>
        <time>2020-01-26T08:47:58.000Z</time>
      </trkpt>
      <trkpt lat="47.3054" lon="-2.42958">
        <ele>-29.60000038147</ele>
        <time>2020-01-26T08:48:02.000Z</time>
      </trkpt>
      <trkpt lat="47.3053" lon="-2.42966">
        <ele>-29.60000038147</ele>
        <time>2020-01-26T08:48:04.000Z</time>
      </trkpt>
      <trkpt lat="47.30492" lon="-2.42998">
        <ele>-29.60000038147</ele>
        <time>2020-01-26T08:48:12.000Z</time>
      </trkpt>
      <trkpt lat="47.3046" lon="-2.43025">
        <ele>-29.60000038147</ele>
        <time>2020-01-26T08:48:19.000Z</time>
      </trkpt>
      <trkpt lat="47.30431" lon="-2.43046">
        <ele>-29.60000038147</ele>
        <time>2020-01-26T08:48:25.000Z</time>
      </trkpt>
      <trkpt lat="47.30415" lon="-2.43055">
        <ele>-29.60000038147</ele>
        <time>2020-01-26T08:48:28.000Z</time>
      </trkpt>
      <trkpt lat="47.30398" lon="-2.4306">
        <ele>-29.60000038147</ele>
        <time>2020-01-26T08:48:31.000Z</time>
      </trkpt>
      <trkpt lat="47.30381" lon="-2.43064">
        <ele>-29.60000038147</ele>
        <time>2020-01-26T08:48:34.000Z</time>
      </trkpt>
      <trkpt lat="47.30365" lon="-2.43066">
        <ele>-29.60000038147</ele>
        <time>2020-01-26T08:48:37.000Z</time>
      </trkpt>
      <trkpt lat="47.30342" lon="-2.43071">
        <ele>-29.60000038147</ele>
        <time>2020-01-26T08:48:41.000Z</time>
      </trkpt>
      <trkpt lat="47.30321" lon="-2.43075">
        <ele>-29.60000038147</ele>
        <time>2020-01-26T08:48:45.000Z</time>
      </trkpt>
      <trkpt lat="47.30311" lon="-2.43075">
        <ele>-29.60000038147</ele>
        <time>2020-01-26T08:48:47.000Z</time>
      </trkpt>
      <trkpt lat="47.30297" lon="-2.43076">
        <ele>-30</ele>
        <time>2020-01-26T08:48:50.000Z</time>
      </trkpt>
      <trkpt lat="47.30292" lon="-2.43076">
        <ele>-30.39999961853</ele>
        <time>2020-01-26T08:48:51.000Z</time>
      </trkpt>
      <trkpt lat="47.30288" lon="-2.43076">
        <ele>-30.799999237061</ele>
        <time>2020-01-26T08:48:52.000Z</time>
      </trkpt>
      <trkpt lat="47.30284" lon="-2.43075">
        <ele>-31.200000762939</ele>
        <time>2020-01-26T08:48:53.000Z</time>
      </trkpt>
      <trkpt lat="47.30281" lon="-2.43074">
        <ele>-31.60000038147</ele>
        <time>2020-01-26T08:48:54.000Z</time>
      </trkpt>
      <trkpt lat="47.30265" lon="-2.43069">
        <ele>-31.60000038147</ele>
        <time>2020-01-26T08:48:58.000Z</time>
      </trkpt>
      <trkpt lat="47.30255" lon="-2.43068">
        <ele>-31.60000038147</ele>
        <time>2020-01-26T08:49:00.000Z</time>
      </trkpt>
      <trkpt lat="47.30225" lon="-2.43071">
        <ele>-31.60000038147</ele>
        <time>2020-01-26T08:49:06.000Z</time>
      </trkpt>
      <trkpt lat="47.30205" lon="-2.4306">
        <ele>-31.60000038147</ele>
        <time>2020-01-26T08:49:10.000Z</time>
      </trkpt>
      <trkpt lat="47.30185" lon="-2.43033">
        <ele>-31.60000038147</ele>
        <time>2020-01-26T08:49:15.000Z</time>
      </trkpt>
      <trkpt lat="47.30162" lon="-2.42993">
        <ele>-31.60000038147</ele>
        <time>2020-01-26T08:49:22.000Z</time>
      </trkpt>
      <trkpt lat="47.30148" lon="-2.42995">
        <ele>-31.60000038147</ele>
        <time>2020-01-26T08:49:25.000Z</time>
      </trkpt>
      <trkpt lat="47.30143" lon="-2.42997">
        <ele>-31.60000038147</ele>
        <time>2020-01-26T08:49:26.000Z</time>
      </trkpt>
      <trkpt lat="47.30112" lon="-2.43011">
        <ele>-31.60000038147</ele>
        <time>2020-01-26T08:49:32.000Z</time>
      </trkpt>
      <trkpt lat="47.30079" lon="-2.43025">
        <ele>-31.60000038147</ele>
        <time>2020-01-26T08:49:38.000Z</time>
      </trkpt>
      <trkpt lat="47.30074" lon="-2.43027">
        <ele>-31.60000038147</ele>
        <time>2020-01-26T08:49:39.000Z</time>
      </trkpt>
      <trkpt lat="47.30043" lon="-2.43038">
        <ele>-31.60000038147</ele>
        <time>2020-01-26T08:49:45.000Z</time>
      </trkpt>
      <trkpt lat="47.30007" lon="-2.43047">
        <ele>-31.60000038147</ele>
        <time>2020-01-26T08:49:52.000Z</time>
      </trkpt>
      <trkpt lat="47.29976" lon="-2.43058">
        <ele>-31.60000038147</ele>
        <time>2020-01-26T08:49:58.000Z</time>
      </trkpt>
      <trkpt lat="47.29966" lon="-2.43062">
        <ele>-31.60000038147</ele>
        <time>2020-01-26T08:50:00.000Z</time>
      </trkpt>
      <trkpt lat="47.29951" lon="-2.43067">
        <ele>-31.60000038147</ele>
        <time>2020-01-26T08:50:03.000Z</time>
      </trkpt>
      <trkpt lat="47.29945" lon="-2.43068">
        <ele>-31.60000038147</ele>
        <time>2020-01-26T08:50:04.000Z</time>
      </trkpt>
      <trkpt lat="47.2993" lon="-2.43073">
        <ele>-31.60000038147</ele>
        <time>2020-01-26T08:50:07.000Z</time>
      </trkpt>
      <trkpt lat="47.29919" lon="-2.43078">
        <ele>-31.60000038147</ele>
        <time>2020-01-26T08:50:09.000Z</time>
      </trkpt>
      <trkpt lat="47.29914" lon="-2.43081">
        <ele>-31.60000038147</ele>
        <time>2020-01-26T08:50:10.000Z</time>
      </trkpt>
      <trkpt lat="47.29895" lon="-2.43094">
        <ele>-31.60000038147</ele>
        <time>2020-01-26T08:50:14.000Z</time>
      </trkpt>
      <trkpt lat="47.29881" lon="-2.431">
        <ele>-31.60000038147</ele>
        <time>2020-01-26T08:50:17.000Z</time>
      </trkpt>
      <trkpt lat="47.29871" lon="-2.43103">
        <ele>-31.60000038147</ele>
        <time>2020-01-26T08:50:19.000Z</time>
      </trkpt>
      <trkpt lat="47.29862" lon="-2.43107">
        <ele>-31.60000038147</ele>
        <time>2020-01-26T08:50:21.000Z</time>
      </trkpt>
      <trkpt lat="47.29856" lon="-2.43117">
        <ele>-31.60000038147</ele>
        <time>2020-01-26T08:50:23.000Z</time>
      </trkpt>
      <trkpt lat="47.29854" lon="-2.43137">
        <ele>-31.60000038147</ele>
        <time>2020-01-26T08:50:26.000Z</time>
      </trkpt>
      <trkpt lat="47.29853" lon="-2.43145">
        <ele>-31.60000038147</ele>
        <time>2020-01-26T08:50:27.000Z</time>
      </trkpt>
      <trkpt lat="47.29846" lon="-2.43155">
        <ele>-31.60000038147</ele>
        <time>2020-01-26T08:50:29.000Z</time>
      </trkpt>
      <trkpt lat="47.29831" lon="-2.43162">
        <ele>-31.60000038147</ele>
        <time>2020-01-26T08:50:32.000Z</time>
      </trkpt>
      <trkpt lat="47.29811" lon="-2.4317">
        <ele>-31.60000038147</ele>
        <time>2020-01-26T08:50:37.000Z</time>
      </trkpt>
      <trkpt lat="47.29803" lon="-2.43181">
        <ele>-31.60000038147</ele>
        <time>2020-01-26T08:50:41.000Z</time>
      </trkpt>
      <trkpt lat="47.29797" lon="-2.43187">
        <ele>-31.60000038147</ele>
        <time>2020-01-26T08:50:43.000Z</time>
      </trkpt>
      <trkpt lat="47.2979" lon="-2.43189">
        <ele>-31.60000038147</ele>
        <time>2020-01-26T08:50:45.000Z</time>
      </trkpt>
      <trkpt lat="47.2976" lon="-2.43195">
        <ele>-31.60000038147</ele>
        <time>2020-01-26T08:50:52.000Z</time>
      </trkpt>
      <trkpt lat="47.29726" lon="-2.43204">
        <ele>-31.60000038147</ele>
        <time>2020-01-26T08:50:59.000Z</time>
      </trkpt>
      <trkpt lat="47.29688" lon="-2.43215">
        <ele>-31.60000038147</ele>
        <time>2020-01-26T08:51:07.000Z</time>
      </trkpt>
      <trkpt lat="47.29664" lon="-2.43222">
        <ele>-31.60000038147</ele>
        <time>2020-01-26T08:51:12.000Z</time>
      </trkpt>
      <trkpt lat="47.29654" lon="-2.43225">
        <ele>-31.60000038147</ele>
        <time>2020-01-26T08:51:14.000Z</time>
      </trkpt>
      <trkpt lat="47.29629" lon="-2.43233">
        <ele>-31.60000038147</ele>
        <time>2020-01-26T08:51:19.000Z</time>
      </trkpt>
      <trkpt lat="47.2962" lon="-2.43236">
        <ele>-31.60000038147</ele>
        <time>2020-01-26T08:51:21.000Z</time>
      </trkpt>
      <trkpt lat="47.29594" lon="-2.4325">
        <ele>-31.60000038147</ele>
        <time>2020-01-26T08:51:27.000Z</time>
      </trkpt>
      <trkpt lat="47.2959" lon="-2.43253">
        <ele>-31.60000038147</ele>
        <time>2020-01-26T08:51:28.000Z</time>
      </trkpt>
      <trkpt lat="47.29582" lon="-2.43258">
        <ele>-31.60000038147</ele>
        <time>2020-01-26T08:51:30.000Z</time>
      </trkpt>
      <trkpt lat="47.29575" lon="-2.43261">
        <ele>-31.60000038147</ele>
        <time>2020-01-26T08:51:32.000Z</time>
      </trkpt>
      <trkpt lat="47.29568" lon="-2.43273">
        <ele>-31.60000038147</ele>
        <time>2020-01-26T08:51:35.000Z</time>
      </trkpt>
      <trkpt lat="47.29562" lon="-2.4328">
        <ele>-31.60000038147</ele>
        <time>2020-01-26T08:51:37.000Z</time>
      </trkpt>
      <trkpt lat="47.29559" lon="-2.43285">
        <ele>-31.60000038147</ele>
        <time>2020-01-26T08:51:38.000Z</time>
      </trkpt>
      <trkpt lat="47.29556" lon="-2.43289">
        <ele>-31.60000038147</ele>
        <time>2020-01-26T08:51:39.000Z</time>
      </trkpt>
      <trkpt lat="47.29551" lon="-2.43301">
        <ele>-31.60000038147</ele>
        <time>2020-01-26T08:51:41.000Z</time>
      </trkpt>
      <trkpt lat="47.29545" lon="-2.4331">
        <ele>-31.200000762939</ele>
        <time>2020-01-26T08:51:43.000Z</time>
      </trkpt>
      <trkpt lat="47.29542" lon="-2.43316">
        <ele>-30.799999237061</ele>
        <time>2020-01-26T08:51:44.000Z</time>
      </trkpt>
      <trkpt lat="47.29539" lon="-2.43321">
        <ele>-30.39999961853</ele>
        <time>2020-01-26T08:51:45.000Z</time>
      </trkpt>
      <trkpt lat="47.29537" lon="-2.43325">
        <ele>-30</ele>
        <time>2020-01-26T08:51:46.000Z</time>
      </trkpt>
      <trkpt lat="47.29534" lon="-2.4333">
        <ele>-29.60000038147</ele>
        <time>2020-01-26T08:51:47.000Z</time>
      </trkpt>
      <trkpt lat="47.29532" lon="-2.43335">
        <ele>-29.60000038147</ele>
        <time>2020-01-26T08:51:48.000Z</time>
      </trkpt>
      <trkpt lat="47.29526" lon="-2.43345">
        <ele>-29.60000038147</ele>
        <time>2020-01-26T08:51:50.000Z</time>
      </trkpt>
      <trkpt lat="47.2951" lon="-2.43371">
        <ele>-29.60000038147</ele>
        <time>2020-01-26T08:51:55.000Z</time>
      </trkpt>
      <trkpt lat="47.29505" lon="-2.43382">
        <ele>-29.60000038147</ele>
        <time>2020-01-26T08:51:57.000Z</time>
      </trkpt>
      <trkpt lat="47.29499" lon="-2.43392">
        <ele>-29.60000038147</ele>
        <time>2020-01-26T08:51:59.000Z</time>
      </trkpt>
      <trkpt lat="47.2949" lon="-2.43407">
        <ele>-29.60000038147</ele>
        <time>2020-01-26T08:52:02.000Z</time>
      </trkpt>
      <trkpt lat="47.29488" lon="-2.43413">
        <ele>-29.60000038147</ele>
        <time>2020-01-26T08:52:03.000Z</time>
      </trkpt>
      <trkpt lat="47.29482" lon="-2.43429">
        <ele>-29.60000038147</ele>
        <time>2020-01-26T08:52:06.000Z</time>
      </trkpt>
      <trkpt lat="47.29476" lon="-2.43438">
        <ele>-29.60000038147</ele>
        <time>2020-01-26T08:52:08.000Z</time>
      </trkpt>
      <trkpt lat="47.29471" lon="-2.43447">
        <ele>-29.60000038147</ele>
        <time>2020-01-26T08:52:10.000Z</time>
      </trkpt>
      <trkpt lat="47.29464" lon="-2.43464">
        <ele>-29.60000038147</ele>
        <time>2020-01-26T08:52:14.000Z</time>
      </trkpt>
      <trkpt lat="47.29458" lon="-2.43471">
        <ele>-30</ele>
        <time>2020-01-26T08:52:19.000Z</time>
      </trkpt>
      <trkpt lat="47.29457" lon="-2.43472">
        <ele>-30.39999961853</ele>
        <time>2020-01-26T08:52:20.000Z</time>
      </trkpt>
      <trkpt lat="47.29456" lon="-2.43473">
        <ele>-30.799999237061</ele>
        <time>2020-01-26T08:52:21.000Z</time>
      </trkpt>
      <trkpt lat="47.29454" lon="-2.43476">
        <ele>-31.200000762939</ele>
        <time>2020-01-26T08:52:22.000Z</time>
      </trkpt>
      <trkpt lat="47.29452" lon="-2.43478">
        <ele>-31.60000038147</ele>
        <time>2020-01-26T08:52:23.000Z</time>
      </trkpt>
      <trkpt lat="47.2945" lon="-2.43481">
        <ele>-31.60000038147</ele>
        <time>2020-01-26T08:52:24.000Z</time>
      </trkpt>
      <trkpt lat="47.29439" lon="-2.43501">
        <ele>-31.60000038147</ele>
        <time>2020-01-26T08:52:28.000Z</time>
      </trkpt>
      <trkpt lat="47.29424" lon="-2.43528">
        <ele>-31.60000038147</ele>
        <time>2020-01-26T08:52:33.000Z</time>
      </trkpt>
      <trkpt lat="47.29419" lon="-2.43537">
        <ele>-31.60000038147</ele>
        <time>2020-01-26T08:52:35.000Z</time>
      </trkpt>
      <trkpt lat="47.29406" lon="-2.43562">
        <ele>-31.60000038147</ele>
        <time>2020-01-26T08:52:41.000Z</time>
      </trkpt>
      <trkpt lat="47.29389" lon="-2.4359">
        <ele>-31.60000038147</ele>
        <time>2020-01-26T08:52:48.000Z</time>
      </trkpt>
      <trkpt lat="47.29381" lon="-2.43603">
        <ele>-31.60000038147</ele>
        <time>2020-01-26T08:52:51.000Z</time>
      </trkpt>
      <trkpt lat="47.29377" lon="-2.43613">
        <ele>-31.60000038147</ele>
        <time>2020-01-26T08:52:53.000Z</time>
      </trkpt>
      <trkpt lat="47.29376" lon="-2.43618">
        <ele>-31.60000038147</ele>
        <time>2020-01-26T08:52:54.000Z</time>
      </trkpt>
      <trkpt lat="47.29367" lon="-2.43638">
        <ele>-31.60000038147</ele>
        <time>2020-01-26T08:52:59.000Z</time>
      </trkpt>
      <trkpt lat="47.29363" lon="-2.43642">
        <ele>-31.60000038147</ele>
        <time>2020-01-26T08:53:00.000Z</time>
      </trkpt>
      <trkpt lat="47.2935" lon="-2.43652">
        <ele>-31.60000038147</ele>
        <time>2020-01-26T08:53:03.000Z</time>
      </trkpt>
      <trkpt lat="47.29346" lon="-2.43656">
        <ele>-31.60000038147</ele>
        <time>2020-01-26T08:53:04.000Z</time>
      </trkpt>
      <trkpt lat="47.29327" lon="-2.43672">
        <ele>-31.60000038147</ele>
        <time>2020-01-26T08:53:08.000Z</time>
      </trkpt>
      <trkpt lat="47.29317" lon="-2.43681">
        <ele>-31.60000038147</ele>
        <time>2020-01-26T08:53:10.000Z</time>
      </trkpt>
      <trkpt lat="47.29302" lon="-2.43695">
        <ele>-31.60000038147</ele>
        <time>2020-01-26T08:53:13.000Z</time>
      </trkpt>
      <trkpt lat="47.29268" lon="-2.43724">
        <ele>-31.60000038147</ele>
        <time>2020-01-26T08:53:20.000Z</time>
      </trkpt>
      <trkpt lat="47.29236" lon="-2.4375">
        <ele>-31.60000038147</ele>
        <time>2020-01-26T08:53:27.000Z</time>
      </trkpt>
      <trkpt lat="47.29203" lon="-2.43779">
        <ele>-31.60000038147</ele>
        <time>2020-01-26T08:53:34.000Z</time>
      </trkpt>
      <trkpt lat="47.2916" lon="-2.43818">
        <ele>-31.60000038147</ele>
        <time>2020-01-26T08:53:43.000Z</time>
      </trkpt>
      <trkpt lat="47.29116" lon="-2.43855">
        <ele>-31.60000038147</ele>
        <time>2020-01-26T08:53:52.000Z</time>
      </trkpt>
      <trkpt lat="47.2911" lon="-2.43858">
        <ele>-31.60000038147</ele>
        <time>2020-01-26T08:53:53.000Z</time>
      </trkpt>
      <trkpt lat="47.29083" lon="-2.43874">
        <ele>-31.60000038147</ele>
        <time>2020-01-26T08:53:58.000Z</time>
      </trkpt>
      <trkpt lat="47.29073" lon="-2.4389">
        <ele>-31.60000038147</ele>
        <time>2020-01-26T08:54:01.000Z</time>
      </trkpt>
      <trkpt lat="47.29056" lon="-2.43891">
        <ele>-31.60000038147</ele>
        <time>2020-01-26T08:54:05.000Z</time>
      </trkpt>
      <trkpt lat="47.29048" lon="-2.43873">
        <ele>-31.60000038147</ele>
        <time>2020-01-26T08:54:08.000Z</time>
      </trkpt>
      <trkpt lat="47.29046" lon="-2.43866">
        <ele>-31.60000038147</ele>
        <time>2020-01-26T08:54:09.000Z</time>
      </trkpt>
      <trkpt lat="47.29043" lon="-2.43859">
        <ele>-31.60000038147</ele>
        <time>2020-01-26T08:54:10.000Z</time>
      </trkpt>
      <trkpt lat="47.29033" lon="-2.43849">
        <ele>-31.60000038147</ele>
        <time>2020-01-26T08:54:12.000Z</time>
      </trkpt>
      <trkpt lat="47.29023" lon="-2.4384">
        <ele>-31.60000038147</ele>
        <time>2020-01-26T08:54:14.000Z</time>
      </trkpt>
      <trkpt lat="47.29007" lon="-2.43829">
        <ele>-31.60000038147</ele>
        <time>2020-01-26T08:54:17.000Z</time>
      </trkpt>
      <trkpt lat="47.29001" lon="-2.43825">
        <ele>-31.60000038147</ele>
        <time>2020-01-26T08:54:18.000Z</time>
      </trkpt>
      <trkpt lat="47.28956" lon="-2.43804">
        <ele>-31.60000038147</ele>
        <time>2020-01-26T08:54:26.000Z</time>
      </trkpt>
      <trkpt lat="47.28924" lon="-2.43803">
        <ele>-31.60000038147</ele>
        <time>2020-01-26T08:54:31.000Z</time>
      </trkpt>
      <trkpt lat="47.28888" lon="-2.43817">
        <ele>-31.60000038147</ele>
        <time>2020-01-26T08:54:37.000Z</time>
      </trkpt>
      <trkpt lat="47.28845" lon="-2.43835">
        <ele>-31.60000038147</ele>
        <time>2020-01-26T08:54:45.000Z</time>
      </trkpt>
      <trkpt lat="47.2884" lon="-2.43836">
        <ele>-31.60000038147</ele>
        <time>2020-01-26T08:54:46.000Z</time>
      </trkpt>
      <trkpt lat="47.28823" lon="-2.43833">
        <ele>-31.60000038147</ele>
        <time>2020-01-26T08:54:49.000Z</time>
      </trkpt>
      <trkpt lat="47.28818" lon="-2.43831">
        <ele>-31.60000038147</ele>
        <time>2020-01-26T08:54:50.000Z</time>
      </trkpt>
      <trkpt lat="47.28812" lon="-2.43827">
        <ele>-31.60000038147</ele>
        <time>2020-01-26T08:54:51.000Z</time>
      </trkpt>
      <trkpt lat="47.28796" lon="-2.43815">
        <ele>-31.60000038147</ele>
        <time>2020-01-26T08:54:54.000Z</time>
      </trkpt>
      <trkpt lat="47.28747" lon="-2.43777">
        <ele>-31.60000038147</ele>
        <time>2020-01-26T08:55:03.000Z</time>
      </trkpt>
      <trkpt lat="47.28714" lon="-2.43754">
        <ele>-31.60000038147</ele>
        <time>2020-01-26T08:55:09.000Z</time>
      </trkpt>
      <trkpt lat="47.28675" lon="-2.43723">
        <ele>-31.60000038147</ele>
        <time>2020-01-26T08:55:16.000Z</time>
      </trkpt>
      <trkpt lat="47.28637" lon="-2.43693">
        <ele>-31.60000038147</ele>
        <time>2020-01-26T08:55:23.000Z</time>
      </trkpt>
      <trkpt lat="47.286" lon="-2.43664">
        <ele>-31.60000038147</ele>
        <time>2020-01-26T08:55:30.000Z</time>
      </trkpt>
      <trkpt lat="47.28551" lon="-2.43626">
        <ele>-31.60000038147</ele>
        <time>2020-01-26T08:55:39.000Z</time>
      </trkpt>
      <trkpt lat="47.28509" lon="-2.43592">
        <ele>-31.60000038147</ele>
        <time>2020-01-26T08:55:47.000Z</time>
      </trkpt>
      <trkpt lat="47.28473" lon="-2.43564">
        <ele>-31.60000038147</ele>
        <time>2020-01-26T08:55:54.000Z</time>
      </trkpt>
      <trkpt lat="47.28432" lon="-2.43531">
        <ele>-31.60000038147</ele>
        <time>2020-01-26T08:56:02.000Z</time>
      </trkpt>
      <trkpt lat="47.28388" lon="-2.43496">
        <ele>-31.60000038147</ele>
        <time>2020-01-26T08:56:11.000Z</time>
      </trkpt>
      <trkpt lat="47.28358" lon="-2.43472">
        <ele>-31.60000038147</ele>
        <time>2020-01-26T08:56:17.000Z</time>
      </trkpt>
      <trkpt lat="47.28314" lon="-2.43435">
        <ele>-31.60000038147</ele>
        <time>2020-01-26T08:56:26.000Z</time>
      </trkpt>
      <trkpt lat="47.28279" lon="-2.43405">
        <ele>-31.60000038147</ele>
        <time>2020-01-26T08:56:33.000Z</time>
      </trkpt>
      <trkpt lat="47.28252" lon="-2.43383">
        <ele>-31.60000038147</ele>
        <time>2020-01-26T08:56:39.000Z</time>
      </trkpt>
      <trkpt lat="47.28227" lon="-2.43363">
        <ele>-31.60000038147</ele>
        <time>2020-01-26T08:56:45.000Z</time>
      </trkpt>
      <trkpt lat="47.28224" lon="-2.43359">
        <ele>-31.60000038147</ele>
        <time>2020-01-26T08:56:46.000Z</time>
      </trkpt>
      <trkpt lat="47.28217" lon="-2.43343">
        <ele>-31.60000038147</ele>
        <time>2020-01-26T08:56:49.000Z</time>
      </trkpt>
      <trkpt lat="47.28215" lon="-2.43339">
        <ele>-31.60000038147</ele>
        <time>2020-01-26T08:56:50.000Z</time>
      </trkpt>
      <trkpt lat="47.28207" lon="-2.43334">
        <ele>-31.60000038147</ele>
        <time>2020-01-26T08:56:53.000Z</time>
      </trkpt>
      <trkpt lat="47.28196" lon="-2.43337">
        <ele>-31.60000038147</ele>
        <time>2020-01-26T08:56:57.000Z</time>
      </trkpt>
      <trkpt lat="47.28192" lon="-2.43339">
        <ele>-32</ele>
        <time>2020-01-26T08:56:59.000Z</time>
      </trkpt>
      <trkpt lat="47.28189" lon="-2.43339">
        <ele>-32.400001525879</ele>
        <time>2020-01-26T08:57:00.000Z</time>
      </trkpt>
      <trkpt lat="47.28187" lon="-2.43338">
        <ele>-32.799999237061</ele>
        <time>2020-01-26T08:57:01.000Z</time>
      </trkpt>
      <trkpt lat="47.28185" lon="-2.43334">
        <ele>-33.400001525879</ele>
        <time>2020-01-26T08:57:02.000Z</time>
      </trkpt>
      <trkpt lat="47.28183" lon="-2.43332">
        <ele>-33.799999237061</ele>
        <time>2020-01-26T08:57:03.000Z</time>
      </trkpt>
      <trkpt lat="47.2818" lon="-2.43331">
        <ele>-33.799999237061</ele>
        <time>2020-01-26T08:57:04.000Z</time>
      </trkpt>
      <trkpt lat="47.28174" lon="-2.43334">
        <ele>-33.799999237061</ele>
        <time>2020-01-26T08:57:06.000Z</time>
      </trkpt>
      <trkpt lat="47.28165" lon="-2.43348">
        <ele>-33.799999237061</ele>
        <time>2020-01-26T08:57:09.000Z</time>
      </trkpt>
      <trkpt lat="47.28162" lon="-2.43353">
        <ele>-33.799999237061</ele>
        <time>2020-01-26T08:57:10.000Z</time>
      </trkpt>
      <trkpt lat="47.28143" lon="-2.43381">
        <ele>-33.799999237061</ele>
        <time>2020-01-26T08:57:15.000Z</time>
      </trkpt>
      <trkpt lat="47.28139" lon="-2.43386">
        <ele>-33.799999237061</ele>
        <time>2020-01-26T08:57:16.000Z</time>
      </trkpt>
      <trkpt lat="47.28109" lon="-2.43431">
        <ele>-33.799999237061</ele>
        <time>2020-01-26T08:57:24.000Z</time>
      </trkpt>
      <trkpt lat="47.28077" lon="-2.43477">
        <ele>-33.799999237061</ele>
        <time>2020-01-26T08:57:32.000Z</time>
      </trkpt>
      <trkpt lat="47.28038" lon="-2.43535">
        <ele>-33.799999237061</ele>
        <time>2020-01-26T08:57:41.000Z</time>
      </trkpt>
      <trkpt lat="47.28034" lon="-2.43542">
        <ele>-33.799999237061</ele>
        <time>2020-01-26T08:57:42.000Z</time>
      </trkpt>
      <trkpt lat="47.28003" lon="-2.43587">
        <ele>-33.799999237061</ele>
        <time>2020-01-26T08:57:49.000Z</time>
      </trkpt>
      <trkpt lat="47.27969" lon="-2.43636">
        <ele>-33.799999237061</ele>
        <time>2020-01-26T08:57:57.000Z</time>
      </trkpt>
      <trkpt lat="47.27936" lon="-2.43685">
        <ele>-33.799999237061</ele>
        <time>2020-01-26T08:58:05.000Z</time>
      </trkpt>
      <trkpt lat="47.27904" lon="-2.43726">
        <ele>-33.799999237061</ele>
        <time>2020-01-26T08:58:12.000Z</time>
      </trkpt>
      <trkpt lat="47.27875" lon="-2.43756">
        <ele>-33.799999237061</ele>
        <time>2020-01-26T08:58:18.000Z</time>
      </trkpt>
      <trkpt lat="47.2786" lon="-2.4377">
        <ele>-33.799999237061</ele>
        <time>2020-01-26T08:58:21.000Z</time>
      </trkpt>
      <trkpt lat="47.27845" lon="-2.43782">
        <ele>-33.799999237061</ele>
        <time>2020-01-26T08:58:24.000Z</time>
      </trkpt>
      <trkpt lat="47.27818" lon="-2.43798">
        <ele>-33.799999237061</ele>
        <time>2020-01-26T08:58:30.000Z</time>
      </trkpt>
      <trkpt lat="47.278" lon="-2.43794">
        <ele>-33.799999237061</ele>
        <time>2020-01-26T08:58:35.000Z</time>
      </trkpt>
      <trkpt lat="47.27783" lon="-2.43786">
        <ele>-33.799999237061</ele>
        <time>2020-01-26T08:58:40.000Z</time>
      </trkpt>
      <trkpt lat="47.27775" lon="-2.43785">
        <ele>-33.799999237061</ele>
        <time>2020-01-26T08:58:42.000Z</time>
      </trkpt>
      <trkpt lat="47.27771" lon="-2.43788">
        <ele>-33.799999237061</ele>
        <time>2020-01-26T08:58:43.000Z</time>
      </trkpt>
      <trkpt lat="47.27757" lon="-2.43807">
        <ele>-33.799999237061</ele>
        <time>2020-01-26T08:58:47.000Z</time>
      </trkpt>
      <trkpt lat="47.27753" lon="-2.43811">
        <ele>-33.799999237061</ele>
        <time>2020-01-26T08:58:48.000Z</time>
      </trkpt>
      <trkpt lat="47.27739" lon="-2.43819">
        <ele>-33.799999237061</ele>
        <time>2020-01-26T08:58:51.000Z</time>
      </trkpt>
      <trkpt lat="47.27728" lon="-2.43821">
        <ele>-33.799999237061</ele>
        <time>2020-01-26T08:58:53.000Z</time>
      </trkpt>
      <trkpt lat="47.27707" lon="-2.43824">
        <ele>-33.799999237061</ele>
        <time>2020-01-26T08:58:57.000Z</time>
      </trkpt>
      <trkpt lat="47.27668" lon="-2.43833">
        <ele>-33.799999237061</ele>
        <time>2020-01-26T08:59:04.000Z</time>
      </trkpt>
      <trkpt lat="47.27624" lon="-2.43851">
        <ele>-33.799999237061</ele>
        <time>2020-01-26T08:59:12.000Z</time>
      </trkpt>
      <trkpt lat="47.27592" lon="-2.43866">
        <ele>-33.799999237061</ele>
        <time>2020-01-26T08:59:18.000Z</time>
      </trkpt>
      <trkpt lat="47.27582" lon="-2.43869">
        <ele>-33.799999237061</ele>
        <time>2020-01-26T08:59:20.000Z</time>
      </trkpt>
      <trkpt lat="47.27566" lon="-2.43875">
        <ele>-33.799999237061</ele>
        <time>2020-01-26T08:59:23.000Z</time>
      </trkpt>
      <trkpt lat="47.2754" lon="-2.43889">
        <ele>-33.799999237061</ele>
        <time>2020-01-26T08:59:28.000Z</time>
      </trkpt>
      <trkpt lat="47.2753" lon="-2.43894">
        <ele>-33.799999237061</ele>
        <time>2020-01-26T08:59:30.000Z</time>
      </trkpt>
      <trkpt lat="47.27504" lon="-2.43905">
        <ele>-33.799999237061</ele>
        <time>2020-01-26T08:59:36.000Z</time>
      </trkpt>
      <trkpt lat="47.275" lon="-2.43907">
        <ele>-33.799999237061</ele>
        <time>2020-01-26T08:59:37.000Z</time>
      </trkpt>
      <trkpt lat="47.27478" lon="-2.43915">
        <ele>-33.799999237061</ele>
        <time>2020-01-26T08:59:42.000Z</time>
      </trkpt>
      <trkpt lat="47.2746" lon="-2.43924">
        <ele>-33.799999237061</ele>
        <time>2020-01-26T08:59:46.000Z</time>
      </trkpt>
      <trkpt lat="47.27451" lon="-2.43927">
        <ele>-33.799999237061</ele>
        <time>2020-01-26T08:59:48.000Z</time>
      </trkpt>
      <trkpt lat="47.27413" lon="-2.43944">
        <ele>-33.799999237061</ele>
        <time>2020-01-26T08:59:56.000Z</time>
      </trkpt>
      <trkpt lat="47.27391" lon="-2.43954">
        <ele>-33.799999237061</ele>
        <time>2020-01-26T09:00:01.000Z</time>
      </trkpt>
      <trkpt lat="47.27381" lon="-2.43959">
        <ele>-33.799999237061</ele>
        <time>2020-01-26T09:00:03.000Z</time>
      </trkpt>
      <trkpt lat="47.27362" lon="-2.43967">
        <ele>-33.799999237061</ele>
        <time>2020-01-26T09:00:07.000Z</time>
      </trkpt>
      <trkpt lat="47.27357" lon="-2.4397">
        <ele>-33.799999237061</ele>
        <time>2020-01-26T09:00:08.000Z</time>
      </trkpt>
      <trkpt lat="47.27341" lon="-2.43976">
        <ele>-33.799999237061</ele>
        <time>2020-01-26T09:00:11.000Z</time>
      </trkpt>
      <trkpt lat="47.2732" lon="-2.43984">
        <ele>-33.799999237061</ele>
        <time>2020-01-26T09:00:15.000Z</time>
      </trkpt>
      <trkpt lat="47.27314" lon="-2.43984">
        <ele>-33.799999237061</ele>
        <time>2020-01-26T09:00:16.000Z</time>
      </trkpt>
      <trkpt lat="47.27294" lon="-2.43987">
        <ele>-33.799999237061</ele>
        <time>2020-01-26T09:00:20.000Z</time>
      </trkpt>
      <trkpt lat="47.2728" lon="-2.43999">
        <ele>-33.799999237061</ele>
        <time>2020-01-26T09:00:23.000Z</time>
      </trkpt>
      <trkpt lat="47.27269" lon="-2.44003">
        <ele>-33.799999237061</ele>
        <time>2020-01-26T09:00:25.000Z</time>
      </trkpt>
      <trkpt lat="47.27252" lon="-2.44008">
        <ele>-33.799999237061</ele>
        <time>2020-01-26T09:00:28.000Z</time>
      </trkpt>
      <trkpt lat="47.27238" lon="-2.44013">
        <ele>-33.799999237061</ele>
        <time>2020-01-26T09:00:31.000Z</time>
      </trkpt>
      <trkpt lat="47.27229" lon="-2.44011">
        <ele>-33.799999237061</ele>
        <time>2020-01-26T09:00:33.000Z</time>
      </trkpt>
      <trkpt lat="47.27217" lon="-2.43998">
        <ele>-33.799999237061</ele>
        <time>2020-01-26T09:00:37.000Z</time>
      </trkpt>
      <trkpt lat="47.2721" lon="-2.43996">
        <ele>-33.799999237061</ele>
        <time>2020-01-26T09:00:39.000Z</time>
      </trkpt>
      <trkpt lat="47.27206" lon="-2.43997">
        <ele>-33.799999237061</ele>
        <time>2020-01-26T09:00:40.000Z</time>
      </trkpt>
      <trkpt lat="47.27198" lon="-2.44008">
        <ele>-33.799999237061</ele>
        <time>2020-01-26T09:00:43.000Z</time>
      </trkpt>
      <trkpt lat="47.27196" lon="-2.44012">
        <ele>-33.799999237061</ele>
        <time>2020-01-26T09:00:44.000Z</time>
      </trkpt>
      <trkpt lat="47.27192" lon="-2.44016">
        <ele>-33.799999237061</ele>
        <time>2020-01-26T09:00:45.000Z</time>
      </trkpt>
      <trkpt lat="47.27183" lon="-2.44019">
        <ele>-33.799999237061</ele>
        <time>2020-01-26T09:00:47.000Z</time>
      </trkpt>
      <trkpt lat="47.27148" lon="-2.44033">
        <ele>-33.799999237061</ele>
        <time>2020-01-26T09:00:54.000Z</time>
      </trkpt>
      <trkpt lat="47.27116" lon="-2.44042">
        <ele>-33.799999237061</ele>
        <time>2020-01-26T09:01:00.000Z</time>
      </trkpt>
      <trkpt lat="47.27085" lon="-2.44049">
        <ele>-33.799999237061</ele>
        <time>2020-01-26T09:01:06.000Z</time>
      </trkpt>
      <trkpt lat="47.2708" lon="-2.4405">
        <ele>-33.400001525879</ele>
        <time>2020-01-26T09:01:07.000Z</time>
      </trkpt>
      <trkpt lat="47.27074" lon="-2.44051">
        <ele>-32.799999237061</ele>
        <time>2020-01-26T09:01:08.000Z</time>
      </trkpt>
      <trkpt lat="47.27069" lon="-2.44052">
        <ele>-32.400001525879</ele>
        <time>2020-01-26T09:01:09.000Z</time>
      </trkpt>
      <trkpt lat="47.27063" lon="-2.44053">
        <ele>-32</ele>
        <time>2020-01-26T09:01:10.000Z</time>
      </trkpt>
      <trkpt lat="47.27058" lon="-2.44053">
        <ele>-31.60000038147</ele>
        <time>2020-01-26T09:01:11.000Z</time>
      </trkpt>
      <trkpt lat="47.27047" lon="-2.44055">
        <ele>-31.60000038147</ele>
        <time>2020-01-26T09:01:13.000Z</time>
      </trkpt>
      <trkpt lat="47.27006" lon="-2.44059">
        <ele>-31.60000038147</ele>
        <time>2020-01-26T09:01:21.000Z</time>
      </trkpt>
      <trkpt lat="47.26979" lon="-2.44061">
        <ele>-31.200000762939</ele>
        <time>2020-01-26T09:01:27.000Z</time>
      </trkpt>
      <trkpt lat="47.26974" lon="-2.44061">
        <ele>-30.799999237061</ele>
        <time>2020-01-26T09:01:28.000Z</time>
      </trkpt>
      <trkpt lat="47.2697" lon="-2.44061">
        <ele>-30.39999961853</ele>
        <time>2020-01-26T09:01:29.000Z</time>
      </trkpt>
      <trkpt lat="47.26966" lon="-2.44062">
        <ele>-29.60000038147</ele>
        <time>2020-01-26T09:01:30.000Z</time>
      </trkpt>
      <trkpt lat="47.26957" lon="-2.44063">
        <ele>-29.60000038147</ele>
        <time>2020-01-26T09:01:33.000Z</time>
      </trkpt>
      <trkpt lat="47.26947" lon="-2.44071">
        <ele>-29.60000038147</ele>
        <time>2020-01-26T09:01:37.000Z</time>
      </trkpt>
      <trkpt lat="47.26946" lon="-2.44077">
        <ele>-29.60000038147</ele>
        <time>2020-01-26T09:01:38.000Z</time>
      </trkpt>
      <trkpt lat="47.26942" lon="-2.44092">
        <ele>-29.200000762939</ele>
        <time>2020-01-26T09:01:41.000Z</time>
      </trkpt>
      <trkpt lat="47.26943" lon="-2.44099">
        <ele>-28.60000038147</ele>
        <time>2020-01-26T09:01:42.000Z</time>
      </trkpt>
      <trkpt lat="47.26943" lon="-2.44105">
        <ele>-28.200000762939</ele>
        <time>2020-01-26T09:01:43.000Z</time>
      </trkpt>
      <trkpt lat="47.26945" lon="-2.44112">
        <ele>-27.799999237061</ele>
        <time>2020-01-26T09:01:44.000Z</time>
      </trkpt>
      <trkpt lat="47.26946" lon="-2.44118">
        <ele>-27.39999961853</ele>
        <time>2020-01-26T09:01:45.000Z</time>
      </trkpt>
      <trkpt lat="47.26945" lon="-2.44125">
        <ele>-27.39999961853</ele>
        <time>2020-01-26T09:01:46.000Z</time>
      </trkpt>
      <trkpt lat="47.26942" lon="-2.44135">
        <ele>-27.39999961853</ele>
        <time>2020-01-26T09:01:48.000Z</time>
      </trkpt>
      <trkpt lat="47.2693" lon="-2.44144">
        <ele>-27.39999961853</ele>
        <time>2020-01-26T09:01:51.000Z</time>
      </trkpt>
      <trkpt lat="47.26921" lon="-2.44147">
        <ele>-27.39999961853</ele>
        <time>2020-01-26T09:01:53.000Z</time>
      </trkpt>
      <trkpt lat="47.26913" lon="-2.4415">
        <ele>-27.39999961853</ele>
        <time>2020-01-26T09:01:55.000Z</time>
      </trkpt>
      <trkpt lat="47.2691" lon="-2.44154">
        <ele>-27.39999961853</ele>
        <time>2020-01-26T09:01:56.000Z</time>
      </trkpt>
      <trkpt lat="47.26911" lon="-2.4417">
        <ele>-27.39999961853</ele>
        <time>2020-01-26T09:01:59.000Z</time>
      </trkpt>
      <trkpt lat="47.2692" lon="-2.44185">
        <ele>-27.39999961853</ele>
        <time>2020-01-26T09:02:02.000Z</time>
      </trkpt>
      <trkpt lat="47.26924" lon="-2.44189">
        <ele>-27.39999961853</ele>
        <time>2020-01-26T09:02:03.000Z</time>
      </trkpt>
      <trkpt lat="47.2693" lon="-2.44199">
        <ele>-27.39999961853</ele>
        <time>2020-01-26T09:02:05.000Z</time>
      </trkpt>
      <trkpt lat="47.26932" lon="-2.44215">
        <ele>-27.39999961853</ele>
        <time>2020-01-26T09:02:07.000Z</time>
      </trkpt>
      <trkpt lat="47.26936" lon="-2.44247">
        <ele>-27.39999961853</ele>
        <time>2020-01-26T09:02:11.000Z</time>
      </trkpt>
      <trkpt lat="47.26941" lon="-2.44268">
        <ele>-27.39999961853</ele>
        <time>2020-01-26T09:02:14.000Z</time>
      </trkpt>
      <trkpt lat="47.26944" lon="-2.44283">
        <ele>-27.39999961853</ele>
        <time>2020-01-26T09:02:16.000Z</time>
      </trkpt>
      <trkpt lat="47.26952" lon="-2.44311">
        <ele>-27.39999961853</ele>
        <time>2020-01-26T09:02:20.000Z</time>
      </trkpt>
      <trkpt lat="47.26962" lon="-2.44348">
        <ele>-27.39999961853</ele>
        <time>2020-01-26T09:02:25.000Z</time>
      </trkpt>
      <trkpt lat="47.26967" lon="-2.44363">
        <ele>-27.39999961853</ele>
        <time>2020-01-26T09:02:27.000Z</time>
      </trkpt>
      <trkpt lat="47.26975" lon="-2.44393">
        <ele>-27.39999961853</ele>
        <time>2020-01-26T09:02:31.000Z</time>
      </trkpt>
      <trkpt lat="47.26974" lon="-2.44404">
        <ele>-27.39999961853</ele>
        <time>2020-01-26T09:02:33.000Z</time>
      </trkpt>
      <trkpt lat="47.26971" lon="-2.4443">
        <ele>-27.39999961853</ele>
        <time>2020-01-26T09:02:37.000Z</time>
      </trkpt>
      <trkpt lat="47.26973" lon="-2.44442">
        <ele>-27.39999961853</ele>
        <time>2020-01-26T09:02:39.000Z</time>
      </trkpt>
      <trkpt lat="47.26976" lon="-2.44461">
        <ele>-27.39999961853</ele>
        <time>2020-01-26T09:02:43.000Z</time>
      </trkpt>
      <trkpt lat="47.26989" lon="-2.44475">
        <ele>-27.39999961853</ele>
        <time>2020-01-26T09:02:47.000Z</time>
      </trkpt>
      <trkpt lat="47.27005" lon="-2.44492">
        <ele>-27.39999961853</ele>
        <time>2020-01-26T09:02:52.000Z</time>
      </trkpt>
      <trkpt lat="47.27009" lon="-2.4452">
        <ele>-27.39999961853</ele>
        <time>2020-01-26T09:02:56.000Z</time>
      </trkpt>
      <trkpt lat="47.27014" lon="-2.44541">
        <ele>-27.39999961853</ele>
        <time>2020-01-26T09:02:59.000Z</time>
      </trkpt>
      <trkpt lat="47.27016" lon="-2.44556">
        <ele>-27.39999961853</ele>
        <time>2020-01-26T09:03:01.000Z</time>
      </trkpt>
      <trkpt lat="47.27025" lon="-2.44616">
        <ele>-27.39999961853</ele>
        <time>2020-01-26T09:03:09.000Z</time>
      </trkpt>
      <trkpt lat="47.27035" lon="-2.44669">
        <ele>-27.39999961853</ele>
        <time>2020-01-26T09:03:16.000Z</time>
      </trkpt>
      <trkpt lat="47.27041" lon="-2.44706">
        <ele>-27.39999961853</ele>
        <time>2020-01-26T09:03:21.000Z</time>
      </trkpt>
      <trkpt lat="47.27045" lon="-2.44722">
        <ele>-27.39999961853</ele>
        <time>2020-01-26T09:03:23.000Z</time>
      </trkpt>
      <trkpt lat="47.27045" lon="-2.44729">
        <ele>-27.39999961853</ele>
        <time>2020-01-26T09:03:24.000Z</time>
      </trkpt>
      <trkpt lat="47.27051" lon="-2.44757">
        <ele>-27.39999961853</ele>
        <time>2020-01-26T09:03:28.000Z</time>
      </trkpt>
      <trkpt lat="47.27051" lon="-2.44763">
        <ele>-27.39999961853</ele>
        <time>2020-01-26T09:03:29.000Z</time>
      </trkpt>
      <trkpt lat="47.27054" lon="-2.44787">
        <ele>-27.39999961853</ele>
        <time>2020-01-26T09:03:32.000Z</time>
      </trkpt>
      <trkpt lat="47.27054" lon="-2.44795">
        <ele>-27.39999961853</ele>
        <time>2020-01-26T09:03:33.000Z</time>
      </trkpt>
      <trkpt lat="47.27058" lon="-2.44853">
        <ele>-27.39999961853</ele>
        <time>2020-01-26T09:03:40.000Z</time>
      </trkpt>
      <trkpt lat="47.2706" lon="-2.44911">
        <ele>-27.39999961853</ele>
        <time>2020-01-26T09:03:47.000Z</time>
      </trkpt>
      <trkpt lat="47.27062" lon="-2.4496">
        <ele>-27.39999961853</ele>
        <time>2020-01-26T09:03:53.000Z</time>
      </trkpt>
      <trkpt lat="47.27063" lon="-2.44967">
        <ele>-27.39999961853</ele>
        <time>2020-01-26T09:03:54.000Z</time>
      </trkpt>
      <trkpt lat="47.27065" lon="-2.45003">
        <ele>-27.39999961853</ele>
        <time>2020-01-26T09:04:00.000Z</time>
      </trkpt>
      <trkpt lat="47.27064" lon="-2.45046">
        <ele>-27.39999961853</ele>
        <time>2020-01-26T09:04:06.000Z</time>
      </trkpt>
      <trkpt lat="47.27064" lon="-2.45109">
        <ele>-27.39999961853</ele>
        <time>2020-01-26T09:04:14.000Z</time>
      </trkpt>
      <trkpt lat="47.27061" lon="-2.45191">
        <ele>-27.39999961853</ele>
        <time>2020-01-26T09:04:24.000Z</time>
      </trkpt>
      <trkpt lat="47.27062" lon="-2.45254">
        <ele>-27.39999961853</ele>
        <time>2020-01-26T09:04:31.000Z</time>
      </trkpt>
      <trkpt lat="47.27065" lon="-2.45315">
        <ele>-27.39999961853</ele>
        <time>2020-01-26T09:04:38.000Z</time>
      </trkpt>
      <trkpt lat="47.27069" lon="-2.45372">
        <ele>-27.39999961853</ele>
        <time>2020-01-26T09:04:45.000Z</time>
      </trkpt>
      <trkpt lat="47.27069" lon="-2.45438">
        <ele>-27.39999961853</ele>
        <time>2020-01-26T09:04:52.000Z</time>
      </trkpt>
      <trkpt lat="47.27066" lon="-2.45455">
        <ele>-27.39999961853</ele>
        <time>2020-01-26T09:04:54.000Z</time>
      </trkpt>
      <trkpt lat="47.27059" lon="-2.45489">
        <ele>-27.39999961853</ele>
        <time>2020-01-26T09:04:58.000Z</time>
      </trkpt>
      <trkpt lat="47.27058" lon="-2.45498">
        <ele>-27.39999961853</ele>
        <time>2020-01-26T09:04:59.000Z</time>
      </trkpt>
      <trkpt lat="47.27057" lon="-2.45523">
        <ele>-27.39999961853</ele>
        <time>2020-01-26T09:05:02.000Z</time>
      </trkpt>
      <trkpt lat="47.27059" lon="-2.45571">
        <ele>-27.39999961853</ele>
        <time>2020-01-26T09:05:08.000Z</time>
      </trkpt>
      <trkpt lat="47.27068" lon="-2.4563">
        <ele>-27.39999961853</ele>
        <time>2020-01-26T09:05:15.000Z</time>
      </trkpt>
      <trkpt lat="47.27078" lon="-2.45682">
        <ele>-27.39999961853</ele>
        <time>2020-01-26T09:05:22.000Z</time>
      </trkpt>
      <trkpt lat="47.27085" lon="-2.4571">
        <ele>-27.39999961853</ele>
        <time>2020-01-26T09:05:27.000Z</time>
      </trkpt>
      <trkpt lat="47.27097" lon="-2.45737">
        <ele>-27.39999961853</ele>
        <time>2020-01-26T09:05:33.000Z</time>
      </trkpt>
      <trkpt lat="47.27099" lon="-2.45738">
        <ele>-27.39999961853</ele>
        <time>2020-01-26T09:05:34.000Z</time>
      </trkpt>
      <trkpt lat="47.27106" lon="-2.45733">
        <ele>-27.39999961853</ele>
        <time>2020-01-26T09:05:36.000Z</time>
      </trkpt>
      <trkpt lat="47.27116" lon="-2.4573">
        <ele>-27.39999961853</ele>
        <time>2020-01-26T09:05:38.000Z</time>
      </trkpt>
      <trkpt lat="47.27126" lon="-2.45726">
        <ele>-27.39999961853</ele>
        <time>2020-01-26T09:05:40.000Z</time>
      </trkpt>
      <trkpt lat="47.27161" lon="-2.45714">
        <ele>-27.39999961853</ele>
        <time>2020-01-26T09:05:46.000Z</time>
      </trkpt>
      <trkpt lat="47.27167" lon="-2.45712">
        <ele>-27.39999961853</ele>
        <time>2020-01-26T09:05:47.000Z</time>
      </trkpt>
      <trkpt lat="47.27196" lon="-2.45707">
        <ele>-27.39999961853</ele>
        <time>2020-01-26T09:05:52.000Z</time>
      </trkpt>
      <trkpt lat="47.27226" lon="-2.45696">
        <ele>-27.39999961853</ele>
        <time>2020-01-26T09:05:57.000Z</time>
      </trkpt>
      <trkpt lat="47.27231" lon="-2.45692">
        <ele>-27.39999961853</ele>
        <time>2020-01-26T09:05:58.000Z</time>
      </trkpt>
      <trkpt lat="47.27247" lon="-2.45677">
        <ele>-27.39999961853</ele>
        <time>2020-01-26T09:06:01.000Z</time>
      </trkpt>
      <trkpt lat="47.27252" lon="-2.45674">
        <ele>-27.39999961853</ele>
        <time>2020-01-26T09:06:02.000Z</time>
      </trkpt>
      <trkpt lat="47.27285" lon="-2.45656">
        <ele>-27.39999961853</ele>
        <time>2020-01-26T09:06:08.000Z</time>
      </trkpt>
      <trkpt lat="47.27291" lon="-2.45652">
        <ele>-27.39999961853</ele>
        <time>2020-01-26T09:06:09.000Z</time>
      </trkpt>
      <trkpt lat="47.2732" lon="-2.45634">
        <ele>-27.39999961853</ele>
        <time>2020-01-26T09:06:15.000Z</time>
      </trkpt>
      <trkpt lat="47.27323" lon="-2.45629">
        <ele>-27.799999237061</ele>
        <time>2020-01-26T09:06:17.000Z</time>
      </trkpt>
      <trkpt lat="47.27324" lon="-2.45626">
        <ele>-28.39999961853</ele>
        <time>2020-01-26T09:06:18.000Z</time>
      </trkpt>
      <trkpt lat="47.27325" lon="-2.45623">
        <ele>-28.799999237061</ele>
        <time>2020-01-26T09:06:19.000Z</time>
      </trkpt>
      <trkpt lat="47.27324" lon="-2.4562">
        <ele>-29.200000762939</ele>
        <time>2020-01-26T09:06:20.000Z</time>
      </trkpt>
      <trkpt lat="47.27324" lon="-2.45617">
        <ele>-29.60000038147</ele>
        <time>2020-01-26T09:06:21.000Z</time>
      </trkpt>
      <trkpt lat="47.27323" lon="-2.45613">
        <ele>-29.60000038147</ele>
        <time>2020-01-26T09:06:23.000Z</time>
      </trkpt>
      <trkpt lat="47.27323" lon="-2.45606">
        <ele>-29.60000038147</ele>
        <time>2020-01-26T09:06:28.000Z</time>
      </trkpt>
      <trkpt lat="47.27325" lon="-2.45603">
        <ele>-29.60000038147</ele>
        <time>2020-01-26T09:06:31.000Z</time>
      </trkpt>
      <trkpt lat="47.27327" lon="-2.45607">
        <ele>-29.60000038147</ele>
        <time>2020-01-26T09:06:34.000Z</time>
      </trkpt>
      <trkpt lat="47.27324" lon="-2.45619">
        <ele>-29.60000038147</ele>
        <time>2020-01-26T09:06:38.000Z</time>
      </trkpt>
      <trkpt lat="47.27329" lon="-2.45642">
        <ele>-29.60000038147</ele>
        <time>2020-01-26T09:06:42.000Z</time>
      </trkpt>
      <trkpt lat="47.27331" lon="-2.45648">
        <ele>-29.60000038147</ele>
        <time>2020-01-26T09:06:43.000Z</time>
      </trkpt>
      <trkpt lat="47.27332" lon="-2.45655">
        <ele>-29.60000038147</ele>
        <time>2020-01-26T09:06:44.000Z</time>
      </trkpt>
      <trkpt lat="47.27338" lon="-2.45676">
        <ele>-29.60000038147</ele>
        <time>2020-01-26T09:06:47.000Z</time>
      </trkpt>
      <trkpt lat="47.27341" lon="-2.45683">
        <ele>-29.60000038147</ele>
        <time>2020-01-26T09:06:48.000Z</time>
      </trkpt>
      <trkpt lat="47.27356" lon="-2.45721">
        <ele>-29.60000038147</ele>
        <time>2020-01-26T09:06:53.000Z</time>
      </trkpt>
      <trkpt lat="47.2737" lon="-2.45762">
        <ele>-29.60000038147</ele>
        <time>2020-01-26T09:06:59.000Z</time>
      </trkpt>
      <trkpt lat="47.27372" lon="-2.45772">
        <ele>-29.60000038147</ele>
        <time>2020-01-26T09:07:01.000Z</time>
      </trkpt>
      <trkpt lat="47.27369" lon="-2.45778">
        <ele>-29.60000038147</ele>
        <time>2020-01-26T09:07:03.000Z</time>
      </trkpt>
      <trkpt lat="47.27356" lon="-2.45788">
        <ele>-29.60000038147</ele>
        <time>2020-01-26T09:07:07.000Z</time>
      </trkpt>
      <trkpt lat="47.27338" lon="-2.45797">
        <ele>-29.60000038147</ele>
        <time>2020-01-26T09:07:11.000Z</time>
      </trkpt>
      <trkpt lat="47.27334" lon="-2.45801">
        <ele>-29.60000038147</ele>
        <time>2020-01-26T09:07:12.000Z</time>
      </trkpt>
      <trkpt lat="47.27305" lon="-2.4582">
        <ele>-29.60000038147</ele>
        <time>2020-01-26T09:07:18.000Z</time>
      </trkpt>
      <trkpt lat="47.27275" lon="-2.45837">
        <ele>-29.60000038147</ele>
        <time>2020-01-26T09:07:24.000Z</time>
      </trkpt>
      <trkpt lat="47.2727" lon="-2.45841">
        <ele>-29.60000038147</ele>
        <time>2020-01-26T09:07:25.000Z</time>
      </trkpt>
      <trkpt lat="47.27256" lon="-2.4585">
        <ele>-29.60000038147</ele>
        <time>2020-01-26T09:07:28.000Z</time>
      </trkpt>
      <trkpt lat="47.27251" lon="-2.45852">
        <ele>-29.60000038147</ele>
        <time>2020-01-26T09:07:29.000Z</time>
      </trkpt>
      <trkpt lat="47.27233" lon="-2.45863">
        <ele>-29.60000038147</ele>
        <time>2020-01-26T09:07:33.000Z</time>
      </trkpt>
      <trkpt lat="47.27195" lon="-2.45882">
        <ele>-29.60000038147</ele>
        <time>2020-01-26T09:07:41.000Z</time>
      </trkpt>
      <trkpt lat="47.27177" lon="-2.4589">
        <ele>-29.60000038147</ele>
        <time>2020-01-26T09:07:45.000Z</time>
      </trkpt>
      <trkpt lat="47.27174" lon="-2.45894">
        <ele>-29.60000038147</ele>
        <time>2020-01-26T09:07:46.000Z</time>
      </trkpt>
      <trkpt lat="47.27173" lon="-2.45911">
        <ele>-29.60000038147</ele>
        <time>2020-01-26T09:07:49.000Z</time>
      </trkpt>
      <trkpt lat="47.27179" lon="-2.45923">
        <ele>-29.60000038147</ele>
        <time>2020-01-26T09:07:51.000Z</time>
      </trkpt>
      <trkpt lat="47.27188" lon="-2.45946">
        <ele>-29.60000038147</ele>
        <time>2020-01-26T09:07:54.000Z</time>
      </trkpt>
      <trkpt lat="47.2721" lon="-2.46003">
        <ele>-29.60000038147</ele>
        <time>2020-01-26T09:08:01.000Z</time>
      </trkpt>
      <trkpt lat="47.27226" lon="-2.46071">
        <ele>-29.60000038147</ele>
        <time>2020-01-26T09:08:09.000Z</time>
      </trkpt>
      <trkpt lat="47.27242" lon="-2.4615">
        <ele>-29.60000038147</ele>
        <time>2020-01-26T09:08:18.000Z</time>
      </trkpt>
      <trkpt lat="47.27257" lon="-2.46199">
        <ele>-29.60000038147</ele>
        <time>2020-01-26T09:08:24.000Z</time>
      </trkpt>
      <trkpt lat="47.27274" lon="-2.46243">
        <ele>-29.60000038147</ele>
        <time>2020-01-26T09:08:29.000Z</time>
      </trkpt>
      <trkpt lat="47.27302" lon="-2.46309">
        <ele>-29.60000038147</ele>
        <time>2020-01-26T09:08:37.000Z</time>
      </trkpt>
      <trkpt lat="47.27325" lon="-2.46373">
        <ele>-29.60000038147</ele>
        <time>2020-01-26T09:08:45.000Z</time>
      </trkpt>
      <trkpt lat="47.27345" lon="-2.46428">
        <ele>-29.60000038147</ele>
        <time>2020-01-26T09:08:52.000Z</time>
      </trkpt>
      <trkpt lat="47.27364" lon="-2.46485">
        <ele>-29.60000038147</ele>
        <time>2020-01-26T09:09:00.000Z</time>
      </trkpt>
      <trkpt lat="47.27382" lon="-2.46539">
        <ele>-29.60000038147</ele>
        <time>2020-01-26T09:09:07.000Z</time>
      </trkpt>
      <trkpt lat="47.27399" lon="-2.46597">
        <ele>-29.60000038147</ele>
        <time>2020-01-26T09:09:14.000Z</time>
      </trkpt>
      <trkpt lat="47.2742" lon="-2.46664">
        <ele>-29.60000038147</ele>
        <time>2020-01-26T09:09:22.000Z</time>
      </trkpt>
      <trkpt lat="47.27441" lon="-2.46729">
        <ele>-29.60000038147</ele>
        <time>2020-01-26T09:09:30.000Z</time>
      </trkpt>
      <trkpt lat="47.27459" lon="-2.46788">
        <ele>-29.200000762939</ele>
        <time>2020-01-26T09:09:37.000Z</time>
      </trkpt>
      <trkpt lat="47.27461" lon="-2.46796">
        <ele>-28.39999961853</ele>
        <time>2020-01-26T09:09:38.000Z</time>
      </trkpt>
      <trkpt lat="47.27463" lon="-2.46803">
        <ele>-28</ele>
        <time>2020-01-26T09:09:39.000Z</time>
      </trkpt>
      <trkpt lat="47.27465" lon="-2.46811">
        <ele>-27.60000038147</ele>
        <time>2020-01-26T09:09:40.000Z</time>
      </trkpt>
      <trkpt lat="47.27475" lon="-2.46841">
        <ele>-27.60000038147</ele>
        <time>2020-01-26T09:09:44.000Z</time>
      </trkpt>
      <trkpt lat="47.27489" lon="-2.46891">
        <ele>-27.60000038147</ele>
        <time>2020-01-26T09:09:50.000Z</time>
      </trkpt>
      <trkpt lat="47.27486" lon="-2.46917">
        <ele>-27.60000038147</ele>
        <time>2020-01-26T09:09:53.000Z</time>
      </trkpt>
      <trkpt lat="47.27471" lon="-2.46936">
        <ele>-27.60000038147</ele>
        <time>2020-01-26T09:09:56.000Z</time>
      </trkpt>
      <trkpt lat="47.2746" lon="-2.46943">
        <ele>-27.60000038147</ele>
        <time>2020-01-26T09:09:58.000Z</time>
      </trkpt>
      <trkpt lat="47.27448" lon="-2.46952">
        <ele>-27.60000038147</ele>
        <time>2020-01-26T09:10:01.000Z</time>
      </trkpt>
      <trkpt lat="47.27438" lon="-2.4696">
        <ele>-27.60000038147</ele>
        <time>2020-01-26T09:10:05.000Z</time>
      </trkpt>
      <trkpt lat="47.27421" lon="-2.46968">
        <ele>-27.200000762939</ele>
        <time>2020-01-26T09:10:11.000Z</time>
      </trkpt>
      <trkpt lat="47.27418" lon="-2.4697">
        <ele>-26.799999237061</ele>
        <time>2020-01-26T09:10:12.000Z</time>
      </trkpt>
      <trkpt lat="47.27415" lon="-2.46971">
        <ele>-26.39999961853</ele>
        <time>2020-01-26T09:10:13.000Z</time>
      </trkpt>
      <trkpt lat="47.27411" lon="-2.46973">
        <ele>-26</ele>
        <time>2020-01-26T09:10:14.000Z</time>
      </trkpt>
      <trkpt lat="47.27407" lon="-2.46975">
        <ele>-25.60000038147</ele>
        <time>2020-01-26T09:10:15.000Z</time>
      </trkpt>
      <trkpt lat="47.27403" lon="-2.46977">
        <ele>-25.60000038147</ele>
        <time>2020-01-26T09:10:16.000Z</time>
      </trkpt>
      <trkpt lat="47.2738" lon="-2.46986">
        <ele>-25.60000038147</ele>
        <time>2020-01-26T09:10:21.000Z</time>
      </trkpt>
      <trkpt lat="47.27365" lon="-2.46992">
        <ele>-25.60000038147</ele>
        <time>2020-01-26T09:10:24.000Z</time>
      </trkpt>
      <trkpt lat="47.2736" lon="-2.46994">
        <ele>-25.60000038147</ele>
        <time>2020-01-26T09:10:25.000Z</time>
      </trkpt>
      <trkpt lat="47.2735" lon="-2.46998">
        <ele>-25.200000762939</ele>
        <time>2020-01-26T09:10:27.000Z</time>
      </trkpt>
      <trkpt lat="47.27346" lon="-2.46999">
        <ele>-24.799999237061</ele>
        <time>2020-01-26T09:10:28.000Z</time>
      </trkpt>
      <trkpt lat="47.27342" lon="-2.47002">
        <ele>-24.39999961853</ele>
        <time>2020-01-26T09:10:29.000Z</time>
      </trkpt>
      <trkpt lat="47.27338" lon="-2.47004">
        <ele>-24</ele>
        <time>2020-01-26T09:10:30.000Z</time>
      </trkpt>
      <trkpt lat="47.27334" lon="-2.47007">
        <ele>-23.60000038147</ele>
        <time>2020-01-26T09:10:31.000Z</time>
      </trkpt>
      <trkpt lat="47.2731" lon="-2.47029">
        <ele>-23.60000038147</ele>
        <time>2020-01-26T09:10:37.000Z</time>
      </trkpt>
      <trkpt lat="47.27293" lon="-2.47035">
        <ele>-23</ele>
        <time>2020-01-26T09:10:41.000Z</time>
      </trkpt>
      <trkpt lat="47.27289" lon="-2.47036">
        <ele>-22.60000038147</ele>
        <time>2020-01-26T09:10:42.000Z</time>
      </trkpt>
      <trkpt lat="47.27284" lon="-2.47036">
        <ele>-22.200000762939</ele>
        <time>2020-01-26T09:10:43.000Z</time>
      </trkpt>
      <trkpt lat="47.2728" lon="-2.47037">
        <ele>-21.799999237061</ele>
        <time>2020-01-26T09:10:44.000Z</time>
      </trkpt>
      <trkpt lat="47.27276" lon="-2.47037">
        <ele>-21.39999961853</ele>
        <time>2020-01-26T09:10:45.000Z</time>
      </trkpt>
      <trkpt lat="47.27268" lon="-2.47038">
        <ele>-21.39999961853</ele>
        <time>2020-01-26T09:10:47.000Z</time>
      </trkpt>
      <trkpt lat="47.27259" lon="-2.47038">
        <ele>-21.39999961853</ele>
        <time>2020-01-26T09:10:49.000Z</time>
      </trkpt>
      <trkpt lat="47.27244" lon="-2.47038">
        <ele>-21.39999961853</ele>
        <time>2020-01-26T09:10:52.000Z</time>
      </trkpt>
      <trkpt lat="47.27234" lon="-2.47037">
        <ele>-21.39999961853</ele>
        <time>2020-01-26T09:10:54.000Z</time>
      </trkpt>
      <trkpt lat="47.27229" lon="-2.47037">
        <ele>-21.39999961853</ele>
        <time>2020-01-26T09:10:55.000Z</time>
      </trkpt>
      <trkpt lat="47.27208" lon="-2.47041">
        <ele>-21.39999961853</ele>
        <time>2020-01-26T09:10:59.000Z</time>
      </trkpt>
      <trkpt lat="47.27198" lon="-2.47043">
        <ele>-21.39999961853</ele>
        <time>2020-01-26T09:11:01.000Z</time>
      </trkpt>
      <trkpt lat="47.27176" lon="-2.47048">
        <ele>-21.39999961853</ele>
        <time>2020-01-26T09:11:05.000Z</time>
      </trkpt>
      <trkpt lat="47.2714" lon="-2.47056">
        <ele>-21.39999961853</ele>
        <time>2020-01-26T09:11:12.000Z</time>
      </trkpt>
      <trkpt lat="47.27115" lon="-2.4706">
        <ele>-21.39999961853</ele>
        <time>2020-01-26T09:11:18.000Z</time>
      </trkpt>
      <trkpt lat="47.27108" lon="-2.47047">
        <ele>-21.799999237061</ele>
        <time>2020-01-26T09:11:22.000Z</time>
      </trkpt>
      <trkpt lat="47.27106" lon="-2.47043">
        <ele>-22.200000762939</ele>
        <time>2020-01-26T09:11:23.000Z</time>
      </trkpt>
      <trkpt lat="47.27103" lon="-2.47041">
        <ele>-22.60000038147</ele>
        <time>2020-01-26T09:11:24.000Z</time>
      </trkpt>
      <trkpt lat="47.27098" lon="-2.4704">
        <ele>-23</ele>
        <time>2020-01-26T09:11:25.000Z</time>
      </trkpt>
      <trkpt lat="47.27094" lon="-2.4704">
        <ele>-23.39999961853</ele>
        <time>2020-01-26T09:11:26.000Z</time>
      </trkpt>
      <trkpt lat="47.27076" lon="-2.47042">
        <ele>-23.39999961853</ele>
        <time>2020-01-26T09:11:30.000Z</time>
      </trkpt>
      <trkpt lat="47.27043" lon="-2.47045">
        <ele>-23.39999961853</ele>
        <time>2020-01-26T09:11:37.000Z</time>
      </trkpt>
      <trkpt lat="47.27029" lon="-2.47047">
        <ele>-23.39999961853</ele>
        <time>2020-01-26T09:11:41.000Z</time>
      </trkpt>
      <trkpt lat="47.27021" lon="-2.4705">
        <ele>-23.39999961853</ele>
        <time>2020-01-26T09:11:46.000Z</time>
      </trkpt>
      <trkpt lat="47.27017" lon="-2.47048">
        <ele>-24</ele>
        <time>2020-01-26T09:11:49.000Z</time>
      </trkpt>
      <trkpt lat="47.27016" lon="-2.47047">
        <ele>-24.39999961853</ele>
        <time>2020-01-26T09:11:50.000Z</time>
      </trkpt>
      <trkpt lat="47.27015" lon="-2.47047">
        <ele>-24.799999237061</ele>
        <time>2020-01-26T09:11:51.000Z</time>
      </trkpt>
      <trkpt lat="47.27014" lon="-2.47045">
        <ele>-25.200000762939</ele>
        <time>2020-01-26T09:11:52.000Z</time>
      </trkpt>
      <trkpt lat="47.27014" lon="-2.47044">
        <ele>-25.60000038147</ele>
        <time>2020-01-26T09:11:53.000Z</time>
      </trkpt>
      <trkpt lat="47.27009" lon="-2.47044">
        <ele>-25.60000038147</ele>
        <time>2020-01-26T09:11:56.000Z</time>
      </trkpt>
      <trkpt lat="47.27002" lon="-2.47052">
        <ele>-25.60000038147</ele>
        <time>2020-01-26T09:12:00.000Z</time>
      </trkpt>
      <trkpt lat="47.26998" lon="-2.47061">
        <ele>-25.60000038147</ele>
        <time>2020-01-26T09:12:04.000Z</time>
      </trkpt>
      <trkpt lat="47.26998" lon="-2.47071">
        <ele>-25.60000038147</ele>
        <time>2020-01-26T09:12:07.000Z</time>
      </trkpt>
      <trkpt lat="47.26998" lon="-2.47076">
        <ele>-25.60000038147</ele>
        <time>2020-01-26T09:12:08.000Z</time>
      </trkpt>
      <trkpt lat="47.26997" lon="-2.47101">
        <ele>-25.60000038147</ele>
        <time>2020-01-26T09:12:13.000Z</time>
      </trkpt>
      <trkpt lat="47.26995" lon="-2.47105">
        <ele>-25.60000038147</ele>
        <time>2020-01-26T09:12:14.000Z</time>
      </trkpt>
      <trkpt lat="47.26992" lon="-2.47114">
        <ele>-25.60000038147</ele>
        <time>2020-01-26T09:12:16.000Z</time>
      </trkpt>
      <trkpt lat="47.26987" lon="-2.47135">
        <ele>-25.60000038147</ele>
        <time>2020-01-26T09:12:21.000Z</time>
      </trkpt>
      <trkpt lat="47.26991" lon="-2.47149">
        <ele>-25.60000038147</ele>
        <time>2020-01-26T09:12:24.000Z</time>
      </trkpt>
      <trkpt lat="47.26993" lon="-2.47154">
        <ele>-25.60000038147</ele>
        <time>2020-01-26T09:12:25.000Z</time>
      </trkpt>
      <trkpt lat="47.27004" lon="-2.47167">
        <ele>-25.60000038147</ele>
        <time>2020-01-26T09:12:29.000Z</time>
      </trkpt>
      <trkpt lat="47.27008" lon="-2.47169">
        <ele>-25.60000038147</ele>
        <time>2020-01-26T09:12:31.000Z</time>
      </trkpt>
      <trkpt lat="47.27013" lon="-2.47167">
        <ele>-25.60000038147</ele>
        <time>2020-01-26T09:12:34.000Z</time>
      </trkpt>
      <trkpt lat="47.27017" lon="-2.47165">
        <ele>-25.60000038147</ele>
        <time>2020-01-26T09:12:36.000Z</time>
      </trkpt>
      <trkpt lat="47.27019" lon="-2.4716">
        <ele>-25.60000038147</ele>
        <time>2020-01-26T09:12:38.000Z</time>
      </trkpt>
      <trkpt lat="47.2703" lon="-2.47149">
        <ele>-25.60000038147</ele>
        <time>2020-01-26T09:12:43.000Z</time>
      </trkpt>
      <trkpt lat="47.2704" lon="-2.47141">
        <ele>-25.60000038147</ele>
        <time>2020-01-26T09:12:47.000Z</time>
      </trkpt>
      <trkpt lat="47.27048" lon="-2.47152">
        <ele>-25.60000038147</ele>
        <time>2020-01-26T09:12:51.000Z</time>
      </trkpt>
      <trkpt lat="47.2705" lon="-2.47166">
        <ele>-25.60000038147</ele>
        <time>2020-01-26T09:12:54.000Z</time>
      </trkpt>
      <trkpt lat="47.27048" lon="-2.47185">
        <ele>-25.60000038147</ele>
        <time>2020-01-26T09:12:58.000Z</time>
      </trkpt>
      <trkpt lat="47.27047" lon="-2.47205">
        <ele>-25.60000038147</ele>
        <time>2020-01-26T09:13:01.000Z</time>
      </trkpt>
      <trkpt lat="47.27047" lon="-2.47212">
        <ele>-25.60000038147</ele>
        <time>2020-01-26T09:13:02.000Z</time>
      </trkpt>
      <trkpt lat="47.27048" lon="-2.47249">
        <ele>-25.60000038147</ele>
        <time>2020-01-26T09:13:07.000Z</time>
      </trkpt>
      <trkpt lat="47.27044" lon="-2.47274">
        <ele>-25.60000038147</ele>
        <time>2020-01-26T09:13:12.000Z</time>
      </trkpt>
      <trkpt lat="47.27051" lon="-2.4729">
        <ele>-26</ele>
        <time>2020-01-26T09:13:16.000Z</time>
      </trkpt>
      <trkpt lat="47.27055" lon="-2.47294">
        <ele>-26.39999961853</ele>
        <time>2020-01-26T09:13:17.000Z</time>
      </trkpt>
      <trkpt lat="47.27057" lon="-2.47297">
        <ele>-26.799999237061</ele>
        <time>2020-01-26T09:13:18.000Z</time>
      </trkpt>
      <trkpt lat="47.2706" lon="-2.47301">
        <ele>-27.60000038147</ele>
        <time>2020-01-26T09:13:19.000Z</time>
      </trkpt>
      <trkpt lat="47.27061" lon="-2.47305">
        <ele>-27.60000038147</ele>
        <time>2020-01-26T09:13:20.000Z</time>
      </trkpt>
      <trkpt lat="47.27061" lon="-2.47311">
        <ele>-27.60000038147</ele>
        <time>2020-01-26T09:13:21.000Z</time>
      </trkpt>
      <trkpt lat="47.27065" lon="-2.47335">
        <ele>-27.60000038147</ele>
        <time>2020-01-26T09:13:25.000Z</time>
      </trkpt>
      <trkpt lat="47.27066" lon="-2.47342">
        <ele>-27.60000038147</ele>
        <time>2020-01-26T09:13:26.000Z</time>
      </trkpt>
      <trkpt lat="47.27071" lon="-2.47365">
        <ele>-27.60000038147</ele>
        <time>2020-01-26T09:13:30.000Z</time>
      </trkpt>
      <trkpt lat="47.27076" lon="-2.47374">
        <ele>-27.60000038147</ele>
        <time>2020-01-26T09:13:32.000Z</time>
      </trkpt>
      <trkpt lat="47.27082" lon="-2.47385">
        <ele>-27.60000038147</ele>
        <time>2020-01-26T09:13:34.000Z</time>
      </trkpt>
      <trkpt lat="47.2709" lon="-2.4741">
        <ele>-27.60000038147</ele>
        <time>2020-01-26T09:13:38.000Z</time>
      </trkpt>
      <trkpt lat="47.27091" lon="-2.47416">
        <ele>-27.60000038147</ele>
        <time>2020-01-26T09:13:39.000Z</time>
      </trkpt>
      <trkpt lat="47.27094" lon="-2.47429">
        <ele>-27.60000038147</ele>
        <time>2020-01-26T09:13:41.000Z</time>
      </trkpt>
      <trkpt lat="47.27097" lon="-2.47446">
        <ele>-27.60000038147</ele>
        <time>2020-01-26T09:13:44.000Z</time>
      </trkpt>
      <trkpt lat="47.27102" lon="-2.47471">
        <ele>-27.60000038147</ele>
        <time>2020-01-26T09:13:48.000Z</time>
      </trkpt>
      <trkpt lat="47.27106" lon="-2.47482">
        <ele>-27.60000038147</ele>
        <time>2020-01-26T09:13:50.000Z</time>
      </trkpt>
      <trkpt lat="47.27108" lon="-2.47488">
        <ele>-27.60000038147</ele>
        <time>2020-01-26T09:13:51.000Z</time>
      </trkpt>
      <trkpt lat="47.2711" lon="-2.47494">
        <ele>-27.60000038147</ele>
        <time>2020-01-26T09:13:52.000Z</time>
      </trkpt>
      <trkpt lat="47.27115" lon="-2.47512">
        <ele>-27.60000038147</ele>
        <time>2020-01-26T09:13:55.000Z</time>
      </trkpt>
      <trkpt lat="47.27117" lon="-2.47525">
        <ele>-27.60000038147</ele>
        <time>2020-01-26T09:13:57.000Z</time>
      </trkpt>
      <trkpt lat="47.27125" lon="-2.47539">
        <ele>-27.60000038147</ele>
        <time>2020-01-26T09:14:00.000Z</time>
      </trkpt>
      <trkpt lat="47.2713" lon="-2.47554">
        <ele>-27.60000038147</ele>
        <time>2020-01-26T09:14:03.000Z</time>
      </trkpt>
      <trkpt lat="47.27133" lon="-2.4756">
        <ele>-27.60000038147</ele>
        <time>2020-01-26T09:14:04.000Z</time>
      </trkpt>
      <trkpt lat="47.27148" lon="-2.47572">
        <ele>-27.60000038147</ele>
        <time>2020-01-26T09:14:08.000Z</time>
      </trkpt>
      <trkpt lat="47.27153" lon="-2.47573">
        <ele>-27.60000038147</ele>
        <time>2020-01-26T09:14:09.000Z</time>
      </trkpt>
      <trkpt lat="47.27173" lon="-2.4758">
        <ele>-27.60000038147</ele>
        <time>2020-01-26T09:14:14.000Z</time>
      </trkpt>
      <trkpt lat="47.27176" lon="-2.47583">
        <ele>-27.60000038147</ele>
        <time>2020-01-26T09:14:15.000Z</time>
      </trkpt>
      <trkpt lat="47.27177" lon="-2.47589">
        <ele>-27.60000038147</ele>
        <time>2020-01-26T09:14:17.000Z</time>
      </trkpt>
      <trkpt lat="47.27177" lon="-2.47592">
        <ele>-28</ele>
        <time>2020-01-26T09:14:18.000Z</time>
      </trkpt>
      <trkpt lat="47.27175" lon="-2.47594">
        <ele>-28.39999961853</ele>
        <time>2020-01-26T09:14:19.000Z</time>
      </trkpt>
      <trkpt lat="47.27173" lon="-2.47596">
        <ele>-29</ele>
        <time>2020-01-26T09:14:20.000Z</time>
      </trkpt>
      <trkpt lat="47.27171" lon="-2.47598">
        <ele>-29.39999961853</ele>
        <time>2020-01-26T09:14:21.000Z</time>
      </trkpt>
      <trkpt lat="47.27169" lon="-2.47601">
        <ele>-29.799999237061</ele>
        <time>2020-01-26T09:14:22.000Z</time>
      </trkpt>
      <trkpt lat="47.27164" lon="-2.47611">
        <ele>-29.799999237061</ele>
        <time>2020-01-26T09:14:25.000Z</time>
      </trkpt>
      <trkpt lat="47.27161" lon="-2.47625">
        <ele>-29.799999237061</ele>
        <time>2020-01-26T09:14:30.000Z</time>
      </trkpt>
      <trkpt lat="47.2716" lon="-2.47624">
        <ele>-29.799999237061</ele>
        <time>2020-01-26T09:14:32.000Z</time>
      </trkpt>
      <trkpt lat="47.27161" lon="-2.47621">
        <ele>-30.200000762939</ele>
        <time>2020-01-26T09:14:42.000Z</time>
      </trkpt>
      <trkpt lat="47.27162" lon="-2.47618">
        <ele>-30.60000038147</ele>
        <time>2020-01-26T09:14:43.000Z</time>
      </trkpt>
      <trkpt lat="47.27162" lon="-2.47615">
        <ele>-31</ele>
        <time>2020-01-26T09:14:44.000Z</time>
      </trkpt>
      <trkpt lat="47.27163" lon="-2.47611">
        <ele>-31.39999961853</ele>
        <time>2020-01-26T09:14:45.000Z</time>
      </trkpt>
      <trkpt lat="47.27164" lon="-2.47607">
        <ele>-31.799999237061</ele>
        <time>2020-01-26T09:14:46.000Z</time>
      </trkpt>
      <trkpt lat="47.27168" lon="-2.47601">
        <ele>-31.799999237061</ele>
        <time>2020-01-26T09:14:48.000Z</time>
      </trkpt>
      <trkpt lat="47.27182" lon="-2.47587">
        <ele>-31.799999237061</ele>
        <time>2020-01-26T09:14:53.000Z</time>
      </trkpt>
      <trkpt lat="47.27184" lon="-2.47585">
        <ele>-31.799999237061</ele>
        <time>2020-01-26T09:14:54.000Z</time>
      </trkpt>
      <trkpt lat="47.27186" lon="-2.47585">
        <ele>-31.200000762939</ele>
        <time>2020-01-26T09:14:55.000Z</time>
      </trkpt>
      <trkpt lat="47.27188" lon="-2.47585">
        <ele>-30.799999237061</ele>
        <time>2020-01-26T09:14:56.000Z</time>
      </trkpt>
      <trkpt lat="47.27191" lon="-2.47584">
        <ele>-30.39999961853</ele>
        <time>2020-01-26T09:14:57.000Z</time>
      </trkpt>
      <trkpt lat="47.27194" lon="-2.47584">
        <ele>-29.39999961853</ele>
        <time>2020-01-26T09:14:58.000Z</time>
      </trkpt>
      <trkpt lat="47.27199" lon="-2.47591">
        <ele>-29.39999961853</ele>
        <time>2020-01-26T09:15:02.000Z</time>
      </trkpt>
      <trkpt lat="47.27199" lon="-2.47599">
        <ele>-29.39999961853</ele>
        <time>2020-01-26T09:15:04.000Z</time>
      </trkpt>
      <trkpt lat="47.27199" lon="-2.4761">
        <ele>-29.39999961853</ele>
        <time>2020-01-26T09:15:07.000Z</time>
      </trkpt>
      <trkpt lat="47.27201" lon="-2.47632">
        <ele>-29.39999961853</ele>
        <time>2020-01-26T09:15:13.000Z</time>
      </trkpt>
      <trkpt lat="47.27203" lon="-2.47653">
        <ele>-29.39999961853</ele>
        <time>2020-01-26T09:15:19.000Z</time>
      </trkpt>
      <trkpt lat="47.27205" lon="-2.47676">
        <ele>-29.39999961853</ele>
        <time>2020-01-26T09:15:25.000Z</time>
      </trkpt>
      <trkpt lat="47.27207" lon="-2.47695">
        <ele>-29.39999961853</ele>
        <time>2020-01-26T09:15:30.000Z</time>
      </trkpt>
      <trkpt lat="47.27212" lon="-2.47716">
        <ele>-29.39999961853</ele>
        <time>2020-01-26T09:15:35.000Z</time>
      </trkpt>
      <trkpt lat="47.2722" lon="-2.47734">
        <ele>-29.39999961853</ele>
        <time>2020-01-26T09:15:39.000Z</time>
      </trkpt>
      <trkpt lat="47.27223" lon="-2.4774">
        <ele>-29.39999961853</ele>
        <time>2020-01-26T09:15:40.000Z</time>
      </trkpt>
      <trkpt lat="47.27244" lon="-2.47787">
        <ele>-29.39999961853</ele>
        <time>2020-01-26T09:15:48.000Z</time>
      </trkpt>
      <trkpt lat="47.27247" lon="-2.47792">
        <ele>-29.39999961853</ele>
        <time>2020-01-26T09:15:49.000Z</time>
      </trkpt>
      <trkpt lat="47.27264" lon="-2.47816">
        <ele>-29.39999961853</ele>
        <time>2020-01-26T09:15:54.000Z</time>
      </trkpt>
      <trkpt lat="47.27293" lon="-2.47849">
        <ele>-29.39999961853</ele>
        <time>2020-01-26T09:16:03.000Z</time>
      </trkpt>
      <trkpt lat="47.27316" lon="-2.47867">
        <ele>-29.39999961853</ele>
        <time>2020-01-26T09:16:09.000Z</time>
      </trkpt>
      <trkpt lat="47.27346" lon="-2.4789">
        <ele>-29.39999961853</ele>
        <time>2020-01-26T09:16:16.000Z</time>
      </trkpt>
      <trkpt lat="47.27378" lon="-2.47915">
        <ele>-29.39999961853</ele>
        <time>2020-01-26T09:16:23.000Z</time>
      </trkpt>
      <trkpt lat="47.2741" lon="-2.47944">
        <ele>-29.39999961853</ele>
        <time>2020-01-26T09:16:30.000Z</time>
      </trkpt>
      <trkpt lat="47.27434" lon="-2.47977">
        <ele>-29.39999961853</ele>
        <time>2020-01-26T09:16:36.000Z</time>
      </trkpt>
      <trkpt lat="47.27454" lon="-2.48011">
        <ele>-29.39999961853</ele>
        <time>2020-01-26T09:16:42.000Z</time>
      </trkpt>
      <trkpt lat="47.2746" lon="-2.48022">
        <ele>-29</ele>
        <time>2020-01-26T09:16:44.000Z</time>
      </trkpt>
      <trkpt lat="47.27463" lon="-2.48029">
        <ele>-28.60000038147</ele>
        <time>2020-01-26T09:16:45.000Z</time>
      </trkpt>
      <trkpt lat="47.27465" lon="-2.48035">
        <ele>-28.200000762939</ele>
        <time>2020-01-26T09:16:46.000Z</time>
      </trkpt>
      <trkpt lat="47.27469" lon="-2.48041">
        <ele>-27.799999237061</ele>
        <time>2020-01-26T09:16:47.000Z</time>
      </trkpt>
      <trkpt lat="47.27471" lon="-2.48048">
        <ele>-27.39999961853</ele>
        <time>2020-01-26T09:16:48.000Z</time>
      </trkpt>
      <trkpt lat="47.27474" lon="-2.48054">
        <ele>-27.39999961853</ele>
        <time>2020-01-26T09:16:49.000Z</time>
      </trkpt>
      <trkpt lat="47.27489" lon="-2.48086">
        <ele>-27</ele>
        <time>2020-01-26T09:16:55.000Z</time>
      </trkpt>
      <trkpt lat="47.27491" lon="-2.48091">
        <ele>-26.39999961853</ele>
        <time>2020-01-26T09:16:56.000Z</time>
      </trkpt>
      <trkpt lat="47.27493" lon="-2.48095">
        <ele>-26</ele>
        <time>2020-01-26T09:16:57.000Z</time>
      </trkpt>
      <trkpt lat="47.27494" lon="-2.48099">
        <ele>-25.60000038147</ele>
        <time>2020-01-26T09:16:58.000Z</time>
      </trkpt>
      <trkpt lat="47.27496" lon="-2.48103">
        <ele>-25</ele>
        <time>2020-01-26T09:16:59.000Z</time>
      </trkpt>
      <trkpt lat="47.27498" lon="-2.48107">
        <ele>-25</ele>
        <time>2020-01-26T09:17:00.000Z</time>
      </trkpt>
      <trkpt lat="47.27504" lon="-2.48113">
        <ele>-25</ele>
        <time>2020-01-26T09:17:02.000Z</time>
      </trkpt>
      <trkpt lat="47.27512" lon="-2.48112">
        <ele>-25</ele>
        <time>2020-01-26T09:17:04.000Z</time>
      </trkpt>
      <trkpt lat="47.27526" lon="-2.48108">
        <ele>-25</ele>
        <time>2020-01-26T09:17:07.000Z</time>
      </trkpt>
      <trkpt lat="47.27535" lon="-2.48105">
        <ele>-25</ele>
        <time>2020-01-26T09:17:09.000Z</time>
      </trkpt>
      <trkpt lat="47.2754" lon="-2.48104">
        <ele>-25</ele>
        <time>2020-01-26T09:17:10.000Z</time>
      </trkpt>
      <trkpt lat="47.2755" lon="-2.48104">
        <ele>-25</ele>
        <time>2020-01-26T09:17:12.000Z</time>
      </trkpt>
      <trkpt lat="47.27573" lon="-2.48099">
        <ele>-25</ele>
        <time>2020-01-26T09:17:17.000Z</time>
      </trkpt>
      <trkpt lat="47.27578" lon="-2.48099">
        <ele>-25</ele>
        <time>2020-01-26T09:17:18.000Z</time>
      </trkpt>
      <trkpt lat="47.27592" lon="-2.48098">
        <ele>-25</ele>
        <time>2020-01-26T09:17:21.000Z</time>
      </trkpt>
      <trkpt lat="47.27602" lon="-2.48098">
        <ele>-25</ele>
        <time>2020-01-26T09:17:23.000Z</time>
      </trkpt>
      <trkpt lat="47.2761" lon="-2.48098">
        <ele>-25</ele>
        <time>2020-01-26T09:17:25.000Z</time>
      </trkpt>
      <trkpt lat="47.27617" lon="-2.48102">
        <ele>-24.60000038147</ele>
        <time>2020-01-26T09:17:27.000Z</time>
      </trkpt>
      <trkpt lat="47.27618" lon="-2.48104">
        <ele>-24.200000762939</ele>
        <time>2020-01-26T09:17:28.000Z</time>
      </trkpt>
      <trkpt lat="47.27619" lon="-2.48108">
        <ele>-23.799999237061</ele>
        <time>2020-01-26T09:17:29.000Z</time>
      </trkpt>
      <trkpt lat="47.2762" lon="-2.48112">
        <ele>-23.39999961853</ele>
        <time>2020-01-26T09:17:30.000Z</time>
      </trkpt>
      <trkpt lat="47.27621" lon="-2.48117">
        <ele>-23</ele>
        <time>2020-01-26T09:17:31.000Z</time>
      </trkpt>
      <trkpt lat="47.27623" lon="-2.48123">
        <ele>-23</ele>
        <time>2020-01-26T09:17:32.000Z</time>
      </trkpt>
      <trkpt lat="47.27631" lon="-2.48154">
        <ele>-23</ele>
        <time>2020-01-26T09:17:37.000Z</time>
      </trkpt>
      <trkpt lat="47.27638" lon="-2.48183">
        <ele>-23</ele>
        <time>2020-01-26T09:17:42.000Z</time>
      </trkpt>
      <trkpt lat="47.27638" lon="-2.48188">
        <ele>-23</ele>
        <time>2020-01-26T09:17:43.000Z</time>
      </trkpt>
      <trkpt lat="47.27642" lon="-2.48218">
        <ele>-23</ele>
        <time>2020-01-26T09:17:49.000Z</time>
      </trkpt>
      <trkpt lat="47.27639" lon="-2.48225">
        <ele>-23</ele>
        <time>2020-01-26T09:17:53.000Z</time>
      </trkpt>
      <trkpt lat="47.27634" lon="-2.48241">
        <ele>-23</ele>
        <time>2020-01-26T09:17:58.000Z</time>
      </trkpt>
      <trkpt lat="47.27635" lon="-2.48263">
        <ele>-23</ele>
        <time>2020-01-26T09:18:02.000Z</time>
      </trkpt>
      <trkpt lat="47.27643" lon="-2.48304">
        <ele>-23.39999961853</ele>
        <time>2020-01-26T09:18:08.000Z</time>
      </trkpt>
      <trkpt lat="47.27644" lon="-2.48312">
        <ele>-24</ele>
        <time>2020-01-26T09:18:09.000Z</time>
      </trkpt>
      <trkpt lat="47.27645" lon="-2.4832">
        <ele>-24.39999961853</ele>
        <time>2020-01-26T09:18:10.000Z</time>
      </trkpt>
      <trkpt lat="47.27645" lon="-2.48329">
        <ele>-24.799999237061</ele>
        <time>2020-01-26T09:18:11.000Z</time>
      </trkpt>
      <trkpt lat="47.27646" lon="-2.48338">
        <ele>-25.200000762939</ele>
        <time>2020-01-26T09:18:12.000Z</time>
      </trkpt>
      <trkpt lat="47.27646" lon="-2.48356">
        <ele>-25.200000762939</ele>
        <time>2020-01-26T09:18:14.000Z</time>
      </trkpt>
      <trkpt lat="47.27649" lon="-2.48396">
        <ele>-25.60000038147</ele>
        <time>2020-01-26T09:18:18.000Z</time>
      </trkpt>
      <trkpt lat="47.2765" lon="-2.48407">
        <ele>-26</ele>
        <time>2020-01-26T09:18:19.000Z</time>
      </trkpt>
      <trkpt lat="47.27652" lon="-2.48417">
        <ele>-26.39999961853</ele>
        <time>2020-01-26T09:18:20.000Z</time>
      </trkpt>
      <trkpt lat="47.27653" lon="-2.48427">
        <ele>-26.799999237061</ele>
        <time>2020-01-26T09:18:21.000Z</time>
      </trkpt>
      <trkpt lat="47.27654" lon="-2.48436">
        <ele>-27.200000762939</ele>
        <time>2020-01-26T09:18:22.000Z</time>
      </trkpt>
      <trkpt lat="47.27657" lon="-2.48459">
        <ele>-27.200000762939</ele>
        <time>2020-01-26T09:18:25.000Z</time>
      </trkpt>
      <trkpt lat="47.27661" lon="-2.48481">
        <ele>-27.200000762939</ele>
        <time>2020-01-26T09:18:29.000Z</time>
      </trkpt>
      <trkpt lat="47.27664" lon="-2.48488">
        <ele>-27.200000762939</ele>
        <time>2020-01-26T09:18:30.000Z</time>
      </trkpt>
      <trkpt lat="47.2767" lon="-2.48508">
        <ele>-27.200000762939</ele>
        <time>2020-01-26T09:18:33.000Z</time>
      </trkpt>
      <trkpt lat="47.27672" lon="-2.48523">
        <ele>-27.200000762939</ele>
        <time>2020-01-26T09:18:35.000Z</time>
      </trkpt>
      <trkpt lat="47.27677" lon="-2.48551">
        <ele>-27.200000762939</ele>
        <time>2020-01-26T09:18:39.000Z</time>
      </trkpt>
      <trkpt lat="47.27684" lon="-2.48587">
        <ele>-27.200000762939</ele>
        <time>2020-01-26T09:18:44.000Z</time>
      </trkpt>
      <trkpt lat="47.27687" lon="-2.48602">
        <ele>-27.200000762939</ele>
        <time>2020-01-26T09:18:46.000Z</time>
      </trkpt>
      <trkpt lat="47.27691" lon="-2.48633">
        <ele>-27.60000038147</ele>
        <time>2020-01-26T09:18:50.000Z</time>
      </trkpt>
      <trkpt lat="47.27692" lon="-2.4864">
        <ele>-28</ele>
        <time>2020-01-26T09:18:51.000Z</time>
      </trkpt>
      <trkpt lat="47.27694" lon="-2.48648">
        <ele>-28.39999961853</ele>
        <time>2020-01-26T09:18:52.000Z</time>
      </trkpt>
      <trkpt lat="47.27695" lon="-2.48656">
        <ele>-29</ele>
        <time>2020-01-26T09:18:53.000Z</time>
      </trkpt>
      <trkpt lat="47.27695" lon="-2.48664">
        <ele>-29.39999961853</ele>
        <time>2020-01-26T09:18:54.000Z</time>
      </trkpt>
      <trkpt lat="47.27697" lon="-2.48704">
        <ele>-29.39999961853</ele>
        <time>2020-01-26T09:18:59.000Z</time>
      </trkpt>
      <trkpt lat="47.27698" lon="-2.48755">
        <ele>-29.39999961853</ele>
        <time>2020-01-26T09:19:06.000Z</time>
      </trkpt>
      <trkpt lat="47.27697" lon="-2.48776">
        <ele>-29</ele>
        <time>2020-01-26T09:19:10.000Z</time>
      </trkpt>
      <trkpt lat="47.27697" lon="-2.48782">
        <ele>-28.39999961853</ele>
        <time>2020-01-26T09:19:11.000Z</time>
      </trkpt>
      <trkpt lat="47.27698" lon="-2.48788">
        <ele>-28</ele>
        <time>2020-01-26T09:19:12.000Z</time>
      </trkpt>
      <trkpt lat="47.27697" lon="-2.48794">
        <ele>-27.60000038147</ele>
        <time>2020-01-26T09:19:13.000Z</time>
      </trkpt>
      <trkpt lat="47.27697" lon="-2.488">
        <ele>-27.200000762939</ele>
        <time>2020-01-26T09:19:14.000Z</time>
      </trkpt>
      <trkpt lat="47.27697" lon="-2.48826">
        <ele>-27.200000762939</ele>
        <time>2020-01-26T09:19:18.000Z</time>
      </trkpt>
      <trkpt lat="47.27698" lon="-2.4884">
        <ele>-27.200000762939</ele>
        <time>2020-01-26T09:19:20.000Z</time>
      </trkpt>
      <trkpt lat="47.27699" lon="-2.48861">
        <ele>-27.200000762939</ele>
        <time>2020-01-26T09:19:23.000Z</time>
      </trkpt>
      <trkpt lat="47.27701" lon="-2.48903">
        <ele>-27.200000762939</ele>
        <time>2020-01-26T09:19:29.000Z</time>
      </trkpt>
      <trkpt lat="47.27699" lon="-2.48909">
        <ele>-27.200000762939</ele>
        <time>2020-01-26T09:19:30.000Z</time>
      </trkpt>
      <trkpt lat="47.27686" lon="-2.48916">
        <ele>-27.200000762939</ele>
        <time>2020-01-26T09:19:33.000Z</time>
      </trkpt>
      <trkpt lat="47.27682" lon="-2.48917">
        <ele>-27.200000762939</ele>
        <time>2020-01-26T09:19:34.000Z</time>
      </trkpt>
      <trkpt lat="47.27663" lon="-2.48924">
        <ele>-27.200000762939</ele>
        <time>2020-01-26T09:19:39.000Z</time>
      </trkpt>
      <trkpt lat="47.27662" lon="-2.48928">
        <ele>-27.200000762939</ele>
        <time>2020-01-26T09:19:40.000Z</time>
      </trkpt>
      <trkpt lat="47.27662" lon="-2.4894">
        <ele>-27.200000762939</ele>
        <time>2020-01-26T09:19:42.000Z</time>
      </trkpt>
      <trkpt lat="47.27662" lon="-2.48952">
        <ele>-27.200000762939</ele>
        <time>2020-01-26T09:19:44.000Z</time>
      </trkpt>
      <trkpt lat="47.27663" lon="-2.48965">
        <ele>-27.200000762939</ele>
        <time>2020-01-26T09:19:46.000Z</time>
      </trkpt>
      <trkpt lat="47.27662" lon="-2.48971">
        <ele>-27.200000762939</ele>
        <time>2020-01-26T09:19:47.000Z</time>
      </trkpt>
      <trkpt lat="47.27651" lon="-2.4898">
        <ele>-27.200000762939</ele>
        <time>2020-01-26T09:19:50.000Z</time>
      </trkpt>
      <trkpt lat="47.27642" lon="-2.48983">
        <ele>-27.200000762939</ele>
        <time>2020-01-26T09:19:52.000Z</time>
      </trkpt>
      <trkpt lat="47.27625" lon="-2.48987">
        <ele>-27.200000762939</ele>
        <time>2020-01-26T09:19:56.000Z</time>
      </trkpt>
      <trkpt lat="47.27598" lon="-2.48995">
        <ele>-27.200000762939</ele>
        <time>2020-01-26T09:20:03.000Z</time>
      </trkpt>
      <trkpt lat="47.27597" lon="-2.49">
        <ele>-27.200000762939</ele>
        <time>2020-01-26T09:20:04.000Z</time>
      </trkpt>
      <trkpt lat="47.27596" lon="-2.49012">
        <ele>-27.200000762939</ele>
        <time>2020-01-26T09:20:06.000Z</time>
      </trkpt>
      <trkpt lat="47.27594" lon="-2.4906">
        <ele>-27.200000762939</ele>
        <time>2020-01-26T09:20:12.000Z</time>
      </trkpt>
      <trkpt lat="47.27596" lon="-2.49118">
        <ele>-27.60000038147</ele>
        <time>2020-01-26T09:20:18.000Z</time>
      </trkpt>
      <trkpt lat="47.27598" lon="-2.49128">
        <ele>-28.200000762939</ele>
        <time>2020-01-26T09:20:19.000Z</time>
      </trkpt>
      <trkpt lat="47.27599" lon="-2.49138">
        <ele>-28.60000038147</ele>
        <time>2020-01-26T09:20:20.000Z</time>
      </trkpt>
      <trkpt lat="47.27601" lon="-2.49148">
        <ele>-29.39999961853</ele>
        <time>2020-01-26T09:20:21.000Z</time>
      </trkpt>
      <trkpt lat="47.27603" lon="-2.49157">
        <ele>-29.39999961853</ele>
        <time>2020-01-26T09:20:22.000Z</time>
      </trkpt>
      <trkpt lat="47.27607" lon="-2.49167">
        <ele>-29.39999961853</ele>
        <time>2020-01-26T09:20:23.000Z</time>
      </trkpt>
      <trkpt lat="47.27618" lon="-2.49192">
        <ele>-29.39999961853</ele>
        <time>2020-01-26T09:20:26.000Z</time>
      </trkpt>
      <trkpt lat="47.27627" lon="-2.49206">
        <ele>-29.39999961853</ele>
        <time>2020-01-26T09:20:28.000Z</time>
      </trkpt>
      <trkpt lat="47.27637" lon="-2.49218">
        <ele>-29.799999237061</ele>
        <time>2020-01-26T09:20:30.000Z</time>
      </trkpt>
      <trkpt lat="47.27642" lon="-2.49222">
        <ele>-30.200000762939</ele>
        <time>2020-01-26T09:20:31.000Z</time>
      </trkpt>
      <trkpt lat="47.27647" lon="-2.49225">
        <ele>-30.60000038147</ele>
        <time>2020-01-26T09:20:32.000Z</time>
      </trkpt>
      <trkpt lat="47.27652" lon="-2.49229">
        <ele>-31</ele>
        <time>2020-01-26T09:20:33.000Z</time>
      </trkpt>
      <trkpt lat="47.27657" lon="-2.49233">
        <ele>-31.39999961853</ele>
        <time>2020-01-26T09:20:34.000Z</time>
      </trkpt>
      <trkpt lat="47.27674" lon="-2.49241">
        <ele>-31.39999961853</ele>
        <time>2020-01-26T09:20:37.000Z</time>
      </trkpt>
      <trkpt lat="47.27685" lon="-2.49244">
        <ele>-31.39999961853</ele>
        <time>2020-01-26T09:20:39.000Z</time>
      </trkpt>
      <trkpt lat="47.27708" lon="-2.49249">
        <ele>-31.39999961853</ele>
        <time>2020-01-26T09:20:43.000Z</time>
      </trkpt>
      <trkpt lat="47.27745" lon="-2.49249">
        <ele>-31.39999961853</ele>
        <time>2020-01-26T09:20:49.000Z</time>
      </trkpt>
      <trkpt lat="47.27793" lon="-2.49254">
        <ele>-31.39999961853</ele>
        <time>2020-01-26T09:20:57.000Z</time>
      </trkpt>
      <trkpt lat="47.27832" lon="-2.49263">
        <ele>-31.39999961853</ele>
        <time>2020-01-26T09:21:04.000Z</time>
      </trkpt>
      <trkpt lat="47.27846" lon="-2.49263">
        <ele>-31.39999961853</ele>
        <time>2020-01-26T09:21:08.000Z</time>
      </trkpt>
      <trkpt lat="47.27854" lon="-2.49259">
        <ele>-31.39999961853</ele>
        <time>2020-01-26T09:21:12.000Z</time>
      </trkpt>
      <trkpt lat="47.27858" lon="-2.49248">
        <ele>-31.39999961853</ele>
        <time>2020-01-26T09:21:16.000Z</time>
      </trkpt>
      <trkpt lat="47.27858" lon="-2.49245">
        <ele>-31.39999961853</ele>
        <time>2020-01-26T09:21:17.000Z</time>
      </trkpt>
      <trkpt lat="47.27859" lon="-2.49242">
        <ele>-31.39999961853</ele>
        <time>2020-01-26T09:21:20.000Z</time>
      </trkpt>
      <trkpt lat="47.27863" lon="-2.49241">
        <ele>-31.39999961853</ele>
        <time>2020-01-26T09:21:47.000Z</time>
      </trkpt>
      <trkpt lat="47.2787" lon="-2.49237">
        <ele>-31.39999961853</ele>
        <time>2020-01-26T09:21:51.000Z</time>
      </trkpt>
      <trkpt lat="47.27885" lon="-2.49235">
        <ele>-31.39999961853</ele>
        <time>2020-01-26T09:21:55.000Z</time>
      </trkpt>
      <trkpt lat="47.27896" lon="-2.49222">
        <ele>-31.39999961853</ele>
        <time>2020-01-26T09:21:58.000Z</time>
      </trkpt>
      <trkpt lat="47.279" lon="-2.49218">
        <ele>-31.39999961853</ele>
        <time>2020-01-26T09:21:59.000Z</time>
      </trkpt>
      <trkpt lat="47.27903" lon="-2.49213">
        <ele>-31.39999961853</ele>
        <time>2020-01-26T09:22:00.000Z</time>
      </trkpt>
      <trkpt lat="47.27918" lon="-2.49192">
        <ele>-31.39999961853</ele>
        <time>2020-01-26T09:22:04.000Z</time>
      </trkpt>
      <trkpt lat="47.27942" lon="-2.49165">
        <ele>-31.39999961853</ele>
        <time>2020-01-26T09:22:11.000Z</time>
      </trkpt>
      <trkpt lat="47.27956" lon="-2.4915">
        <ele>-31.39999961853</ele>
        <time>2020-01-26T09:22:15.000Z</time>
      </trkpt>
      <trkpt lat="47.2796" lon="-2.49145">
        <ele>-32</ele>
        <time>2020-01-26T09:22:17.000Z</time>
      </trkpt>
      <trkpt lat="47.27963" lon="-2.49146">
        <ele>-32.400001525879</ele>
        <time>2020-01-26T09:22:18.000Z</time>
      </trkpt>
      <trkpt lat="47.27964" lon="-2.49149">
        <ele>-32.799999237061</ele>
        <time>2020-01-26T09:22:19.000Z</time>
      </trkpt>
      <trkpt lat="47.27964" lon="-2.49154">
        <ele>-33.200000762939</ele>
        <time>2020-01-26T09:22:20.000Z</time>
      </trkpt>
      <trkpt lat="47.27965" lon="-2.49158">
        <ele>-33.599998474121</ele>
        <time>2020-01-26T09:22:21.000Z</time>
      </trkpt>
      <trkpt lat="47.27965" lon="-2.49163">
        <ele>-33.599998474121</ele>
        <time>2020-01-26T09:22:22.000Z</time>
      </trkpt>
      <trkpt lat="47.27971" lon="-2.49183">
        <ele>-33.599998474121</ele>
        <time>2020-01-26T09:22:26.000Z</time>
      </trkpt>
      <trkpt lat="47.27976" lon="-2.49213">
        <ele>-33.599998474121</ele>
        <time>2020-01-26T09:22:31.000Z</time>
      </trkpt>
      <trkpt lat="47.27977" lon="-2.49219">
        <ele>-33.599998474121</ele>
        <time>2020-01-26T09:22:32.000Z</time>
      </trkpt>
      <trkpt lat="47.27982" lon="-2.4924">
        <ele>-33.599998474121</ele>
        <time>2020-01-26T09:22:35.000Z</time>
      </trkpt>
      <trkpt lat="47.27983" lon="-2.49247">
        <ele>-33.599998474121</ele>
        <time>2020-01-26T09:22:36.000Z</time>
      </trkpt>
      <trkpt lat="47.27991" lon="-2.49292">
        <ele>-33.599998474121</ele>
        <time>2020-01-26T09:22:42.000Z</time>
      </trkpt>
      <trkpt lat="47.28004" lon="-2.4934">
        <ele>-33.599998474121</ele>
        <time>2020-01-26T09:22:49.000Z</time>
      </trkpt>
      <trkpt lat="47.28014" lon="-2.49385">
        <ele>-33.599998474121</ele>
        <time>2020-01-26T09:22:56.000Z</time>
      </trkpt>
      <trkpt lat="47.28016" lon="-2.49416">
        <ele>-33.599998474121</ele>
        <time>2020-01-26T09:23:02.000Z</time>
      </trkpt>
      <trkpt lat="47.28017" lon="-2.49421">
        <ele>-33.200000762939</ele>
        <time>2020-01-26T09:23:03.000Z</time>
      </trkpt>
      <trkpt lat="47.28017" lon="-2.49425">
        <ele>-32.799999237061</ele>
        <time>2020-01-26T09:23:04.000Z</time>
      </trkpt>
      <trkpt lat="47.28018" lon="-2.4943">
        <ele>-32.200000762939</ele>
        <time>2020-01-26T09:23:05.000Z</time>
      </trkpt>
      <trkpt lat="47.28019" lon="-2.49434">
        <ele>-31.799999237061</ele>
        <time>2020-01-26T09:23:06.000Z</time>
      </trkpt>
      <trkpt lat="47.28021" lon="-2.49438">
        <ele>-31.39999961853</ele>
        <time>2020-01-26T09:23:07.000Z</time>
      </trkpt>
      <trkpt lat="47.28023" lon="-2.49443">
        <ele>-31.39999961853</ele>
        <time>2020-01-26T09:23:08.000Z</time>
      </trkpt>
      <trkpt lat="47.28029" lon="-2.49475">
        <ele>-31.39999961853</ele>
        <time>2020-01-26T09:23:14.000Z</time>
      </trkpt>
      <trkpt lat="47.28029" lon="-2.49481">
        <ele>-31.39999961853</ele>
        <time>2020-01-26T09:23:17.000Z</time>
      </trkpt>
      <trkpt lat="47.28029" lon="-2.495">
        <ele>-31.39999961853</ele>
        <time>2020-01-26T09:23:46.000Z</time>
      </trkpt>
      <trkpt lat="47.28032" lon="-2.49509">
        <ele>-31.39999961853</ele>
        <time>2020-01-26T09:23:49.000Z</time>
      </trkpt>
      <trkpt lat="47.28045" lon="-2.49532">
        <ele>-31.39999961853</ele>
        <time>2020-01-26T09:23:54.000Z</time>
      </trkpt>
      <trkpt lat="47.28064" lon="-2.49553">
        <ele>-31.39999961853</ele>
        <time>2020-01-26T09:23:59.000Z</time>
      </trkpt>
      <trkpt lat="47.28068" lon="-2.49559">
        <ele>-31.39999961853</ele>
        <time>2020-01-26T09:24:00.000Z</time>
      </trkpt>
      <trkpt lat="47.28072" lon="-2.49564">
        <ele>-31.39999961853</ele>
        <time>2020-01-26T09:24:01.000Z</time>
      </trkpt>
      <trkpt lat="47.28087" lon="-2.49583">
        <ele>-31.39999961853</ele>
        <time>2020-01-26T09:24:05.000Z</time>
      </trkpt>
      <trkpt lat="47.28101" lon="-2.49611">
        <ele>-31.39999961853</ele>
        <time>2020-01-26T09:24:11.000Z</time>
      </trkpt>
      <trkpt lat="47.28104" lon="-2.49616">
        <ele>-31.39999961853</ele>
        <time>2020-01-26T09:24:12.000Z</time>
      </trkpt>
      <trkpt lat="47.28117" lon="-2.49633">
        <ele>-31.39999961853</ele>
        <time>2020-01-26T09:24:16.000Z</time>
      </trkpt>
      <trkpt lat="47.2812" lon="-2.49638">
        <ele>-31.39999961853</ele>
        <time>2020-01-26T09:24:17.000Z</time>
      </trkpt>
      <trkpt lat="47.28127" lon="-2.49655">
        <ele>-31.39999961853</ele>
        <time>2020-01-26T09:24:20.000Z</time>
      </trkpt>
      <trkpt lat="47.28129" lon="-2.4966">
        <ele>-31.39999961853</ele>
        <time>2020-01-26T09:24:21.000Z</time>
      </trkpt>
      <trkpt lat="47.28134" lon="-2.49681">
        <ele>-31.39999961853</ele>
        <time>2020-01-26T09:24:25.000Z</time>
      </trkpt>
      <trkpt lat="47.28138" lon="-2.4971">
        <ele>-31.39999961853</ele>
        <time>2020-01-26T09:24:30.000Z</time>
      </trkpt>
      <trkpt lat="47.28143" lon="-2.49763">
        <ele>-31.39999961853</ele>
        <time>2020-01-26T09:24:39.000Z</time>
      </trkpt>
      <trkpt lat="47.28149" lon="-2.49809">
        <ele>-31.39999961853</ele>
        <time>2020-01-26T09:24:46.000Z</time>
      </trkpt>
      <trkpt lat="47.2815" lon="-2.49817">
        <ele>-31.799999237061</ele>
        <time>2020-01-26T09:24:47.000Z</time>
      </trkpt>
      <trkpt lat="47.28152" lon="-2.49823">
        <ele>-32.200000762939</ele>
        <time>2020-01-26T09:24:48.000Z</time>
      </trkpt>
      <trkpt lat="47.28152" lon="-2.49828">
        <ele>-32.599998474121</ele>
        <time>2020-01-26T09:24:49.000Z</time>
      </trkpt>
      <trkpt lat="47.28152" lon="-2.49834">
        <ele>-33</ele>
        <time>2020-01-26T09:24:50.000Z</time>
      </trkpt>
      <trkpt lat="47.28152" lon="-2.49841">
        <ele>-33.400001525879</ele>
        <time>2020-01-26T09:24:51.000Z</time>
      </trkpt>
      <trkpt lat="47.28152" lon="-2.49848">
        <ele>-33.400001525879</ele>
        <time>2020-01-26T09:24:52.000Z</time>
      </trkpt>
      <trkpt lat="47.28153" lon="-2.49854">
        <ele>-33.400001525879</ele>
        <time>2020-01-26T09:24:53.000Z</time>
      </trkpt>
      <trkpt lat="47.28156" lon="-2.49874">
        <ele>-33.400001525879</ele>
        <time>2020-01-26T09:24:56.000Z</time>
      </trkpt>
      <trkpt lat="47.28158" lon="-2.49901">
        <ele>-33.400001525879</ele>
        <time>2020-01-26T09:25:00.000Z</time>
      </trkpt>
      <trkpt lat="47.28158" lon="-2.49907">
        <ele>-33.400001525879</ele>
        <time>2020-01-26T09:25:01.000Z</time>
      </trkpt>
      <trkpt lat="47.2816" lon="-2.49926">
        <ele>-33.400001525879</ele>
        <time>2020-01-26T09:25:04.000Z</time>
      </trkpt>
      <trkpt lat="47.28164" lon="-2.49941">
        <ele>-33.400001525879</ele>
        <time>2020-01-26T09:25:06.000Z</time>
      </trkpt>
      <trkpt lat="47.28173" lon="-2.49989">
        <ele>-33.400001525879</ele>
        <time>2020-01-26T09:25:12.000Z</time>
      </trkpt>
      <trkpt lat="47.28174" lon="-2.50003">
        <ele>-33.400001525879</ele>
        <time>2020-01-26T09:25:14.000Z</time>
      </trkpt>
      <trkpt lat="47.28176" lon="-2.50015">
        <ele>-33.400001525879</ele>
        <time>2020-01-26T09:25:16.000Z</time>
      </trkpt>
      <trkpt lat="47.28178" lon="-2.5002">
        <ele>-33.400001525879</ele>
        <time>2020-01-26T09:25:17.000Z</time>
      </trkpt>
      <trkpt lat="47.28183" lon="-2.50041">
        <ele>-33.400001525879</ele>
        <time>2020-01-26T09:25:21.000Z</time>
      </trkpt>
      <trkpt lat="47.28184" lon="-2.50048">
        <ele>-33.400001525879</ele>
        <time>2020-01-26T09:25:22.000Z</time>
      </trkpt>
      <trkpt lat="47.28185" lon="-2.50061">
        <ele>-33.400001525879</ele>
        <time>2020-01-26T09:25:24.000Z</time>
      </trkpt>
      <trkpt lat="47.28187" lon="-2.50073">
        <ele>-33.400001525879</ele>
        <time>2020-01-26T09:25:26.000Z</time>
      </trkpt>
      <trkpt lat="47.28193" lon="-2.50109">
        <ele>-33.400001525879</ele>
        <time>2020-01-26T09:25:32.000Z</time>
      </trkpt>
      <trkpt lat="47.28196" lon="-2.50122">
        <ele>-33.400001525879</ele>
        <time>2020-01-26T09:25:34.000Z</time>
      </trkpt>
      <trkpt lat="47.28201" lon="-2.50151">
        <ele>-33.400001525879</ele>
        <time>2020-01-26T09:25:38.000Z</time>
      </trkpt>
      <trkpt lat="47.28204" lon="-2.50168">
        <ele>-33.400001525879</ele>
        <time>2020-01-26T09:25:40.000Z</time>
      </trkpt>
      <trkpt lat="47.28212" lon="-2.50189">
        <ele>-33.400001525879</ele>
        <time>2020-01-26T09:25:43.000Z</time>
      </trkpt>
      <trkpt lat="47.28228" lon="-2.50222">
        <ele>-33.400001525879</ele>
        <time>2020-01-26T09:25:48.000Z</time>
      </trkpt>
      <trkpt lat="47.28235" lon="-2.50235">
        <ele>-33.400001525879</ele>
        <time>2020-01-26T09:25:50.000Z</time>
      </trkpt>
      <trkpt lat="47.28251" lon="-2.50256">
        <ele>-33.400001525879</ele>
        <time>2020-01-26T09:25:54.000Z</time>
      </trkpt>
      <trkpt lat="47.28261" lon="-2.50272">
        <ele>-33.400001525879</ele>
        <time>2020-01-26T09:25:57.000Z</time>
      </trkpt>
      <trkpt lat="47.28267" lon="-2.50283">
        <ele>-33.400001525879</ele>
        <time>2020-01-26T09:25:59.000Z</time>
      </trkpt>
      <trkpt lat="47.2827" lon="-2.50295">
        <ele>-33.799999237061</ele>
        <time>2020-01-26T09:26:01.000Z</time>
      </trkpt>
      <trkpt lat="47.28273" lon="-2.503">
        <ele>-34.200000762939</ele>
        <time>2020-01-26T09:26:02.000Z</time>
      </trkpt>
      <trkpt lat="47.28274" lon="-2.50306">
        <ele>-34.599998474121</ele>
        <time>2020-01-26T09:26:03.000Z</time>
      </trkpt>
      <trkpt lat="47.28276" lon="-2.50313">
        <ele>-35</ele>
        <time>2020-01-26T09:26:04.000Z</time>
      </trkpt>
      <trkpt lat="47.28277" lon="-2.5032">
        <ele>-35.400001525879</ele>
        <time>2020-01-26T09:26:05.000Z</time>
      </trkpt>
      <trkpt lat="47.28278" lon="-2.50327">
        <ele>-35.400001525879</ele>
        <time>2020-01-26T09:26:06.000Z</time>
      </trkpt>
      <trkpt lat="47.28281" lon="-2.50349">
        <ele>-35.400001525879</ele>
        <time>2020-01-26T09:26:09.000Z</time>
      </trkpt>
      <trkpt lat="47.28282" lon="-2.50357">
        <ele>-35.400001525879</ele>
        <time>2020-01-26T09:26:10.000Z</time>
      </trkpt>
      <trkpt lat="47.28282" lon="-2.50372">
        <ele>-35.400001525879</ele>
        <time>2020-01-26T09:26:12.000Z</time>
      </trkpt>
      <trkpt lat="47.28281" lon="-2.50394">
        <ele>-35.400001525879</ele>
        <time>2020-01-26T09:26:15.000Z</time>
      </trkpt>
      <trkpt lat="47.28279" lon="-2.50402">
        <ele>-35.400001525879</ele>
        <time>2020-01-26T09:26:16.000Z</time>
      </trkpt>
      <trkpt lat="47.28262" lon="-2.50483">
        <ele>-35.400001525879</ele>
        <time>2020-01-26T09:26:27.000Z</time>
      </trkpt>
      <trkpt lat="47.2826" lon="-2.5049">
        <ele>-35</ele>
        <time>2020-01-26T09:26:28.000Z</time>
      </trkpt>
      <trkpt lat="47.28259" lon="-2.50497">
        <ele>-34.599998474121</ele>
        <time>2020-01-26T09:26:29.000Z</time>
      </trkpt>
      <trkpt lat="47.28257" lon="-2.50505">
        <ele>-34.200000762939</ele>
        <time>2020-01-26T09:26:30.000Z</time>
      </trkpt>
      <trkpt lat="47.28255" lon="-2.50512">
        <ele>-33.400001525879</ele>
        <time>2020-01-26T09:26:31.000Z</time>
      </trkpt>
      <trkpt lat="47.2825" lon="-2.50533">
        <ele>-33.400001525879</ele>
        <time>2020-01-26T09:26:34.000Z</time>
      </trkpt>
      <trkpt lat="47.28237" lon="-2.50579">
        <ele>-33.400001525879</ele>
        <time>2020-01-26T09:26:41.000Z</time>
      </trkpt>
      <trkpt lat="47.28222" lon="-2.50637">
        <ele>-33.400001525879</ele>
        <time>2020-01-26T09:26:50.000Z</time>
      </trkpt>
      <trkpt lat="47.28215" lon="-2.50676">
        <ele>-33.400001525879</ele>
        <time>2020-01-26T09:26:56.000Z</time>
      </trkpt>
      <trkpt lat="47.28213" lon="-2.50682">
        <ele>-33.400001525879</ele>
        <time>2020-01-26T09:26:57.000Z</time>
      </trkpt>
      <trkpt lat="47.28206" lon="-2.50713">
        <ele>-33.400001525879</ele>
        <time>2020-01-26T09:27:03.000Z</time>
      </trkpt>
      <trkpt lat="47.28203" lon="-2.50736">
        <ele>-33.400001525879</ele>
        <time>2020-01-26T09:27:08.000Z</time>
      </trkpt>
      <trkpt lat="47.28207" lon="-2.50776">
        <ele>-33.400001525879</ele>
        <time>2020-01-26T09:27:15.000Z</time>
      </trkpt>
      <trkpt lat="47.28213" lon="-2.50819">
        <ele>-33.400001525879</ele>
        <time>2020-01-26T09:27:21.000Z</time>
      </trkpt>
      <trkpt lat="47.2822" lon="-2.50844">
        <ele>-33.400001525879</ele>
        <time>2020-01-26T09:27:25.000Z</time>
      </trkpt>
      <trkpt lat="47.28227" lon="-2.50863">
        <ele>-33.400001525879</ele>
        <time>2020-01-26T09:27:28.000Z</time>
      </trkpt>
      <trkpt lat="47.28229" lon="-2.50871">
        <ele>-33.400001525879</ele>
        <time>2020-01-26T09:27:29.000Z</time>
      </trkpt>
      <trkpt lat="47.28237" lon="-2.50904">
        <ele>-33.400001525879</ele>
        <time>2020-01-26T09:27:33.000Z</time>
      </trkpt>
      <trkpt lat="47.28248" lon="-2.50974">
        <ele>-33.400001525879</ele>
        <time>2020-01-26T09:27:41.000Z</time>
      </trkpt>
      <trkpt lat="47.28254" lon="-2.51026">
        <ele>-33.400001525879</ele>
        <time>2020-01-26T09:27:47.000Z</time>
      </trkpt>
      <trkpt lat="47.28262" lon="-2.51054">
        <ele>-33.400001525879</ele>
        <time>2020-01-26T09:27:51.000Z</time>
      </trkpt>
      <trkpt lat="47.28266" lon="-2.51068">
        <ele>-33.400001525879</ele>
        <time>2020-01-26T09:27:53.000Z</time>
      </trkpt>
      <trkpt lat="47.28287" lon="-2.51125">
        <ele>-33.400001525879</ele>
        <time>2020-01-26T09:28:01.000Z</time>
      </trkpt>
      <trkpt lat="47.28311" lon="-2.51191">
        <ele>-33.400001525879</ele>
        <time>2020-01-26T09:28:10.000Z</time>
      </trkpt>
      <trkpt lat="47.28319" lon="-2.51203">
        <ele>-33.400001525879</ele>
        <time>2020-01-26T09:28:12.000Z</time>
      </trkpt>
      <trkpt lat="47.28329" lon="-2.51211">
        <ele>-33.400001525879</ele>
        <time>2020-01-26T09:28:14.000Z</time>
      </trkpt>
      <trkpt lat="47.28339" lon="-2.51219">
        <ele>-33.400001525879</ele>
        <time>2020-01-26T09:28:16.000Z</time>
      </trkpt>
      <trkpt lat="47.28359" lon="-2.51232">
        <ele>-33.400001525879</ele>
        <time>2020-01-26T09:28:20.000Z</time>
      </trkpt>
      <trkpt lat="47.2839" lon="-2.51252">
        <ele>-33.400001525879</ele>
        <time>2020-01-26T09:28:26.000Z</time>
      </trkpt>
      <trkpt lat="47.28396" lon="-2.51256">
        <ele>-33.400001525879</ele>
        <time>2020-01-26T09:28:27.000Z</time>
      </trkpt>
      <trkpt lat="47.28415" lon="-2.5127">
        <ele>-33.400001525879</ele>
        <time>2020-01-26T09:28:31.000Z</time>
      </trkpt>
      <trkpt lat="47.28424" lon="-2.51281">
        <ele>-33.400001525879</ele>
        <time>2020-01-26T09:28:33.000Z</time>
      </trkpt>
      <trkpt lat="47.28431" lon="-2.51293">
        <ele>-33.400001525879</ele>
        <time>2020-01-26T09:28:35.000Z</time>
      </trkpt>
      <trkpt lat="47.28439" lon="-2.51312">
        <ele>-33.400001525879</ele>
        <time>2020-01-26T09:28:38.000Z</time>
      </trkpt>
      <trkpt lat="47.28448" lon="-2.51343">
        <ele>-33.400001525879</ele>
        <time>2020-01-26T09:28:42.000Z</time>
      </trkpt>
      <trkpt lat="47.28448" lon="-2.51352">
        <ele>-33.400001525879</ele>
        <time>2020-01-26T09:28:43.000Z</time>
      </trkpt>
      <trkpt lat="47.28458" lon="-2.51416">
        <ele>-33.400001525879</ele>
        <time>2020-01-26T09:28:50.000Z</time>
      </trkpt>
      <trkpt lat="47.28473" lon="-2.51439">
        <ele>-33.400001525879</ele>
        <time>2020-01-26T09:28:54.000Z</time>
      </trkpt>
      <trkpt lat="47.28478" lon="-2.51444">
        <ele>-33.400001525879</ele>
        <time>2020-01-26T09:28:55.000Z</time>
      </trkpt>
      <trkpt lat="47.28507" lon="-2.51474">
        <ele>-33.400001525879</ele>
        <time>2020-01-26T09:29:01.000Z</time>
      </trkpt>
      <trkpt lat="47.28523" lon="-2.51498">
        <ele>-33.400001525879</ele>
        <time>2020-01-26T09:29:06.000Z</time>
      </trkpt>
      <trkpt lat="47.2853" lon="-2.51503">
        <ele>-33.400001525879</ele>
        <time>2020-01-26T09:29:10.000Z</time>
      </trkpt>
      <trkpt lat="47.28533" lon="-2.51504">
        <ele>-33.400001525879</ele>
        <time>2020-01-26T09:29:15.000Z</time>
      </trkpt>
      <trkpt lat="47.2854" lon="-2.51499">
        <ele>-33.400001525879</ele>
        <time>2020-01-26T09:29:20.000Z</time>
      </trkpt>
      <trkpt lat="47.28553" lon="-2.51493">
        <ele>-33.400001525879</ele>
        <time>2020-01-26T09:29:25.000Z</time>
      </trkpt>
      <trkpt lat="47.28574" lon="-2.51489">
        <ele>-33.400001525879</ele>
        <time>2020-01-26T09:29:31.000Z</time>
      </trkpt>
      <trkpt lat="47.28594" lon="-2.51481">
        <ele>-33.400001525879</ele>
        <time>2020-01-26T09:29:36.000Z</time>
      </trkpt>
      <trkpt lat="47.28598" lon="-2.51479">
        <ele>-33.400001525879</ele>
        <time>2020-01-26T09:29:37.000Z</time>
      </trkpt>
      <trkpt lat="47.28616" lon="-2.51474">
        <ele>-33.400001525879</ele>
        <time>2020-01-26T09:29:41.000Z</time>
      </trkpt>
      <trkpt lat="47.28625" lon="-2.51471">
        <ele>-33.400001525879</ele>
        <time>2020-01-26T09:29:43.000Z</time>
      </trkpt>
      <trkpt lat="47.28643" lon="-2.51467">
        <ele>-33.400001525879</ele>
        <time>2020-01-26T09:29:47.000Z</time>
      </trkpt>
      <trkpt lat="47.28655" lon="-2.51461">
        <ele>-33.400001525879</ele>
        <time>2020-01-26T09:29:50.000Z</time>
      </trkpt>
      <trkpt lat="47.2866" lon="-2.5146">
        <ele>-33.400001525879</ele>
        <time>2020-01-26T09:29:51.000Z</time>
      </trkpt>
      <trkpt lat="47.28685" lon="-2.51453">
        <ele>-33.400001525879</ele>
        <time>2020-01-26T09:29:57.000Z</time>
      </trkpt>
      <trkpt lat="47.28689" lon="-2.51451">
        <ele>-33.400001525879</ele>
        <time>2020-01-26T09:29:58.000Z</time>
      </trkpt>
      <trkpt lat="47.2871" lon="-2.51445">
        <ele>-33.400001525879</ele>
        <time>2020-01-26T09:30:03.000Z</time>
      </trkpt>
      <trkpt lat="47.28714" lon="-2.51443">
        <ele>-33</ele>
        <time>2020-01-26T09:30:04.000Z</time>
      </trkpt>
      <trkpt lat="47.28718" lon="-2.51443">
        <ele>-32.599998474121</ele>
        <time>2020-01-26T09:30:05.000Z</time>
      </trkpt>
      <trkpt lat="47.28723" lon="-2.51442">
        <ele>-32.200000762939</ele>
        <time>2020-01-26T09:30:06.000Z</time>
      </trkpt>
      <trkpt lat="47.28727" lon="-2.5144">
        <ele>-31.799999237061</ele>
        <time>2020-01-26T09:30:07.000Z</time>
      </trkpt>
      <trkpt lat="47.28731" lon="-2.51439">
        <ele>-31.39999961853</ele>
        <time>2020-01-26T09:30:08.000Z</time>
      </trkpt>
      <trkpt lat="47.28744" lon="-2.51434">
        <ele>-31.39999961853</ele>
        <time>2020-01-26T09:30:11.000Z</time>
      </trkpt>
      <trkpt lat="47.28753" lon="-2.5143">
        <ele>-31.39999961853</ele>
        <time>2020-01-26T09:30:13.000Z</time>
      </trkpt>
      <trkpt lat="47.28762" lon="-2.51428">
        <ele>-31.39999961853</ele>
        <time>2020-01-26T09:30:15.000Z</time>
      </trkpt>
      <trkpt lat="47.2877" lon="-2.51426">
        <ele>-31.39999961853</ele>
        <time>2020-01-26T09:30:17.000Z</time>
      </trkpt>
      <trkpt lat="47.28797" lon="-2.51418">
        <ele>-31.39999961853</ele>
        <time>2020-01-26T09:30:23.000Z</time>
      </trkpt>
      <trkpt lat="47.2881" lon="-2.51415">
        <ele>-31.39999961853</ele>
        <time>2020-01-26T09:30:26.000Z</time>
      </trkpt>
      <trkpt lat="47.28847" lon="-2.51407">
        <ele>-31.39999961853</ele>
        <time>2020-01-26T09:30:35.000Z</time>
      </trkpt>
      <trkpt lat="47.2888" lon="-2.51398">
        <ele>-31.39999961853</ele>
        <time>2020-01-26T09:30:43.000Z</time>
      </trkpt>
      <trkpt lat="47.28888" lon="-2.51396">
        <ele>-31.39999961853</ele>
        <time>2020-01-26T09:30:45.000Z</time>
      </trkpt>
      <trkpt lat="47.28904" lon="-2.51395">
        <ele>-31.39999961853</ele>
        <time>2020-01-26T09:30:49.000Z</time>
      </trkpt>
      <trkpt lat="47.28939" lon="-2.51389">
        <ele>-31.39999961853</ele>
        <time>2020-01-26T09:30:57.000Z</time>
      </trkpt>
      <trkpt lat="47.28956" lon="-2.51383">
        <ele>-31.39999961853</ele>
        <time>2020-01-26T09:31:03.000Z</time>
      </trkpt>
      <trkpt lat="47.28963" lon="-2.51384">
        <ele>-31.39999961853</ele>
        <time>2020-01-26T09:31:07.000Z</time>
      </trkpt>
      <trkpt lat="47.28962" lon="-2.51388">
        <ele>-31.39999961853</ele>
        <time>2020-01-26T09:31:08.000Z</time>
      </trkpt>
      <trkpt lat="47.28955" lon="-2.51391">
        <ele>-31.39999961853</ele>
        <time>2020-01-26T09:31:11.000Z</time>
      </trkpt>
      <trkpt lat="47.28952" lon="-2.51392">
        <ele>-31.39999961853</ele>
        <time>2020-01-26T09:31:12.000Z</time>
      </trkpt>
      <trkpt lat="47.28939" lon="-2.514">
        <ele>-31.39999961853</ele>
        <time>2020-01-26T09:31:16.000Z</time>
      </trkpt>
      <trkpt lat="47.28942" lon="-2.51414">
        <ele>-31.39999961853</ele>
        <time>2020-01-26T09:31:19.000Z</time>
      </trkpt>
      <trkpt lat="47.28943" lon="-2.51419">
        <ele>-31.39999961853</ele>
        <time>2020-01-26T09:31:20.000Z</time>
      </trkpt>
      <trkpt lat="47.28948" lon="-2.51451">
        <ele>-31.39999961853</ele>
        <time>2020-01-26T09:31:26.000Z</time>
      </trkpt>
      <trkpt lat="47.28949" lon="-2.51457">
        <ele>-31.39999961853</ele>
        <time>2020-01-26T09:31:27.000Z</time>
      </trkpt>
      <trkpt lat="47.28954" lon="-2.51487">
        <ele>-31.39999961853</ele>
        <time>2020-01-26T09:31:33.000Z</time>
      </trkpt>
      <trkpt lat="47.28956" lon="-2.515">
        <ele>-31.39999961853</ele>
        <time>2020-01-26T09:31:39.000Z</time>
      </trkpt>
      <trkpt lat="47.28959" lon="-2.51519">
        <ele>-31.39999961853</ele>
        <time>2020-01-26T09:31:43.000Z</time>
      </trkpt>
      <trkpt lat="47.28963" lon="-2.51548">
        <ele>-31.39999961853</ele>
        <time>2020-01-26T09:31:48.000Z</time>
      </trkpt>
      <trkpt lat="47.28966" lon="-2.51569">
        <ele>-31.39999961853</ele>
        <time>2020-01-26T09:31:53.000Z</time>
      </trkpt>
      <trkpt lat="47.28968" lon="-2.51578">
        <ele>-31.39999961853</ele>
        <time>2020-01-26T09:31:56.000Z</time>
      </trkpt>
      <trkpt lat="47.28971" lon="-2.51578">
        <ele>-31.39999961853</ele>
        <time>2020-01-26T09:31:57.000Z</time>
      </trkpt>
      <trkpt lat="47.28982" lon="-2.51575">
        <ele>-31.39999961853</ele>
        <time>2020-01-26T09:32:01.000Z</time>
      </trkpt>
      <trkpt lat="47.28986" lon="-2.51575">
        <ele>-31.39999961853</ele>
        <time>2020-01-26T09:32:02.000Z</time>
      </trkpt>
      <trkpt lat="47.29003" lon="-2.51575">
        <ele>-31.39999961853</ele>
        <time>2020-01-26T09:32:06.000Z</time>
      </trkpt>
      <trkpt lat="47.29007" lon="-2.51578">
        <ele>-31.39999961853</ele>
        <time>2020-01-26T09:32:07.000Z</time>
      </trkpt>
      <trkpt lat="47.29027" lon="-2.51594">
        <ele>-31.39999961853</ele>
        <time>2020-01-26T09:32:12.000Z</time>
      </trkpt>
      <trkpt lat="47.29031" lon="-2.51599">
        <ele>-31.39999961853</ele>
        <time>2020-01-26T09:32:13.000Z</time>
      </trkpt>
      <trkpt lat="47.29034" lon="-2.51604">
        <ele>-31.39999961853</ele>
        <time>2020-01-26T09:32:14.000Z</time>
      </trkpt>
      <trkpt lat="47.29041" lon="-2.51622">
        <ele>-31.39999961853</ele>
        <time>2020-01-26T09:32:17.000Z</time>
      </trkpt>
      <trkpt lat="47.29043" lon="-2.51629">
        <ele>-31.39999961853</ele>
        <time>2020-01-26T09:32:18.000Z</time>
      </trkpt>
      <trkpt lat="47.29053" lon="-2.51667">
        <ele>-31.39999961853</ele>
        <time>2020-01-26T09:32:25.000Z</time>
      </trkpt>
      <trkpt lat="47.29055" lon="-2.5169">
        <ele>-31.39999961853</ele>
        <time>2020-01-26T09:32:30.000Z</time>
      </trkpt>
      <trkpt lat="47.29048" lon="-2.51714">
        <ele>-31.39999961853</ele>
        <time>2020-01-26T09:32:35.000Z</time>
      </trkpt>
      <trkpt lat="47.29047" lon="-2.51719">
        <ele>-31</ele>
        <time>2020-01-26T09:32:36.000Z</time>
      </trkpt>
      <trkpt lat="47.29046" lon="-2.51725">
        <ele>-30.60000038147</ele>
        <time>2020-01-26T09:32:37.000Z</time>
      </trkpt>
      <trkpt lat="47.29045" lon="-2.51731">
        <ele>-30.200000762939</ele>
        <time>2020-01-26T09:32:38.000Z</time>
      </trkpt>
      <trkpt lat="47.29044" lon="-2.51737">
        <ele>-29.799999237061</ele>
        <time>2020-01-26T09:32:39.000Z</time>
      </trkpt>
      <trkpt lat="47.29046" lon="-2.51743">
        <ele>-29.39999961853</ele>
        <time>2020-01-26T09:32:40.000Z</time>
      </trkpt>
      <trkpt lat="47.29052" lon="-2.51761">
        <ele>-29.39999961853</ele>
        <time>2020-01-26T09:32:43.000Z</time>
      </trkpt>
      <trkpt lat="47.29047" lon="-2.51773">
        <ele>-29.39999961853</ele>
        <time>2020-01-26T09:32:45.000Z</time>
      </trkpt>
      <trkpt lat="47.29043" lon="-2.51777">
        <ele>-29.39999961853</ele>
        <time>2020-01-26T09:32:46.000Z</time>
      </trkpt>
      <trkpt lat="47.29034" lon="-2.51786">
        <ele>-29.39999961853</ele>
        <time>2020-01-26T09:32:48.000Z</time>
      </trkpt>
      <trkpt lat="47.29003" lon="-2.51815">
        <ele>-29.39999961853</ele>
        <time>2020-01-26T09:32:56.000Z</time>
      </trkpt>
      <trkpt lat="47.28966" lon="-2.51842">
        <ele>-29.39999961853</ele>
        <time>2020-01-26T09:33:05.000Z</time>
      </trkpt>
      <trkpt lat="47.28962" lon="-2.51846">
        <ele>-29</ele>
        <time>2020-01-26T09:33:06.000Z</time>
      </trkpt>
      <trkpt lat="47.28959" lon="-2.5185">
        <ele>-28.60000038147</ele>
        <time>2020-01-26T09:33:07.000Z</time>
      </trkpt>
      <trkpt lat="47.28957" lon="-2.51856">
        <ele>-28.200000762939</ele>
        <time>2020-01-26T09:33:08.000Z</time>
      </trkpt>
      <trkpt lat="47.28955" lon="-2.51861">
        <ele>-27.60000038147</ele>
        <time>2020-01-26T09:33:09.000Z</time>
      </trkpt>
      <trkpt lat="47.28954" lon="-2.51866">
        <ele>-27.200000762939</ele>
        <time>2020-01-26T09:33:10.000Z</time>
      </trkpt>
      <trkpt lat="47.28949" lon="-2.51891">
        <ele>-27.200000762939</ele>
        <time>2020-01-26T09:33:14.000Z</time>
      </trkpt>
      <trkpt lat="47.2895" lon="-2.51905">
        <ele>-27.200000762939</ele>
        <time>2020-01-26T09:33:16.000Z</time>
      </trkpt>
      <trkpt lat="47.2896" lon="-2.51978">
        <ele>-27.200000762939</ele>
        <time>2020-01-26T09:33:26.000Z</time>
      </trkpt>
      <trkpt lat="47.28967" lon="-2.52022">
        <ele>-27.200000762939</ele>
        <time>2020-01-26T09:33:32.000Z</time>
      </trkpt>
      <trkpt lat="47.28969" lon="-2.52027">
        <ele>-27.200000762939</ele>
        <time>2020-01-26T09:33:33.000Z</time>
      </trkpt>
      <trkpt lat="47.28979" lon="-2.52047">
        <ele>-27.200000762939</ele>
        <time>2020-01-26T09:33:37.000Z</time>
      </trkpt>
      <trkpt lat="47.28981" lon="-2.52054">
        <ele>-27.200000762939</ele>
        <time>2020-01-26T09:33:38.000Z</time>
      </trkpt>
      <trkpt lat="47.28983" lon="-2.52071">
        <ele>-27.200000762939</ele>
        <time>2020-01-26T09:33:40.000Z</time>
      </trkpt>
      <trkpt lat="47.28987" lon="-2.52088">
        <ele>-27.200000762939</ele>
        <time>2020-01-26T09:33:42.000Z</time>
      </trkpt>
      <trkpt lat="47.28992" lon="-2.52105">
        <ele>-27.200000762939</ele>
        <time>2020-01-26T09:33:44.000Z</time>
      </trkpt>
      <trkpt lat="47.2901" lon="-2.52174">
        <ele>-27.200000762939</ele>
        <time>2020-01-26T09:33:52.000Z</time>
      </trkpt>
      <trkpt lat="47.29012" lon="-2.52182">
        <ele>-27.200000762939</ele>
        <time>2020-01-26T09:33:53.000Z</time>
      </trkpt>
      <trkpt lat="47.29014" lon="-2.52201">
        <ele>-27.200000762939</ele>
        <time>2020-01-26T09:33:56.000Z</time>
      </trkpt>
      <trkpt lat="47.29009" lon="-2.52215">
        <ele>-27.200000762939</ele>
        <time>2020-01-26T09:33:59.000Z</time>
      </trkpt>
      <trkpt lat="47.29013" lon="-2.52233">
        <ele>-27.200000762939</ele>
        <time>2020-01-26T09:34:02.000Z</time>
      </trkpt>
      <trkpt lat="47.29014" lon="-2.5224">
        <ele>-27.200000762939</ele>
        <time>2020-01-26T09:34:03.000Z</time>
      </trkpt>
      <trkpt lat="47.29016" lon="-2.52247">
        <ele>-27.200000762939</ele>
        <time>2020-01-26T09:34:04.000Z</time>
      </trkpt>
      <trkpt lat="47.29015" lon="-2.52262">
        <ele>-27.200000762939</ele>
        <time>2020-01-26T09:34:06.000Z</time>
      </trkpt>
      <trkpt lat="47.2901" lon="-2.52275">
        <ele>-27.200000762939</ele>
        <time>2020-01-26T09:34:08.000Z</time>
      </trkpt>
      <trkpt lat="47.29008" lon="-2.5229">
        <ele>-27.200000762939</ele>
        <time>2020-01-26T09:34:11.000Z</time>
      </trkpt>
      <trkpt lat="47.2901" lon="-2.52302">
        <ele>-27.200000762939</ele>
        <time>2020-01-26T09:34:15.000Z</time>
      </trkpt>
      <trkpt lat="47.29003" lon="-2.52313">
        <ele>-27.200000762939</ele>
        <time>2020-01-26T09:34:20.000Z</time>
      </trkpt>
      <trkpt lat="47.29004" lon="-2.52325">
        <ele>-27.200000762939</ele>
        <time>2020-01-26T09:34:23.000Z</time>
      </trkpt>
      <trkpt lat="47.29004" lon="-2.5233">
        <ele>-27.200000762939</ele>
        <time>2020-01-26T09:34:24.000Z</time>
      </trkpt>
      <trkpt lat="47.29005" lon="-2.52342">
        <ele>-27.200000762939</ele>
        <time>2020-01-26T09:34:26.000Z</time>
      </trkpt>
      <trkpt lat="47.29009" lon="-2.52362">
        <ele>-27.200000762939</ele>
        <time>2020-01-26T09:34:29.000Z</time>
      </trkpt>
      <trkpt lat="47.2902" lon="-2.52405">
        <ele>-27.200000762939</ele>
        <time>2020-01-26T09:34:35.000Z</time>
      </trkpt>
      <trkpt lat="47.29023" lon="-2.52411">
        <ele>-27.200000762939</ele>
        <time>2020-01-26T09:34:36.000Z</time>
      </trkpt>
      <trkpt lat="47.29028" lon="-2.52425">
        <ele>-27.200000762939</ele>
        <time>2020-01-26T09:34:38.000Z</time>
      </trkpt>
      <trkpt lat="47.29031" lon="-2.52439">
        <ele>-27.200000762939</ele>
        <time>2020-01-26T09:34:40.000Z</time>
      </trkpt>
      <trkpt lat="47.29032" lon="-2.52463">
        <ele>-26.39999961853</ele>
        <time>2020-01-26T09:34:43.000Z</time>
      </trkpt>
      <trkpt lat="47.29033" lon="-2.5247">
        <ele>-26</ele>
        <time>2020-01-26T09:34:44.000Z</time>
      </trkpt>
      <trkpt lat="47.29035" lon="-2.52477">
        <ele>-25.60000038147</ele>
        <time>2020-01-26T09:34:45.000Z</time>
      </trkpt>
      <trkpt lat="47.29037" lon="-2.52484">
        <ele>-25.200000762939</ele>
        <time>2020-01-26T09:34:46.000Z</time>
      </trkpt>
      <trkpt lat="47.29041" lon="-2.52499">
        <ele>-25.200000762939</ele>
        <time>2020-01-26T09:34:48.000Z</time>
      </trkpt>
      <trkpt lat="47.29043" lon="-2.52524">
        <ele>-25.200000762939</ele>
        <time>2020-01-26T09:34:51.000Z</time>
      </trkpt>
      <trkpt lat="47.29045" lon="-2.52578">
        <ele>-25.200000762939</ele>
        <time>2020-01-26T09:34:58.000Z</time>
      </trkpt>
      <trkpt lat="47.29046" lon="-2.52603">
        <ele>-25.200000762939</ele>
        <time>2020-01-26T09:35:02.000Z</time>
      </trkpt>
      <trkpt lat="47.29047" lon="-2.5261">
        <ele>-25.200000762939</ele>
        <time>2020-01-26T09:35:03.000Z</time>
      </trkpt>
      <trkpt lat="47.29046" lon="-2.52632">
        <ele>-25.200000762939</ele>
        <time>2020-01-26T09:35:06.000Z</time>
      </trkpt>
      <trkpt lat="47.29045" lon="-2.52638">
        <ele>-25.200000762939</ele>
        <time>2020-01-26T09:35:07.000Z</time>
      </trkpt>
      <trkpt lat="47.29044" lon="-2.52666">
        <ele>-25.200000762939</ele>
        <time>2020-01-26T09:35:11.000Z</time>
      </trkpt>
      <trkpt lat="47.29046" lon="-2.52688">
        <ele>-25.200000762939</ele>
        <time>2020-01-26T09:35:14.000Z</time>
      </trkpt>
      <trkpt lat="47.29046" lon="-2.52703">
        <ele>-25.200000762939</ele>
        <time>2020-01-26T09:35:16.000Z</time>
      </trkpt>
      <trkpt lat="47.29046" lon="-2.52724">
        <ele>-25.200000762939</ele>
        <time>2020-01-26T09:35:19.000Z</time>
      </trkpt>
      <trkpt lat="47.29043" lon="-2.52739">
        <ele>-25.200000762939</ele>
        <time>2020-01-26T09:35:21.000Z</time>
      </trkpt>
      <trkpt lat="47.29031" lon="-2.52753">
        <ele>-25.200000762939</ele>
        <time>2020-01-26T09:35:24.000Z</time>
      </trkpt>
      <trkpt lat="47.29026" lon="-2.52756">
        <ele>-25.200000762939</ele>
        <time>2020-01-26T09:35:25.000Z</time>
      </trkpt>
      <trkpt lat="47.29022" lon="-2.5276">
        <ele>-25.200000762939</ele>
        <time>2020-01-26T09:35:26.000Z</time>
      </trkpt>
      <trkpt lat="47.2901" lon="-2.52773">
        <ele>-25.200000762939</ele>
        <time>2020-01-26T09:35:29.000Z</time>
      </trkpt>
      <trkpt lat="47.29007" lon="-2.52779">
        <ele>-25.200000762939</ele>
        <time>2020-01-26T09:35:30.000Z</time>
      </trkpt>
      <trkpt lat="47.29004" lon="-2.52785">
        <ele>-25.200000762939</ele>
        <time>2020-01-26T09:35:31.000Z</time>
      </trkpt>
      <trkpt lat="47.28995" lon="-2.52806">
        <ele>-24.39999961853</ele>
        <time>2020-01-26T09:35:34.000Z</time>
      </trkpt>
      <trkpt lat="47.28993" lon="-2.52813">
        <ele>-24</ele>
        <time>2020-01-26T09:35:35.000Z</time>
      </trkpt>
      <trkpt lat="47.28991" lon="-2.5282">
        <ele>-23.60000038147</ele>
        <time>2020-01-26T09:35:36.000Z</time>
      </trkpt>
      <trkpt lat="47.2899" lon="-2.52827">
        <ele>-23.200000762939</ele>
        <time>2020-01-26T09:35:37.000Z</time>
      </trkpt>
      <trkpt lat="47.28986" lon="-2.52847">
        <ele>-23.200000762939</ele>
        <time>2020-01-26T09:35:40.000Z</time>
      </trkpt>
      <trkpt lat="47.28984" lon="-2.52853">
        <ele>-23.200000762939</ele>
        <time>2020-01-26T09:35:41.000Z</time>
      </trkpt>
      <trkpt lat="47.28985" lon="-2.52881">
        <ele>-23.200000762939</ele>
        <time>2020-01-26T09:35:45.000Z</time>
      </trkpt>
      <trkpt lat="47.28987" lon="-2.52887">
        <ele>-23.200000762939</ele>
        <time>2020-01-26T09:35:46.000Z</time>
      </trkpt>
      <trkpt lat="47.29002" lon="-2.52929">
        <ele>-23.200000762939</ele>
        <time>2020-01-26T09:35:52.000Z</time>
      </trkpt>
      <trkpt lat="47.29021" lon="-2.52986">
        <ele>-24</ele>
        <time>2020-01-26T09:35:59.000Z</time>
      </trkpt>
      <trkpt lat="47.29024" lon="-2.52993">
        <ele>-24.39999961853</ele>
        <time>2020-01-26T09:36:00.000Z</time>
      </trkpt>
      <trkpt lat="47.29028" lon="-2.53">
        <ele>-24.799999237061</ele>
        <time>2020-01-26T09:36:01.000Z</time>
      </trkpt>
      <trkpt lat="47.29032" lon="-2.53008">
        <ele>-25.200000762939</ele>
        <time>2020-01-26T09:36:02.000Z</time>
      </trkpt>
      <trkpt lat="47.29042" lon="-2.53028">
        <ele>-25.200000762939</ele>
        <time>2020-01-26T09:36:05.000Z</time>
      </trkpt>
      <trkpt lat="47.29044" lon="-2.53032">
        <ele>-25.200000762939</ele>
        <time>2020-01-26T09:36:06.000Z</time>
      </trkpt>
      <trkpt lat="47.29051" lon="-2.53041">
        <ele>-25.200000762939</ele>
        <time>2020-01-26T09:36:10.000Z</time>
      </trkpt>
      <trkpt lat="47.29057" lon="-2.53061">
        <ele>-25.200000762939</ele>
        <time>2020-01-26T09:36:15.000Z</time>
      </trkpt>
      <trkpt lat="47.29059" lon="-2.53066">
        <ele>-25.60000038147</ele>
        <time>2020-01-26T09:36:16.000Z</time>
      </trkpt>
      <trkpt lat="47.29061" lon="-2.53071">
        <ele>-26</ele>
        <time>2020-01-26T09:36:17.000Z</time>
      </trkpt>
      <trkpt lat="47.29063" lon="-2.53076">
        <ele>-26.39999961853</ele>
        <time>2020-01-26T09:36:18.000Z</time>
      </trkpt>
      <trkpt lat="47.29066" lon="-2.53082">
        <ele>-26.799999237061</ele>
        <time>2020-01-26T09:36:19.000Z</time>
      </trkpt>
      <trkpt lat="47.29068" lon="-2.53087">
        <ele>-27.200000762939</ele>
        <time>2020-01-26T09:36:20.000Z</time>
      </trkpt>
      <trkpt lat="47.29073" lon="-2.53098">
        <ele>-27.200000762939</ele>
        <time>2020-01-26T09:36:22.000Z</time>
      </trkpt>
      <trkpt lat="47.29086" lon="-2.53125">
        <ele>-27.200000762939</ele>
        <time>2020-01-26T09:36:28.000Z</time>
      </trkpt>
      <trkpt lat="47.29092" lon="-2.53141">
        <ele>-27.200000762939</ele>
        <time>2020-01-26T09:36:34.000Z</time>
      </trkpt>
      <trkpt lat="47.29097" lon="-2.53157">
        <ele>-27.200000762939</ele>
        <time>2020-01-26T09:36:38.000Z</time>
      </trkpt>
      <trkpt lat="47.29103" lon="-2.53178">
        <ele>-27.200000762939</ele>
        <time>2020-01-26T09:36:44.000Z</time>
      </trkpt>
      <trkpt lat="47.29108" lon="-2.53204">
        <ele>-27.200000762939</ele>
        <time>2020-01-26T09:36:50.000Z</time>
      </trkpt>
      <trkpt lat="47.29109" lon="-2.53217">
        <ele>-27.200000762939</ele>
        <time>2020-01-26T09:36:54.000Z</time>
      </trkpt>
      <trkpt lat="47.29114" lon="-2.53234">
        <ele>-27.200000762939</ele>
        <time>2020-01-26T09:36:59.000Z</time>
      </trkpt>
      <trkpt lat="47.29121" lon="-2.53253">
        <ele>-27.200000762939</ele>
        <time>2020-01-26T09:37:04.000Z</time>
      </trkpt>
      <trkpt lat="47.29123" lon="-2.53261">
        <ele>-27.200000762939</ele>
        <time>2020-01-26T09:37:06.000Z</time>
      </trkpt>
      <trkpt lat="47.29131" lon="-2.53286">
        <ele>-27.200000762939</ele>
        <time>2020-01-26T09:37:12.000Z</time>
      </trkpt>
      <trkpt lat="47.29131" lon="-2.53306">
        <ele>-27.200000762939</ele>
        <time>2020-01-26T09:37:18.000Z</time>
      </trkpt>
      <trkpt lat="47.29132" lon="-2.53321">
        <ele>-27.200000762939</ele>
        <time>2020-01-26T09:37:24.000Z</time>
      </trkpt>
      <trkpt lat="47.29133" lon="-2.53345">
        <ele>-27.200000762939</ele>
        <time>2020-01-26T09:37:29.000Z</time>
      </trkpt>
      <trkpt lat="47.29133" lon="-2.53357">
        <ele>-27.200000762939</ele>
        <time>2020-01-26T09:37:31.000Z</time>
      </trkpt>
      <trkpt lat="47.29135" lon="-2.53384">
        <ele>-27.200000762939</ele>
        <time>2020-01-26T09:37:35.000Z</time>
      </trkpt>
      <trkpt lat="47.29136" lon="-2.5339">
        <ele>-27.200000762939</ele>
        <time>2020-01-26T09:37:36.000Z</time>
      </trkpt>
      <trkpt lat="47.29139" lon="-2.53426">
        <ele>-27.200000762939</ele>
        <time>2020-01-26T09:37:42.000Z</time>
      </trkpt>
      <trkpt lat="47.2914" lon="-2.53431">
        <ele>-27.799999237061</ele>
        <time>2020-01-26T09:37:43.000Z</time>
      </trkpt>
      <trkpt lat="47.2914" lon="-2.53436">
        <ele>-28.200000762939</ele>
        <time>2020-01-26T09:37:44.000Z</time>
      </trkpt>
      <trkpt lat="47.29141" lon="-2.53442">
        <ele>-28.60000038147</ele>
        <time>2020-01-26T09:37:45.000Z</time>
      </trkpt>
      <trkpt lat="47.29141" lon="-2.53447">
        <ele>-29</ele>
        <time>2020-01-26T09:37:46.000Z</time>
      </trkpt>
      <trkpt lat="47.29142" lon="-2.53451">
        <ele>-29.60000038147</ele>
        <time>2020-01-26T09:37:47.000Z</time>
      </trkpt>
      <trkpt lat="47.29142" lon="-2.53456">
        <ele>-29.60000038147</ele>
        <time>2020-01-26T09:37:48.000Z</time>
      </trkpt>
      <trkpt lat="47.29144" lon="-2.53481">
        <ele>-29.60000038147</ele>
        <time>2020-01-26T09:37:54.000Z</time>
      </trkpt>
      <trkpt lat="47.29144" lon="-2.535">
        <ele>-29.60000038147</ele>
        <time>2020-01-26T09:37:59.000Z</time>
      </trkpt>
      <trkpt lat="47.29141" lon="-2.53513">
        <ele>-29.60000038147</ele>
        <time>2020-01-26T09:38:04.000Z</time>
      </trkpt>
      <trkpt lat="47.29139" lon="-2.53515">
        <ele>-29.60000038147</ele>
        <time>2020-01-26T09:38:05.000Z</time>
      </trkpt>
      <trkpt lat="47.29125" lon="-2.53526">
        <ele>-29.60000038147</ele>
        <time>2020-01-26T09:38:10.000Z</time>
      </trkpt>
      <trkpt lat="47.29113" lon="-2.5354">
        <ele>-29.60000038147</ele>
        <time>2020-01-26T09:38:14.000Z</time>
      </trkpt>
      <trkpt lat="47.29106" lon="-2.53549">
        <ele>-29.60000038147</ele>
        <time>2020-01-26T09:38:17.000Z</time>
      </trkpt>
      <trkpt lat="47.29104" lon="-2.53557">
        <ele>-29.60000038147</ele>
        <time>2020-01-26T09:38:19.000Z</time>
      </trkpt>
      <trkpt lat="47.291" lon="-2.53585">
        <ele>-29.60000038147</ele>
        <time>2020-01-26T09:38:25.000Z</time>
      </trkpt>
      <trkpt lat="47.291" lon="-2.53591">
        <ele>-29.60000038147</ele>
        <time>2020-01-26T09:38:26.000Z</time>
      </trkpt>
      <trkpt lat="47.29099" lon="-2.53609">
        <ele>-29.60000038147</ele>
        <time>2020-01-26T09:38:29.000Z</time>
      </trkpt>
      <trkpt lat="47.29095" lon="-2.53636">
        <ele>-29.60000038147</ele>
        <time>2020-01-26T09:38:34.000Z</time>
      </trkpt>
      <trkpt lat="47.29091" lon="-2.53658">
        <ele>-29.60000038147</ele>
        <time>2020-01-26T09:38:38.000Z</time>
      </trkpt>
      <trkpt lat="47.29095" lon="-2.53683">
        <ele>-29.60000038147</ele>
        <time>2020-01-26T09:38:43.000Z</time>
      </trkpt>
      <trkpt lat="47.29096" lon="-2.53704">
        <ele>-29.60000038147</ele>
        <time>2020-01-26T09:38:49.000Z</time>
      </trkpt>
      <trkpt lat="47.29097" lon="-2.53718">
        <ele>-29.60000038147</ele>
        <time>2020-01-26T09:38:52.000Z</time>
      </trkpt>
      <trkpt lat="47.29097" lon="-2.53721">
        <ele>-29.60000038147</ele>
        <time>2020-01-26T09:38:53.000Z</time>
      </trkpt>
      <trkpt lat="47.29094" lon="-2.53743">
        <ele>-29.60000038147</ele>
        <time>2020-01-26T09:38:57.000Z</time>
      </trkpt>
      <trkpt lat="47.29091" lon="-2.53787">
        <ele>-29.60000038147</ele>
        <time>2020-01-26T09:39:04.000Z</time>
      </trkpt>
      <trkpt lat="47.29097" lon="-2.53819">
        <ele>-29.60000038147</ele>
        <time>2020-01-26T09:39:09.000Z</time>
      </trkpt>
      <trkpt lat="47.29098" lon="-2.53826">
        <ele>-29.60000038147</ele>
        <time>2020-01-26T09:39:10.000Z</time>
      </trkpt>
      <trkpt lat="47.291" lon="-2.53834">
        <ele>-29.60000038147</ele>
        <time>2020-01-26T09:39:11.000Z</time>
      </trkpt>
      <trkpt lat="47.29109" lon="-2.53871">
        <ele>-29.60000038147</ele>
        <time>2020-01-26T09:39:16.000Z</time>
      </trkpt>
      <trkpt lat="47.29117" lon="-2.53917">
        <ele>-29.60000038147</ele>
        <time>2020-01-26T09:39:22.000Z</time>
      </trkpt>
      <trkpt lat="47.29118" lon="-2.53925">
        <ele>-29.60000038147</ele>
        <time>2020-01-26T09:39:23.000Z</time>
      </trkpt>
      <trkpt lat="47.29119" lon="-2.53932">
        <ele>-30</ele>
        <time>2020-01-26T09:39:24.000Z</time>
      </trkpt>
      <trkpt lat="47.2912" lon="-2.53938">
        <ele>-30.39999961853</ele>
        <time>2020-01-26T09:39:25.000Z</time>
      </trkpt>
      <trkpt lat="47.2912" lon="-2.53944">
        <ele>-30.799999237061</ele>
        <time>2020-01-26T09:39:26.000Z</time>
      </trkpt>
      <trkpt lat="47.2912" lon="-2.5395">
        <ele>-31.200000762939</ele>
        <time>2020-01-26T09:39:27.000Z</time>
      </trkpt>
      <trkpt lat="47.2912" lon="-2.53955">
        <ele>-31.60000038147</ele>
        <time>2020-01-26T09:39:28.000Z</time>
      </trkpt>
      <trkpt lat="47.29118" lon="-2.53962">
        <ele>-31.60000038147</ele>
        <time>2020-01-26T09:39:29.000Z</time>
      </trkpt>
      <trkpt lat="47.29111" lon="-2.53981">
        <ele>-31.60000038147</ele>
        <time>2020-01-26T09:39:32.000Z</time>
      </trkpt>
      <trkpt lat="47.29105" lon="-2.54001">
        <ele>-31.60000038147</ele>
        <time>2020-01-26T09:39:35.000Z</time>
      </trkpt>
      <trkpt lat="47.291" lon="-2.5402">
        <ele>-31.60000038147</ele>
        <time>2020-01-26T09:39:38.000Z</time>
      </trkpt>
      <trkpt lat="47.29085" lon="-2.54057">
        <ele>-31.60000038147</ele>
        <time>2020-01-26T09:39:44.000Z</time>
      </trkpt>
      <trkpt lat="47.29072" lon="-2.54094">
        <ele>-31.60000038147</ele>
        <time>2020-01-26T09:39:50.000Z</time>
      </trkpt>
      <trkpt lat="47.2907" lon="-2.54101">
        <ele>-31.60000038147</ele>
        <time>2020-01-26T09:39:51.000Z</time>
      </trkpt>
      <trkpt lat="47.29069" lon="-2.54122">
        <ele>-31.60000038147</ele>
        <time>2020-01-26T09:39:54.000Z</time>
      </trkpt>
      <trkpt lat="47.2907" lon="-2.54138">
        <ele>-32</ele>
        <time>2020-01-26T09:39:56.000Z</time>
      </trkpt>
      <trkpt lat="47.29069" lon="-2.54145">
        <ele>-32.400001525879</ele>
        <time>2020-01-26T09:39:57.000Z</time>
      </trkpt>
      <trkpt lat="47.29069" lon="-2.54152">
        <ele>-32.799999237061</ele>
        <time>2020-01-26T09:39:58.000Z</time>
      </trkpt>
      <trkpt lat="47.29068" lon="-2.5416">
        <ele>-33.400001525879</ele>
        <time>2020-01-26T09:39:59.000Z</time>
      </trkpt>
      <trkpt lat="47.29066" lon="-2.54166">
        <ele>-33.799999237061</ele>
        <time>2020-01-26T09:40:00.000Z</time>
      </trkpt>
      <trkpt lat="47.29064" lon="-2.54173">
        <ele>-33.799999237061</ele>
        <time>2020-01-26T09:40:01.000Z</time>
      </trkpt>
      <trkpt lat="47.29057" lon="-2.54192">
        <ele>-33.799999237061</ele>
        <time>2020-01-26T09:40:04.000Z</time>
      </trkpt>
      <trkpt lat="47.29053" lon="-2.54204">
        <ele>-33.799999237061</ele>
        <time>2020-01-26T09:40:06.000Z</time>
      </trkpt>
      <trkpt lat="47.29051" lon="-2.5421">
        <ele>-33.799999237061</ele>
        <time>2020-01-26T09:40:07.000Z</time>
      </trkpt>
      <trkpt lat="47.2905" lon="-2.54228">
        <ele>-33.799999237061</ele>
        <time>2020-01-26T09:40:10.000Z</time>
      </trkpt>
      <trkpt lat="47.29049" lon="-2.54241">
        <ele>-33.799999237061</ele>
        <time>2020-01-26T09:40:12.000Z</time>
      </trkpt>
      <trkpt lat="47.2905" lon="-2.54247">
        <ele>-33.799999237061</ele>
        <time>2020-01-26T09:40:13.000Z</time>
      </trkpt>
      <trkpt lat="47.29055" lon="-2.54263">
        <ele>-33.799999237061</ele>
        <time>2020-01-26T09:40:16.000Z</time>
      </trkpt>
      <trkpt lat="47.29066" lon="-2.54275">
        <ele>-33.799999237061</ele>
        <time>2020-01-26T09:40:20.000Z</time>
      </trkpt>
      <trkpt lat="47.29072" lon="-2.54278">
        <ele>-34.200000762939</ele>
        <time>2020-01-26T09:40:22.000Z</time>
      </trkpt>
      <trkpt lat="47.29075" lon="-2.54279">
        <ele>-34.599998474121</ele>
        <time>2020-01-26T09:40:23.000Z</time>
      </trkpt>
      <trkpt lat="47.29078" lon="-2.5428">
        <ele>-35</ele>
        <time>2020-01-26T09:40:24.000Z</time>
      </trkpt>
      <trkpt lat="47.2908" lon="-2.54281">
        <ele>-35.400001525879</ele>
        <time>2020-01-26T09:40:25.000Z</time>
      </trkpt>
      <trkpt lat="47.29083" lon="-2.54281">
        <ele>-35.799999237061</ele>
        <time>2020-01-26T09:40:26.000Z</time>
      </trkpt>
      <trkpt lat="47.29094" lon="-2.54283">
        <ele>-35.799999237061</ele>
        <time>2020-01-26T09:40:29.000Z</time>
      </trkpt>
      <trkpt lat="47.29107" lon="-2.54287">
        <ele>-35.799999237061</ele>
        <time>2020-01-26T09:40:32.000Z</time>
      </trkpt>
      <trkpt lat="47.29115" lon="-2.54289">
        <ele>-35.799999237061</ele>
        <time>2020-01-26T09:40:34.000Z</time>
      </trkpt>
      <trkpt lat="47.2913" lon="-2.54292">
        <ele>-35.799999237061</ele>
        <time>2020-01-26T09:40:37.000Z</time>
      </trkpt>
      <trkpt lat="47.2914" lon="-2.5429">
        <ele>-35.799999237061</ele>
        <time>2020-01-26T09:40:39.000Z</time>
      </trkpt>
      <trkpt lat="47.29144" lon="-2.5429">
        <ele>-35.799999237061</ele>
        <time>2020-01-26T09:40:40.000Z</time>
      </trkpt>
      <trkpt lat="47.29158" lon="-2.54289">
        <ele>-35.799999237061</ele>
        <time>2020-01-26T09:40:43.000Z</time>
      </trkpt>
      <trkpt lat="47.29163" lon="-2.54289">
        <ele>-35.799999237061</ele>
        <time>2020-01-26T09:40:44.000Z</time>
      </trkpt>
      <trkpt lat="47.29176" lon="-2.54286">
        <ele>-35.799999237061</ele>
        <time>2020-01-26T09:40:47.000Z</time>
      </trkpt>
      <trkpt lat="47.29181" lon="-2.54286">
        <ele>-35.799999237061</ele>
        <time>2020-01-26T09:40:48.000Z</time>
      </trkpt>
      <trkpt lat="47.29202" lon="-2.54282">
        <ele>-35.799999237061</ele>
        <time>2020-01-26T09:40:52.000Z</time>
      </trkpt>
      <trkpt lat="47.2922" lon="-2.54272">
        <ele>-35.799999237061</ele>
        <time>2020-01-26T09:40:56.000Z</time>
      </trkpt>
      <trkpt lat="47.29228" lon="-2.54266">
        <ele>-35.799999237061</ele>
        <time>2020-01-26T09:40:58.000Z</time>
      </trkpt>
      <trkpt lat="47.29236" lon="-2.54259">
        <ele>-35.799999237061</ele>
        <time>2020-01-26T09:41:00.000Z</time>
      </trkpt>
      <trkpt lat="47.2924" lon="-2.54257">
        <ele>-35.799999237061</ele>
        <time>2020-01-26T09:41:01.000Z</time>
      </trkpt>
      <trkpt lat="47.2925" lon="-2.54257">
        <ele>-35.799999237061</ele>
        <time>2020-01-26T09:41:04.000Z</time>
      </trkpt>
      <trkpt lat="47.29252" lon="-2.54261">
        <ele>-35.799999237061</ele>
        <time>2020-01-26T09:41:05.000Z</time>
      </trkpt>
      <trkpt lat="47.29256" lon="-2.54278">
        <ele>-35.799999237061</ele>
        <time>2020-01-26T09:41:08.000Z</time>
      </trkpt>
      <trkpt lat="47.29258" lon="-2.54284">
        <ele>-35.799999237061</ele>
        <time>2020-01-26T09:41:09.000Z</time>
      </trkpt>
      <trkpt lat="47.29268" lon="-2.54332">
        <ele>-35.799999237061</ele>
        <time>2020-01-26T09:41:16.000Z</time>
      </trkpt>
      <trkpt lat="47.29282" lon="-2.5438">
        <ele>-35.799999237061</ele>
        <time>2020-01-26T09:41:23.000Z</time>
      </trkpt>
      <trkpt lat="47.2929" lon="-2.54408">
        <ele>-35.799999237061</ele>
        <time>2020-01-26T09:41:27.000Z</time>
      </trkpt>
      <trkpt lat="47.29294" lon="-2.54422">
        <ele>-35.799999237061</ele>
        <time>2020-01-26T09:41:29.000Z</time>
      </trkpt>
      <trkpt lat="47.293" lon="-2.5445">
        <ele>-35.799999237061</ele>
        <time>2020-01-26T09:41:33.000Z</time>
      </trkpt>
      <trkpt lat="47.29302" lon="-2.54464">
        <ele>-35.799999237061</ele>
        <time>2020-01-26T09:41:35.000Z</time>
      </trkpt>
      <trkpt lat="47.29308" lon="-2.54492">
        <ele>-35.799999237061</ele>
        <time>2020-01-26T09:41:39.000Z</time>
      </trkpt>
      <trkpt lat="47.29309" lon="-2.54499">
        <ele>-35.799999237061</ele>
        <time>2020-01-26T09:41:40.000Z</time>
      </trkpt>
      <trkpt lat="47.29319" lon="-2.54551">
        <ele>-35.799999237061</ele>
        <time>2020-01-26T09:41:48.000Z</time>
      </trkpt>
      <trkpt lat="47.29332" lon="-2.54604">
        <ele>-35.799999237061</ele>
        <time>2020-01-26T09:41:56.000Z</time>
      </trkpt>
      <trkpt lat="47.29338" lon="-2.54629">
        <ele>-35.799999237061</ele>
        <time>2020-01-26T09:42:01.000Z</time>
      </trkpt>
      <trkpt lat="47.29342" lon="-2.54658">
        <ele>-35.799999237061</ele>
        <time>2020-01-26T09:42:08.000Z</time>
      </trkpt>
      <trkpt lat="47.29351" lon="-2.54675">
        <ele>-35.799999237061</ele>
        <time>2020-01-26T09:42:14.000Z</time>
      </trkpt>
      <trkpt lat="47.29354" lon="-2.54676">
        <ele>-35.799999237061</ele>
        <time>2020-01-26T09:42:15.000Z</time>
      </trkpt>
      <trkpt lat="47.29366" lon="-2.54675">
        <ele>-35.799999237061</ele>
        <time>2020-01-26T09:42:18.000Z</time>
      </trkpt>
      <trkpt lat="47.2937" lon="-2.54675">
        <ele>-35.799999237061</ele>
        <time>2020-01-26T09:42:19.000Z</time>
      </trkpt>
      <trkpt lat="47.29379" lon="-2.54674">
        <ele>-35.799999237061</ele>
        <time>2020-01-26T09:42:21.000Z</time>
      </trkpt>
      <trkpt lat="47.29394" lon="-2.54674">
        <ele>-35.799999237061</ele>
        <time>2020-01-26T09:42:24.000Z</time>
      </trkpt>
      <trkpt lat="47.29434" lon="-2.54674">
        <ele>-35.799999237061</ele>
        <time>2020-01-26T09:42:31.000Z</time>
      </trkpt>
      <trkpt lat="47.29456" lon="-2.54672">
        <ele>-35.799999237061</ele>
        <time>2020-01-26T09:42:35.000Z</time>
      </trkpt>
      <trkpt lat="47.29472" lon="-2.54664">
        <ele>-35.799999237061</ele>
        <time>2020-01-26T09:42:38.000Z</time>
      </trkpt>
      <trkpt lat="47.29481" lon="-2.54656">
        <ele>-35.799999237061</ele>
        <time>2020-01-26T09:42:40.000Z</time>
      </trkpt>
      <trkpt lat="47.2949" lon="-2.54648">
        <ele>-35.799999237061</ele>
        <time>2020-01-26T09:42:42.000Z</time>
      </trkpt>
      <trkpt lat="47.29509" lon="-2.54624">
        <ele>-35.799999237061</ele>
        <time>2020-01-26T09:42:47.000Z</time>
      </trkpt>
      <trkpt lat="47.29533" lon="-2.54607">
        <ele>-35.799999237061</ele>
        <time>2020-01-26T09:42:52.000Z</time>
      </trkpt>
      <trkpt lat="47.29569" lon="-2.54597">
        <ele>-35.799999237061</ele>
        <time>2020-01-26T09:42:59.000Z</time>
      </trkpt>
      <trkpt lat="47.29609" lon="-2.54589">
        <ele>-35.799999237061</ele>
        <time>2020-01-26T09:43:06.000Z</time>
      </trkpt>
      <trkpt lat="47.29646" lon="-2.54574">
        <ele>-35.799999237061</ele>
        <time>2020-01-26T09:43:12.000Z</time>
      </trkpt>
      <trkpt lat="47.29658" lon="-2.54566">
        <ele>-35.799999237061</ele>
        <time>2020-01-26T09:43:14.000Z</time>
      </trkpt>
      <trkpt lat="47.29675" lon="-2.54551">
        <ele>-35.799999237061</ele>
        <time>2020-01-26T09:43:17.000Z</time>
      </trkpt>
      <trkpt lat="47.29717" lon="-2.54515">
        <ele>-35.799999237061</ele>
        <time>2020-01-26T09:43:24.000Z</time>
      </trkpt>
      <trkpt lat="47.29752" lon="-2.54482">
        <ele>-35.799999237061</ele>
        <time>2020-01-26T09:43:30.000Z</time>
      </trkpt>
      <trkpt lat="47.29787" lon="-2.54446">
        <ele>-35.799999237061</ele>
        <time>2020-01-26T09:43:36.000Z</time>
      </trkpt>
      <trkpt lat="47.29813" lon="-2.54398">
        <ele>-35.799999237061</ele>
        <time>2020-01-26T09:43:42.000Z</time>
      </trkpt>
      <trkpt lat="47.29845" lon="-2.54338">
        <ele>-35.799999237061</ele>
        <time>2020-01-26T09:43:50.000Z</time>
      </trkpt>
      <trkpt lat="47.29864" lon="-2.54296">
        <ele>-35.799999237061</ele>
        <time>2020-01-26T09:43:55.000Z</time>
      </trkpt>
      <trkpt lat="47.29867" lon="-2.54287">
        <ele>-35.799999237061</ele>
        <time>2020-01-26T09:43:56.000Z</time>
      </trkpt>
      <trkpt lat="47.29873" lon="-2.54228">
        <ele>-35.799999237061</ele>
        <time>2020-01-26T09:44:02.000Z</time>
      </trkpt>
      <trkpt lat="47.29877" lon="-2.54173">
        <ele>-35.799999237061</ele>
        <time>2020-01-26T09:44:08.000Z</time>
      </trkpt>
      <trkpt lat="47.29879" lon="-2.54155">
        <ele>-35.799999237061</ele>
        <time>2020-01-26T09:44:10.000Z</time>
      </trkpt>
      <trkpt lat="47.29884" lon="-2.5413">
        <ele>-35.799999237061</ele>
        <time>2020-01-26T09:44:13.000Z</time>
      </trkpt>
      <trkpt lat="47.29889" lon="-2.54114">
        <ele>-35.799999237061</ele>
        <time>2020-01-26T09:44:15.000Z</time>
      </trkpt>
      <trkpt lat="47.29905" lon="-2.54066">
        <ele>-35.799999237061</ele>
        <time>2020-01-26T09:44:21.000Z</time>
      </trkpt>
      <trkpt lat="47.29926" lon="-2.53998">
        <ele>-35.799999237061</ele>
        <time>2020-01-26T09:44:29.000Z</time>
      </trkpt>
      <trkpt lat="47.29928" lon="-2.53989">
        <ele>-35.799999237061</ele>
        <time>2020-01-26T09:44:30.000Z</time>
      </trkpt>
      <trkpt lat="47.29934" lon="-2.5395">
        <ele>-35.799999237061</ele>
        <time>2020-01-26T09:44:34.000Z</time>
      </trkpt>
      <trkpt lat="47.29937" lon="-2.53902">
        <ele>-35.799999237061</ele>
        <time>2020-01-26T09:44:39.000Z</time>
      </trkpt>
      <trkpt lat="47.29937" lon="-2.53892">
        <ele>-35.799999237061</ele>
        <time>2020-01-26T09:44:40.000Z</time>
      </trkpt>
      <trkpt lat="47.29933" lon="-2.53852">
        <ele>-35.799999237061</ele>
        <time>2020-01-26T09:44:44.000Z</time>
      </trkpt>
      <trkpt lat="47.29921" lon="-2.53777">
        <ele>-35.799999237061</ele>
        <time>2020-01-26T09:44:52.000Z</time>
      </trkpt>
      <trkpt lat="47.29911" lon="-2.53717">
        <ele>-35.799999237061</ele>
        <time>2020-01-26T09:44:59.000Z</time>
      </trkpt>
      <trkpt lat="47.29908" lon="-2.53691">
        <ele>-35.799999237061</ele>
        <time>2020-01-26T09:45:02.000Z</time>
      </trkpt>
      <trkpt lat="47.29907" lon="-2.53665">
        <ele>-35.799999237061</ele>
        <time>2020-01-26T09:45:05.000Z</time>
      </trkpt>
      <trkpt lat="47.29914" lon="-2.53614">
        <ele>-35.799999237061</ele>
        <time>2020-01-26T09:45:11.000Z</time>
      </trkpt>
      <trkpt lat="47.29916" lon="-2.53606">
        <ele>-35.799999237061</ele>
        <time>2020-01-26T09:45:12.000Z</time>
      </trkpt>
      <trkpt lat="47.29927" lon="-2.53574">
        <ele>-35.799999237061</ele>
        <time>2020-01-26T09:45:16.000Z</time>
      </trkpt>
      <trkpt lat="47.29947" lon="-2.5354">
        <ele>-35.799999237061</ele>
        <time>2020-01-26T09:45:21.000Z</time>
      </trkpt>
      <trkpt lat="47.29974" lon="-2.535">
        <ele>-35.799999237061</ele>
        <time>2020-01-26T09:45:27.000Z</time>
      </trkpt>
      <trkpt lat="47.30007" lon="-2.53442">
        <ele>-35.799999237061</ele>
        <time>2020-01-26T09:45:35.000Z</time>
      </trkpt>
      <trkpt lat="47.30031" lon="-2.53392">
        <ele>-35.799999237061</ele>
        <time>2020-01-26T09:45:42.000Z</time>
      </trkpt>
      <trkpt lat="47.30034" lon="-2.53384">
        <ele>-35.799999237061</ele>
        <time>2020-01-26T09:45:43.000Z</time>
      </trkpt>
      <trkpt lat="47.30042" lon="-2.53347">
        <ele>-35.799999237061</ele>
        <time>2020-01-26T09:45:47.000Z</time>
      </trkpt>
      <trkpt lat="47.30047" lon="-2.5329">
        <ele>-35.799999237061</ele>
        <time>2020-01-26T09:45:53.000Z</time>
      </trkpt>
      <trkpt lat="47.30044" lon="-2.53225">
        <ele>-35.799999237061</ele>
        <time>2020-01-26T09:46:00.000Z</time>
      </trkpt>
      <trkpt lat="47.30041" lon="-2.53163">
        <ele>-35.799999237061</ele>
        <time>2020-01-26T09:46:07.000Z</time>
      </trkpt>
      <trkpt lat="47.30038" lon="-2.53111">
        <ele>-35.799999237061</ele>
        <time>2020-01-26T09:46:13.000Z</time>
      </trkpt>
      <trkpt lat="47.30034" lon="-2.5305">
        <ele>-35.799999237061</ele>
        <time>2020-01-26T09:46:20.000Z</time>
      </trkpt>
      <trkpt lat="47.30036" lon="-2.53026">
        <ele>-35.799999237061</ele>
        <time>2020-01-26T09:46:23.000Z</time>
      </trkpt>
      <trkpt lat="47.30039" lon="-2.53003">
        <ele>-35.799999237061</ele>
        <time>2020-01-26T09:46:26.000Z</time>
      </trkpt>
      <trkpt lat="47.30045" lon="-2.52973">
        <ele>-35.799999237061</ele>
        <time>2020-01-26T09:46:30.000Z</time>
      </trkpt>
      <trkpt lat="47.3005" lon="-2.52956">
        <ele>-35.799999237061</ele>
        <time>2020-01-26T09:46:32.000Z</time>
      </trkpt>
      <trkpt lat="47.30065" lon="-2.52899">
        <ele>-35.799999237061</ele>
        <time>2020-01-26T09:46:39.000Z</time>
      </trkpt>
      <trkpt lat="47.30075" lon="-2.52833">
        <ele>-35.799999237061</ele>
        <time>2020-01-26T09:46:47.000Z</time>
      </trkpt>
      <trkpt lat="47.30081" lon="-2.5279">
        <ele>-35.799999237061</ele>
        <time>2020-01-26T09:46:52.000Z</time>
      </trkpt>
      <trkpt lat="47.30089" lon="-2.52736">
        <ele>-35.799999237061</ele>
        <time>2020-01-26T09:46:58.000Z</time>
      </trkpt>
      <trkpt lat="47.30091" lon="-2.5268">
        <ele>-36.200000762939</ele>
        <time>2020-01-26T09:47:04.000Z</time>
      </trkpt>
      <trkpt lat="47.3009" lon="-2.5267">
        <ele>-37</ele>
        <time>2020-01-26T09:47:05.000Z</time>
      </trkpt>
      <trkpt lat="47.3009" lon="-2.52662">
        <ele>-37.400001525879</ele>
        <time>2020-01-26T09:47:06.000Z</time>
      </trkpt>
      <trkpt lat="47.30089" lon="-2.52653">
        <ele>-37.799999237061</ele>
        <time>2020-01-26T09:47:07.000Z</time>
      </trkpt>
      <trkpt lat="47.30088" lon="-2.52625">
        <ele>-37.799999237061</ele>
        <time>2020-01-26T09:47:10.000Z</time>
      </trkpt>
      <trkpt lat="47.3008" lon="-2.52561">
        <ele>-37.799999237061</ele>
        <time>2020-01-26T09:47:17.000Z</time>
      </trkpt>
      <trkpt lat="47.30073" lon="-2.52491">
        <ele>-37.799999237061</ele>
        <time>2020-01-26T09:47:25.000Z</time>
      </trkpt>
      <trkpt lat="47.30066" lon="-2.52424">
        <ele>-37.799999237061</ele>
        <time>2020-01-26T09:47:33.000Z</time>
      </trkpt>
      <trkpt lat="47.30061" lon="-2.52368">
        <ele>-37.799999237061</ele>
        <time>2020-01-26T09:47:40.000Z</time>
      </trkpt>
      <trkpt lat="47.30059" lon="-2.52346">
        <ele>-37.799999237061</ele>
        <time>2020-01-26T09:47:43.000Z</time>
      </trkpt>
      <trkpt lat="47.30055" lon="-2.52329">
        <ele>-37.799999237061</ele>
        <time>2020-01-26T09:47:46.000Z</time>
      </trkpt>
      <trkpt lat="47.30052" lon="-2.52318">
        <ele>-37.799999237061</ele>
        <time>2020-01-26T09:47:48.000Z</time>
      </trkpt>
      <trkpt lat="47.30041" lon="-2.52301">
        <ele>-37.799999237061</ele>
        <time>2020-01-26T09:47:51.000Z</time>
      </trkpt>
      <trkpt lat="47.30034" lon="-2.52273">
        <ele>-37.799999237061</ele>
        <time>2020-01-26T09:47:55.000Z</time>
      </trkpt>
      <trkpt lat="47.3004" lon="-2.52251">
        <ele>-37.799999237061</ele>
        <time>2020-01-26T09:47:58.000Z</time>
      </trkpt>
      <trkpt lat="47.30043" lon="-2.52236">
        <ele>-37.799999237061</ele>
        <time>2020-01-26T09:48:00.000Z</time>
      </trkpt>
      <trkpt lat="47.30043" lon="-2.52227">
        <ele>-37.799999237061</ele>
        <time>2020-01-26T09:48:01.000Z</time>
      </trkpt>
      <trkpt lat="47.30043" lon="-2.52219">
        <ele>-37.799999237061</ele>
        <time>2020-01-26T09:48:02.000Z</time>
      </trkpt>
      <trkpt lat="47.30041" lon="-2.52168">
        <ele>-37.799999237061</ele>
        <time>2020-01-26T09:48:08.000Z</time>
      </trkpt>
      <trkpt lat="47.30036" lon="-2.52124">
        <ele>-37.799999237061</ele>
        <time>2020-01-26T09:48:13.000Z</time>
      </trkpt>
      <trkpt lat="47.30035" lon="-2.52108">
        <ele>-37.799999237061</ele>
        <time>2020-01-26T09:48:15.000Z</time>
      </trkpt>
      <trkpt lat="47.30034" lon="-2.521">
        <ele>-37.799999237061</ele>
        <time>2020-01-26T09:48:16.000Z</time>
      </trkpt>
      <trkpt lat="47.30029" lon="-2.52058">
        <ele>-37.799999237061</ele>
        <time>2020-01-26T09:48:21.000Z</time>
      </trkpt>
      <trkpt lat="47.3002" lon="-2.51991">
        <ele>-37.799999237061</ele>
        <time>2020-01-26T09:48:29.000Z</time>
      </trkpt>
      <trkpt lat="47.30015" lon="-2.51968">
        <ele>-37.799999237061</ele>
        <time>2020-01-26T09:48:32.000Z</time>
      </trkpt>
      <trkpt lat="47.30009" lon="-2.51953">
        <ele>-37.799999237061</ele>
        <time>2020-01-26T09:48:34.000Z</time>
      </trkpt>
      <trkpt lat="47.30002" lon="-2.5194">
        <ele>-37.799999237061</ele>
        <time>2020-01-26T09:48:36.000Z</time>
      </trkpt>
      <trkpt lat="47.29987" lon="-2.51918">
        <ele>-37.799999237061</ele>
        <time>2020-01-26T09:48:40.000Z</time>
      </trkpt>
      <trkpt lat="47.29984" lon="-2.51913">
        <ele>-37.799999237061</ele>
        <time>2020-01-26T09:48:41.000Z</time>
      </trkpt>
      <trkpt lat="47.29976" lon="-2.51895">
        <ele>-37.400001525879</ele>
        <time>2020-01-26T09:48:45.000Z</time>
      </trkpt>
      <trkpt lat="47.29976" lon="-2.51892">
        <ele>-37</ele>
        <time>2020-01-26T09:48:46.000Z</time>
      </trkpt>
      <trkpt lat="47.29976" lon="-2.51889">
        <ele>-36.599998474121</ele>
        <time>2020-01-26T09:48:47.000Z</time>
      </trkpt>
      <trkpt lat="47.29976" lon="-2.51887">
        <ele>-36.200000762939</ele>
        <time>2020-01-26T09:48:48.000Z</time>
      </trkpt>
      <trkpt lat="47.29976" lon="-2.51884">
        <ele>-35.799999237061</ele>
        <time>2020-01-26T09:48:49.000Z</time>
      </trkpt>
      <trkpt lat="47.29977" lon="-2.51881">
        <ele>-35.799999237061</ele>
        <time>2020-01-26T09:48:50.000Z</time>
      </trkpt>
      <trkpt lat="47.29986" lon="-2.51868">
        <ele>-35.799999237061</ele>
        <time>2020-01-26T09:48:54.000Z</time>
      </trkpt>
      <trkpt lat="47.2999" lon="-2.51854">
        <ele>-36.200000762939</ele>
        <time>2020-01-26T09:48:57.000Z</time>
      </trkpt>
      <trkpt lat="47.2999" lon="-2.51848">
        <ele>-36.599998474121</ele>
        <time>2020-01-26T09:48:58.000Z</time>
      </trkpt>
      <trkpt lat="47.29989" lon="-2.51843">
        <ele>-37</ele>
        <time>2020-01-26T09:48:59.000Z</time>
      </trkpt>
      <trkpt lat="47.29987" lon="-2.51837">
        <ele>-37.400001525879</ele>
        <time>2020-01-26T09:49:00.000Z</time>
      </trkpt>
      <trkpt lat="47.29985" lon="-2.51831">
        <ele>-37.799999237061</ele>
        <time>2020-01-26T09:49:01.000Z</time>
      </trkpt>
      <trkpt lat="47.29978" lon="-2.51815">
        <ele>-37.799999237061</ele>
        <time>2020-01-26T09:49:04.000Z</time>
      </trkpt>
      <trkpt lat="47.29955" lon="-2.51769">
        <ele>-37.799999237061</ele>
        <time>2020-01-26T09:49:11.000Z</time>
      </trkpt>
      <trkpt lat="47.29929" lon="-2.51712">
        <ele>-37.799999237061</ele>
        <time>2020-01-26T09:49:19.000Z</time>
      </trkpt>
      <trkpt lat="47.29914" lon="-2.51678">
        <ele>-37.799999237061</ele>
        <time>2020-01-26T09:49:25.000Z</time>
      </trkpt>
      <trkpt lat="47.29912" lon="-2.51672">
        <ele>-37.799999237061</ele>
        <time>2020-01-26T09:49:26.000Z</time>
      </trkpt>
      <trkpt lat="47.29907" lon="-2.51658">
        <ele>-37.799999237061</ele>
        <time>2020-01-26T09:49:31.000Z</time>
      </trkpt>
      <trkpt lat="47.29902" lon="-2.51642">
        <ele>-37.799999237061</ele>
        <time>2020-01-26T09:49:37.000Z</time>
      </trkpt>
      <trkpt lat="47.29899" lon="-2.51633">
        <ele>-37.799999237061</ele>
        <time>2020-01-26T09:49:42.000Z</time>
      </trkpt>
      <trkpt lat="47.29898" lon="-2.51627">
        <ele>-37.799999237061</ele>
        <time>2020-01-26T10:05:29.000Z</time>
      </trkpt>
      <trkpt lat="47.29898" lon="-2.51621">
        <ele>-37.799999237061</ele>
        <time>2020-01-26T10:05:32.000Z</time>
      </trkpt>
      <trkpt lat="47.29895" lon="-2.51607">
        <ele>-37.799999237061</ele>
        <time>2020-01-26T10:05:36.000Z</time>
      </trkpt>
      <trkpt lat="47.29889" lon="-2.51585">
        <ele>-37.799999237061</ele>
        <time>2020-01-26T10:05:41.000Z</time>
      </trkpt>
      <trkpt lat="47.29884" lon="-2.51563">
        <ele>-37.799999237061</ele>
        <time>2020-01-26T10:05:46.000Z</time>
      </trkpt>
      <trkpt lat="47.29876" lon="-2.51541">
        <ele>-37.799999237061</ele>
        <time>2020-01-26T10:05:53.000Z</time>
      </trkpt>
      <trkpt lat="47.29865" lon="-2.51531">
        <ele>-37.799999237061</ele>
        <time>2020-01-26T10:05:57.000Z</time>
      </trkpt>
      <trkpt lat="47.29849" lon="-2.51533">
        <ele>-37.799999237061</ele>
        <time>2020-01-26T10:06:02.000Z</time>
      </trkpt>
      <trkpt lat="47.29839" lon="-2.51526">
        <ele>-37.799999237061</ele>
        <time>2020-01-26T10:06:06.000Z</time>
      </trkpt>
      <trkpt lat="47.29826" lon="-2.51518">
        <ele>-37.799999237061</ele>
        <time>2020-01-26T10:06:11.000Z</time>
      </trkpt>
      <trkpt lat="47.29821" lon="-2.51507">
        <ele>-37.799999237061</ele>
        <time>2020-01-26T10:06:16.000Z</time>
      </trkpt>
      <trkpt lat="47.2982" lon="-2.51506">
        <ele>-37.799999237061</ele>
        <time>2020-01-26T10:06:17.000Z</time>
      </trkpt>
      <trkpt lat="47.29817" lon="-2.51506">
        <ele>-37.799999237061</ele>
        <time>2020-01-26T10:06:21.000Z</time>
      </trkpt>
      <trkpt lat="47.29813" lon="-2.51515">
        <ele>-37.799999237061</ele>
        <time>2020-01-26T10:06:25.000Z</time>
      </trkpt>
      <trkpt lat="47.29806" lon="-2.51512">
        <ele>-37.799999237061</ele>
        <time>2020-01-26T10:06:28.000Z</time>
      </trkpt>
      <trkpt lat="47.29801" lon="-2.51502">
        <ele>-37.799999237061</ele>
        <time>2020-01-26T10:06:30.000Z</time>
      </trkpt>
      <trkpt lat="47.29796" lon="-2.5149">
        <ele>-37.799999237061</ele>
        <time>2020-01-26T10:06:33.000Z</time>
      </trkpt>
      <trkpt lat="47.29787" lon="-2.51484">
        <ele>-37.799999237061</ele>
        <time>2020-01-26T10:06:37.000Z</time>
      </trkpt>
      <trkpt lat="47.29768" lon="-2.51476">
        <ele>-37.799999237061</ele>
        <time>2020-01-26T10:06:43.000Z</time>
      </trkpt>
      <trkpt lat="47.29748" lon="-2.51464">
        <ele>-37.799999237061</ele>
        <time>2020-01-26T10:06:51.000Z</time>
      </trkpt>
      <trkpt lat="47.29739" lon="-2.5146">
        <ele>-37.799999237061</ele>
        <time>2020-01-26T10:06:56.000Z</time>
      </trkpt>
      <trkpt lat="47.29726" lon="-2.51452">
        <ele>-37.799999237061</ele>
        <time>2020-01-26T10:07:01.000Z</time>
      </trkpt>
      <trkpt lat="47.29709" lon="-2.51438">
        <ele>-37.799999237061</ele>
        <time>2020-01-26T10:07:07.000Z</time>
      </trkpt>
      <trkpt lat="47.29697" lon="-2.51428">
        <ele>-37.799999237061</ele>
        <time>2020-01-26T10:07:12.000Z</time>
      </trkpt>
      <trkpt lat="47.29687" lon="-2.51423">
        <ele>-37.799999237061</ele>
        <time>2020-01-26T10:07:17.000Z</time>
      </trkpt>
      <trkpt lat="47.29675" lon="-2.51413">
        <ele>-37.799999237061</ele>
        <time>2020-01-26T10:07:22.000Z</time>
      </trkpt>
      <trkpt lat="47.29661" lon="-2.51401">
        <ele>-37.799999237061</ele>
        <time>2020-01-26T10:07:27.000Z</time>
      </trkpt>
      <trkpt lat="47.29645" lon="-2.5139">
        <ele>-37.799999237061</ele>
        <time>2020-01-26T10:07:32.000Z</time>
      </trkpt>
      <trkpt lat="47.29631" lon="-2.51379">
        <ele>-37.799999237061</ele>
        <time>2020-01-26T10:07:37.000Z</time>
      </trkpt>
      <trkpt lat="47.29613" lon="-2.51364">
        <ele>-37.799999237061</ele>
        <time>2020-01-26T10:07:42.000Z</time>
      </trkpt>
      <trkpt lat="47.29591" lon="-2.51344">
        <ele>-37.799999237061</ele>
        <time>2020-01-26T10:07:49.000Z</time>
      </trkpt>
      <trkpt lat="47.29579" lon="-2.51339">
        <ele>-37.799999237061</ele>
        <time>2020-01-26T10:07:54.000Z</time>
      </trkpt>
      <trkpt lat="47.29567" lon="-2.51332">
        <ele>-37.799999237061</ele>
        <time>2020-01-26T10:07:59.000Z</time>
      </trkpt>
      <trkpt lat="47.29564" lon="-2.51334">
        <ele>-37.799999237061</ele>
        <time>2020-01-26T10:08:00.000Z</time>
      </trkpt>
      <trkpt lat="47.2956" lon="-2.51339">
        <ele>-37.799999237061</ele>
        <time>2020-01-26T10:08:02.000Z</time>
      </trkpt>
      <trkpt lat="47.29552" lon="-2.51334">
        <ele>-37.799999237061</ele>
        <time>2020-01-26T10:08:06.000Z</time>
      </trkpt>
      <trkpt lat="47.29545" lon="-2.51324">
        <ele>-37.799999237061</ele>
        <time>2020-01-26T10:08:10.000Z</time>
      </trkpt>
      <trkpt lat="47.2954" lon="-2.5131">
        <ele>-37.799999237061</ele>
        <time>2020-01-26T10:08:14.000Z</time>
      </trkpt>
      <trkpt lat="47.29536" lon="-2.513">
        <ele>-37.799999237061</ele>
        <time>2020-01-26T10:08:16.000Z</time>
      </trkpt>
      <trkpt lat="47.29528" lon="-2.51283">
        <ele>-37.799999237061</ele>
        <time>2020-01-26T10:08:20.000Z</time>
      </trkpt>
      <trkpt lat="47.29523" lon="-2.51271">
        <ele>-37.799999237061</ele>
        <time>2020-01-26T10:08:25.000Z</time>
      </trkpt>
      <trkpt lat="47.29522" lon="-2.51267">
        <ele>-37.799999237061</ele>
        <time>2020-01-26T10:08:28.000Z</time>
      </trkpt>
      <trkpt lat="47.29519" lon="-2.51263">
        <ele>-37.799999237061</ele>
        <time>2020-01-26T10:08:30.000Z</time>
      </trkpt>
      <trkpt lat="47.29513" lon="-2.51255">
        <ele>-37.799999237061</ele>
        <time>2020-01-26T10:08:34.000Z</time>
      </trkpt>
      <trkpt lat="47.29508" lon="-2.51245">
        <ele>-37.799999237061</ele>
        <time>2020-01-26T10:08:37.000Z</time>
      </trkpt>
      <trkpt lat="47.29507" lon="-2.51239">
        <ele>-37.799999237061</ele>
        <time>2020-01-26T10:08:38.000Z</time>
      </trkpt>
      <trkpt lat="47.29488" lon="-2.51205">
        <ele>-37.799999237061</ele>
        <time>2020-01-26T10:08:44.000Z</time>
      </trkpt>
      <trkpt lat="47.29483" lon="-2.51199">
        <ele>-37.799999237061</ele>
        <time>2020-01-26T10:08:45.000Z</time>
      </trkpt>
      <trkpt lat="47.29459" lon="-2.5117">
        <ele>-37.799999237061</ele>
        <time>2020-01-26T10:08:51.000Z</time>
      </trkpt>
      <trkpt lat="47.29439" lon="-2.51145">
        <ele>-37.799999237061</ele>
        <time>2020-01-26T10:08:57.000Z</time>
      </trkpt>
      <trkpt lat="47.29418" lon="-2.51123">
        <ele>-37.799999237061</ele>
        <time>2020-01-26T10:09:02.000Z</time>
      </trkpt>
      <trkpt lat="47.29393" lon="-2.51101">
        <ele>-37.799999237061</ele>
        <time>2020-01-26T10:09:08.000Z</time>
      </trkpt>
      <trkpt lat="47.29384" lon="-2.51093">
        <ele>-37.799999237061</ele>
        <time>2020-01-26T10:09:10.000Z</time>
      </trkpt>
      <trkpt lat="47.29374" lon="-2.51079">
        <ele>-37.799999237061</ele>
        <time>2020-01-26T10:09:13.000Z</time>
      </trkpt>
      <trkpt lat="47.29371" lon="-2.51074">
        <ele>-37.799999237061</ele>
        <time>2020-01-26T10:09:14.000Z</time>
      </trkpt>
      <trkpt lat="47.29357" lon="-2.51044">
        <ele>-37.799999237061</ele>
        <time>2020-01-26T10:09:19.000Z</time>
      </trkpt>
      <trkpt lat="47.29335" lon="-2.51007">
        <ele>-37.799999237061</ele>
        <time>2020-01-26T10:09:26.000Z</time>
      </trkpt>
      <trkpt lat="47.29322" lon="-2.50987">
        <ele>-37.799999237061</ele>
        <time>2020-01-26T10:09:30.000Z</time>
      </trkpt>
      <trkpt lat="47.29315" lon="-2.50978">
        <ele>-37.799999237061</ele>
        <time>2020-01-26T10:09:32.000Z</time>
      </trkpt>
      <trkpt lat="47.29312" lon="-2.50972">
        <ele>-37.400001525879</ele>
        <time>2020-01-26T10:09:33.000Z</time>
      </trkpt>
      <trkpt lat="47.29308" lon="-2.50966">
        <ele>-36.599998474121</ele>
        <time>2020-01-26T10:09:34.000Z</time>
      </trkpt>
      <trkpt lat="47.29305" lon="-2.50961">
        <ele>-36.200000762939</ele>
        <time>2020-01-26T10:09:35.000Z</time>
      </trkpt>
      <trkpt lat="47.29302" lon="-2.50955">
        <ele>-35.599998474121</ele>
        <time>2020-01-26T10:09:36.000Z</time>
      </trkpt>
      <trkpt lat="47.29299" lon="-2.5095">
        <ele>-35.599998474121</ele>
        <time>2020-01-26T10:09:37.000Z</time>
      </trkpt>
      <trkpt lat="47.29276" lon="-2.50912">
        <ele>-35.599998474121</ele>
        <time>2020-01-26T10:09:44.000Z</time>
      </trkpt>
      <trkpt lat="47.29274" lon="-2.50905">
        <ele>-35.599998474121</ele>
        <time>2020-01-26T10:09:45.000Z</time>
      </trkpt>
      <trkpt lat="47.2927" lon="-2.50892">
        <ele>-35.599998474121</ele>
        <time>2020-01-26T10:09:47.000Z</time>
      </trkpt>
      <trkpt lat="47.29256" lon="-2.50874">
        <ele>-35.599998474121</ele>
        <time>2020-01-26T10:09:51.000Z</time>
      </trkpt>
      <trkpt lat="47.29252" lon="-2.50869">
        <ele>-35.599998474121</ele>
        <time>2020-01-26T10:09:52.000Z</time>
      </trkpt>
      <trkpt lat="47.29248" lon="-2.50864">
        <ele>-35.599998474121</ele>
        <time>2020-01-26T10:09:53.000Z</time>
      </trkpt>
      <trkpt lat="47.29238" lon="-2.50848">
        <ele>-35.599998474121</ele>
        <time>2020-01-26T10:09:56.000Z</time>
      </trkpt>
      <trkpt lat="47.29229" lon="-2.50833">
        <ele>-35.599998474121</ele>
        <time>2020-01-26T10:09:59.000Z</time>
      </trkpt>
      <trkpt lat="47.29217" lon="-2.50811">
        <ele>-35.599998474121</ele>
        <time>2020-01-26T10:10:03.000Z</time>
      </trkpt>
      <trkpt lat="47.29204" lon="-2.50787">
        <ele>-35.599998474121</ele>
        <time>2020-01-26T10:10:07.000Z</time>
      </trkpt>
      <trkpt lat="47.29202" lon="-2.50772">
        <ele>-35.599998474121</ele>
        <time>2020-01-26T10:10:09.000Z</time>
      </trkpt>
      <trkpt lat="47.29205" lon="-2.50741">
        <ele>-35.599998474121</ele>
        <time>2020-01-26T10:10:13.000Z</time>
      </trkpt>
      <trkpt lat="47.29207" lon="-2.50733">
        <ele>-35.599998474121</ele>
        <time>2020-01-26T10:10:14.000Z</time>
      </trkpt>
      <trkpt lat="47.29214" lon="-2.50691">
        <ele>-35.599998474121</ele>
        <time>2020-01-26T10:10:19.000Z</time>
      </trkpt>
      <trkpt lat="47.29212" lon="-2.50657">
        <ele>-35.599998474121</ele>
        <time>2020-01-26T10:10:23.000Z</time>
      </trkpt>
      <trkpt lat="47.2921" lon="-2.50649">
        <ele>-35.599998474121</ele>
        <time>2020-01-26T10:10:24.000Z</time>
      </trkpt>
      <trkpt lat="47.29207" lon="-2.50633">
        <ele>-35.599998474121</ele>
        <time>2020-01-26T10:10:26.000Z</time>
      </trkpt>
      <trkpt lat="47.29207" lon="-2.50608">
        <ele>-35.599998474121</ele>
        <time>2020-01-26T10:10:29.000Z</time>
      </trkpt>
      <trkpt lat="47.29209" lon="-2.50591">
        <ele>-35.599998474121</ele>
        <time>2020-01-26T10:10:31.000Z</time>
      </trkpt>
      <trkpt lat="47.29213" lon="-2.50561">
        <ele>-35.599998474121</ele>
        <time>2020-01-26T10:10:35.000Z</time>
      </trkpt>
      <trkpt lat="47.29214" lon="-2.5054">
        <ele>-35.599998474121</ele>
        <time>2020-01-26T10:10:38.000Z</time>
      </trkpt>
      <trkpt lat="47.29213" lon="-2.50528">
        <ele>-35.599998474121</ele>
        <time>2020-01-26T10:10:40.000Z</time>
      </trkpt>
      <trkpt lat="47.29203" lon="-2.50505">
        <ele>-35.599998474121</ele>
        <time>2020-01-26T10:10:44.000Z</time>
      </trkpt>
      <trkpt lat="47.29199" lon="-2.505">
        <ele>-35.599998474121</ele>
        <time>2020-01-26T10:10:45.000Z</time>
      </trkpt>
      <trkpt lat="47.2919" lon="-2.50492">
        <ele>-35.599998474121</ele>
        <time>2020-01-26T10:10:47.000Z</time>
      </trkpt>
      <trkpt lat="47.29175" lon="-2.50481">
        <ele>-35.599998474121</ele>
        <time>2020-01-26T10:10:50.000Z</time>
      </trkpt>
      <trkpt lat="47.29144" lon="-2.50462">
        <ele>-35.599998474121</ele>
        <time>2020-01-26T10:10:56.000Z</time>
      </trkpt>
      <trkpt lat="47.29138" lon="-2.50459">
        <ele>-35.599998474121</ele>
        <time>2020-01-26T10:10:57.000Z</time>
      </trkpt>
      <trkpt lat="47.29118" lon="-2.50462">
        <ele>-35.599998474121</ele>
        <time>2020-01-26T10:11:01.000Z</time>
      </trkpt>
      <trkpt lat="47.29111" lon="-2.50472">
        <ele>-35.599998474121</ele>
        <time>2020-01-26T10:11:03.000Z</time>
      </trkpt>
      <trkpt lat="47.29109" lon="-2.50478">
        <ele>-35.599998474121</ele>
        <time>2020-01-26T10:11:04.000Z</time>
      </trkpt>
      <trkpt lat="47.29092" lon="-2.50519">
        <ele>-35.599998474121</ele>
        <time>2020-01-26T10:11:10.000Z</time>
      </trkpt>
      <trkpt lat="47.29062" lon="-2.50589">
        <ele>-35.599998474121</ele>
        <time>2020-01-26T10:11:20.000Z</time>
      </trkpt>
      <trkpt lat="47.29049" lon="-2.50626">
        <ele>-35.599998474121</ele>
        <time>2020-01-26T10:11:25.000Z</time>
      </trkpt>
      <trkpt lat="47.29048" lon="-2.50642">
        <ele>-35.599998474121</ele>
        <time>2020-01-26T10:11:27.000Z</time>
      </trkpt>
      <trkpt lat="47.29047" lon="-2.50655">
        <ele>-35.599998474121</ele>
        <time>2020-01-26T10:11:29.000Z</time>
      </trkpt>
      <trkpt lat="47.29042" lon="-2.50661">
        <ele>-35.599998474121</ele>
        <time>2020-01-26T10:11:31.000Z</time>
      </trkpt>
      <trkpt lat="47.2903" lon="-2.50653">
        <ele>-35.599998474121</ele>
        <time>2020-01-26T10:11:34.000Z</time>
      </trkpt>
      <trkpt lat="47.29026" lon="-2.50649">
        <ele>-35.599998474121</ele>
        <time>2020-01-26T10:11:35.000Z</time>
      </trkpt>
      <trkpt lat="47.28997" lon="-2.50627">
        <ele>-35.599998474121</ele>
        <time>2020-01-26T10:11:41.000Z</time>
      </trkpt>
      <trkpt lat="47.28965" lon="-2.50606">
        <ele>-35.599998474121</ele>
        <time>2020-01-26T10:11:47.000Z</time>
      </trkpt>
      <trkpt lat="47.28922" lon="-2.50572">
        <ele>-35.599998474121</ele>
        <time>2020-01-26T10:11:56.000Z</time>
      </trkpt>
      <trkpt lat="47.28875" lon="-2.50541">
        <ele>-35.599998474121</ele>
        <time>2020-01-26T10:12:05.000Z</time>
      </trkpt>
      <trkpt lat="47.28841" lon="-2.50519">
        <ele>-35.599998474121</ele>
        <time>2020-01-26T10:12:11.000Z</time>
      </trkpt>
      <trkpt lat="47.28836" lon="-2.50515">
        <ele>-35.599998474121</ele>
        <time>2020-01-26T10:12:12.000Z</time>
      </trkpt>
      <trkpt lat="47.28815" lon="-2.50503">
        <ele>-35.599998474121</ele>
        <time>2020-01-26T10:12:16.000Z</time>
      </trkpt>
      <trkpt lat="47.28764" lon="-2.50467">
        <ele>-35.599998474121</ele>
        <time>2020-01-26T10:12:26.000Z</time>
      </trkpt>
      <trkpt lat="47.2873" lon="-2.50433">
        <ele>-35.599998474121</ele>
        <time>2020-01-26T10:12:33.000Z</time>
      </trkpt>
      <trkpt lat="47.28699" lon="-2.50396">
        <ele>-35.599998474121</ele>
        <time>2020-01-26T10:12:40.000Z</time>
      </trkpt>
      <trkpt lat="47.28662" lon="-2.50364">
        <ele>-35.599998474121</ele>
        <time>2020-01-26T10:12:47.000Z</time>
      </trkpt>
      <trkpt lat="47.2863" lon="-2.50339">
        <ele>-35.599998474121</ele>
        <time>2020-01-26T10:12:53.000Z</time>
      </trkpt>
      <trkpt lat="47.28607" lon="-2.50327">
        <ele>-35.599998474121</ele>
        <time>2020-01-26T10:12:57.000Z</time>
      </trkpt>
      <trkpt lat="47.286" lon="-2.50326">
        <ele>-35.599998474121</ele>
        <time>2020-01-26T10:12:58.000Z</time>
      </trkpt>
      <trkpt lat="47.28577" lon="-2.50324">
        <ele>-35.599998474121</ele>
        <time>2020-01-26T10:13:02.000Z</time>
      </trkpt>
      <trkpt lat="47.28571" lon="-2.50321">
        <ele>-35.599998474121</ele>
        <time>2020-01-26T10:13:03.000Z</time>
      </trkpt>
      <trkpt lat="47.28547" lon="-2.503">
        <ele>-35.599998474121</ele>
        <time>2020-01-26T10:13:08.000Z</time>
      </trkpt>
      <trkpt lat="47.28541" lon="-2.50297">
        <ele>-35.599998474121</ele>
        <time>2020-01-26T10:13:09.000Z</time>
      </trkpt>
      <trkpt lat="47.28521" lon="-2.50284">
        <ele>-35.599998474121</ele>
        <time>2020-01-26T10:13:13.000Z</time>
      </trkpt>
      <trkpt lat="47.28495" lon="-2.50273">
        <ele>-35.599998474121</ele>
        <time>2020-01-26T10:13:19.000Z</time>
      </trkpt>
      <trkpt lat="47.28489" lon="-2.50275">
        <ele>-35.599998474121</ele>
        <time>2020-01-26T10:13:23.000Z</time>
      </trkpt>
      <trkpt lat="47.28485" lon="-2.50274">
        <ele>-35.599998474121</ele>
        <time>2020-01-26T10:13:27.000Z</time>
      </trkpt>
      <trkpt lat="47.28483" lon="-2.50273">
        <ele>-35.599998474121</ele>
        <time>2020-01-26T10:13:28.000Z</time>
      </trkpt>
      <trkpt lat="47.28473" lon="-2.50269">
        <ele>-35.599998474121</ele>
        <time>2020-01-26T10:13:33.000Z</time>
      </trkpt>
      <trkpt lat="47.2847" lon="-2.50266">
        <ele>-35.599998474121</ele>
        <time>2020-01-26T10:13:35.000Z</time>
      </trkpt>
      <trkpt lat="47.28465" lon="-2.5026">
        <ele>-35.599998474121</ele>
        <time>2020-01-26T10:13:37.000Z</time>
      </trkpt>
      <trkpt lat="47.28458" lon="-2.50249">
        <ele>-35.599998474121</ele>
        <time>2020-01-26T10:13:41.000Z</time>
      </trkpt>
      <trkpt lat="47.28455" lon="-2.50244">
        <ele>-35.599998474121</ele>
        <time>2020-01-26T10:13:43.000Z</time>
      </trkpt>
      <trkpt lat="47.28453" lon="-2.50241">
        <ele>-35.599998474121</ele>
        <time>2020-01-26T10:13:45.000Z</time>
      </trkpt>
      <trkpt lat="47.28449" lon="-2.50244">
        <ele>-35.599998474121</ele>
        <time>2020-01-26T10:13:48.000Z</time>
      </trkpt>
      <trkpt lat="47.28448" lon="-2.50246">
        <ele>-35.599998474121</ele>
        <time>2020-01-26T10:13:51.000Z</time>
      </trkpt>
      <trkpt lat="47.28448" lon="-2.50246">
        <ele>-35.599998474121</ele>
        <time>2020-01-26T10:13:52.000Z</time>
      </trkpt>
      <trkpt lat="47.28442" lon="-2.50251">
        <ele>-35.599998474121</ele>
        <time>2020-01-26T10:14:07.000Z</time>
      </trkpt>
      <trkpt lat="47.28437" lon="-2.50252">
        <ele>-36</ele>
        <time>2020-01-26T10:14:10.000Z</time>
      </trkpt>
      <trkpt lat="47.28436" lon="-2.50252">
        <ele>-36.599998474121</ele>
        <time>2020-01-26T10:14:11.000Z</time>
      </trkpt>
      <trkpt lat="47.28433" lon="-2.50252">
        <ele>-37</ele>
        <time>2020-01-26T10:14:12.000Z</time>
      </trkpt>
      <trkpt lat="47.28431" lon="-2.50253">
        <ele>-37.400001525879</ele>
        <time>2020-01-26T10:14:13.000Z</time>
      </trkpt>
      <trkpt lat="47.28428" lon="-2.50255">
        <ele>-37.799999237061</ele>
        <time>2020-01-26T10:14:14.000Z</time>
      </trkpt>
      <trkpt lat="47.28424" lon="-2.50258">
        <ele>-37.799999237061</ele>
        <time>2020-01-26T10:14:15.000Z</time>
      </trkpt>
      <trkpt lat="47.28408" lon="-2.50269">
        <ele>-37.799999237061</ele>
        <time>2020-01-26T10:14:20.000Z</time>
      </trkpt>
      <trkpt lat="47.28401" lon="-2.50276">
        <ele>-37.799999237061</ele>
        <time>2020-01-26T10:14:23.000Z</time>
      </trkpt>
      <trkpt lat="47.284" lon="-2.5028">
        <ele>-37.799999237061</ele>
        <time>2020-01-26T10:14:24.000Z</time>
      </trkpt>
      <trkpt lat="47.28397" lon="-2.50299">
        <ele>-37.799999237061</ele>
        <time>2020-01-26T10:14:28.000Z</time>
      </trkpt>
      <trkpt lat="47.28396" lon="-2.50304">
        <ele>-37.799999237061</ele>
        <time>2020-01-26T10:14:29.000Z</time>
      </trkpt>
      <trkpt lat="47.28391" lon="-2.5033">
        <ele>-37.799999237061</ele>
        <time>2020-01-26T10:14:35.000Z</time>
      </trkpt>
      <trkpt lat="47.28389" lon="-2.50332">
        <ele>-37.799999237061</ele>
        <time>2020-01-26T10:14:36.000Z</time>
      </trkpt>
      <trkpt lat="47.28383" lon="-2.5033">
        <ele>-37.799999237061</ele>
        <time>2020-01-26T10:14:38.000Z</time>
      </trkpt>
      <trkpt lat="47.28377" lon="-2.50326">
        <ele>-37.400001525879</ele>
        <time>2020-01-26T10:14:40.000Z</time>
      </trkpt>
      <trkpt lat="47.28374" lon="-2.50323">
        <ele>-36.799999237061</ele>
        <time>2020-01-26T10:14:41.000Z</time>
      </trkpt>
      <trkpt lat="47.28372" lon="-2.50321">
        <ele>-36.400001525879</ele>
        <time>2020-01-26T10:14:42.000Z</time>
      </trkpt>
      <trkpt lat="47.28368" lon="-2.5032">
        <ele>-36</ele>
        <time>2020-01-26T10:14:43.000Z</time>
      </trkpt>
      <trkpt lat="47.28365" lon="-2.50318">
        <ele>-35.599998474121</ele>
        <time>2020-01-26T10:14:44.000Z</time>
      </trkpt>
      <trkpt lat="47.28362" lon="-2.50316">
        <ele>-35.599998474121</ele>
        <time>2020-01-26T10:14:45.000Z</time>
      </trkpt>
      <trkpt lat="47.28344" lon="-2.50306">
        <ele>-35.599998474121</ele>
        <time>2020-01-26T10:14:51.000Z</time>
      </trkpt>
      <trkpt lat="47.28339" lon="-2.50316">
        <ele>-35.599998474121</ele>
        <time>2020-01-26T10:14:55.000Z</time>
      </trkpt>
      <trkpt lat="47.28327" lon="-2.50314">
        <ele>-35.599998474121</ele>
        <time>2020-01-26T10:14:59.000Z</time>
      </trkpt>
      <trkpt lat="47.28318" lon="-2.50321">
        <ele>-35.599998474121</ele>
        <time>2020-01-26T10:15:02.000Z</time>
      </trkpt>
      <trkpt lat="47.28315" lon="-2.50324">
        <ele>-35.599998474121</ele>
        <time>2020-01-26T10:15:03.000Z</time>
      </trkpt>
      <trkpt lat="47.28299" lon="-2.50329">
        <ele>-35.599998474121</ele>
        <time>2020-01-26T10:15:08.000Z</time>
      </trkpt>
      <trkpt lat="47.28289" lon="-2.50315">
        <ele>-35.599998474121</ele>
        <time>2020-01-26T10:15:12.000Z</time>
      </trkpt>
      <trkpt lat="47.28286" lon="-2.50314">
        <ele>-35.599998474121</ele>
        <time>2020-01-26T10:15:13.000Z</time>
      </trkpt>
      <trkpt lat="47.28278" lon="-2.50313">
        <ele>-35.599998474121</ele>
        <time>2020-01-26T10:15:16.000Z</time>
      </trkpt>
      <trkpt lat="47.28273" lon="-2.50305">
        <ele>-35.599998474121</ele>
        <time>2020-01-26T10:15:20.000Z</time>
      </trkpt>
      <trkpt lat="47.28272" lon="-2.50304">
        <ele>-35.599998474121</ele>
        <time>2020-01-26T10:15:21.000Z</time>
      </trkpt>
      <trkpt lat="47.28271" lon="-2.503">
        <ele>-35.599998474121</ele>
        <time>2020-01-26T10:15:25.000Z</time>
      </trkpt>
      <trkpt lat="47.2827" lon="-2.50298">
        <ele>-35.599998474121</ele>
        <time>2020-01-26T10:15:55.000Z</time>
      </trkpt>
      <trkpt lat="47.28269" lon="-2.50295">
        <ele>-35.599998474121</ele>
        <time>2020-01-26T10:15:56.000Z</time>
      </trkpt>
      <trkpt lat="47.28261" lon="-2.50281">
        <ele>-35.599998474121</ele>
        <time>2020-01-26T10:16:01.000Z</time>
      </trkpt>
      <trkpt lat="47.28251" lon="-2.50264">
        <ele>-35.599998474121</ele>
        <time>2020-01-26T10:16:07.000Z</time>
      </trkpt>
      <trkpt lat="47.28246" lon="-2.50256">
        <ele>-35.599998474121</ele>
        <time>2020-01-26T10:16:12.000Z</time>
      </trkpt>
      <trkpt lat="47.28236" lon="-2.50242">
        <ele>-35.599998474121</ele>
        <time>2020-01-26T10:16:17.000Z</time>
      </trkpt>
      <trkpt lat="47.28221" lon="-2.50215">
        <ele>-35.599998474121</ele>
        <time>2020-01-26T10:16:24.000Z</time>
      </trkpt>
      <trkpt lat="47.2821" lon="-2.50183">
        <ele>-35.599998474121</ele>
        <time>2020-01-26T10:16:31.000Z</time>
      </trkpt>
      <trkpt lat="47.28202" lon="-2.50147">
        <ele>-35.599998474121</ele>
        <time>2020-01-26T10:16:38.000Z</time>
      </trkpt>
      <trkpt lat="47.28197" lon="-2.50113">
        <ele>-35.599998474121</ele>
        <time>2020-01-26T10:16:44.000Z</time>
      </trkpt>
      <trkpt lat="47.28188" lon="-2.50077">
        <ele>-35.599998474121</ele>
        <time>2020-01-26T10:16:50.000Z</time>
      </trkpt>
      <trkpt lat="47.28183" lon="-2.50052">
        <ele>-35.599998474121</ele>
        <time>2020-01-26T10:16:54.000Z</time>
      </trkpt>
      <trkpt lat="47.28181" lon="-2.50039">
        <ele>-35.599998474121</ele>
        <time>2020-01-26T10:16:56.000Z</time>
      </trkpt>
      <trkpt lat="47.28173" lon="-2.50001">
        <ele>-35.599998474121</ele>
        <time>2020-01-26T10:17:02.000Z</time>
      </trkpt>
      <trkpt lat="47.28171" lon="-2.49985">
        <ele>-35.599998474121</ele>
        <time>2020-01-26T10:17:04.000Z</time>
      </trkpt>
      <trkpt lat="47.28167" lon="-2.49962">
        <ele>-35.599998474121</ele>
        <time>2020-01-26T10:17:07.000Z</time>
      </trkpt>
      <trkpt lat="47.28166" lon="-2.49955">
        <ele>-35.599998474121</ele>
        <time>2020-01-26T10:17:08.000Z</time>
      </trkpt>
      <trkpt lat="47.28163" lon="-2.49948">
        <ele>-35.599998474121</ele>
        <time>2020-01-26T10:17:09.000Z</time>
      </trkpt>
      <trkpt lat="47.2816" lon="-2.49932">
        <ele>-35.599998474121</ele>
        <time>2020-01-26T10:17:11.000Z</time>
      </trkpt>
      <trkpt lat="47.28159" lon="-2.49917">
        <ele>-35.599998474121</ele>
        <time>2020-01-26T10:17:13.000Z</time>
      </trkpt>
      <trkpt lat="47.28156" lon="-2.49886">
        <ele>-35.599998474121</ele>
        <time>2020-01-26T10:17:17.000Z</time>
      </trkpt>
      <trkpt lat="47.28149" lon="-2.49837">
        <ele>-35.200000762939</ele>
        <time>2020-01-26T10:17:23.000Z</time>
      </trkpt>
      <trkpt lat="47.28148" lon="-2.49828">
        <ele>-34.400001525879</ele>
        <time>2020-01-26T10:17:24.000Z</time>
      </trkpt>
      <trkpt lat="47.28147" lon="-2.49819">
        <ele>-34</ele>
        <time>2020-01-26T10:17:25.000Z</time>
      </trkpt>
      <trkpt lat="47.28146" lon="-2.4981">
        <ele>-33.599998474121</ele>
        <time>2020-01-26T10:17:26.000Z</time>
      </trkpt>
      <trkpt lat="47.28144" lon="-2.49793">
        <ele>-33.599998474121</ele>
        <time>2020-01-26T10:17:28.000Z</time>
      </trkpt>
      <trkpt lat="47.28139" lon="-2.49746">
        <ele>-33.599998474121</ele>
        <time>2020-01-26T10:17:34.000Z</time>
      </trkpt>
      <trkpt lat="47.28136" lon="-2.49715">
        <ele>-33.599998474121</ele>
        <time>2020-01-26T10:17:38.000Z</time>
      </trkpt>
      <trkpt lat="47.28132" lon="-2.49686">
        <ele>-33.599998474121</ele>
        <time>2020-01-26T10:17:42.000Z</time>
      </trkpt>
      <trkpt lat="47.28126" lon="-2.4966">
        <ele>-33.599998474121</ele>
        <time>2020-01-26T10:17:46.000Z</time>
      </trkpt>
      <trkpt lat="47.28122" lon="-2.49648">
        <ele>-33.599998474121</ele>
        <time>2020-01-26T10:17:48.000Z</time>
      </trkpt>
      <trkpt lat="47.28119" lon="-2.49642">
        <ele>-33.599998474121</ele>
        <time>2020-01-26T10:17:49.000Z</time>
      </trkpt>
      <trkpt lat="47.28113" lon="-2.49632">
        <ele>-33.599998474121</ele>
        <time>2020-01-26T10:17:51.000Z</time>
      </trkpt>
      <trkpt lat="47.28108" lon="-2.49623">
        <ele>-33.599998474121</ele>
        <time>2020-01-26T10:17:53.000Z</time>
      </trkpt>
      <trkpt lat="47.281" lon="-2.4961">
        <ele>-33.200000762939</ele>
        <time>2020-01-26T10:17:56.000Z</time>
      </trkpt>
      <trkpt lat="47.28097" lon="-2.49605">
        <ele>-32.799999237061</ele>
        <time>2020-01-26T10:17:57.000Z</time>
      </trkpt>
      <trkpt lat="47.28093" lon="-2.496">
        <ele>-32.400001525879</ele>
        <time>2020-01-26T10:17:58.000Z</time>
      </trkpt>
      <trkpt lat="47.28089" lon="-2.49594">
        <ele>-31.799999237061</ele>
        <time>2020-01-26T10:17:59.000Z</time>
      </trkpt>
      <trkpt lat="47.28085" lon="-2.49588">
        <ele>-31.39999961853</ele>
        <time>2020-01-26T10:18:00.000Z</time>
      </trkpt>
      <trkpt lat="47.28081" lon="-2.49583">
        <ele>-31.39999961853</ele>
        <time>2020-01-26T10:18:01.000Z</time>
      </trkpt>
      <trkpt lat="47.28071" lon="-2.49572">
        <ele>-31.39999961853</ele>
        <time>2020-01-26T10:18:03.000Z</time>
      </trkpt>
      <trkpt lat="47.28044" lon="-2.49539">
        <ele>-31.39999961853</ele>
        <time>2020-01-26T10:18:09.000Z</time>
      </trkpt>
      <trkpt lat="47.2802" lon="-2.49507">
        <ele>-31.39999961853</ele>
        <time>2020-01-26T10:18:15.000Z</time>
      </trkpt>
      <trkpt lat="47.27994" lon="-2.49471">
        <ele>-31.39999961853</ele>
        <time>2020-01-26T10:18:22.000Z</time>
      </trkpt>
      <trkpt lat="47.27973" lon="-2.49444">
        <ele>-31.39999961853</ele>
        <time>2020-01-26T10:18:28.000Z</time>
      </trkpt>
      <trkpt lat="47.27946" lon="-2.49406">
        <ele>-31.39999961853</ele>
        <time>2020-01-26T10:18:36.000Z</time>
      </trkpt>
      <trkpt lat="47.27915" lon="-2.49365">
        <ele>-31.39999961853</ele>
        <time>2020-01-26T10:18:44.000Z</time>
      </trkpt>
      <trkpt lat="47.27883" lon="-2.4932">
        <ele>-31.39999961853</ele>
        <time>2020-01-26T10:18:52.000Z</time>
      </trkpt>
      <trkpt lat="47.27851" lon="-2.49287">
        <ele>-31.39999961853</ele>
        <time>2020-01-26T10:18:59.000Z</time>
      </trkpt>
      <trkpt lat="47.27817" lon="-2.49267">
        <ele>-31.39999961853</ele>
        <time>2020-01-26T10:19:06.000Z</time>
      </trkpt>
      <trkpt lat="47.27784" lon="-2.49261">
        <ele>-31.39999961853</ele>
        <time>2020-01-26T10:19:12.000Z</time>
      </trkpt>
      <trkpt lat="47.27746" lon="-2.49258">
        <ele>-31.39999961853</ele>
        <time>2020-01-26T10:19:19.000Z</time>
      </trkpt>
      <trkpt lat="47.2772" lon="-2.49258">
        <ele>-31.39999961853</ele>
        <time>2020-01-26T10:19:24.000Z</time>
      </trkpt>
      <trkpt lat="47.27715" lon="-2.49257">
        <ele>-31.39999961853</ele>
        <time>2020-01-26T10:19:25.000Z</time>
      </trkpt>
      <trkpt lat="47.27678" lon="-2.49251">
        <ele>-31.39999961853</ele>
        <time>2020-01-26T10:19:32.000Z</time>
      </trkpt>
      <trkpt lat="47.27659" lon="-2.49242">
        <ele>-31.39999961853</ele>
        <time>2020-01-26T10:19:36.000Z</time>
      </trkpt>
      <trkpt lat="47.27654" lon="-2.49242">
        <ele>-31.39999961853</ele>
        <time>2020-01-26T10:19:37.000Z</time>
      </trkpt>
      <trkpt lat="47.27635" lon="-2.49236">
        <ele>-31.39999961853</ele>
        <time>2020-01-26T10:19:41.000Z</time>
      </trkpt>
      <trkpt lat="47.27626" lon="-2.49215">
        <ele>-31.39999961853</ele>
        <time>2020-01-26T10:19:44.000Z</time>
      </trkpt>
      <trkpt lat="47.27617" lon="-2.49202">
        <ele>-31.39999961853</ele>
        <time>2020-01-26T10:19:46.000Z</time>
      </trkpt>
      <trkpt lat="47.27607" lon="-2.49182">
        <ele>-31.39999961853</ele>
        <time>2020-01-26T10:19:49.000Z</time>
      </trkpt>
      <trkpt lat="47.27604" lon="-2.49175">
        <ele>-31.39999961853</ele>
        <time>2020-01-26T10:19:50.000Z</time>
      </trkpt>
      <trkpt lat="47.27598" lon="-2.4916">
        <ele>-31.39999961853</ele>
        <time>2020-01-26T10:19:52.000Z</time>
      </trkpt>
      <trkpt lat="47.27594" lon="-2.49145">
        <ele>-31.39999961853</ele>
        <time>2020-01-26T10:19:54.000Z</time>
      </trkpt>
      <trkpt lat="47.27589" lon="-2.49113">
        <ele>-31.39999961853</ele>
        <time>2020-01-26T10:19:59.000Z</time>
      </trkpt>
      <trkpt lat="47.27587" lon="-2.49102">
        <ele>-31.39999961853</ele>
        <time>2020-01-26T10:20:03.000Z</time>
      </trkpt>
      <trkpt lat="47.27585" lon="-2.49101">
        <ele>-31.39999961853</ele>
        <time>2020-01-26T10:20:04.000Z</time>
      </trkpt>
      <trkpt lat="47.27577" lon="-2.49102">
        <ele>-31.39999961853</ele>
        <time>2020-01-26T10:20:07.000Z</time>
      </trkpt>
      <trkpt lat="47.27564" lon="-2.49102">
        <ele>-31.39999961853</ele>
        <time>2020-01-26T10:20:11.000Z</time>
      </trkpt>
      <trkpt lat="47.27558" lon="-2.491">
        <ele>-31.39999961853</ele>
        <time>2020-01-26T10:20:14.000Z</time>
      </trkpt>
      <trkpt lat="47.27556" lon="-2.49101">
        <ele>-32</ele>
        <time>2020-01-26T10:20:15.000Z</time>
      </trkpt>
      <trkpt lat="47.27554" lon="-2.49102">
        <ele>-32.400001525879</ele>
        <time>2020-01-26T10:20:16.000Z</time>
      </trkpt>
      <trkpt lat="47.27551" lon="-2.49102">
        <ele>-33.200000762939</ele>
        <time>2020-01-26T10:20:17.000Z</time>
      </trkpt>
      <trkpt lat="47.27549" lon="-2.49101">
        <ele>-33.599998474121</ele>
        <time>2020-01-26T10:20:18.000Z</time>
      </trkpt>
      <trkpt lat="47.27547" lon="-2.49099">
        <ele>-33.599998474121</ele>
        <time>2020-01-26T10:20:19.000Z</time>
      </trkpt>
      <trkpt lat="47.27544" lon="-2.49082">
        <ele>-33.599998474121</ele>
        <time>2020-01-26T10:20:23.000Z</time>
      </trkpt>
      <trkpt lat="47.27541" lon="-2.49064">
        <ele>-33.599998474121</ele>
        <time>2020-01-26T10:20:27.000Z</time>
      </trkpt>
      <trkpt lat="47.2754" lon="-2.49054">
        <ele>-33.599998474121</ele>
        <time>2020-01-26T10:20:29.000Z</time>
      </trkpt>
      <trkpt lat="47.27538" lon="-2.49031">
        <ele>-33.599998474121</ele>
        <time>2020-01-26T10:20:33.000Z</time>
      </trkpt>
      <trkpt lat="47.27535" lon="-2.49013">
        <ele>-33.599998474121</ele>
        <time>2020-01-26T10:20:36.000Z</time>
      </trkpt>
      <trkpt lat="47.27533" lon="-2.49002">
        <ele>-33.599998474121</ele>
        <time>2020-01-26T10:20:38.000Z</time>
      </trkpt>
      <trkpt lat="47.27531" lon="-2.4898">
        <ele>-33.599998474121</ele>
        <time>2020-01-26T10:20:41.000Z</time>
      </trkpt>
      <trkpt lat="47.2753" lon="-2.48959">
        <ele>-33.599998474121</ele>
        <time>2020-01-26T10:20:44.000Z</time>
      </trkpt>
      <trkpt lat="47.27529" lon="-2.48944">
        <ele>-33.599998474121</ele>
        <time>2020-01-26T10:20:46.000Z</time>
      </trkpt>
      <trkpt lat="47.27525" lon="-2.48924">
        <ele>-33.599998474121</ele>
        <time>2020-01-26T10:20:49.000Z</time>
      </trkpt>
      <trkpt lat="47.27521" lon="-2.48919">
        <ele>-33.599998474121</ele>
        <time>2020-01-26T10:20:50.000Z</time>
      </trkpt>
      <trkpt lat="47.27519" lon="-2.489">
        <ele>-33.599998474121</ele>
        <time>2020-01-26T10:20:53.000Z</time>
      </trkpt>
      <trkpt lat="47.27521" lon="-2.48888">
        <ele>-33.599998474121</ele>
        <time>2020-01-26T10:20:55.000Z</time>
      </trkpt>
      <trkpt lat="47.27522" lon="-2.48874">
        <ele>-33.200000762939</ele>
        <time>2020-01-26T10:20:57.000Z</time>
      </trkpt>
      <trkpt lat="47.27524" lon="-2.48866">
        <ele>-32.799999237061</ele>
        <time>2020-01-26T10:20:58.000Z</time>
      </trkpt>
      <trkpt lat="47.27526" lon="-2.48859">
        <ele>-32.400001525879</ele>
        <time>2020-01-26T10:20:59.000Z</time>
      </trkpt>
      <trkpt lat="47.27528" lon="-2.48851">
        <ele>-32</ele>
        <time>2020-01-26T10:21:00.000Z</time>
      </trkpt>
      <trkpt lat="47.2753" lon="-2.48844">
        <ele>-31.39999961853</ele>
        <time>2020-01-26T10:21:01.000Z</time>
      </trkpt>
      <trkpt lat="47.27532" lon="-2.48836">
        <ele>-31.39999961853</ele>
        <time>2020-01-26T10:21:02.000Z</time>
      </trkpt>
      <trkpt lat="47.27535" lon="-2.48822">
        <ele>-31.39999961853</ele>
        <time>2020-01-26T10:21:04.000Z</time>
      </trkpt>
      <trkpt lat="47.27539" lon="-2.48798">
        <ele>-31.39999961853</ele>
        <time>2020-01-26T10:21:07.000Z</time>
      </trkpt>
      <trkpt lat="47.2754" lon="-2.4879">
        <ele>-31.39999961853</ele>
        <time>2020-01-26T10:21:08.000Z</time>
      </trkpt>
      <trkpt lat="47.27543" lon="-2.48767">
        <ele>-31.39999961853</ele>
        <time>2020-01-26T10:21:11.000Z</time>
      </trkpt>
      <trkpt lat="47.27543" lon="-2.48761">
        <ele>-31.39999961853</ele>
        <time>2020-01-26T10:21:12.000Z</time>
      </trkpt>
      <trkpt lat="47.27538" lon="-2.48736">
        <ele>-31.39999961853</ele>
        <time>2020-01-26T10:21:17.000Z</time>
      </trkpt>
      <trkpt lat="47.27535" lon="-2.48716">
        <ele>-31.39999961853</ele>
        <time>2020-01-26T10:21:21.000Z</time>
      </trkpt>
      <trkpt lat="47.27524" lon="-2.48693">
        <ele>-31.39999961853</ele>
        <time>2020-01-26T10:21:27.000Z</time>
      </trkpt>
      <trkpt lat="47.27522" lon="-2.48673">
        <ele>-31.39999961853</ele>
        <time>2020-01-26T10:21:31.000Z</time>
      </trkpt>
      <trkpt lat="47.27518" lon="-2.48644">
        <ele>-31.39999961853</ele>
        <time>2020-01-26T10:21:36.000Z</time>
      </trkpt>
      <trkpt lat="47.27505" lon="-2.48615">
        <ele>-31.39999961853</ele>
        <time>2020-01-26T10:21:42.000Z</time>
      </trkpt>
      <trkpt lat="47.27491" lon="-2.48595">
        <ele>-31.39999961853</ele>
        <time>2020-01-26T10:21:47.000Z</time>
      </trkpt>
      <trkpt lat="47.27479" lon="-2.48573">
        <ele>-31.39999961853</ele>
        <time>2020-01-26T10:21:52.000Z</time>
      </trkpt>
      <trkpt lat="47.27469" lon="-2.48554">
        <ele>-31.39999961853</ele>
        <time>2020-01-26T10:21:57.000Z</time>
      </trkpt>
      <trkpt lat="47.27469" lon="-2.48548">
        <ele>-31.39999961853</ele>
        <time>2020-01-26T10:21:58.000Z</time>
      </trkpt>
      <trkpt lat="47.27468" lon="-2.48498">
        <ele>-31.39999961853</ele>
        <time>2020-01-26T10:22:05.000Z</time>
      </trkpt>
      <trkpt lat="47.27464" lon="-2.48448">
        <ele>-31.39999961853</ele>
        <time>2020-01-26T10:22:13.000Z</time>
      </trkpt>
      <trkpt lat="47.27453" lon="-2.48401">
        <ele>-31.39999961853</ele>
        <time>2020-01-26T10:22:21.000Z</time>
      </trkpt>
      <trkpt lat="47.27437" lon="-2.48359">
        <ele>-31.39999961853</ele>
        <time>2020-01-26T10:22:29.000Z</time>
      </trkpt>
      <trkpt lat="47.27433" lon="-2.48348">
        <ele>-31.39999961853</ele>
        <time>2020-01-26T10:22:31.000Z</time>
      </trkpt>
      <trkpt lat="47.27428" lon="-2.48329">
        <ele>-31.39999961853</ele>
        <time>2020-01-26T10:22:34.000Z</time>
      </trkpt>
      <trkpt lat="47.27428" lon="-2.48322">
        <ele>-31.39999961853</ele>
        <time>2020-01-26T10:22:35.000Z</time>
      </trkpt>
      <trkpt lat="47.27423" lon="-2.48272">
        <ele>-31.39999961853</ele>
        <time>2020-01-26T10:22:43.000Z</time>
      </trkpt>
      <trkpt lat="47.27415" lon="-2.48223">
        <ele>-31.39999961853</ele>
        <time>2020-01-26T10:22:51.000Z</time>
      </trkpt>
      <trkpt lat="47.27407" lon="-2.48183">
        <ele>-31.39999961853</ele>
        <time>2020-01-26T10:22:58.000Z</time>
      </trkpt>
      <trkpt lat="47.27407" lon="-2.48177">
        <ele>-31</ele>
        <time>2020-01-26T10:22:59.000Z</time>
      </trkpt>
      <trkpt lat="47.27407" lon="-2.48172">
        <ele>-30.60000038147</ele>
        <time>2020-01-26T10:23:00.000Z</time>
      </trkpt>
      <trkpt lat="47.27407" lon="-2.48166">
        <ele>-30.200000762939</ele>
        <time>2020-01-26T10:23:01.000Z</time>
      </trkpt>
      <trkpt lat="47.27407" lon="-2.48161">
        <ele>-29.799999237061</ele>
        <time>2020-01-26T10:23:02.000Z</time>
      </trkpt>
      <trkpt lat="47.27406" lon="-2.48155">
        <ele>-29.39999961853</ele>
        <time>2020-01-26T10:23:03.000Z</time>
      </trkpt>
      <trkpt lat="47.27408" lon="-2.48135">
        <ele>-29.39999961853</ele>
        <time>2020-01-26T10:23:07.000Z</time>
      </trkpt>
      <trkpt lat="47.27411" lon="-2.48131">
        <ele>-29.39999961853</ele>
        <time>2020-01-26T10:23:08.000Z</time>
      </trkpt>
      <trkpt lat="47.27423" lon="-2.48127">
        <ele>-29.39999961853</ele>
        <time>2020-01-26T10:23:12.000Z</time>
      </trkpt>
      <trkpt lat="47.2743" lon="-2.48128">
        <ele>-29.39999961853</ele>
        <time>2020-01-26T10:23:14.000Z</time>
      </trkpt>
      <trkpt lat="47.27447" lon="-2.48128">
        <ele>-29.39999961853</ele>
        <time>2020-01-26T10:23:19.000Z</time>
      </trkpt>
      <trkpt lat="47.27464" lon="-2.48125">
        <ele>-29</ele>
        <time>2020-01-26T10:23:23.000Z</time>
      </trkpt>
      <trkpt lat="47.27468" lon="-2.48124">
        <ele>-28.60000038147</ele>
        <time>2020-01-26T10:23:24.000Z</time>
      </trkpt>
      <trkpt lat="47.27471" lon="-2.48124">
        <ele>-28</ele>
        <time>2020-01-26T10:23:25.000Z</time>
      </trkpt>
      <trkpt lat="47.27474" lon="-2.48122">
        <ele>-27.60000038147</ele>
        <time>2020-01-26T10:23:26.000Z</time>
      </trkpt>
      <trkpt lat="47.27477" lon="-2.4812">
        <ele>-27.200000762939</ele>
        <time>2020-01-26T10:23:27.000Z</time>
      </trkpt>
      <trkpt lat="47.27483" lon="-2.48118">
        <ele>-27.200000762939</ele>
        <time>2020-01-26T10:23:29.000Z</time>
      </trkpt>
      <trkpt lat="47.27492" lon="-2.48114">
        <ele>-27.200000762939</ele>
        <time>2020-01-26T10:23:34.000Z</time>
      </trkpt>
      <trkpt lat="47.27505" lon="-2.48113">
        <ele>-27.200000762939</ele>
        <time>2020-01-26T10:23:39.000Z</time>
      </trkpt>
      <trkpt lat="47.27518" lon="-2.48108">
        <ele>-26.799999237061</ele>
        <time>2020-01-26T10:23:43.000Z</time>
      </trkpt>
      <trkpt lat="47.27522" lon="-2.48107">
        <ele>-26.39999961853</ele>
        <time>2020-01-26T10:23:44.000Z</time>
      </trkpt>
      <trkpt lat="47.27526" lon="-2.48107">
        <ele>-26</ele>
        <time>2020-01-26T10:23:45.000Z</time>
      </trkpt>
      <trkpt lat="47.2753" lon="-2.48106">
        <ele>-25.60000038147</ele>
        <time>2020-01-26T10:23:46.000Z</time>
      </trkpt>
      <trkpt lat="47.27534" lon="-2.48106">
        <ele>-25.200000762939</ele>
        <time>2020-01-26T10:23:47.000Z</time>
      </trkpt>
      <trkpt lat="47.27545" lon="-2.48102">
        <ele>-25.200000762939</ele>
        <time>2020-01-26T10:23:50.000Z</time>
      </trkpt>
      <trkpt lat="47.27563" lon="-2.481">
        <ele>-25.200000762939</ele>
        <time>2020-01-26T10:23:54.000Z</time>
      </trkpt>
      <trkpt lat="47.27566" lon="-2.48099">
        <ele>-25.200000762939</ele>
        <time>2020-01-26T10:23:55.000Z</time>
      </trkpt>
      <trkpt lat="47.27594" lon="-2.48095">
        <ele>-25.200000762939</ele>
        <time>2020-01-26T10:24:01.000Z</time>
      </trkpt>
      <trkpt lat="47.27616" lon="-2.48084">
        <ele>-25.200000762939</ele>
        <time>2020-01-26T10:24:07.000Z</time>
      </trkpt>
      <trkpt lat="47.27616" lon="-2.48067">
        <ele>-25.200000762939</ele>
        <time>2020-01-26T10:24:10.000Z</time>
      </trkpt>
      <trkpt lat="47.27618" lon="-2.48048">
        <ele>-25.200000762939</ele>
        <time>2020-01-26T10:24:13.000Z</time>
      </trkpt>
      <trkpt lat="47.2762" lon="-2.48044">
        <ele>-24.799999237061</ele>
        <time>2020-01-26T10:24:14.000Z</time>
      </trkpt>
      <trkpt lat="47.27621" lon="-2.48038">
        <ele>-24.39999961853</ele>
        <time>2020-01-26T10:24:15.000Z</time>
      </trkpt>
      <trkpt lat="47.27621" lon="-2.48033">
        <ele>-24</ele>
        <time>2020-01-26T10:24:16.000Z</time>
      </trkpt>
      <trkpt lat="47.27623" lon="-2.48028">
        <ele>-23.60000038147</ele>
        <time>2020-01-26T10:24:17.000Z</time>
      </trkpt>
      <trkpt lat="47.27623" lon="-2.48023">
        <ele>-23.200000762939</ele>
        <time>2020-01-26T10:24:18.000Z</time>
      </trkpt>
      <trkpt lat="47.27624" lon="-2.48005">
        <ele>-23.200000762939</ele>
        <time>2020-01-26T10:24:21.000Z</time>
      </trkpt>
      <trkpt lat="47.2762" lon="-2.47994">
        <ele>-23.200000762939</ele>
        <time>2020-01-26T10:24:23.000Z</time>
      </trkpt>
      <trkpt lat="47.27615" lon="-2.47982">
        <ele>-23.200000762939</ele>
        <time>2020-01-26T10:24:25.000Z</time>
      </trkpt>
      <trkpt lat="47.27599" lon="-2.47939">
        <ele>-23.200000762939</ele>
        <time>2020-01-26T10:24:31.000Z</time>
      </trkpt>
      <trkpt lat="47.27591" lon="-2.47911">
        <ele>-23.200000762939</ele>
        <time>2020-01-26T10:24:34.000Z</time>
      </trkpt>
      <trkpt lat="47.27582" lon="-2.47883">
        <ele>-23.60000038147</ele>
        <time>2020-01-26T10:24:37.000Z</time>
      </trkpt>
      <trkpt lat="47.2758" lon="-2.47874">
        <ele>-24</ele>
        <time>2020-01-26T10:24:38.000Z</time>
      </trkpt>
      <trkpt lat="47.27577" lon="-2.47864">
        <ele>-24.39999961853</ele>
        <time>2020-01-26T10:24:39.000Z</time>
      </trkpt>
      <trkpt lat="47.27576" lon="-2.47855">
        <ele>-24.799999237061</ele>
        <time>2020-01-26T10:24:40.000Z</time>
      </trkpt>
      <trkpt lat="47.27574" lon="-2.47847">
        <ele>-25.200000762939</ele>
        <time>2020-01-26T10:24:41.000Z</time>
      </trkpt>
      <trkpt lat="47.27572" lon="-2.4783">
        <ele>-25.200000762939</ele>
        <time>2020-01-26T10:24:43.000Z</time>
      </trkpt>
      <trkpt lat="47.2757" lon="-2.47822">
        <ele>-25.60000038147</ele>
        <time>2020-01-26T10:24:44.000Z</time>
      </trkpt>
      <trkpt lat="47.27569" lon="-2.47813">
        <ele>-26</ele>
        <time>2020-01-26T10:24:45.000Z</time>
      </trkpt>
      <trkpt lat="47.27567" lon="-2.47805">
        <ele>-26.39999961853</ele>
        <time>2020-01-26T10:24:46.000Z</time>
      </trkpt>
      <trkpt lat="47.27565" lon="-2.47795">
        <ele>-27.200000762939</ele>
        <time>2020-01-26T10:24:47.000Z</time>
      </trkpt>
      <trkpt lat="47.27558" lon="-2.47763">
        <ele>-27.200000762939</ele>
        <time>2020-01-26T10:24:51.000Z</time>
      </trkpt>
      <trkpt lat="47.27559" lon="-2.47742">
        <ele>-27.200000762939</ele>
        <time>2020-01-26T10:24:54.000Z</time>
      </trkpt>
      <trkpt lat="47.27556" lon="-2.47736">
        <ele>-27.799999237061</ele>
        <time>2020-01-26T10:24:56.000Z</time>
      </trkpt>
      <trkpt lat="47.27554" lon="-2.47734">
        <ele>-28.200000762939</ele>
        <time>2020-01-26T10:24:57.000Z</time>
      </trkpt>
      <trkpt lat="47.27551" lon="-2.47736">
        <ele>-28.60000038147</ele>
        <time>2020-01-26T10:24:58.000Z</time>
      </trkpt>
      <trkpt lat="47.27547" lon="-2.47739">
        <ele>-29</ele>
        <time>2020-01-26T10:24:59.000Z</time>
      </trkpt>
      <trkpt lat="47.27544" lon="-2.47743">
        <ele>-29.60000038147</ele>
        <time>2020-01-26T10:25:00.000Z</time>
      </trkpt>
      <trkpt lat="47.27529" lon="-2.47754">
        <ele>-29.60000038147</ele>
        <time>2020-01-26T10:25:03.000Z</time>
      </trkpt>
      <trkpt lat="47.27524" lon="-2.47759">
        <ele>-29.60000038147</ele>
        <time>2020-01-26T10:25:04.000Z</time>
      </trkpt>
      <trkpt lat="47.27495" lon="-2.47788">
        <ele>-29.60000038147</ele>
        <time>2020-01-26T10:25:11.000Z</time>
      </trkpt>
      <trkpt lat="47.27475" lon="-2.47808">
        <ele>-29.60000038147</ele>
        <time>2020-01-26T10:25:17.000Z</time>
      </trkpt>
      <trkpt lat="47.27472" lon="-2.47809">
        <ele>-29.60000038147</ele>
        <time>2020-01-26T10:25:18.000Z</time>
      </trkpt>
      <trkpt lat="47.27466" lon="-2.47803">
        <ele>-29.60000038147</ele>
        <time>2020-01-26T10:25:20.000Z</time>
      </trkpt>
      <trkpt lat="47.27461" lon="-2.47795">
        <ele>-29.60000038147</ele>
        <time>2020-01-26T10:25:22.000Z</time>
      </trkpt>
      <trkpt lat="47.27451" lon="-2.47776">
        <ele>-29.60000038147</ele>
        <time>2020-01-26T10:25:26.000Z</time>
      </trkpt>
      <trkpt lat="47.27448" lon="-2.47771">
        <ele>-30</ele>
        <time>2020-01-26T10:25:27.000Z</time>
      </trkpt>
      <trkpt lat="47.27445" lon="-2.47764">
        <ele>-30.39999961853</ele>
        <time>2020-01-26T10:25:28.000Z</time>
      </trkpt>
      <trkpt lat="47.27442" lon="-2.47758">
        <ele>-30.799999237061</ele>
        <time>2020-01-26T10:25:29.000Z</time>
      </trkpt>
      <trkpt lat="47.2744" lon="-2.47752">
        <ele>-31.200000762939</ele>
        <time>2020-01-26T10:25:30.000Z</time>
      </trkpt>
      <trkpt lat="47.27437" lon="-2.47746">
        <ele>-31.60000038147</ele>
        <time>2020-01-26T10:25:31.000Z</time>
      </trkpt>
      <trkpt lat="47.27433" lon="-2.47741">
        <ele>-31.60000038147</ele>
        <time>2020-01-26T10:25:32.000Z</time>
      </trkpt>
      <trkpt lat="47.27423" lon="-2.47727">
        <ele>-31.60000038147</ele>
        <time>2020-01-26T10:25:35.000Z</time>
      </trkpt>
      <trkpt lat="47.27402" lon="-2.47694">
        <ele>-31.60000038147</ele>
        <time>2020-01-26T10:25:42.000Z</time>
      </trkpt>
      <trkpt lat="47.27394" lon="-2.47687">
        <ele>-31.60000038147</ele>
        <time>2020-01-26T10:25:44.000Z</time>
      </trkpt>
      <trkpt lat="47.27387" lon="-2.47681">
        <ele>-31.60000038147</ele>
        <time>2020-01-26T10:25:46.000Z</time>
      </trkpt>
      <trkpt lat="47.27384" lon="-2.47676">
        <ele>-31.60000038147</ele>
        <time>2020-01-26T10:25:47.000Z</time>
      </trkpt>
      <trkpt lat="47.27366" lon="-2.47653">
        <ele>-31.60000038147</ele>
        <time>2020-01-26T10:25:52.000Z</time>
      </trkpt>
      <trkpt lat="47.27363" lon="-2.4765">
        <ele>-31.60000038147</ele>
        <time>2020-01-26T10:25:53.000Z</time>
      </trkpt>
      <trkpt lat="47.2736" lon="-2.47646">
        <ele>-31.200000762939</ele>
        <time>2020-01-26T10:25:54.000Z</time>
      </trkpt>
      <trkpt lat="47.27356" lon="-2.47642">
        <ele>-30.60000038147</ele>
        <time>2020-01-26T10:25:55.000Z</time>
      </trkpt>
      <trkpt lat="47.27352" lon="-2.47638">
        <ele>-30.200000762939</ele>
        <time>2020-01-26T10:25:56.000Z</time>
      </trkpt>
      <trkpt lat="47.27349" lon="-2.47635">
        <ele>-29.799999237061</ele>
        <time>2020-01-26T10:25:57.000Z</time>
      </trkpt>
      <trkpt lat="47.27345" lon="-2.47631">
        <ele>-29.39999961853</ele>
        <time>2020-01-26T10:25:58.000Z</time>
      </trkpt>
      <trkpt lat="47.27342" lon="-2.47628">
        <ele>-29.39999961853</ele>
        <time>2020-01-26T10:25:59.000Z</time>
      </trkpt>
      <trkpt lat="47.27338" lon="-2.47625">
        <ele>-29.39999961853</ele>
        <time>2020-01-26T10:26:00.000Z</time>
      </trkpt>
      <trkpt lat="47.27334" lon="-2.47622">
        <ele>-29</ele>
        <time>2020-01-26T10:26:01.000Z</time>
      </trkpt>
      <trkpt lat="47.27331" lon="-2.47619">
        <ele>-28.39999961853</ele>
        <time>2020-01-26T10:26:02.000Z</time>
      </trkpt>
      <trkpt lat="47.27327" lon="-2.47617">
        <ele>-28</ele>
        <time>2020-01-26T10:26:03.000Z</time>
      </trkpt>
      <trkpt lat="47.27324" lon="-2.47614">
        <ele>-27.60000038147</ele>
        <time>2020-01-26T10:26:04.000Z</time>
      </trkpt>
      <trkpt lat="47.27321" lon="-2.47611">
        <ele>-27.200000762939</ele>
        <time>2020-01-26T10:26:05.000Z</time>
      </trkpt>
      <trkpt lat="47.27318" lon="-2.47608">
        <ele>-27.200000762939</ele>
        <time>2020-01-26T10:26:06.000Z</time>
      </trkpt>
      <trkpt lat="47.27312" lon="-2.47595">
        <ele>-27.200000762939</ele>
        <time>2020-01-26T10:26:09.000Z</time>
      </trkpt>
      <trkpt lat="47.27306" lon="-2.47589">
        <ele>-26.799999237061</ele>
        <time>2020-01-26T10:26:11.000Z</time>
      </trkpt>
      <trkpt lat="47.27304" lon="-2.47587">
        <ele>-26.200000762939</ele>
        <time>2020-01-26T10:26:12.000Z</time>
      </trkpt>
      <trkpt lat="47.27303" lon="-2.47585">
        <ele>-25.799999237061</ele>
        <time>2020-01-26T10:26:13.000Z</time>
      </trkpt>
      <trkpt lat="47.27304" lon="-2.47582">
        <ele>-25.39999961853</ele>
        <time>2020-01-26T10:26:14.000Z</time>
      </trkpt>
      <trkpt lat="47.27305" lon="-2.4758">
        <ele>-25</ele>
        <time>2020-01-26T10:26:15.000Z</time>
      </trkpt>
      <trkpt lat="47.2731" lon="-2.47569">
        <ele>-25</ele>
        <time>2020-01-26T10:26:19.000Z</time>
      </trkpt>
      <trkpt lat="47.27308" lon="-2.47564">
        <ele>-25</ele>
        <time>2020-01-26T10:26:21.000Z</time>
      </trkpt>
      <trkpt lat="47.27305" lon="-2.47557">
        <ele>-25</ele>
        <time>2020-01-26T10:26:23.000Z</time>
      </trkpt>
      <trkpt lat="47.27297" lon="-2.4753">
        <ele>-25</ele>
        <time>2020-01-26T10:26:28.000Z</time>
      </trkpt>
      <trkpt lat="47.27286" lon="-2.47489">
        <ele>-25</ele>
        <time>2020-01-26T10:26:33.000Z</time>
      </trkpt>
      <trkpt lat="47.27276" lon="-2.47445">
        <ele>-25</ele>
        <time>2020-01-26T10:26:38.000Z</time>
      </trkpt>
      <trkpt lat="47.27275" lon="-2.47437">
        <ele>-25</ele>
        <time>2020-01-26T10:26:39.000Z</time>
      </trkpt>
      <trkpt lat="47.27278" lon="-2.47417">
        <ele>-25</ele>
        <time>2020-01-26T10:26:42.000Z</time>
      </trkpt>
      <trkpt lat="47.27283" lon="-2.47405">
        <ele>-25</ele>
        <time>2020-01-26T10:26:44.000Z</time>
      </trkpt>
      <trkpt lat="47.27286" lon="-2.474">
        <ele>-25</ele>
        <time>2020-01-26T10:26:45.000Z</time>
      </trkpt>
      <trkpt lat="47.27295" lon="-2.47386">
        <ele>-25</ele>
        <time>2020-01-26T10:26:48.000Z</time>
      </trkpt>
      <trkpt lat="47.273" lon="-2.47368">
        <ele>-25</ele>
        <time>2020-01-26T10:26:51.000Z</time>
      </trkpt>
      <trkpt lat="47.273" lon="-2.47361">
        <ele>-25</ele>
        <time>2020-01-26T10:26:52.000Z</time>
      </trkpt>
      <trkpt lat="47.27303" lon="-2.47333">
        <ele>-25</ele>
        <time>2020-01-26T10:26:57.000Z</time>
      </trkpt>
      <trkpt lat="47.27309" lon="-2.47323">
        <ele>-25</ele>
        <time>2020-01-26T10:26:59.000Z</time>
      </trkpt>
      <trkpt lat="47.27317" lon="-2.47317">
        <ele>-25</ele>
        <time>2020-01-26T10:27:01.000Z</time>
      </trkpt>
      <trkpt lat="47.27325" lon="-2.47312">
        <ele>-25</ele>
        <time>2020-01-26T10:27:03.000Z</time>
      </trkpt>
      <trkpt lat="47.27329" lon="-2.47308">
        <ele>-25</ele>
        <time>2020-01-26T10:27:04.000Z</time>
      </trkpt>
      <trkpt lat="47.2733" lon="-2.47306">
        <ele>-25</ele>
        <time>2020-01-26T10:27:05.000Z</time>
      </trkpt>
      <trkpt lat="47.27341" lon="-2.47302">
        <ele>-25</ele>
        <time>2020-01-26T10:27:08.000Z</time>
      </trkpt>
      <trkpt lat="47.27346" lon="-2.473">
        <ele>-25</ele>
        <time>2020-01-26T10:27:09.000Z</time>
      </trkpt>
      <trkpt lat="47.27361" lon="-2.47293">
        <ele>-25</ele>
        <time>2020-01-26T10:27:12.000Z</time>
      </trkpt>
      <trkpt lat="47.27366" lon="-2.4729">
        <ele>-25</ele>
        <time>2020-01-26T10:27:13.000Z</time>
      </trkpt>
      <trkpt lat="47.27383" lon="-2.47275">
        <ele>-25.39999961853</ele>
        <time>2020-01-26T10:27:17.000Z</time>
      </trkpt>
      <trkpt lat="47.27387" lon="-2.4727">
        <ele>-25.799999237061</ele>
        <time>2020-01-26T10:27:18.000Z</time>
      </trkpt>
      <trkpt lat="47.27391" lon="-2.47266">
        <ele>-26.200000762939</ele>
        <time>2020-01-26T10:27:19.000Z</time>
      </trkpt>
      <trkpt lat="47.27396" lon="-2.47261">
        <ele>-26.60000038147</ele>
        <time>2020-01-26T10:27:20.000Z</time>
      </trkpt>
      <trkpt lat="47.274" lon="-2.47258">
        <ele>-27</ele>
        <time>2020-01-26T10:27:21.000Z</time>
      </trkpt>
      <trkpt lat="47.2742" lon="-2.47244">
        <ele>-27</ele>
        <time>2020-01-26T10:27:25.000Z</time>
      </trkpt>
      <trkpt lat="47.27456" lon="-2.47221">
        <ele>-27</ele>
        <time>2020-01-26T10:27:32.000Z</time>
      </trkpt>
      <trkpt lat="47.27475" lon="-2.47209">
        <ele>-27.60000038147</ele>
        <time>2020-01-26T10:27:36.000Z</time>
      </trkpt>
      <trkpt lat="47.2748" lon="-2.47206">
        <ele>-28</ele>
        <time>2020-01-26T10:27:37.000Z</time>
      </trkpt>
      <trkpt lat="47.27485" lon="-2.47203">
        <ele>-28.39999961853</ele>
        <time>2020-01-26T10:27:38.000Z</time>
      </trkpt>
      <trkpt lat="47.2749" lon="-2.47201">
        <ele>-29.39999961853</ele>
        <time>2020-01-26T10:27:39.000Z</time>
      </trkpt>
      <trkpt lat="47.27507" lon="-2.47186">
        <ele>-29.39999961853</ele>
        <time>2020-01-26T10:27:43.000Z</time>
      </trkpt>
      <trkpt lat="47.27505" lon="-2.47173">
        <ele>-29.39999961853</ele>
        <time>2020-01-26T10:27:45.000Z</time>
      </trkpt>
      <trkpt lat="47.27503" lon="-2.47167">
        <ele>-29.39999961853</ele>
        <time>2020-01-26T10:27:46.000Z</time>
      </trkpt>
      <trkpt lat="47.27497" lon="-2.47154">
        <ele>-29.39999961853</ele>
        <time>2020-01-26T10:27:48.000Z</time>
      </trkpt>
      <trkpt lat="47.2749" lon="-2.47135">
        <ele>-29.39999961853</ele>
        <time>2020-01-26T10:27:51.000Z</time>
      </trkpt>
      <trkpt lat="47.27476" lon="-2.47094">
        <ele>-29.39999961853</ele>
        <time>2020-01-26T10:27:58.000Z</time>
      </trkpt>
      <trkpt lat="47.2746" lon="-2.47048">
        <ele>-29.39999961853</ele>
        <time>2020-01-26T10:28:06.000Z</time>
      </trkpt>
      <trkpt lat="47.27442" lon="-2.46997">
        <ele>-29.39999961853</ele>
        <time>2020-01-26T10:28:14.000Z</time>
      </trkpt>
      <trkpt lat="47.2744" lon="-2.46991">
        <ele>-29.39999961853</ele>
        <time>2020-01-26T10:28:15.000Z</time>
      </trkpt>
      <trkpt lat="47.27437" lon="-2.46979">
        <ele>-29</ele>
        <time>2020-01-26T10:28:17.000Z</time>
      </trkpt>
      <trkpt lat="47.27437" lon="-2.46972">
        <ele>-28.60000038147</ele>
        <time>2020-01-26T10:28:18.000Z</time>
      </trkpt>
      <trkpt lat="47.27437" lon="-2.46966">
        <ele>-28</ele>
        <time>2020-01-26T10:28:19.000Z</time>
      </trkpt>
      <trkpt lat="47.27438" lon="-2.46959">
        <ele>-27.60000038147</ele>
        <time>2020-01-26T10:28:20.000Z</time>
      </trkpt>
      <trkpt lat="47.2744" lon="-2.46954">
        <ele>-27.200000762939</ele>
        <time>2020-01-26T10:28:21.000Z</time>
      </trkpt>
      <trkpt lat="47.27445" lon="-2.46945">
        <ele>-27.200000762939</ele>
        <time>2020-01-26T10:28:23.000Z</time>
      </trkpt>
      <trkpt lat="47.27455" lon="-2.46938">
        <ele>-27.200000762939</ele>
        <time>2020-01-26T10:28:25.000Z</time>
      </trkpt>
      <trkpt lat="47.27465" lon="-2.4693">
        <ele>-27.200000762939</ele>
        <time>2020-01-26T10:28:27.000Z</time>
      </trkpt>
      <trkpt lat="47.2747" lon="-2.46924">
        <ele>-27.200000762939</ele>
        <time>2020-01-26T10:28:28.000Z</time>
      </trkpt>
      <trkpt lat="47.2748" lon="-2.46905">
        <ele>-27.200000762939</ele>
        <time>2020-01-26T10:28:31.000Z</time>
      </trkpt>
      <trkpt lat="47.2748" lon="-2.46881">
        <ele>-27.200000762939</ele>
        <time>2020-01-26T10:28:34.000Z</time>
      </trkpt>
      <trkpt lat="47.27475" lon="-2.46857">
        <ele>-27.200000762939</ele>
        <time>2020-01-26T10:28:37.000Z</time>
      </trkpt>
      <trkpt lat="47.27471" lon="-2.46842">
        <ele>-27.200000762939</ele>
        <time>2020-01-26T10:28:39.000Z</time>
      </trkpt>
      <trkpt lat="47.27456" lon="-2.46789">
        <ele>-27.200000762939</ele>
        <time>2020-01-26T10:28:46.000Z</time>
      </trkpt>
      <trkpt lat="47.2744" lon="-2.4674">
        <ele>-27.200000762939</ele>
        <time>2020-01-26T10:28:52.000Z</time>
      </trkpt>
      <trkpt lat="47.27427" lon="-2.46696">
        <ele>-27.200000762939</ele>
        <time>2020-01-26T10:28:57.000Z</time>
      </trkpt>
      <trkpt lat="47.2742" lon="-2.4667">
        <ele>-27.60000038147</ele>
        <time>2020-01-26T10:29:00.000Z</time>
      </trkpt>
      <trkpt lat="47.27417" lon="-2.46661">
        <ele>-28.200000762939</ele>
        <time>2020-01-26T10:29:01.000Z</time>
      </trkpt>
      <trkpt lat="47.27415" lon="-2.46653">
        <ele>-28.60000038147</ele>
        <time>2020-01-26T10:29:02.000Z</time>
      </trkpt>
      <trkpt lat="47.27412" lon="-2.46644">
        <ele>-29</ele>
        <time>2020-01-26T10:29:03.000Z</time>
      </trkpt>
      <trkpt lat="47.27409" lon="-2.46635">
        <ele>-29.39999961853</ele>
        <time>2020-01-26T10:29:04.000Z</time>
      </trkpt>
      <trkpt lat="47.27394" lon="-2.46587">
        <ele>-29.39999961853</ele>
        <time>2020-01-26T10:29:10.000Z</time>
      </trkpt>
      <trkpt lat="47.27376" lon="-2.46529">
        <ele>-29.39999961853</ele>
        <time>2020-01-26T10:29:17.000Z</time>
      </trkpt>
      <trkpt lat="47.27356" lon="-2.4647">
        <ele>-29.39999961853</ele>
        <time>2020-01-26T10:29:24.000Z</time>
      </trkpt>
      <trkpt lat="47.27337" lon="-2.46409">
        <ele>-29.39999961853</ele>
        <time>2020-01-26T10:29:31.000Z</time>
      </trkpt>
      <trkpt lat="47.27316" lon="-2.4635">
        <ele>-29.39999961853</ele>
        <time>2020-01-26T10:29:38.000Z</time>
      </trkpt>
      <trkpt lat="47.27293" lon="-2.46292">
        <ele>-29.799999237061</ele>
        <time>2020-01-26T10:29:45.000Z</time>
      </trkpt>
      <trkpt lat="47.2729" lon="-2.46284">
        <ele>-30.200000762939</ele>
        <time>2020-01-26T10:29:46.000Z</time>
      </trkpt>
      <trkpt lat="47.27287" lon="-2.46277">
        <ele>-30.60000038147</ele>
        <time>2020-01-26T10:29:47.000Z</time>
      </trkpt>
      <trkpt lat="47.27283" lon="-2.46269">
        <ele>-31</ele>
        <time>2020-01-26T10:29:48.000Z</time>
      </trkpt>
      <trkpt lat="47.2728" lon="-2.46262">
        <ele>-31.39999961853</ele>
        <time>2020-01-26T10:29:49.000Z</time>
      </trkpt>
      <trkpt lat="47.27267" lon="-2.46231">
        <ele>-31.39999961853</ele>
        <time>2020-01-26T10:29:53.000Z</time>
      </trkpt>
      <trkpt lat="47.27244" lon="-2.46176">
        <ele>-31.39999961853</ele>
        <time>2020-01-26T10:30:00.000Z</time>
      </trkpt>
      <trkpt lat="47.27237" lon="-2.4614">
        <ele>-31.39999961853</ele>
        <time>2020-01-26T10:30:04.000Z</time>
      </trkpt>
      <trkpt lat="47.27227" lon="-2.46086">
        <ele>-31.39999961853</ele>
        <time>2020-01-26T10:30:10.000Z</time>
      </trkpt>
      <trkpt lat="47.27214" lon="-2.46025">
        <ele>-31.39999961853</ele>
        <time>2020-01-26T10:30:17.000Z</time>
      </trkpt>
      <trkpt lat="47.27193" lon="-2.4596">
        <ele>-31.39999961853</ele>
        <time>2020-01-26T10:30:25.000Z</time>
      </trkpt>
      <trkpt lat="47.27179" lon="-2.45925">
        <ele>-31.39999961853</ele>
        <time>2020-01-26T10:30:30.000Z</time>
      </trkpt>
      <trkpt lat="47.27164" lon="-2.45894">
        <ele>-31.39999961853</ele>
        <time>2020-01-26T10:30:36.000Z</time>
      </trkpt>
      <trkpt lat="47.27153" lon="-2.45859">
        <ele>-31.39999961853</ele>
        <time>2020-01-26T10:30:42.000Z</time>
      </trkpt>
      <trkpt lat="47.27144" lon="-2.45833">
        <ele>-31.39999961853</ele>
        <time>2020-01-26T10:30:46.000Z</time>
      </trkpt>
      <trkpt lat="47.27136" lon="-2.45815">
        <ele>-31</ele>
        <time>2020-01-26T10:30:49.000Z</time>
      </trkpt>
      <trkpt lat="47.27133" lon="-2.45808">
        <ele>-30.60000038147</ele>
        <time>2020-01-26T10:30:50.000Z</time>
      </trkpt>
      <trkpt lat="47.2713" lon="-2.45802">
        <ele>-30.200000762939</ele>
        <time>2020-01-26T10:30:51.000Z</time>
      </trkpt>
      <trkpt lat="47.27127" lon="-2.45797">
        <ele>-29.60000038147</ele>
        <time>2020-01-26T10:30:52.000Z</time>
      </trkpt>
      <trkpt lat="47.27125" lon="-2.45791">
        <ele>-29.200000762939</ele>
        <time>2020-01-26T10:30:53.000Z</time>
      </trkpt>
      <trkpt lat="47.27115" lon="-2.45773">
        <ele>-29.200000762939</ele>
        <time>2020-01-26T10:30:56.000Z</time>
      </trkpt>
      <trkpt lat="47.27091" lon="-2.45735">
        <ele>-29.200000762939</ele>
        <time>2020-01-26T10:31:03.000Z</time>
      </trkpt>
      <trkpt lat="47.27085" lon="-2.45724">
        <ele>-29.200000762939</ele>
        <time>2020-01-26T10:31:06.000Z</time>
      </trkpt>
      <trkpt lat="47.27084" lon="-2.45721">
        <ele>-29.200000762939</ele>
        <time>2020-01-26T10:31:07.000Z</time>
      </trkpt>
      <trkpt lat="47.27082" lon="-2.45703">
        <ele>-29.200000762939</ele>
        <time>2020-01-26T10:31:13.000Z</time>
      </trkpt>
      <trkpt lat="47.27076" lon="-2.45679">
        <ele>-29.200000762939</ele>
        <time>2020-01-26T10:31:19.000Z</time>
      </trkpt>
      <trkpt lat="47.27069" lon="-2.4564">
        <ele>-29.200000762939</ele>
        <time>2020-01-26T10:31:25.000Z</time>
      </trkpt>
      <trkpt lat="47.2706" lon="-2.45583">
        <ele>-29.200000762939</ele>
        <time>2020-01-26T10:31:33.000Z</time>
      </trkpt>
      <trkpt lat="47.27056" lon="-2.45531">
        <ele>-29.200000762939</ele>
        <time>2020-01-26T10:31:40.000Z</time>
      </trkpt>
      <trkpt lat="47.27059" lon="-2.45484">
        <ele>-29.200000762939</ele>
        <time>2020-01-26T10:31:46.000Z</time>
      </trkpt>
      <trkpt lat="47.27066" lon="-2.45448">
        <ele>-29.200000762939</ele>
        <time>2020-01-26T10:31:51.000Z</time>
      </trkpt>
      <trkpt lat="47.27069" lon="-2.45391">
        <ele>-29.200000762939</ele>
        <time>2020-01-26T10:31:58.000Z</time>
      </trkpt>
      <trkpt lat="47.27067" lon="-2.45335">
        <ele>-29.200000762939</ele>
        <time>2020-01-26T10:32:05.000Z</time>
      </trkpt>
      <trkpt lat="47.27061" lon="-2.45265">
        <ele>-29.200000762939</ele>
        <time>2020-01-26T10:32:14.000Z</time>
      </trkpt>
      <trkpt lat="47.2706" lon="-2.45197">
        <ele>-29.200000762939</ele>
        <time>2020-01-26T10:32:23.000Z</time>
      </trkpt>
      <trkpt lat="47.27062" lon="-2.45141">
        <ele>-29.200000762939</ele>
        <time>2020-01-26T10:32:30.000Z</time>
      </trkpt>
      <trkpt lat="47.27064" lon="-2.45088">
        <ele>-29.200000762939</ele>
        <time>2020-01-26T10:32:37.000Z</time>
      </trkpt>
      <trkpt lat="47.27066" lon="-2.45038">
        <ele>-29.200000762939</ele>
        <time>2020-01-26T10:32:44.000Z</time>
      </trkpt>
      <trkpt lat="47.27067" lon="-2.45003">
        <ele>-29.200000762939</ele>
        <time>2020-01-26T10:32:50.000Z</time>
      </trkpt>
      <trkpt lat="47.27065" lon="-2.4498">
        <ele>-29.200000762939</ele>
        <time>2020-01-26T10:32:54.000Z</time>
      </trkpt>
      <trkpt lat="47.27064" lon="-2.44974">
        <ele>-29.200000762939</ele>
        <time>2020-01-26T10:32:55.000Z</time>
      </trkpt>
      <trkpt lat="47.27063" lon="-2.44967">
        <ele>-29.200000762939</ele>
        <time>2020-01-26T10:32:56.000Z</time>
      </trkpt>
      <trkpt lat="47.2706" lon="-2.44945">
        <ele>-29.200000762939</ele>
        <time>2020-01-26T10:32:59.000Z</time>
      </trkpt>
      <trkpt lat="47.27059" lon="-2.44936">
        <ele>-29.200000762939</ele>
        <time>2020-01-26T10:33:00.000Z</time>
      </trkpt>
      <trkpt lat="47.27057" lon="-2.44881">
        <ele>-29.200000762939</ele>
        <time>2020-01-26T10:33:07.000Z</time>
      </trkpt>
      <trkpt lat="47.27054" lon="-2.4482">
        <ele>-29.200000762939</ele>
        <time>2020-01-26T10:33:15.000Z</time>
      </trkpt>
      <trkpt lat="47.27051" lon="-2.44766">
        <ele>-29.200000762939</ele>
        <time>2020-01-26T10:33:22.000Z</time>
      </trkpt>
      <trkpt lat="47.2705" lon="-2.4473">
        <ele>-29.200000762939</ele>
        <time>2020-01-26T10:33:27.000Z</time>
      </trkpt>
      <trkpt lat="47.27049" lon="-2.44723">
        <ele>-29.200000762939</ele>
        <time>2020-01-26T10:33:28.000Z</time>
      </trkpt>
      <trkpt lat="47.27045" lon="-2.44692">
        <ele>-29.200000762939</ele>
        <time>2020-01-26T10:33:32.000Z</time>
      </trkpt>
      <trkpt lat="47.27043" lon="-2.44684">
        <ele>-29.200000762939</ele>
        <time>2020-01-26T10:33:33.000Z</time>
      </trkpt>
      <trkpt lat="47.2703" lon="-2.44624">
        <ele>-29.200000762939</ele>
        <time>2020-01-26T10:33:41.000Z</time>
      </trkpt>
      <trkpt lat="47.27014" lon="-2.44546">
        <ele>-29.200000762939</ele>
        <time>2020-01-26T10:33:51.000Z</time>
      </trkpt>
      <trkpt lat="47.27002" lon="-2.44487">
        <ele>-29.200000762939</ele>
        <time>2020-01-26T10:33:59.000Z</time>
      </trkpt>
      <trkpt lat="47.26993" lon="-2.44436">
        <ele>-29.200000762939</ele>
        <time>2020-01-26T10:34:06.000Z</time>
      </trkpt>
      <trkpt lat="47.26989" lon="-2.44412">
        <ele>-29.200000762939</ele>
        <time>2020-01-26T10:34:10.000Z</time>
      </trkpt>
      <trkpt lat="47.26984" lon="-2.44408">
        <ele>-29.200000762939</ele>
        <time>2020-01-26T10:34:12.000Z</time>
      </trkpt>
      <trkpt lat="47.2698" lon="-2.44406">
        <ele>-29.200000762939</ele>
        <time>2020-01-26T10:34:13.000Z</time>
      </trkpt>
      <trkpt lat="47.26976" lon="-2.44396">
        <ele>-29.200000762939</ele>
        <time>2020-01-26T10:34:15.000Z</time>
      </trkpt>
      <trkpt lat="47.26975" lon="-2.44389">
        <ele>-29.200000762939</ele>
        <time>2020-01-26T10:34:16.000Z</time>
      </trkpt>
      <trkpt lat="47.2697" lon="-2.44367">
        <ele>-29.200000762939</ele>
        <time>2020-01-26T10:34:19.000Z</time>
      </trkpt>
      <trkpt lat="47.26965" lon="-2.44352">
        <ele>-29.200000762939</ele>
        <time>2020-01-26T10:34:21.000Z</time>
      </trkpt>
      <trkpt lat="47.26953" lon="-2.44311">
        <ele>-29.200000762939</ele>
        <time>2020-01-26T10:34:27.000Z</time>
      </trkpt>
      <trkpt lat="47.2694" lon="-2.44261">
        <ele>-29.200000762939</ele>
        <time>2020-01-26T10:34:34.000Z</time>
      </trkpt>
      <trkpt lat="47.26934" lon="-2.44218">
        <ele>-29.200000762939</ele>
        <time>2020-01-26T10:34:40.000Z</time>
      </trkpt>
      <trkpt lat="47.26925" lon="-2.44189">
        <ele>-29.200000762939</ele>
        <time>2020-01-26T10:34:45.000Z</time>
      </trkpt>
      <trkpt lat="47.26914" lon="-2.44169">
        <ele>-29.200000762939</ele>
        <time>2020-01-26T10:34:50.000Z</time>
      </trkpt>
      <trkpt lat="47.26911" lon="-2.4416">
        <ele>-29.200000762939</ele>
        <time>2020-01-26T10:34:52.000Z</time>
      </trkpt>
      <trkpt lat="47.26912" lon="-2.44151">
        <ele>-29.200000762939</ele>
        <time>2020-01-26T10:34:54.000Z</time>
      </trkpt>
      <trkpt lat="47.26922" lon="-2.44144">
        <ele>-29.200000762939</ele>
        <time>2020-01-26T10:34:57.000Z</time>
      </trkpt>
      <trkpt lat="47.26937" lon="-2.44138">
        <ele>-29.200000762939</ele>
        <time>2020-01-26T10:35:01.000Z</time>
      </trkpt>
      <trkpt lat="47.2694" lon="-2.44136">
        <ele>-29.200000762939</ele>
        <time>2020-01-26T10:35:02.000Z</time>
      </trkpt>
      <trkpt lat="47.26942" lon="-2.44132">
        <ele>-29.200000762939</ele>
        <time>2020-01-26T10:35:03.000Z</time>
      </trkpt>
      <trkpt lat="47.26943" lon="-2.44121">
        <ele>-29.200000762939</ele>
        <time>2020-01-26T10:35:05.000Z</time>
      </trkpt>
      <trkpt lat="47.26941" lon="-2.44107">
        <ele>-29.200000762939</ele>
        <time>2020-01-26T10:35:07.000Z</time>
      </trkpt>
      <trkpt lat="47.26938" lon="-2.44082">
        <ele>-29.200000762939</ele>
        <time>2020-01-26T10:35:11.000Z</time>
      </trkpt>
      <trkpt lat="47.26938" lon="-2.44076">
        <ele>-29.200000762939</ele>
        <time>2020-01-26T10:35:12.000Z</time>
      </trkpt>
      <trkpt lat="47.26939" lon="-2.44048">
        <ele>-29.60000038147</ele>
        <time>2020-01-26T10:35:16.000Z</time>
      </trkpt>
      <trkpt lat="47.26939" lon="-2.4404">
        <ele>-30</ele>
        <time>2020-01-26T10:35:17.000Z</time>
      </trkpt>
      <trkpt lat="47.26939" lon="-2.44032">
        <ele>-30.39999961853</ele>
        <time>2020-01-26T10:35:18.000Z</time>
      </trkpt>
      <trkpt lat="47.26939" lon="-2.44024">
        <ele>-31</ele>
        <time>2020-01-26T10:35:19.000Z</time>
      </trkpt>
      <trkpt lat="47.26939" lon="-2.44016">
        <ele>-31.39999961853</ele>
        <time>2020-01-26T10:35:20.000Z</time>
      </trkpt>
      <trkpt lat="47.2694" lon="-2.43991">
        <ele>-31.39999961853</ele>
        <time>2020-01-26T10:35:23.000Z</time>
      </trkpt>
      <trkpt lat="47.26943" lon="-2.4395">
        <ele>-31.39999961853</ele>
        <time>2020-01-26T10:35:28.000Z</time>
      </trkpt>
      <trkpt lat="47.26944" lon="-2.43934">
        <ele>-31.39999961853</ele>
        <time>2020-01-26T10:35:30.000Z</time>
      </trkpt>
      <trkpt lat="47.26945" lon="-2.43885">
        <ele>-31.39999961853</ele>
        <time>2020-01-26T10:35:36.000Z</time>
      </trkpt>
      <trkpt lat="47.26945" lon="-2.43831">
        <ele>-31.39999961853</ele>
        <time>2020-01-26T10:35:43.000Z</time>
      </trkpt>
      <trkpt lat="47.26945" lon="-2.43776">
        <ele>-31.39999961853</ele>
        <time>2020-01-26T10:35:50.000Z</time>
      </trkpt>
      <trkpt lat="47.26951" lon="-2.43713">
        <ele>-31.39999961853</ele>
        <time>2020-01-26T10:35:58.000Z</time>
      </trkpt>
      <trkpt lat="47.26955" lon="-2.43683">
        <ele>-31.39999961853</ele>
        <time>2020-01-26T10:36:02.000Z</time>
      </trkpt>
      <trkpt lat="47.26956" lon="-2.43671">
        <ele>-31.39999961853</ele>
        <time>2020-01-26T10:36:04.000Z</time>
      </trkpt>
      <trkpt lat="47.26957" lon="-2.43657">
        <ele>-31.39999961853</ele>
        <time>2020-01-26T10:36:08.000Z</time>
      </trkpt>
      <trkpt lat="47.26963" lon="-2.43637">
        <ele>-31.39999961853</ele>
        <time>2020-01-26T10:36:13.000Z</time>
      </trkpt>
      <trkpt lat="47.26982" lon="-2.43612">
        <ele>-31.799999237061</ele>
        <time>2020-01-26T10:36:18.000Z</time>
      </trkpt>
      <trkpt lat="47.26986" lon="-2.43606">
        <ele>-32.200000762939</ele>
        <time>2020-01-26T10:36:19.000Z</time>
      </trkpt>
      <trkpt lat="47.2699" lon="-2.436">
        <ele>-32.599998474121</ele>
        <time>2020-01-26T10:36:20.000Z</time>
      </trkpt>
      <trkpt lat="47.26993" lon="-2.43593">
        <ele>-33</ele>
        <time>2020-01-26T10:36:21.000Z</time>
      </trkpt>
      <trkpt lat="47.26996" lon="-2.43586">
        <ele>-33.400001525879</ele>
        <time>2020-01-26T10:36:22.000Z</time>
      </trkpt>
      <trkpt lat="47.26999" lon="-2.43579">
        <ele>-33.400001525879</ele>
        <time>2020-01-26T10:36:23.000Z</time>
      </trkpt>
      <trkpt lat="47.27013" lon="-2.43565">
        <ele>-33.400001525879</ele>
        <time>2020-01-26T10:36:26.000Z</time>
      </trkpt>
      <trkpt lat="47.27018" lon="-2.4356">
        <ele>-33.400001525879</ele>
        <time>2020-01-26T10:36:27.000Z</time>
      </trkpt>
      <trkpt lat="47.27032" lon="-2.43542">
        <ele>-33.400001525879</ele>
        <time>2020-01-26T10:36:30.000Z</time>
      </trkpt>
      <trkpt lat="47.27055" lon="-2.43509">
        <ele>-33.799999237061</ele>
        <time>2020-01-26T10:36:35.000Z</time>
      </trkpt>
      <trkpt lat="47.2706" lon="-2.43502">
        <ele>-34.200000762939</ele>
        <time>2020-01-26T10:36:36.000Z</time>
      </trkpt>
      <trkpt lat="47.27065" lon="-2.43496">
        <ele>-34.599998474121</ele>
        <time>2020-01-26T10:36:37.000Z</time>
      </trkpt>
      <trkpt lat="47.2707" lon="-2.4349">
        <ele>-35</ele>
        <time>2020-01-26T10:36:38.000Z</time>
      </trkpt>
      <trkpt lat="47.27074" lon="-2.43484">
        <ele>-35.400001525879</ele>
        <time>2020-01-26T10:36:39.000Z</time>
      </trkpt>
      <trkpt lat="47.27101" lon="-2.43444">
        <ele>-35.400001525879</ele>
        <time>2020-01-26T10:36:46.000Z</time>
      </trkpt>
      <trkpt lat="47.27107" lon="-2.43434">
        <ele>-35.400001525879</ele>
        <time>2020-01-26T10:36:48.000Z</time>
      </trkpt>
      <trkpt lat="47.2712" lon="-2.43419">
        <ele>-35.400001525879</ele>
        <time>2020-01-26T10:36:51.000Z</time>
      </trkpt>
      <trkpt lat="47.2715" lon="-2.43377">
        <ele>-35.400001525879</ele>
        <time>2020-01-26T10:36:58.000Z</time>
      </trkpt>
      <trkpt lat="47.27162" lon="-2.43361">
        <ele>-35.400001525879</ele>
        <time>2020-01-26T10:37:01.000Z</time>
      </trkpt>
      <trkpt lat="47.27174" lon="-2.43343">
        <ele>-35.400001525879</ele>
        <time>2020-01-26T10:37:04.000Z</time>
      </trkpt>
      <trkpt lat="47.27194" lon="-2.43312">
        <ele>-35.400001525879</ele>
        <time>2020-01-26T10:37:09.000Z</time>
      </trkpt>
      <trkpt lat="47.27199" lon="-2.43306">
        <ele>-35.400001525879</ele>
        <time>2020-01-26T10:37:10.000Z</time>
      </trkpt>
      <trkpt lat="47.27231" lon="-2.43276">
        <ele>-35.400001525879</ele>
        <time>2020-01-26T10:37:16.000Z</time>
      </trkpt>
      <trkpt lat="47.27236" lon="-2.43272">
        <ele>-35.799999237061</ele>
        <time>2020-01-26T10:37:17.000Z</time>
      </trkpt>
      <trkpt lat="47.27241" lon="-2.43268">
        <ele>-36.200000762939</ele>
        <time>2020-01-26T10:37:18.000Z</time>
      </trkpt>
      <trkpt lat="47.27247" lon="-2.43264">
        <ele>-36.799999237061</ele>
        <time>2020-01-26T10:37:19.000Z</time>
      </trkpt>
      <trkpt lat="47.27252" lon="-2.4326">
        <ele>-37.200000762939</ele>
        <time>2020-01-26T10:37:20.000Z</time>
      </trkpt>
      <trkpt lat="47.27258" lon="-2.43256">
        <ele>-37.599998474121</ele>
        <time>2020-01-26T10:37:21.000Z</time>
      </trkpt>
      <trkpt lat="47.27269" lon="-2.43247">
        <ele>-37.599998474121</ele>
        <time>2020-01-26T10:37:23.000Z</time>
      </trkpt>
      <trkpt lat="47.27302" lon="-2.43222">
        <ele>-37.599998474121</ele>
        <time>2020-01-26T10:37:29.000Z</time>
      </trkpt>
      <trkpt lat="47.27352" lon="-2.43184">
        <ele>-37.599998474121</ele>
        <time>2020-01-26T10:37:38.000Z</time>
      </trkpt>
      <trkpt lat="47.27396" lon="-2.43154">
        <ele>-37.599998474121</ele>
        <time>2020-01-26T10:37:46.000Z</time>
      </trkpt>
      <trkpt lat="47.27433" lon="-2.4313">
        <ele>-37.599998474121</ele>
        <time>2020-01-26T10:37:53.000Z</time>
      </trkpt>
      <trkpt lat="47.27438" lon="-2.43127">
        <ele>-37.599998474121</ele>
        <time>2020-01-26T10:37:54.000Z</time>
      </trkpt>
      <trkpt lat="47.27457" lon="-2.43115">
        <ele>-37.599998474121</ele>
        <time>2020-01-26T10:37:58.000Z</time>
      </trkpt>
      <trkpt lat="47.27476" lon="-2.43093">
        <ele>-37.599998474121</ele>
        <time>2020-01-26T10:38:04.000Z</time>
      </trkpt>
      <trkpt lat="47.27485" lon="-2.43081">
        <ele>-37.599998474121</ele>
        <time>2020-01-26T10:38:07.000Z</time>
      </trkpt>
      <trkpt lat="47.27496" lon="-2.43071">
        <ele>-37.599998474121</ele>
        <time>2020-01-26T10:38:10.000Z</time>
      </trkpt>
      <trkpt lat="47.27524" lon="-2.43048">
        <ele>-37.599998474121</ele>
        <time>2020-01-26T10:38:17.000Z</time>
      </trkpt>
      <trkpt lat="47.27555" lon="-2.43025">
        <ele>-37.599998474121</ele>
        <time>2020-01-26T10:38:24.000Z</time>
      </trkpt>
      <trkpt lat="47.27559" lon="-2.43021">
        <ele>-37.599998474121</ele>
        <time>2020-01-26T10:38:25.000Z</time>
      </trkpt>
      <trkpt lat="47.27575" lon="-2.4301">
        <ele>-37.599998474121</ele>
        <time>2020-01-26T10:38:29.000Z</time>
      </trkpt>
      <trkpt lat="47.27579" lon="-2.43008">
        <ele>-37.599998474121</ele>
        <time>2020-01-26T10:38:30.000Z</time>
      </trkpt>
      <trkpt lat="47.2759" lon="-2.43">
        <ele>-37.599998474121</ele>
        <time>2020-01-26T10:38:33.000Z</time>
      </trkpt>
      <trkpt lat="47.27601" lon="-2.42993">
        <ele>-37.599998474121</ele>
        <time>2020-01-26T10:38:36.000Z</time>
      </trkpt>
      <trkpt lat="47.27619" lon="-2.42988">
        <ele>-37.599998474121</ele>
        <time>2020-01-26T10:38:41.000Z</time>
      </trkpt>
      <trkpt lat="47.27632" lon="-2.42975">
        <ele>-37.599998474121</ele>
        <time>2020-01-26T10:38:46.000Z</time>
      </trkpt>
      <trkpt lat="47.27647" lon="-2.42953">
        <ele>-37.599998474121</ele>
        <time>2020-01-26T10:38:53.000Z</time>
      </trkpt>
      <trkpt lat="47.27657" lon="-2.42936">
        <ele>-37.599998474121</ele>
        <time>2020-01-26T10:38:59.000Z</time>
      </trkpt>
      <trkpt lat="47.27665" lon="-2.42917">
        <ele>-37.599998474121</ele>
        <time>2020-01-26T10:39:06.000Z</time>
      </trkpt>
      <trkpt lat="47.27671" lon="-2.42903">
        <ele>-37.599998474121</ele>
        <time>2020-01-26T10:39:12.000Z</time>
      </trkpt>
      <trkpt lat="47.27678" lon="-2.42885">
        <ele>-37.599998474121</ele>
        <time>2020-01-26T10:39:18.000Z</time>
      </trkpt>
      <trkpt lat="47.27682" lon="-2.42863">
        <ele>-37.599998474121</ele>
        <time>2020-01-26T10:39:24.000Z</time>
      </trkpt>
      <trkpt lat="47.27689" lon="-2.42835">
        <ele>-37.599998474121</ele>
        <time>2020-01-26T10:39:30.000Z</time>
      </trkpt>
      <trkpt lat="47.27695" lon="-2.42805">
        <ele>-37.599998474121</ele>
        <time>2020-01-26T10:39:37.000Z</time>
      </trkpt>
      <trkpt lat="47.27697" lon="-2.428">
        <ele>-37.599998474121</ele>
        <time>2020-01-26T10:39:40.000Z</time>
      </trkpt>
      <trkpt lat="47.27698" lon="-2.42798">
        <ele>-37.599998474121</ele>
        <time>2020-01-26T10:39:41.000Z</time>
      </trkpt>
      <trkpt lat="47.27709" lon="-2.42794">
        <ele>-37.599998474121</ele>
        <time>2020-01-26T10:39:46.000Z</time>
      </trkpt>
      <trkpt lat="47.27724" lon="-2.428">
        <ele>-37.599998474121</ele>
        <time>2020-01-26T10:39:50.000Z</time>
      </trkpt>
      <trkpt lat="47.27758" lon="-2.42809">
        <ele>-37.599998474121</ele>
        <time>2020-01-26T10:39:57.000Z</time>
      </trkpt>
      <trkpt lat="47.27794" lon="-2.42817">
        <ele>-37.599998474121</ele>
        <time>2020-01-26T10:40:04.000Z</time>
      </trkpt>
      <trkpt lat="47.27825" lon="-2.42817">
        <ele>-37.599998474121</ele>
        <time>2020-01-26T10:40:11.000Z</time>
      </trkpt>
      <trkpt lat="47.27829" lon="-2.42802">
        <ele>-37.599998474121</ele>
        <time>2020-01-26T10:40:14.000Z</time>
      </trkpt>
      <trkpt lat="47.27829" lon="-2.42795">
        <ele>-37.599998474121</ele>
        <time>2020-01-26T10:40:15.000Z</time>
      </trkpt>
      <trkpt lat="47.27829" lon="-2.42788">
        <ele>-37.200000762939</ele>
        <time>2020-01-26T10:40:16.000Z</time>
      </trkpt>
      <trkpt lat="47.27828" lon="-2.42782">
        <ele>-36.799999237061</ele>
        <time>2020-01-26T10:40:17.000Z</time>
      </trkpt>
      <trkpt lat="47.27828" lon="-2.42775">
        <ele>-36.400001525879</ele>
        <time>2020-01-26T10:40:18.000Z</time>
      </trkpt>
      <trkpt lat="47.27828" lon="-2.42768">
        <ele>-36</ele>
        <time>2020-01-26T10:40:19.000Z</time>
      </trkpt>
      <trkpt lat="47.27828" lon="-2.42761">
        <ele>-35.599998474121</ele>
        <time>2020-01-26T10:40:20.000Z</time>
      </trkpt>
      <trkpt lat="47.27828" lon="-2.42754">
        <ele>-35.599998474121</ele>
        <time>2020-01-26T10:40:21.000Z</time>
      </trkpt>
      <trkpt lat="47.27829" lon="-2.42727">
        <ele>-35.599998474121</ele>
        <time>2020-01-26T10:40:25.000Z</time>
      </trkpt>
      <trkpt lat="47.27834" lon="-2.42718">
        <ele>-35.599998474121</ele>
        <time>2020-01-26T10:40:27.000Z</time>
      </trkpt>
      <trkpt lat="47.27848" lon="-2.42715">
        <ele>-35.599998474121</ele>
        <time>2020-01-26T10:40:30.000Z</time>
      </trkpt>
      <trkpt lat="47.27872" lon="-2.42707">
        <ele>-35.599998474121</ele>
        <time>2020-01-26T10:40:34.000Z</time>
      </trkpt>
      <trkpt lat="47.27877" lon="-2.42704">
        <ele>-35.599998474121</ele>
        <time>2020-01-26T10:40:35.000Z</time>
      </trkpt>
      <trkpt lat="47.27893" lon="-2.42694">
        <ele>-35.599998474121</ele>
        <time>2020-01-26T10:40:38.000Z</time>
      </trkpt>
      <trkpt lat="47.27897" lon="-2.42689">
        <ele>-35.599998474121</ele>
        <time>2020-01-26T10:40:39.000Z</time>
      </trkpt>
      <trkpt lat="47.27909" lon="-2.42679">
        <ele>-36</ele>
        <time>2020-01-26T10:40:42.000Z</time>
      </trkpt>
      <trkpt lat="47.27913" lon="-2.42679">
        <ele>-36.400001525879</ele>
        <time>2020-01-26T10:40:43.000Z</time>
      </trkpt>
      <trkpt lat="47.27917" lon="-2.42679">
        <ele>-36.799999237061</ele>
        <time>2020-01-26T10:40:44.000Z</time>
      </trkpt>
      <trkpt lat="47.2792" lon="-2.42678">
        <ele>-37.200000762939</ele>
        <time>2020-01-26T10:40:45.000Z</time>
      </trkpt>
      <trkpt lat="47.27924" lon="-2.42676">
        <ele>-37.599998474121</ele>
        <time>2020-01-26T10:40:46.000Z</time>
      </trkpt>
      <trkpt lat="47.27932" lon="-2.42669">
        <ele>-37.599998474121</ele>
        <time>2020-01-26T10:40:48.000Z</time>
      </trkpt>
      <trkpt lat="47.27957" lon="-2.4265">
        <ele>-37.599998474121</ele>
        <time>2020-01-26T10:40:54.000Z</time>
      </trkpt>
      <trkpt lat="47.27976" lon="-2.42644">
        <ele>-37.599998474121</ele>
        <time>2020-01-26T10:40:59.000Z</time>
      </trkpt>
      <trkpt lat="47.27993" lon="-2.42641">
        <ele>-37.599998474121</ele>
        <time>2020-01-26T10:41:03.000Z</time>
      </trkpt>
      <trkpt lat="47.27998" lon="-2.42639">
        <ele>-37.599998474121</ele>
        <time>2020-01-26T10:41:04.000Z</time>
      </trkpt>
      <trkpt lat="47.28023" lon="-2.4262">
        <ele>-37.599998474121</ele>
        <time>2020-01-26T10:41:10.000Z</time>
      </trkpt>
      <trkpt lat="47.28034" lon="-2.42607">
        <ele>-37.599998474121</ele>
        <time>2020-01-26T10:41:13.000Z</time>
      </trkpt>
      <trkpt lat="47.28042" lon="-2.42601">
        <ele>-37.599998474121</ele>
        <time>2020-01-26T10:41:15.000Z</time>
      </trkpt>
      <trkpt lat="47.28055" lon="-2.42592">
        <ele>-37.599998474121</ele>
        <time>2020-01-26T10:41:18.000Z</time>
      </trkpt>
      <trkpt lat="47.28067" lon="-2.42582">
        <ele>-37.599998474121</ele>
        <time>2020-01-26T10:41:21.000Z</time>
      </trkpt>
      <trkpt lat="47.28081" lon="-2.42562">
        <ele>-37.599998474121</ele>
        <time>2020-01-26T10:41:26.000Z</time>
      </trkpt>
      <trkpt lat="47.28083" lon="-2.4256">
        <ele>-37.599998474121</ele>
        <time>2020-01-26T10:41:27.000Z</time>
      </trkpt>
      <trkpt lat="47.28086" lon="-2.4256">
        <ele>-37.599998474121</ele>
        <time>2020-01-26T10:41:29.000Z</time>
      </trkpt>
      <trkpt lat="47.28091" lon="-2.42562">
        <ele>-37.599998474121</ele>
        <time>2020-01-26T10:41:33.000Z</time>
      </trkpt>
      <trkpt lat="47.28093" lon="-2.42556">
        <ele>-37.599998474121</ele>
        <time>2020-01-26T10:41:37.000Z</time>
      </trkpt>
      <trkpt lat="47.28099" lon="-2.42546">
        <ele>-37.599998474121</ele>
        <time>2020-01-26T10:41:41.000Z</time>
      </trkpt>
      <trkpt lat="47.28119" lon="-2.42539">
        <ele>-37.599998474121</ele>
        <time>2020-01-26T10:41:46.000Z</time>
      </trkpt>
      <trkpt lat="47.28124" lon="-2.42537">
        <ele>-37.599998474121</ele>
        <time>2020-01-26T10:41:47.000Z</time>
      </trkpt>
      <trkpt lat="47.28134" lon="-2.42536">
        <ele>-37.599998474121</ele>
        <time>2020-01-26T10:41:49.000Z</time>
      </trkpt>
      <trkpt lat="47.28144" lon="-2.42534">
        <ele>-37.599998474121</ele>
        <time>2020-01-26T10:41:51.000Z</time>
      </trkpt>
      <trkpt lat="47.28148" lon="-2.42532">
        <ele>-37.599998474121</ele>
        <time>2020-01-26T10:41:52.000Z</time>
      </trkpt>
      <trkpt lat="47.28179" lon="-2.42528">
        <ele>-37.599998474121</ele>
        <time>2020-01-26T10:41:59.000Z</time>
      </trkpt>
      <trkpt lat="47.28201" lon="-2.42523">
        <ele>-37.599998474121</ele>
        <time>2020-01-26T10:42:05.000Z</time>
      </trkpt>
      <trkpt lat="47.28218" lon="-2.42497">
        <ele>-37.599998474121</ele>
        <time>2020-01-26T10:42:11.000Z</time>
      </trkpt>
      <trkpt lat="47.28237" lon="-2.42466">
        <ele>-37.599998474121</ele>
        <time>2020-01-26T10:42:17.000Z</time>
      </trkpt>
      <trkpt lat="47.28253" lon="-2.42427">
        <ele>-37.599998474121</ele>
        <time>2020-01-26T10:42:24.000Z</time>
      </trkpt>
      <trkpt lat="47.28263" lon="-2.42388">
        <ele>-37.599998474121</ele>
        <time>2020-01-26T10:42:30.000Z</time>
      </trkpt>
      <trkpt lat="47.28268" lon="-2.42345">
        <ele>-37.599998474121</ele>
        <time>2020-01-26T10:42:36.000Z</time>
      </trkpt>
      <trkpt lat="47.2827" lon="-2.42338">
        <ele>-37.599998474121</ele>
        <time>2020-01-26T10:42:37.000Z</time>
      </trkpt>
      <trkpt lat="47.28275" lon="-2.42316">
        <ele>-37.599998474121</ele>
        <time>2020-01-26T10:42:41.000Z</time>
      </trkpt>
      <trkpt lat="47.28276" lon="-2.42311">
        <ele>-37.599998474121</ele>
        <time>2020-01-26T10:42:42.000Z</time>
      </trkpt>
      <trkpt lat="47.2828" lon="-2.42285">
        <ele>-37.599998474121</ele>
        <time>2020-01-26T10:42:46.000Z</time>
      </trkpt>
      <trkpt lat="47.28289" lon="-2.4222">
        <ele>-37.599998474121</ele>
        <time>2020-01-26T10:42:55.000Z</time>
      </trkpt>
      <trkpt lat="47.28301" lon="-2.42141">
        <ele>-37.599998474121</ele>
        <time>2020-01-26T10:43:05.000Z</time>
      </trkpt>
      <trkpt lat="47.2831" lon="-2.42077">
        <ele>-37.599998474121</ele>
        <time>2020-01-26T10:43:13.000Z</time>
      </trkpt>
      <trkpt lat="47.28318" lon="-2.42022">
        <ele>-37.599998474121</ele>
        <time>2020-01-26T10:43:21.000Z</time>
      </trkpt>
      <trkpt lat="47.28322" lon="-2.41998">
        <ele>-37.599998474121</ele>
        <time>2020-01-26T10:43:24.000Z</time>
      </trkpt>
      <trkpt lat="47.28326" lon="-2.41982">
        <ele>-37.599998474121</ele>
        <time>2020-01-26T10:43:26.000Z</time>
      </trkpt>
      <trkpt lat="47.2834" lon="-2.41926">
        <ele>-37.599998474121</ele>
        <time>2020-01-26T10:43:33.000Z</time>
      </trkpt>
      <trkpt lat="47.28354" lon="-2.41866">
        <ele>-37.599998474121</ele>
        <time>2020-01-26T10:43:41.000Z</time>
      </trkpt>
      <trkpt lat="47.28368" lon="-2.41813">
        <ele>-37.599998474121</ele>
        <time>2020-01-26T10:43:48.000Z</time>
      </trkpt>
      <trkpt lat="47.28382" lon="-2.41758">
        <ele>-37.599998474121</ele>
        <time>2020-01-26T10:43:55.000Z</time>
      </trkpt>
      <trkpt lat="47.28394" lon="-2.41708">
        <ele>-37.599998474121</ele>
        <time>2020-01-26T10:44:02.000Z</time>
      </trkpt>
      <trkpt lat="47.28403" lon="-2.41665">
        <ele>-37.599998474121</ele>
        <time>2020-01-26T10:44:08.000Z</time>
      </trkpt>
      <trkpt lat="47.28408" lon="-2.41621">
        <ele>-37.599998474121</ele>
        <time>2020-01-26T10:44:14.000Z</time>
      </trkpt>
      <trkpt lat="47.28412" lon="-2.4159">
        <ele>-37.599998474121</ele>
        <time>2020-01-26T10:44:19.000Z</time>
      </trkpt>
      <trkpt lat="47.28415" lon="-2.4155">
        <ele>-37.599998474121</ele>
        <time>2020-01-26T10:44:25.000Z</time>
      </trkpt>
      <trkpt lat="47.2842" lon="-2.41504">
        <ele>-37.599998474121</ele>
        <time>2020-01-26T10:44:32.000Z</time>
      </trkpt>
      <trkpt lat="47.28421" lon="-2.41492">
        <ele>-37.599998474121</ele>
        <time>2020-01-26T10:44:34.000Z</time>
      </trkpt>
      <trkpt lat="47.28423" lon="-2.41465">
        <ele>-37.599998474121</ele>
        <time>2020-01-26T10:44:38.000Z</time>
      </trkpt>
      <trkpt lat="47.28425" lon="-2.41438">
        <ele>-37.599998474121</ele>
        <time>2020-01-26T10:44:42.000Z</time>
      </trkpt>
      <trkpt lat="47.28427" lon="-2.41426">
        <ele>-37.599998474121</ele>
        <time>2020-01-26T10:44:44.000Z</time>
      </trkpt>
      <trkpt lat="47.28432" lon="-2.41404">
        <ele>-37.599998474121</ele>
        <time>2020-01-26T10:44:48.000Z</time>
      </trkpt>
      <trkpt lat="47.28433" lon="-2.41399">
        <ele>-37.599998474121</ele>
        <time>2020-01-26T10:44:49.000Z</time>
      </trkpt>
      <trkpt lat="47.28444" lon="-2.4136">
        <ele>-37.599998474121</ele>
        <time>2020-01-26T10:44:56.000Z</time>
      </trkpt>
      <trkpt lat="47.28446" lon="-2.41355">
        <ele>-37.599998474121</ele>
        <time>2020-01-26T10:44:57.000Z</time>
      </trkpt>
      <trkpt lat="47.2845" lon="-2.41339">
        <ele>-37.599998474121</ele>
        <time>2020-01-26T10:45:00.000Z</time>
      </trkpt>
      <trkpt lat="47.28457" lon="-2.41306">
        <ele>-37.599998474121</ele>
        <time>2020-01-26T10:45:06.000Z</time>
      </trkpt>
      <trkpt lat="47.2846" lon="-2.41272">
        <ele>-37.599998474121</ele>
        <time>2020-01-26T10:45:13.000Z</time>
      </trkpt>
      <trkpt lat="47.28453" lon="-2.4126">
        <ele>-37.599998474121</ele>
        <time>2020-01-26T10:45:17.000Z</time>
      </trkpt>
      <trkpt lat="47.28437" lon="-2.41258">
        <ele>-37.599998474121</ele>
        <time>2020-01-26T10:45:21.000Z</time>
      </trkpt>
      <trkpt lat="47.28432" lon="-2.41257">
        <ele>-37.599998474121</ele>
        <time>2020-01-26T10:45:22.000Z</time>
      </trkpt>
      <trkpt lat="47.28427" lon="-2.41254">
        <ele>-37.599998474121</ele>
        <time>2020-01-26T10:45:23.000Z</time>
      </trkpt>
      <trkpt lat="47.28417" lon="-2.41251">
        <ele>-37.599998474121</ele>
        <time>2020-01-26T10:45:25.000Z</time>
      </trkpt>
      <trkpt lat="47.28413" lon="-2.41251">
        <ele>-37.599998474121</ele>
        <time>2020-01-26T10:45:26.000Z</time>
      </trkpt>
      <trkpt lat="47.28393" lon="-2.4124">
        <ele>-37.599998474121</ele>
        <time>2020-01-26T10:45:31.000Z</time>
      </trkpt>
      <trkpt lat="47.28385" lon="-2.41238">
        <ele>-37.599998474121</ele>
        <time>2020-01-26T10:45:33.000Z</time>
      </trkpt>
      <trkpt lat="47.28373" lon="-2.41232">
        <ele>-37.599998474121</ele>
        <time>2020-01-26T10:45:36.000Z</time>
      </trkpt>
      <trkpt lat="47.28352" lon="-2.41223">
        <ele>-37.599998474121</ele>
        <time>2020-01-26T10:45:42.000Z</time>
      </trkpt>
      <trkpt lat="47.28351" lon="-2.4122">
        <ele>-37.599998474121</ele>
        <time>2020-01-26T10:45:44.000Z</time>
      </trkpt>
      <trkpt lat="47.28352" lon="-2.4122">
        <ele>-37.599998474121</ele>
        <time>2020-01-26T10:45:45.000Z</time>
      </trkpt>
      <trkpt lat="47.28352" lon="-2.41212">
        <ele>-37.599998474121</ele>
        <time>2020-01-26T10:45:50.000Z</time>
      </trkpt>
      <trkpt lat="47.28352" lon="-2.41211">
        <ele>-37.599998474121</ele>
        <time>2020-01-26T10:45:52.000Z</time>
      </trkpt>
      <trkpt lat="47.28354" lon="-2.41207">
        <ele>-37.599998474121</ele>
        <time>2020-01-26T10:45:57.000Z</time>
      </trkpt>
      <trkpt lat="47.28357" lon="-2.41201">
        <ele>-37.599998474121</ele>
        <time>2020-01-26T10:45:59.000Z</time>
      </trkpt>
      <trkpt lat="47.28361" lon="-2.41193">
        <ele>-38</ele>
        <time>2020-01-26T10:46:01.000Z</time>
      </trkpt>
      <trkpt lat="47.28362" lon="-2.41187">
        <ele>-38.400001525879</ele>
        <time>2020-01-26T10:46:02.000Z</time>
      </trkpt>
      <trkpt lat="47.28364" lon="-2.41181">
        <ele>-38.799999237061</ele>
        <time>2020-01-26T10:46:03.000Z</time>
      </trkpt>
      <trkpt lat="47.28366" lon="-2.41175">
        <ele>-39.200000762939</ele>
        <time>2020-01-26T10:46:04.000Z</time>
      </trkpt>
      <trkpt lat="47.28367" lon="-2.41169">
        <ele>-39.599998474121</ele>
        <time>2020-01-26T10:46:05.000Z</time>
      </trkpt>
      <trkpt lat="47.28374" lon="-2.41135">
        <ele>-39.599998474121</ele>
        <time>2020-01-26T10:46:10.000Z</time>
      </trkpt>
      <trkpt lat="47.28385" lon="-2.41096">
        <ele>-39.599998474121</ele>
        <time>2020-01-26T10:46:16.000Z</time>
      </trkpt>
      <trkpt lat="47.28384" lon="-2.41091">
        <ele>-39.599998474121</ele>
        <time>2020-01-26T10:46:17.000Z</time>
      </trkpt>
      <trkpt lat="47.28379" lon="-2.41084">
        <ele>-39.599998474121</ele>
        <time>2020-01-26T10:46:19.000Z</time>
      </trkpt>
      <trkpt lat="47.28371" lon="-2.41078">
        <ele>-39.599998474121</ele>
        <time>2020-01-26T10:46:21.000Z</time>
      </trkpt>
      <trkpt lat="47.28367" lon="-2.41076">
        <ele>-39.599998474121</ele>
        <time>2020-01-26T10:46:22.000Z</time>
      </trkpt>
      <trkpt lat="47.28362" lon="-2.41074">
        <ele>-39.599998474121</ele>
        <time>2020-01-26T10:46:23.000Z</time>
      </trkpt>
      <trkpt lat="47.28322" lon="-2.41052">
        <ele>-39.599998474121</ele>
        <time>2020-01-26T10:46:32.000Z</time>
      </trkpt>
      <trkpt lat="47.28293" lon="-2.41038">
        <ele>-39.599998474121</ele>
        <time>2020-01-26T10:46:39.000Z</time>
      </trkpt>
      <trkpt lat="47.28273" lon="-2.41027">
        <ele>-39.200000762939</ele>
        <time>2020-01-26T10:46:44.000Z</time>
      </trkpt>
      <trkpt lat="47.28269" lon="-2.41024">
        <ele>-38.799999237061</ele>
        <time>2020-01-26T10:46:45.000Z</time>
      </trkpt>
      <trkpt lat="47.28265" lon="-2.41022">
        <ele>-38.400001525879</ele>
        <time>2020-01-26T10:46:46.000Z</time>
      </trkpt>
      <trkpt lat="47.28262" lon="-2.41021">
        <ele>-38</ele>
        <time>2020-01-26T10:46:47.000Z</time>
      </trkpt>
      <trkpt lat="47.28259" lon="-2.41019">
        <ele>-37.599998474121</ele>
        <time>2020-01-26T10:46:48.000Z</time>
      </trkpt>
      <trkpt lat="47.28255" lon="-2.41011">
        <ele>-37.599998474121</ele>
        <time>2020-01-26T10:46:50.000Z</time>
      </trkpt>
      <trkpt lat="47.28254" lon="-2.40997">
        <ele>-37.599998474121</ele>
        <time>2020-01-26T10:46:53.000Z</time>
      </trkpt>
      <trkpt lat="47.28248" lon="-2.40992">
        <ele>-37.599998474121</ele>
        <time>2020-01-26T10:46:56.000Z</time>
      </trkpt>
      <trkpt lat="47.28247" lon="-2.40991">
        <ele>-37.599998474121</ele>
        <time>2020-01-26T10:46:57.000Z</time>
      </trkpt>
      <trkpt lat="47.28236" lon="-2.40988">
        <ele>-37.599998474121</ele>
        <time>2020-01-26T10:47:02.000Z</time>
      </trkpt>
      <trkpt lat="47.28228" lon="-2.40969">
        <ele>-37.599998474121</ele>
        <time>2020-01-26T10:47:07.000Z</time>
      </trkpt>
      <trkpt lat="47.28233" lon="-2.40952">
        <ele>-37.599998474121</ele>
        <time>2020-01-26T10:47:10.000Z</time>
      </trkpt>
      <trkpt lat="47.28235" lon="-2.40946">
        <ele>-37.599998474121</ele>
        <time>2020-01-26T10:47:11.000Z</time>
      </trkpt>
      <trkpt lat="47.28252" lon="-2.40915">
        <ele>-37.599998474121</ele>
        <time>2020-01-26T10:47:17.000Z</time>
      </trkpt>
      <trkpt lat="47.28262" lon="-2.4089">
        <ele>-37.599998474121</ele>
        <time>2020-01-26T10:47:23.000Z</time>
      </trkpt>
      <trkpt lat="47.28256" lon="-2.40885">
        <ele>-37.599998474121</ele>
        <time>2020-01-26T10:47:26.000Z</time>
      </trkpt>
      <trkpt lat="47.28245" lon="-2.40869">
        <ele>-37.599998474121</ele>
        <time>2020-01-26T10:47:30.000Z</time>
      </trkpt>
      <trkpt lat="47.28218" lon="-2.40852">
        <ele>-37.599998474121</ele>
        <time>2020-01-26T10:47:36.000Z</time>
      </trkpt>
      <trkpt lat="47.28208" lon="-2.40844">
        <ele>-37.599998474121</ele>
        <time>2020-01-26T10:47:38.000Z</time>
      </trkpt>
      <trkpt lat="47.28198" lon="-2.40834">
        <ele>-37.599998474121</ele>
        <time>2020-01-26T10:47:40.000Z</time>
      </trkpt>
      <trkpt lat="47.28192" lon="-2.40828">
        <ele>-37.599998474121</ele>
        <time>2020-01-26T10:47:41.000Z</time>
      </trkpt>
      <trkpt lat="47.28177" lon="-2.40817">
        <ele>-37.599998474121</ele>
        <time>2020-01-26T10:47:44.000Z</time>
      </trkpt>
      <trkpt lat="47.28149" lon="-2.40794">
        <ele>-37.599998474121</ele>
        <time>2020-01-26T10:47:50.000Z</time>
      </trkpt>
      <trkpt lat="47.28134" lon="-2.40784">
        <ele>-37.599998474121</ele>
        <time>2020-01-26T10:47:55.000Z</time>
      </trkpt>
      <trkpt lat="47.28132" lon="-2.40778">
        <ele>-37.599998474121</ele>
        <time>2020-01-26T10:47:58.000Z</time>
      </trkpt>
      <trkpt lat="47.2813" lon="-2.40764">
        <ele>-37.599998474121</ele>
        <time>2020-01-26T10:48:02.000Z</time>
      </trkpt>
      <trkpt lat="47.28133" lon="-2.40752">
        <ele>-37.599998474121</ele>
        <time>2020-01-26T10:48:04.000Z</time>
      </trkpt>
      <trkpt lat="47.28133" lon="-2.40743">
        <ele>-37.599998474121</ele>
        <time>2020-01-26T10:48:06.000Z</time>
      </trkpt>
      <trkpt lat="47.28129" lon="-2.40736">
        <ele>-37.599998474121</ele>
        <time>2020-01-26T10:48:10.000Z</time>
      </trkpt>
      <trkpt lat="47.28117" lon="-2.40732">
        <ele>-37.599998474121</ele>
        <time>2020-01-26T10:48:14.000Z</time>
      </trkpt>
      <trkpt lat="47.28113" lon="-2.4073">
        <ele>-37.599998474121</ele>
        <time>2020-01-26T10:48:15.000Z</time>
      </trkpt>
      <trkpt lat="47.28095" lon="-2.40716">
        <ele>-37.200000762939</ele>
        <time>2020-01-26T10:48:20.000Z</time>
      </trkpt>
      <trkpt lat="47.28092" lon="-2.40714">
        <ele>-36.799999237061</ele>
        <time>2020-01-26T10:48:21.000Z</time>
      </trkpt>
      <trkpt lat="47.28088" lon="-2.40713">
        <ele>-36.400001525879</ele>
        <time>2020-01-26T10:48:22.000Z</time>
      </trkpt>
      <trkpt lat="47.28085" lon="-2.40712">
        <ele>-35.799999237061</ele>
        <time>2020-01-26T10:48:23.000Z</time>
      </trkpt>
      <trkpt lat="47.28082" lon="-2.4071">
        <ele>-35.400001525879</ele>
        <time>2020-01-26T10:48:24.000Z</time>
      </trkpt>
      <trkpt lat="47.2808" lon="-2.40709">
        <ele>-35.400001525879</ele>
        <time>2020-01-26T10:48:25.000Z</time>
      </trkpt>
      <trkpt lat="47.28076" lon="-2.40705">
        <ele>-35.400001525879</ele>
        <time>2020-01-26T10:48:29.000Z</time>
      </trkpt>
      <trkpt lat="47.28074" lon="-2.40705">
        <ele>-35.400001525879</ele>
        <time>2020-01-26T10:48:32.000Z</time>
      </trkpt>
      <trkpt lat="47.28071" lon="-2.40703">
        <ele>-35.400001525879</ele>
        <time>2020-01-26T10:48:35.000Z</time>
      </trkpt>
      <trkpt lat="47.28069" lon="-2.40702">
        <ele>-35.400001525879</ele>
        <time>2020-01-26T10:48:36.000Z</time>
      </trkpt>
      <trkpt lat="47.28063" lon="-2.40702">
        <ele>-35.400001525879</ele>
        <time>2020-01-26T10:48:39.000Z</time>
      </trkpt>
      <trkpt lat="47.28059" lon="-2.40699">
        <ele>-35.400001525879</ele>
        <time>2020-01-26T10:48:41.000Z</time>
      </trkpt>
      <trkpt lat="47.28058" lon="-2.40683">
        <ele>-35.400001525879</ele>
        <time>2020-01-26T10:48:44.000Z</time>
      </trkpt>
      <trkpt lat="47.28058" lon="-2.40676">
        <ele>-35.400001525879</ele>
        <time>2020-01-26T10:48:45.000Z</time>
      </trkpt>
      <trkpt lat="47.28058" lon="-2.40669">
        <ele>-35.400001525879</ele>
        <time>2020-01-26T10:48:46.000Z</time>
      </trkpt>
      <trkpt lat="47.28054" lon="-2.40648">
        <ele>-35.400001525879</ele>
        <time>2020-01-26T10:48:49.000Z</time>
      </trkpt>
      <trkpt lat="47.28052" lon="-2.4064">
        <ele>-35.400001525879</ele>
        <time>2020-01-26T10:48:50.000Z</time>
      </trkpt>
      <trkpt lat="47.28049" lon="-2.40624">
        <ele>-35.400001525879</ele>
        <time>2020-01-26T10:48:52.000Z</time>
      </trkpt>
      <trkpt lat="47.28049" lon="-2.40608">
        <ele>-35.400001525879</ele>
        <time>2020-01-26T10:48:54.000Z</time>
      </trkpt>
      <trkpt lat="47.28057" lon="-2.40566">
        <ele>-35.400001525879</ele>
        <time>2020-01-26T10:48:59.000Z</time>
      </trkpt>
      <trkpt lat="47.28069" lon="-2.40504">
        <ele>-35.400001525879</ele>
        <time>2020-01-26T10:49:06.000Z</time>
      </trkpt>
      <trkpt lat="47.28074" lon="-2.40486">
        <ele>-35.400001525879</ele>
        <time>2020-01-26T10:49:08.000Z</time>
      </trkpt>
      <trkpt lat="47.28086" lon="-2.40464">
        <ele>-35.400001525879</ele>
        <time>2020-01-26T10:49:11.000Z</time>
      </trkpt>
      <trkpt lat="47.28091" lon="-2.40456">
        <ele>-35.400001525879</ele>
        <time>2020-01-26T10:49:12.000Z</time>
      </trkpt>
      <trkpt lat="47.28107" lon="-2.40427">
        <ele>-35.400001525879</ele>
        <time>2020-01-26T10:49:16.000Z</time>
      </trkpt>
      <trkpt lat="47.28112" lon="-2.40409">
        <ele>-35.400001525879</ele>
        <time>2020-01-26T10:49:18.000Z</time>
      </trkpt>
      <trkpt lat="47.28115" lon="-2.4039">
        <ele>-35.400001525879</ele>
        <time>2020-01-26T10:49:20.000Z</time>
      </trkpt>
      <trkpt lat="47.28118" lon="-2.40361">
        <ele>-35.400001525879</ele>
        <time>2020-01-26T10:49:23.000Z</time>
      </trkpt>
      <trkpt lat="47.28126" lon="-2.40292">
        <ele>-35.400001525879</ele>
        <time>2020-01-26T10:49:30.000Z</time>
      </trkpt>
      <trkpt lat="47.28136" lon="-2.40213">
        <ele>-35.400001525879</ele>
        <time>2020-01-26T10:49:38.000Z</time>
      </trkpt>
      <trkpt lat="47.28144" lon="-2.4013">
        <ele>-35.400001525879</ele>
        <time>2020-01-26T10:49:46.000Z</time>
      </trkpt>
      <trkpt lat="47.2815" lon="-2.40053">
        <ele>-35.400001525879</ele>
        <time>2020-01-26T10:49:54.000Z</time>
      </trkpt>
      <trkpt lat="47.28152" lon="-2.40037">
        <ele>-35.400001525879</ele>
        <time>2020-01-26T10:49:56.000Z</time>
      </trkpt>
      <trkpt lat="47.28155" lon="-2.40013">
        <ele>-35.400001525879</ele>
        <time>2020-01-26T10:49:59.000Z</time>
      </trkpt>
      <trkpt lat="47.28158" lon="-2.39982">
        <ele>-35.400001525879</ele>
        <time>2020-01-26T10:50:03.000Z</time>
      </trkpt>
      <trkpt lat="47.28159" lon="-2.39974">
        <ele>-35.400001525879</ele>
        <time>2020-01-26T10:50:04.000Z</time>
      </trkpt>
      <trkpt lat="47.28159" lon="-2.39942">
        <ele>-35.400001525879</ele>
        <time>2020-01-26T10:50:08.000Z</time>
      </trkpt>
      <trkpt lat="47.28163" lon="-2.39872">
        <ele>-35.400001525879</ele>
        <time>2020-01-26T10:50:16.000Z</time>
      </trkpt>
      <trkpt lat="47.28166" lon="-2.39811">
        <ele>-35.400001525879</ele>
        <time>2020-01-26T10:50:23.000Z</time>
      </trkpt>
      <trkpt lat="47.28167" lon="-2.39802">
        <ele>-35.400001525879</ele>
        <time>2020-01-26T10:50:24.000Z</time>
      </trkpt>
      <trkpt lat="47.2817" lon="-2.39749">
        <ele>-35.400001525879</ele>
        <time>2020-01-26T10:50:30.000Z</time>
      </trkpt>
      <trkpt lat="47.28173" lon="-2.39685">
        <ele>-35.400001525879</ele>
        <time>2020-01-26T10:50:37.000Z</time>
      </trkpt>
      <trkpt lat="47.28175" lon="-2.39622">
        <ele>-35.400001525879</ele>
        <time>2020-01-26T10:50:44.000Z</time>
      </trkpt>
      <trkpt lat="47.28177" lon="-2.39567">
        <ele>-35.400001525879</ele>
        <time>2020-01-26T10:50:50.000Z</time>
      </trkpt>
      <trkpt lat="47.28177" lon="-2.39557">
        <ele>-35</ele>
        <time>2020-01-26T10:50:51.000Z</time>
      </trkpt>
      <trkpt lat="47.28177" lon="-2.39548">
        <ele>-34.599998474121</ele>
        <time>2020-01-26T10:50:52.000Z</time>
      </trkpt>
      <trkpt lat="47.28177" lon="-2.3954">
        <ele>-34.200000762939</ele>
        <time>2020-01-26T10:50:53.000Z</time>
      </trkpt>
      <trkpt lat="47.28177" lon="-2.39531">
        <ele>-33.799999237061</ele>
        <time>2020-01-26T10:50:54.000Z</time>
      </trkpt>
      <trkpt lat="47.28177" lon="-2.39522">
        <ele>-33.400001525879</ele>
        <time>2020-01-26T10:50:55.000Z</time>
      </trkpt>
      <trkpt lat="47.28177" lon="-2.39495">
        <ele>-33.400001525879</ele>
        <time>2020-01-26T10:50:58.000Z</time>
      </trkpt>
      <trkpt lat="47.28178" lon="-2.39423">
        <ele>-33.400001525879</ele>
        <time>2020-01-26T10:51:06.000Z</time>
      </trkpt>
      <trkpt lat="47.28177" lon="-2.3936">
        <ele>-33.400001525879</ele>
        <time>2020-01-26T10:51:13.000Z</time>
      </trkpt>
      <trkpt lat="47.28176" lon="-2.39308">
        <ele>-33.400001525879</ele>
        <time>2020-01-26T10:51:19.000Z</time>
      </trkpt>
      <trkpt lat="47.28174" lon="-2.39245">
        <ele>-33.400001525879</ele>
        <time>2020-01-26T10:51:26.000Z</time>
      </trkpt>
      <trkpt lat="47.28171" lon="-2.39177">
        <ele>-33.400001525879</ele>
        <time>2020-01-26T10:51:33.000Z</time>
      </trkpt>
      <trkpt lat="47.28167" lon="-2.39094">
        <ele>-33.400001525879</ele>
        <time>2020-01-26T10:51:41.000Z</time>
      </trkpt>
      <trkpt lat="47.28166" lon="-2.39084">
        <ele>-33.400001525879</ele>
        <time>2020-01-26T10:51:42.000Z</time>
      </trkpt>
      <trkpt lat="47.28164" lon="-2.39062">
        <ele>-33</ele>
        <time>2020-01-26T10:51:44.000Z</time>
      </trkpt>
      <trkpt lat="47.28163" lon="-2.39052">
        <ele>-32.599998474121</ele>
        <time>2020-01-26T10:51:45.000Z</time>
      </trkpt>
      <trkpt lat="47.28162" lon="-2.39041">
        <ele>-32.200000762939</ele>
        <time>2020-01-26T10:51:46.000Z</time>
      </trkpt>
      <trkpt lat="47.28161" lon="-2.39031">
        <ele>-31.799999237061</ele>
        <time>2020-01-26T10:51:47.000Z</time>
      </trkpt>
      <trkpt lat="47.2816" lon="-2.39021">
        <ele>-31.39999961853</ele>
        <time>2020-01-26T10:51:48.000Z</time>
      </trkpt>
      <trkpt lat="47.28158" lon="-2.39">
        <ele>-31.39999961853</ele>
        <time>2020-01-26T10:51:50.000Z</time>
      </trkpt>
      <trkpt lat="47.28152" lon="-2.38957">
        <ele>-31.39999961853</ele>
        <time>2020-01-26T10:51:54.000Z</time>
      </trkpt>
      <trkpt lat="47.28147" lon="-2.38937">
        <ele>-31.39999961853</ele>
        <time>2020-01-26T10:51:56.000Z</time>
      </trkpt>
      <trkpt lat="47.28135" lon="-2.38886">
        <ele>-31.39999961853</ele>
        <time>2020-01-26T10:52:01.000Z</time>
      </trkpt>
      <trkpt lat="47.28133" lon="-2.38865">
        <ele>-31.39999961853</ele>
        <time>2020-01-26T10:52:03.000Z</time>
      </trkpt>
      <trkpt lat="47.28127" lon="-2.38801">
        <ele>-31.39999961853</ele>
        <time>2020-01-26T10:52:09.000Z</time>
      </trkpt>
      <trkpt lat="47.2812" lon="-2.38719">
        <ele>-31.39999961853</ele>
        <time>2020-01-26T10:52:17.000Z</time>
      </trkpt>
      <trkpt lat="47.28116" lon="-2.38677">
        <ele>-31.799999237061</ele>
        <time>2020-01-26T10:52:22.000Z</time>
      </trkpt>
      <trkpt lat="47.28115" lon="-2.3867">
        <ele>-32.200000762939</ele>
        <time>2020-01-26T10:52:23.000Z</time>
      </trkpt>
      <trkpt lat="47.28115" lon="-2.38663">
        <ele>-32.599998474121</ele>
        <time>2020-01-26T10:52:24.000Z</time>
      </trkpt>
      <trkpt lat="47.28114" lon="-2.38656">
        <ele>-33</ele>
        <time>2020-01-26T10:52:25.000Z</time>
      </trkpt>
      <trkpt lat="47.28114" lon="-2.3865">
        <ele>-33.400001525879</ele>
        <time>2020-01-26T10:52:26.000Z</time>
      </trkpt>
      <trkpt lat="47.28112" lon="-2.38635">
        <ele>-33.400001525879</ele>
        <time>2020-01-26T10:52:29.000Z</time>
      </trkpt>
      <trkpt lat="47.28111" lon="-2.38625">
        <ele>-33.400001525879</ele>
        <time>2020-01-26T10:52:33.000Z</time>
      </trkpt>
      <trkpt lat="47.28109" lon="-2.3861">
        <ele>-33.400001525879</ele>
        <time>2020-01-26T10:52:37.000Z</time>
      </trkpt>
      <trkpt lat="47.28107" lon="-2.38589">
        <ele>-33.400001525879</ele>
        <time>2020-01-26T10:52:40.000Z</time>
      </trkpt>
      <trkpt lat="47.28106" lon="-2.38582">
        <ele>-33.400001525879</ele>
        <time>2020-01-26T10:52:41.000Z</time>
      </trkpt>
      <trkpt lat="47.28099" lon="-2.38519">
        <ele>-33.400001525879</ele>
        <time>2020-01-26T10:52:49.000Z</time>
      </trkpt>
      <trkpt lat="47.28097" lon="-2.38511">
        <ele>-33.400001525879</ele>
        <time>2020-01-26T10:52:50.000Z</time>
      </trkpt>
      <trkpt lat="47.2809" lon="-2.38465">
        <ele>-33.400001525879</ele>
        <time>2020-01-26T10:52:55.000Z</time>
      </trkpt>
      <trkpt lat="47.28076" lon="-2.38389">
        <ele>-33.400001525879</ele>
        <time>2020-01-26T10:53:03.000Z</time>
      </trkpt>
      <trkpt lat="47.28063" lon="-2.38322">
        <ele>-33.400001525879</ele>
        <time>2020-01-26T10:53:10.000Z</time>
      </trkpt>
      <trkpt lat="47.2805" lon="-2.38255">
        <ele>-33.400001525879</ele>
        <time>2020-01-26T10:53:17.000Z</time>
      </trkpt>
      <trkpt lat="47.28035" lon="-2.38177">
        <ele>-33.400001525879</ele>
        <time>2020-01-26T10:53:25.000Z</time>
      </trkpt>
      <trkpt lat="47.2802" lon="-2.38097">
        <ele>-33.400001525879</ele>
        <time>2020-01-26T10:53:33.000Z</time>
      </trkpt>
      <trkpt lat="47.28006" lon="-2.3802">
        <ele>-33.400001525879</ele>
        <time>2020-01-26T10:53:41.000Z</time>
      </trkpt>
      <trkpt lat="47.27991" lon="-2.37942">
        <ele>-33.400001525879</ele>
        <time>2020-01-26T10:53:49.000Z</time>
      </trkpt>
      <trkpt lat="47.27975" lon="-2.37861">
        <ele>-33.400001525879</ele>
        <time>2020-01-26T10:53:57.000Z</time>
      </trkpt>
      <trkpt lat="47.27974" lon="-2.37851">
        <ele>-33.400001525879</ele>
        <time>2020-01-26T10:53:58.000Z</time>
      </trkpt>
      <trkpt lat="47.2797" lon="-2.37822">
        <ele>-33.400001525879</ele>
        <time>2020-01-26T10:54:01.000Z</time>
      </trkpt>
      <trkpt lat="47.27965" lon="-2.37803">
        <ele>-33.400001525879</ele>
        <time>2020-01-26T10:54:03.000Z</time>
      </trkpt>
      <trkpt lat="47.27963" lon="-2.37781">
        <ele>-33.400001525879</ele>
        <time>2020-01-26T10:54:05.000Z</time>
      </trkpt>
      <trkpt lat="47.2796" lon="-2.37772">
        <ele>-33.400001525879</ele>
        <time>2020-01-26T10:54:06.000Z</time>
      </trkpt>
      <trkpt lat="47.27957" lon="-2.37763">
        <ele>-33.400001525879</ele>
        <time>2020-01-26T10:54:07.000Z</time>
      </trkpt>
      <trkpt lat="47.27945" lon="-2.37712">
        <ele>-33</ele>
        <time>2020-01-26T10:54:12.000Z</time>
      </trkpt>
      <trkpt lat="47.27943" lon="-2.37702">
        <ele>-32.599998474121</ele>
        <time>2020-01-26T10:54:13.000Z</time>
      </trkpt>
      <trkpt lat="47.2794" lon="-2.37692">
        <ele>-32.200000762939</ele>
        <time>2020-01-26T10:54:14.000Z</time>
      </trkpt>
      <trkpt lat="47.27937" lon="-2.37681">
        <ele>-31.799999237061</ele>
        <time>2020-01-26T10:54:15.000Z</time>
      </trkpt>
      <trkpt lat="47.27935" lon="-2.3767">
        <ele>-31.39999961853</ele>
        <time>2020-01-26T10:54:16.000Z</time>
      </trkpt>
      <trkpt lat="47.27925" lon="-2.3763">
        <ele>-31.39999961853</ele>
        <time>2020-01-26T10:54:20.000Z</time>
      </trkpt>
      <trkpt lat="47.27911" lon="-2.37569">
        <ele>-31.39999961853</ele>
        <time>2020-01-26T10:54:26.000Z</time>
      </trkpt>
      <trkpt lat="47.27891" lon="-2.37485">
        <ele>-31.39999961853</ele>
        <time>2020-01-26T10:54:34.000Z</time>
      </trkpt>
      <trkpt lat="47.27871" lon="-2.374">
        <ele>-31.39999961853</ele>
        <time>2020-01-26T10:54:42.000Z</time>
      </trkpt>
      <trkpt lat="47.27851" lon="-2.37328">
        <ele>-31.39999961853</ele>
        <time>2020-01-26T10:54:49.000Z</time>
      </trkpt>
      <trkpt lat="47.27832" lon="-2.37256">
        <ele>-31.39999961853</ele>
        <time>2020-01-26T10:54:56.000Z</time>
      </trkpt>
      <trkpt lat="47.27818" lon="-2.37195">
        <ele>-31.39999961853</ele>
        <time>2020-01-26T10:55:02.000Z</time>
      </trkpt>
      <trkpt lat="47.27808" lon="-2.37156">
        <ele>-31.39999961853</ele>
        <time>2020-01-26T10:55:06.000Z</time>
      </trkpt>
      <trkpt lat="47.27805" lon="-2.37147">
        <ele>-31.39999961853</ele>
        <time>2020-01-26T10:55:07.000Z</time>
      </trkpt>
      <trkpt lat="47.27799" lon="-2.37127">
        <ele>-31.39999961853</ele>
        <time>2020-01-26T10:55:09.000Z</time>
      </trkpt>
      <trkpt lat="47.27788" lon="-2.37089">
        <ele>-31.39999961853</ele>
        <time>2020-01-26T10:55:13.000Z</time>
      </trkpt>
      <trkpt lat="47.27767" lon="-2.37012">
        <ele>-31.39999961853</ele>
        <time>2020-01-26T10:55:21.000Z</time>
      </trkpt>
      <trkpt lat="47.27745" lon="-2.36936">
        <ele>-31.39999961853</ele>
        <time>2020-01-26T10:55:29.000Z</time>
      </trkpt>
      <trkpt lat="47.27742" lon="-2.36927">
        <ele>-31.39999961853</ele>
        <time>2020-01-26T10:55:30.000Z</time>
      </trkpt>
      <trkpt lat="47.27721" lon="-2.3685">
        <ele>-31.39999961853</ele>
        <time>2020-01-26T10:55:38.000Z</time>
      </trkpt>
      <trkpt lat="47.27702" lon="-2.36786">
        <ele>-31.39999961853</ele>
        <time>2020-01-26T10:55:45.000Z</time>
      </trkpt>
      <trkpt lat="47.27683" lon="-2.36731">
        <ele>-31.39999961853</ele>
        <time>2020-01-26T10:55:51.000Z</time>
      </trkpt>
      <trkpt lat="47.27656" lon="-2.36654">
        <ele>-31.39999961853</ele>
        <time>2020-01-26T10:55:59.000Z</time>
      </trkpt>
      <trkpt lat="47.27631" lon="-2.36581">
        <ele>-31.39999961853</ele>
        <time>2020-01-26T10:56:07.000Z</time>
      </trkpt>
      <trkpt lat="47.27607" lon="-2.36509">
        <ele>-31.39999961853</ele>
        <time>2020-01-26T10:56:15.000Z</time>
      </trkpt>
      <trkpt lat="47.27583" lon="-2.36449">
        <ele>-31.39999961853</ele>
        <time>2020-01-26T10:56:22.000Z</time>
      </trkpt>
      <trkpt lat="47.2756" lon="-2.36387">
        <ele>-31.39999961853</ele>
        <time>2020-01-26T10:56:29.000Z</time>
      </trkpt>
      <trkpt lat="47.27535" lon="-2.3632">
        <ele>-31.39999961853</ele>
        <time>2020-01-26T10:56:37.000Z</time>
      </trkpt>
      <trkpt lat="47.27511" lon="-2.36259">
        <ele>-31.39999961853</ele>
        <time>2020-01-26T10:56:44.000Z</time>
      </trkpt>
      <trkpt lat="47.27484" lon="-2.36189">
        <ele>-31.39999961853</ele>
        <time>2020-01-26T10:56:52.000Z</time>
      </trkpt>
      <trkpt lat="47.27464" lon="-2.36137">
        <ele>-31.39999961853</ele>
        <time>2020-01-26T10:56:58.000Z</time>
      </trkpt>
      <trkpt lat="47.27453" lon="-2.36102">
        <ele>-31.39999961853</ele>
        <time>2020-01-26T10:57:02.000Z</time>
      </trkpt>
      <trkpt lat="47.27449" lon="-2.36094">
        <ele>-31.39999961853</ele>
        <time>2020-01-26T10:57:03.000Z</time>
      </trkpt>
      <trkpt lat="47.27438" lon="-2.36061">
        <ele>-31.39999961853</ele>
        <time>2020-01-26T10:57:07.000Z</time>
      </trkpt>
      <trkpt lat="47.27431" lon="-2.36045">
        <ele>-31.39999961853</ele>
        <time>2020-01-26T10:57:09.000Z</time>
      </trkpt>
      <trkpt lat="47.27421" lon="-2.36021">
        <ele>-31.39999961853</ele>
        <time>2020-01-26T10:57:12.000Z</time>
      </trkpt>
      <trkpt lat="47.27393" lon="-2.35954">
        <ele>-31.39999961853</ele>
        <time>2020-01-26T10:57:20.000Z</time>
      </trkpt>
      <trkpt lat="47.27368" lon="-2.35892">
        <ele>-31.39999961853</ele>
        <time>2020-01-26T10:57:27.000Z</time>
      </trkpt>
      <trkpt lat="47.2734" lon="-2.35818">
        <ele>-31.799999237061</ele>
        <time>2020-01-26T10:57:35.000Z</time>
      </trkpt>
      <trkpt lat="47.27336" lon="-2.35809">
        <ele>-32.400001525879</ele>
        <time>2020-01-26T10:57:36.000Z</time>
      </trkpt>
      <trkpt lat="47.27332" lon="-2.358">
        <ele>-32.799999237061</ele>
        <time>2020-01-26T10:57:37.000Z</time>
      </trkpt>
      <trkpt lat="47.27329" lon="-2.35791">
        <ele>-33.200000762939</ele>
        <time>2020-01-26T10:57:38.000Z</time>
      </trkpt>
      <trkpt lat="47.27326" lon="-2.35782">
        <ele>-33.599998474121</ele>
        <time>2020-01-26T10:57:39.000Z</time>
      </trkpt>
      <trkpt lat="47.27316" lon="-2.35754">
        <ele>-33.599998474121</ele>
        <time>2020-01-26T10:57:42.000Z</time>
      </trkpt>
      <trkpt lat="47.27311" lon="-2.35747">
        <ele>-33.599998474121</ele>
        <time>2020-01-26T10:57:43.000Z</time>
      </trkpt>
      <trkpt lat="47.27298" lon="-2.35712">
        <ele>-33.599998474121</ele>
        <time>2020-01-26T10:57:47.000Z</time>
      </trkpt>
      <trkpt lat="47.27291" lon="-2.35696">
        <ele>-33.599998474121</ele>
        <time>2020-01-26T10:57:49.000Z</time>
      </trkpt>
      <trkpt lat="47.27282" lon="-2.35682">
        <ele>-33.599998474121</ele>
        <time>2020-01-26T10:57:51.000Z</time>
      </trkpt>
      <trkpt lat="47.27279" lon="-2.35673">
        <ele>-33.599998474121</ele>
        <time>2020-01-26T10:57:52.000Z</time>
      </trkpt>
      <trkpt lat="47.2726" lon="-2.35632">
        <ele>-33.599998474121</ele>
        <time>2020-01-26T10:57:57.000Z</time>
      </trkpt>
      <trkpt lat="47.2723" lon="-2.35566">
        <ele>-33.599998474121</ele>
        <time>2020-01-26T10:58:05.000Z</time>
      </trkpt>
      <trkpt lat="47.27206" lon="-2.35511">
        <ele>-33.599998474121</ele>
        <time>2020-01-26T10:58:12.000Z</time>
      </trkpt>
      <trkpt lat="47.27174" lon="-2.35449">
        <ele>-33.599998474121</ele>
        <time>2020-01-26T10:58:20.000Z</time>
      </trkpt>
      <trkpt lat="47.27142" lon="-2.35386">
        <ele>-33.599998474121</ele>
        <time>2020-01-26T10:58:28.000Z</time>
      </trkpt>
      <trkpt lat="47.2712" lon="-2.35348">
        <ele>-33.200000762939</ele>
        <time>2020-01-26T10:58:33.000Z</time>
      </trkpt>
      <trkpt lat="47.27116" lon="-2.35341">
        <ele>-32.799999237061</ele>
        <time>2020-01-26T10:58:34.000Z</time>
      </trkpt>
      <trkpt lat="47.27112" lon="-2.35334">
        <ele>-32.400001525879</ele>
        <time>2020-01-26T10:58:35.000Z</time>
      </trkpt>
      <trkpt lat="47.27107" lon="-2.35327">
        <ele>-31.799999237061</ele>
        <time>2020-01-26T10:58:36.000Z</time>
      </trkpt>
      <trkpt lat="47.27103" lon="-2.3532">
        <ele>-31.39999961853</ele>
        <time>2020-01-26T10:58:37.000Z</time>
      </trkpt>
      <trkpt lat="47.27094" lon="-2.35306">
        <ele>-32</ele>
        <time>2020-01-26T10:58:39.000Z</time>
      </trkpt>
      <trkpt lat="47.27089" lon="-2.35299">
        <ele>-32.400001525879</ele>
        <time>2020-01-26T10:58:40.000Z</time>
      </trkpt>
      <trkpt lat="47.27085" lon="-2.35292">
        <ele>-32.799999237061</ele>
        <time>2020-01-26T10:58:41.000Z</time>
      </trkpt>
      <trkpt lat="47.2708" lon="-2.35284">
        <ele>-33.400001525879</ele>
        <time>2020-01-26T10:58:42.000Z</time>
      </trkpt>
      <trkpt lat="47.27076" lon="-2.35278">
        <ele>-33.799999237061</ele>
        <time>2020-01-26T10:58:43.000Z</time>
      </trkpt>
      <trkpt lat="47.27039" lon="-2.35221">
        <ele>-33.799999237061</ele>
        <time>2020-01-26T10:58:51.000Z</time>
      </trkpt>
      <trkpt lat="47.27001" lon="-2.35163">
        <ele>-33.799999237061</ele>
        <time>2020-01-26T10:58:59.000Z</time>
      </trkpt>
      <trkpt lat="47.26962" lon="-2.35103">
        <ele>-33.799999237061</ele>
        <time>2020-01-26T10:59:07.000Z</time>
      </trkpt>
      <trkpt lat="47.26929" lon="-2.35051">
        <ele>-33.799999237061</ele>
        <time>2020-01-26T10:59:14.000Z</time>
      </trkpt>
      <trkpt lat="47.26898" lon="-2.35006">
        <ele>-33.799999237061</ele>
        <time>2020-01-26T10:59:20.000Z</time>
      </trkpt>
      <trkpt lat="47.26875" lon="-2.3497">
        <ele>-33.799999237061</ele>
        <time>2020-01-26T10:59:25.000Z</time>
      </trkpt>
      <trkpt lat="47.26837" lon="-2.34912">
        <ele>-33.799999237061</ele>
        <time>2020-01-26T10:59:33.000Z</time>
      </trkpt>
      <trkpt lat="47.26809" lon="-2.34874">
        <ele>-33.799999237061</ele>
        <time>2020-01-26T10:59:39.000Z</time>
      </trkpt>
      <trkpt lat="47.2678" lon="-2.3483">
        <ele>-33.799999237061</ele>
        <time>2020-01-26T10:59:46.000Z</time>
      </trkpt>
      <trkpt lat="47.26771" lon="-2.34819">
        <ele>-33.799999237061</ele>
        <time>2020-01-26T10:59:48.000Z</time>
      </trkpt>
      <trkpt lat="47.26755" lon="-2.34799">
        <ele>-33.799999237061</ele>
        <time>2020-01-26T10:59:52.000Z</time>
      </trkpt>
      <trkpt lat="47.26743" lon="-2.34784">
        <ele>-33.799999237061</ele>
        <time>2020-01-26T10:59:55.000Z</time>
      </trkpt>
      <trkpt lat="47.26735" lon="-2.34773">
        <ele>-33.799999237061</ele>
        <time>2020-01-26T10:59:57.000Z</time>
      </trkpt>
      <trkpt lat="47.26708" lon="-2.34739">
        <ele>-33.799999237061</ele>
        <time>2020-01-26T11:00:04.000Z</time>
      </trkpt>
      <trkpt lat="47.26681" lon="-2.34706">
        <ele>-33.799999237061</ele>
        <time>2020-01-26T11:00:11.000Z</time>
      </trkpt>
      <trkpt lat="47.26646" lon="-2.34664">
        <ele>-33.799999237061</ele>
        <time>2020-01-26T11:00:19.000Z</time>
      </trkpt>
      <trkpt lat="47.26616" lon="-2.34626">
        <ele>-33.799999237061</ele>
        <time>2020-01-26T11:00:26.000Z</time>
      </trkpt>
      <trkpt lat="47.2659" lon="-2.34593">
        <ele>-33.799999237061</ele>
        <time>2020-01-26T11:00:32.000Z</time>
      </trkpt>
      <trkpt lat="47.26586" lon="-2.34589">
        <ele>-33.799999237061</ele>
        <time>2020-01-26T11:00:33.000Z</time>
      </trkpt>
      <trkpt lat="47.26562" lon="-2.34564">
        <ele>-33.799999237061</ele>
        <time>2020-01-26T11:00:38.000Z</time>
      </trkpt>
      <trkpt lat="47.26528" lon="-2.34531">
        <ele>-33.799999237061</ele>
        <time>2020-01-26T11:00:45.000Z</time>
      </trkpt>
      <trkpt lat="47.26513" lon="-2.34518">
        <ele>-33.799999237061</ele>
        <time>2020-01-26T11:00:48.000Z</time>
      </trkpt>
      <trkpt lat="47.26502" lon="-2.3451">
        <ele>-33.799999237061</ele>
        <time>2020-01-26T11:00:50.000Z</time>
      </trkpt>
      <trkpt lat="47.26455" lon="-2.34477">
        <ele>-33.799999237061</ele>
        <time>2020-01-26T11:00:59.000Z</time>
      </trkpt>
      <trkpt lat="47.26419" lon="-2.3445">
        <ele>-33.799999237061</ele>
        <time>2020-01-26T11:01:06.000Z</time>
      </trkpt>
      <trkpt lat="47.26379" lon="-2.34418">
        <ele>-33.799999237061</ele>
        <time>2020-01-26T11:01:14.000Z</time>
      </trkpt>
      <trkpt lat="47.26335" lon="-2.3438">
        <ele>-33.799999237061</ele>
        <time>2020-01-26T11:01:23.000Z</time>
      </trkpt>
      <trkpt lat="47.26329" lon="-2.3438">
        <ele>-33.799999237061</ele>
        <time>2020-01-26T11:01:24.000Z</time>
      </trkpt>
      <trkpt lat="47.26319" lon="-2.34375">
        <ele>-33.799999237061</ele>
        <time>2020-01-26T11:01:26.000Z</time>
      </trkpt>
      <trkpt lat="47.26314" lon="-2.34361">
        <ele>-33.799999237061</ele>
        <time>2020-01-26T11:01:28.000Z</time>
      </trkpt>
      <trkpt lat="47.26297" lon="-2.34342">
        <ele>-33.799999237061</ele>
        <time>2020-01-26T11:01:32.000Z</time>
      </trkpt>
      <trkpt lat="47.2627" lon="-2.34314">
        <ele>-33.799999237061</ele>
        <time>2020-01-26T11:01:38.000Z</time>
      </trkpt>
      <trkpt lat="47.2623" lon="-2.34272">
        <ele>-33.799999237061</ele>
        <time>2020-01-26T11:01:46.000Z</time>
      </trkpt>
      <trkpt lat="47.26196" lon="-2.34236">
        <ele>-33.799999237061</ele>
        <time>2020-01-26T11:01:53.000Z</time>
      </trkpt>
      <trkpt lat="47.26163" lon="-2.34202">
        <ele>-33.799999237061</ele>
        <time>2020-01-26T11:02:00.000Z</time>
      </trkpt>
      <trkpt lat="47.26144" lon="-2.34185">
        <ele>-33.799999237061</ele>
        <time>2020-01-26T11:02:04.000Z</time>
      </trkpt>
      <trkpt lat="47.26134" lon="-2.34182">
        <ele>-33.799999237061</ele>
        <time>2020-01-26T11:02:06.000Z</time>
      </trkpt>
      <trkpt lat="47.26121" lon="-2.34168">
        <ele>-33.799999237061</ele>
        <time>2020-01-26T11:02:09.000Z</time>
      </trkpt>
      <trkpt lat="47.26117" lon="-2.34164">
        <ele>-33.799999237061</ele>
        <time>2020-01-26T11:02:10.000Z</time>
      </trkpt>
      <trkpt lat="47.26111" lon="-2.34161">
        <ele>-33.799999237061</ele>
        <time>2020-01-26T11:02:11.000Z</time>
      </trkpt>
      <trkpt lat="47.26096" lon="-2.34152">
        <ele>-33.799999237061</ele>
        <time>2020-01-26T11:02:14.000Z</time>
      </trkpt>
      <trkpt lat="47.26053" lon="-2.34131">
        <ele>-34.200000762939</ele>
        <time>2020-01-26T11:02:22.000Z</time>
      </trkpt>
      <trkpt lat="47.26048" lon="-2.34128">
        <ele>-34.799999237061</ele>
        <time>2020-01-26T11:02:23.000Z</time>
      </trkpt>
      <trkpt lat="47.26043" lon="-2.34126">
        <ele>-35.200000762939</ele>
        <time>2020-01-26T11:02:24.000Z</time>
      </trkpt>
      <trkpt lat="47.26038" lon="-2.34123">
        <ele>-35.599998474121</ele>
        <time>2020-01-26T11:02:25.000Z</time>
      </trkpt>
      <trkpt lat="47.26033" lon="-2.34121">
        <ele>-36</ele>
        <time>2020-01-26T11:02:26.000Z</time>
      </trkpt>
      <trkpt lat="47.26013" lon="-2.34111">
        <ele>-36</ele>
        <time>2020-01-26T11:02:30.000Z</time>
      </trkpt>
      <trkpt lat="47.25984" lon="-2.34097">
        <ele>-36</ele>
        <time>2020-01-26T11:02:36.000Z</time>
      </trkpt>
      <trkpt lat="47.25975" lon="-2.34093">
        <ele>-36</ele>
        <time>2020-01-26T11:02:38.000Z</time>
      </trkpt>
      <trkpt lat="47.25961" lon="-2.34087">
        <ele>-36</ele>
        <time>2020-01-26T11:02:41.000Z</time>
      </trkpt>
      <trkpt lat="47.25956" lon="-2.34084">
        <ele>-36</ele>
        <time>2020-01-26T11:02:42.000Z</time>
      </trkpt>
      <trkpt lat="47.2593" lon="-2.34075">
        <ele>-36</ele>
        <time>2020-01-26T11:02:47.000Z</time>
      </trkpt>
      <trkpt lat="47.2591" lon="-2.34079">
        <ele>-36</ele>
        <time>2020-01-26T11:02:51.000Z</time>
      </trkpt>
      <trkpt lat="47.25905" lon="-2.34085">
        <ele>-36</ele>
        <time>2020-01-26T11:02:52.000Z</time>
      </trkpt>
      <trkpt lat="47.25899" lon="-2.34099">
        <ele>-36</ele>
        <time>2020-01-26T11:02:54.000Z</time>
      </trkpt>
      <trkpt lat="47.25893" lon="-2.34113">
        <ele>-36</ele>
        <time>2020-01-26T11:02:56.000Z</time>
      </trkpt>
      <trkpt lat="47.25883" lon="-2.34142">
        <ele>-36</ele>
        <time>2020-01-26T11:03:00.000Z</time>
      </trkpt>
      <trkpt lat="47.25881" lon="-2.34148">
        <ele>-36</ele>
        <time>2020-01-26T11:03:01.000Z</time>
      </trkpt>
      <trkpt lat="47.25875" lon="-2.34161">
        <ele>-36</ele>
        <time>2020-01-26T11:03:04.000Z</time>
      </trkpt>
      <trkpt lat="47.25873" lon="-2.34164">
        <ele>-36</ele>
        <time>2020-01-26T11:03:06.000Z</time>
      </trkpt>
      <trkpt lat="47.2587" lon="-2.34164">
        <ele>-36</ele>
        <time>2020-01-26T11:03:08.000Z</time>
      </trkpt>
      <trkpt lat="47.25867" lon="-2.34162">
        <ele>-36</ele>
        <time>2020-01-26T11:03:09.000Z</time>
      </trkpt>
      <trkpt lat="47.25859" lon="-2.34158">
        <ele>-36</ele>
        <time>2020-01-26T11:03:13.000Z</time>
      </trkpt>
      <trkpt lat="47.25843" lon="-2.34154">
        <ele>-36</ele>
        <time>2020-01-26T11:03:19.000Z</time>
      </trkpt>
      <trkpt lat="47.25838" lon="-2.34155">
        <ele>-36</ele>
        <time>2020-01-26T11:03:21.000Z</time>
      </trkpt>
      <trkpt lat="47.25837" lon="-2.34159">
        <ele>-36</ele>
        <time>2020-01-26T11:03:22.000Z</time>
      </trkpt>
      <trkpt lat="47.25833" lon="-2.34172">
        <ele>-36</ele>
        <time>2020-01-26T11:03:25.000Z</time>
      </trkpt>
      <trkpt lat="47.25825" lon="-2.34178">
        <ele>-36</ele>
        <time>2020-01-26T11:03:28.000Z</time>
      </trkpt>
      <trkpt lat="47.25822" lon="-2.34178">
        <ele>-36</ele>
        <time>2020-01-26T11:03:29.000Z</time>
      </trkpt>
      <trkpt lat="47.25815" lon="-2.34178">
        <ele>-36</ele>
        <time>2020-01-26T11:03:33.000Z</time>
      </trkpt>
      <trkpt lat="47.25801" lon="-2.34173">
        <ele>-36</ele>
        <time>2020-01-26T11:03:38.000Z</time>
      </trkpt>
      <trkpt lat="47.25784" lon="-2.34172">
        <ele>-36</ele>
        <time>2020-01-26T11:03:43.000Z</time>
      </trkpt>
      <trkpt lat="47.25752" lon="-2.34177">
        <ele>-36</ele>
        <time>2020-01-26T11:03:49.000Z</time>
      </trkpt>
      <trkpt lat="47.25719" lon="-2.34183">
        <ele>-36</ele>
        <time>2020-01-26T11:03:55.000Z</time>
      </trkpt>
      <trkpt lat="47.25695" lon="-2.34188">
        <ele>-35.599998474121</ele>
        <time>2020-01-26T11:04:00.000Z</time>
      </trkpt>
      <trkpt lat="47.25691" lon="-2.34189">
        <ele>-35.200000762939</ele>
        <time>2020-01-26T11:04:01.000Z</time>
      </trkpt>
      <trkpt lat="47.25686" lon="-2.34189">
        <ele>-34.799999237061</ele>
        <time>2020-01-26T11:04:02.000Z</time>
      </trkpt>
      <trkpt lat="47.25682" lon="-2.34189">
        <ele>-34.400001525879</ele>
        <time>2020-01-26T11:04:03.000Z</time>
      </trkpt>
      <trkpt lat="47.25677" lon="-2.34189">
        <ele>-33.799999237061</ele>
        <time>2020-01-26T11:04:04.000Z</time>
      </trkpt>
      <trkpt lat="47.25673" lon="-2.34188">
        <ele>-33.799999237061</ele>
        <time>2020-01-26T11:04:05.000Z</time>
      </trkpt>
      <trkpt lat="47.25669" lon="-2.34185">
        <ele>-33.799999237061</ele>
        <time>2020-01-26T11:04:06.000Z</time>
      </trkpt>
      <trkpt lat="47.25658" lon="-2.34164">
        <ele>-33.799999237061</ele>
        <time>2020-01-26T11:04:10.000Z</time>
      </trkpt>
      <trkpt lat="47.25656" lon="-2.34159">
        <ele>-33.799999237061</ele>
        <time>2020-01-26T11:04:11.000Z</time>
      </trkpt>
      <trkpt lat="47.25646" lon="-2.34138">
        <ele>-33.799999237061</ele>
        <time>2020-01-26T11:04:15.000Z</time>
      </trkpt>
      <trkpt lat="47.25643" lon="-2.34126">
        <ele>-33.799999237061</ele>
        <time>2020-01-26T11:04:17.000Z</time>
      </trkpt>
      <trkpt lat="47.2564" lon="-2.34105">
        <ele>-33.799999237061</ele>
        <time>2020-01-26T11:04:20.000Z</time>
      </trkpt>
      <trkpt lat="47.2564" lon="-2.34085">
        <ele>-33.799999237061</ele>
        <time>2020-01-26T11:04:23.000Z</time>
      </trkpt>
      <trkpt lat="47.25642" lon="-2.34063">
        <ele>-33.799999237061</ele>
        <time>2020-01-26T11:04:26.000Z</time>
      </trkpt>
      <trkpt lat="47.25646" lon="-2.3404">
        <ele>-33.799999237061</ele>
        <time>2020-01-26T11:04:29.000Z</time>
      </trkpt>
      <trkpt lat="47.25657" lon="-2.33987">
        <ele>-33.799999237061</ele>
        <time>2020-01-26T11:04:36.000Z</time>
      </trkpt>
      <trkpt lat="47.25659" lon="-2.33971">
        <ele>-33.799999237061</ele>
        <time>2020-01-26T11:04:38.000Z</time>
      </trkpt>
      <trkpt lat="47.25661" lon="-2.33951">
        <ele>-33.799999237061</ele>
        <time>2020-01-26T11:04:41.000Z</time>
      </trkpt>
      <trkpt lat="47.25657" lon="-2.33916">
        <ele>-33.799999237061</ele>
        <time>2020-01-26T11:04:46.000Z</time>
      </trkpt>
      <trkpt lat="47.2565" lon="-2.33878">
        <ele>-33.799999237061</ele>
        <time>2020-01-26T11:04:51.000Z</time>
      </trkpt>
      <trkpt lat="47.25647" lon="-2.33864">
        <ele>-33.799999237061</ele>
        <time>2020-01-26T11:04:53.000Z</time>
      </trkpt>
      <trkpt lat="47.25645" lon="-2.33856">
        <ele>-33.799999237061</ele>
        <time>2020-01-26T11:04:54.000Z</time>
      </trkpt>
      <trkpt lat="47.25635" lon="-2.33803">
        <ele>-33.799999237061</ele>
        <time>2020-01-26T11:05:01.000Z</time>
      </trkpt>
      <trkpt lat="47.25634" lon="-2.33796">
        <ele>-33.799999237061</ele>
        <time>2020-01-26T11:05:02.000Z</time>
      </trkpt>
      <trkpt lat="47.25627" lon="-2.33777">
        <ele>-33.799999237061</ele>
        <time>2020-01-26T11:05:05.000Z</time>
      </trkpt>
      <trkpt lat="47.25624" lon="-2.33771">
        <ele>-33.799999237061</ele>
        <time>2020-01-26T11:05:06.000Z</time>
      </trkpt>
      <trkpt lat="47.25612" lon="-2.3376">
        <ele>-33.799999237061</ele>
        <time>2020-01-26T11:05:09.000Z</time>
      </trkpt>
      <trkpt lat="47.25598" lon="-2.33755">
        <ele>-33.400001525879</ele>
        <time>2020-01-26T11:05:12.000Z</time>
      </trkpt>
      <trkpt lat="47.25593" lon="-2.33754">
        <ele>-33</ele>
        <time>2020-01-26T11:05:13.000Z</time>
      </trkpt>
      <trkpt lat="47.25587" lon="-2.33754">
        <ele>-32.599998474121</ele>
        <time>2020-01-26T11:05:14.000Z</time>
      </trkpt>
      <trkpt lat="47.25582" lon="-2.33754">
        <ele>-32.200000762939</ele>
        <time>2020-01-26T11:05:15.000Z</time>
      </trkpt>
      <trkpt lat="47.25576" lon="-2.33754">
        <ele>-31.799999237061</ele>
        <time>2020-01-26T11:05:16.000Z</time>
      </trkpt>
      <trkpt lat="47.25553" lon="-2.33755">
        <ele>-31.799999237061</ele>
        <time>2020-01-26T11:05:20.000Z</time>
      </trkpt>
      <trkpt lat="47.25519" lon="-2.33756">
        <ele>-31.799999237061</ele>
        <time>2020-01-26T11:05:26.000Z</time>
      </trkpt>
      <trkpt lat="47.25487" lon="-2.33756">
        <ele>-31.799999237061</ele>
        <time>2020-01-26T11:05:31.000Z</time>
      </trkpt>
      <trkpt lat="47.25476" lon="-2.33756">
        <ele>-31.799999237061</ele>
        <time>2020-01-26T11:05:33.000Z</time>
      </trkpt>
      <trkpt lat="47.25465" lon="-2.33751">
        <ele>-31.799999237061</ele>
        <time>2020-01-26T11:05:35.000Z</time>
      </trkpt>
      <trkpt lat="47.25444" lon="-2.33729">
        <ele>-31.799999237061</ele>
        <time>2020-01-26T11:05:39.000Z</time>
      </trkpt>
      <trkpt lat="47.25436" lon="-2.33715">
        <ele>-31.799999237061</ele>
        <time>2020-01-26T11:05:41.000Z</time>
      </trkpt>
      <trkpt lat="47.25424" lon="-2.33694">
        <ele>-31.799999237061</ele>
        <time>2020-01-26T11:05:44.000Z</time>
      </trkpt>
      <trkpt lat="47.25407" lon="-2.33659">
        <ele>-31.799999237061</ele>
        <time>2020-01-26T11:05:49.000Z</time>
      </trkpt>
      <trkpt lat="47.25403" lon="-2.33644">
        <ele>-31.799999237061</ele>
        <time>2020-01-26T11:05:51.000Z</time>
      </trkpt>
      <trkpt lat="47.25405" lon="-2.33621">
        <ele>-31.799999237061</ele>
        <time>2020-01-26T11:05:54.000Z</time>
      </trkpt>
      <trkpt lat="47.25404" lon="-2.33591">
        <ele>-31.799999237061</ele>
        <time>2020-01-26T11:05:58.000Z</time>
      </trkpt>
      <trkpt lat="47.25403" lon="-2.33582">
        <ele>-31.799999237061</ele>
        <time>2020-01-26T11:05:59.000Z</time>
      </trkpt>
      <trkpt lat="47.25399" lon="-2.33539">
        <ele>-31.799999237061</ele>
        <time>2020-01-26T11:06:04.000Z</time>
      </trkpt>
      <trkpt lat="47.254" lon="-2.3353">
        <ele>-31.799999237061</ele>
        <time>2020-01-26T11:06:05.000Z</time>
      </trkpt>
      <trkpt lat="47.25407" lon="-2.33507">
        <ele>-31.799999237061</ele>
        <time>2020-01-26T11:06:08.000Z</time>
      </trkpt>
      <trkpt lat="47.2541" lon="-2.335">
        <ele>-31.799999237061</ele>
        <time>2020-01-26T11:06:09.000Z</time>
      </trkpt>
      <trkpt lat="47.25423" lon="-2.33473">
        <ele>-31.799999237061</ele>
        <time>2020-01-26T11:06:13.000Z</time>
      </trkpt>
      <trkpt lat="47.25428" lon="-2.33458">
        <ele>-31.799999237061</ele>
        <time>2020-01-26T11:06:15.000Z</time>
      </trkpt>
      <trkpt lat="47.2543" lon="-2.33423">
        <ele>-31.799999237061</ele>
        <time>2020-01-26T11:06:19.000Z</time>
      </trkpt>
      <trkpt lat="47.2543" lon="-2.33371">
        <ele>-31.799999237061</ele>
        <time>2020-01-26T11:06:25.000Z</time>
      </trkpt>
      <trkpt lat="47.25429" lon="-2.33355">
        <ele>-31.799999237061</ele>
        <time>2020-01-26T11:06:27.000Z</time>
      </trkpt>
      <trkpt lat="47.25432" lon="-2.33339">
        <ele>-31.799999237061</ele>
        <time>2020-01-26T11:06:29.000Z</time>
      </trkpt>
      <trkpt lat="47.2544" lon="-2.33318">
        <ele>-31.799999237061</ele>
        <time>2020-01-26T11:06:32.000Z</time>
      </trkpt>
      <trkpt lat="47.25446" lon="-2.33304">
        <ele>-31.799999237061</ele>
        <time>2020-01-26T11:06:34.000Z</time>
      </trkpt>
      <trkpt lat="47.25447" lon="-2.33296">
        <ele>-31.799999237061</ele>
        <time>2020-01-26T11:06:35.000Z</time>
      </trkpt>
      <trkpt lat="47.25447" lon="-2.3328">
        <ele>-31.799999237061</ele>
        <time>2020-01-26T11:06:37.000Z</time>
      </trkpt>
      <trkpt lat="47.25443" lon="-2.33265">
        <ele>-31.799999237061</ele>
        <time>2020-01-26T11:06:39.000Z</time>
      </trkpt>
      <trkpt lat="47.25437" lon="-2.3325">
        <ele>-31.799999237061</ele>
        <time>2020-01-26T11:06:41.000Z</time>
      </trkpt>
      <trkpt lat="47.25413" lon="-2.33201">
        <ele>-31.799999237061</ele>
        <time>2020-01-26T11:06:48.000Z</time>
      </trkpt>
      <trkpt lat="47.25398" lon="-2.33166">
        <ele>-31.799999237061</ele>
        <time>2020-01-26T11:06:53.000Z</time>
      </trkpt>
      <trkpt lat="47.25387" lon="-2.33147">
        <ele>-31.799999237061</ele>
        <time>2020-01-26T11:06:57.000Z</time>
      </trkpt>
      <trkpt lat="47.25383" lon="-2.33143">
        <ele>-31.799999237061</ele>
        <time>2020-01-26T11:06:59.000Z</time>
      </trkpt>
      <trkpt lat="47.2538" lon="-2.33137">
        <ele>-31.799999237061</ele>
        <time>2020-01-26T11:07:01.000Z</time>
      </trkpt>
      <trkpt lat="47.25376" lon="-2.33129">
        <ele>-31.799999237061</ele>
        <time>2020-01-26T11:07:05.000Z</time>
      </trkpt>
      <trkpt lat="47.25375" lon="-2.33122">
        <ele>-32.599998474121</ele>
        <time>2020-01-26T11:18:51.000Z</time>
      </trkpt>
      <trkpt lat="47.25367" lon="-2.33102">
        <ele>-32.599998474121</ele>
        <time>2020-01-26T11:18:56.000Z</time>
      </trkpt>
      <trkpt lat="47.25362" lon="-2.33092">
        <ele>-32.599998474121</ele>
        <time>2020-01-26T11:18:58.000Z</time>
      </trkpt>
      <trkpt lat="47.25353" lon="-2.33068">
        <ele>-32.599998474121</ele>
        <time>2020-01-26T11:19:02.000Z</time>
      </trkpt>
      <trkpt lat="47.25337" lon="-2.3302">
        <ele>-32.599998474121</ele>
        <time>2020-01-26T11:19:10.000Z</time>
      </trkpt>
      <trkpt lat="47.2532" lon="-2.32978">
        <ele>-32.599998474121</ele>
        <time>2020-01-26T11:19:17.000Z</time>
      </trkpt>
      <trkpt lat="47.25313" lon="-2.32961">
        <ele>-32.599998474121</ele>
        <time>2020-01-26T11:19:20.000Z</time>
      </trkpt>
      <trkpt lat="47.25307" lon="-2.32941">
        <ele>-32.599998474121</ele>
        <time>2020-01-26T11:19:23.000Z</time>
      </trkpt>
      <trkpt lat="47.25306" lon="-2.32934">
        <ele>-32.599998474121</ele>
        <time>2020-01-26T11:19:24.000Z</time>
      </trkpt>
      <trkpt lat="47.25309" lon="-2.32921">
        <ele>-32.599998474121</ele>
        <time>2020-01-26T11:19:26.000Z</time>
      </trkpt>
      <trkpt lat="47.25321" lon="-2.32906">
        <ele>-32.599998474121</ele>
        <time>2020-01-26T11:19:29.000Z</time>
      </trkpt>
      <trkpt lat="47.25325" lon="-2.32902">
        <ele>-32.599998474121</ele>
        <time>2020-01-26T11:19:30.000Z</time>
      </trkpt>
      <trkpt lat="47.25351" lon="-2.32877">
        <ele>-32.599998474121</ele>
        <time>2020-01-26T11:19:36.000Z</time>
      </trkpt>
      <trkpt lat="47.2536" lon="-2.32869">
        <ele>-32.200000762939</ele>
        <time>2020-01-26T11:19:38.000Z</time>
      </trkpt>
      <trkpt lat="47.25364" lon="-2.32865">
        <ele>-31.799999237061</ele>
        <time>2020-01-26T11:19:39.000Z</time>
      </trkpt>
      <trkpt lat="47.25369" lon="-2.3286">
        <ele>-31.200000762939</ele>
        <time>2020-01-26T11:19:40.000Z</time>
      </trkpt>
      <trkpt lat="47.25373" lon="-2.32856">
        <ele>-30.799999237061</ele>
        <time>2020-01-26T11:19:41.000Z</time>
      </trkpt>
      <trkpt lat="47.25377" lon="-2.32852">
        <ele>-30.39999961853</ele>
        <time>2020-01-26T11:19:42.000Z</time>
      </trkpt>
      <trkpt lat="47.25381" lon="-2.32847">
        <ele>-30.39999961853</ele>
        <time>2020-01-26T11:19:43.000Z</time>
      </trkpt>
      <trkpt lat="47.25407" lon="-2.32817">
        <ele>-30.39999961853</ele>
        <time>2020-01-26T11:19:49.000Z</time>
      </trkpt>
      <trkpt lat="47.25411" lon="-2.3281">
        <ele>-30.39999961853</ele>
        <time>2020-01-26T11:19:50.000Z</time>
      </trkpt>
      <trkpt lat="47.25426" lon="-2.32787">
        <ele>-30.39999961853</ele>
        <time>2020-01-26T11:19:55.000Z</time>
      </trkpt>
      <trkpt lat="47.25428" lon="-2.32783">
        <ele>-30.39999961853</ele>
        <time>2020-01-26T11:19:57.000Z</time>
      </trkpt>
      <trkpt lat="47.2543" lon="-2.32776">
        <ele>-30.39999961853</ele>
        <time>2020-01-26T11:19:59.000Z</time>
      </trkpt>
      <trkpt lat="47.25434" lon="-2.32767">
        <ele>-30.39999961853</ele>
        <time>2020-01-26T11:20:01.000Z</time>
      </trkpt>
      <trkpt lat="47.25438" lon="-2.32763">
        <ele>-30.39999961853</ele>
        <time>2020-01-26T11:20:02.000Z</time>
      </trkpt>
      <trkpt lat="47.25446" lon="-2.32752">
        <ele>-30.39999961853</ele>
        <time>2020-01-26T11:20:04.000Z</time>
      </trkpt>
      <trkpt lat="47.25453" lon="-2.32742">
        <ele>-30.39999961853</ele>
        <time>2020-01-26T11:20:06.000Z</time>
      </trkpt>
      <trkpt lat="47.25471" lon="-2.32716">
        <ele>-30.39999961853</ele>
        <time>2020-01-26T11:20:11.000Z</time>
      </trkpt>
      <trkpt lat="47.25486" lon="-2.32695">
        <ele>-30</ele>
        <time>2020-01-26T11:20:15.000Z</time>
      </trkpt>
      <trkpt lat="47.25488" lon="-2.32689">
        <ele>-29.60000038147</ele>
        <time>2020-01-26T11:20:16.000Z</time>
      </trkpt>
      <trkpt lat="47.2549" lon="-2.32682">
        <ele>-29.200000762939</ele>
        <time>2020-01-26T11:20:17.000Z</time>
      </trkpt>
      <trkpt lat="47.25491" lon="-2.32674">
        <ele>-28.799999237061</ele>
        <time>2020-01-26T11:20:18.000Z</time>
      </trkpt>
      <trkpt lat="47.2549" lon="-2.32666">
        <ele>-28.39999961853</ele>
        <time>2020-01-26T11:20:19.000Z</time>
      </trkpt>
      <trkpt lat="47.2549" lon="-2.32659">
        <ele>-28.39999961853</ele>
        <time>2020-01-26T11:20:20.000Z</time>
      </trkpt>
      <trkpt lat="47.25487" lon="-2.32644">
        <ele>-28.39999961853</ele>
        <time>2020-01-26T11:20:22.000Z</time>
      </trkpt>
      <trkpt lat="47.25481" lon="-2.32615">
        <ele>-28.39999961853</ele>
        <time>2020-01-26T11:20:26.000Z</time>
      </trkpt>
      <trkpt lat="47.25477" lon="-2.32571">
        <ele>-28.39999961853</ele>
        <time>2020-01-26T11:20:32.000Z</time>
      </trkpt>
      <trkpt lat="47.25487" lon="-2.32554">
        <ele>-28.39999961853</ele>
        <time>2020-01-26T11:20:35.000Z</time>
      </trkpt>
      <trkpt lat="47.25492" lon="-2.3255">
        <ele>-28.39999961853</ele>
        <time>2020-01-26T11:20:36.000Z</time>
      </trkpt>
      <trkpt lat="47.25512" lon="-2.3253">
        <ele>-28.39999961853</ele>
        <time>2020-01-26T11:20:40.000Z</time>
      </trkpt>
      <trkpt lat="47.25551" lon="-2.32494">
        <ele>-28.39999961853</ele>
        <time>2020-01-26T11:20:47.000Z</time>
      </trkpt>
      <trkpt lat="47.25576" lon="-2.3247">
        <ele>-28.799999237061</ele>
        <time>2020-01-26T11:20:51.000Z</time>
      </trkpt>
      <trkpt lat="47.25583" lon="-2.32464">
        <ele>-29.200000762939</ele>
        <time>2020-01-26T11:20:52.000Z</time>
      </trkpt>
      <trkpt lat="47.2559" lon="-2.32457">
        <ele>-29.799999237061</ele>
        <time>2020-01-26T11:20:53.000Z</time>
      </trkpt>
      <trkpt lat="47.25597" lon="-2.3245">
        <ele>-30.200000762939</ele>
        <time>2020-01-26T11:20:54.000Z</time>
      </trkpt>
      <trkpt lat="47.25603" lon="-2.32443">
        <ele>-30.60000038147</ele>
        <time>2020-01-26T11:20:55.000Z</time>
      </trkpt>
      <trkpt lat="47.25635" lon="-2.32407">
        <ele>-30.60000038147</ele>
        <time>2020-01-26T11:21:00.000Z</time>
      </trkpt>
      <trkpt lat="47.25643" lon="-2.32402">
        <ele>-31</ele>
        <time>2020-01-26T11:21:01.000Z</time>
      </trkpt>
      <trkpt lat="47.25649" lon="-2.324">
        <ele>-31.60000038147</ele>
        <time>2020-01-26T11:21:02.000Z</time>
      </trkpt>
      <trkpt lat="47.25655" lon="-2.324">
        <ele>-32</ele>
        <time>2020-01-26T11:21:03.000Z</time>
      </trkpt>
      <trkpt lat="47.25661" lon="-2.324">
        <ele>-32.599998474121</ele>
        <time>2020-01-26T11:21:04.000Z</time>
      </trkpt>
      <trkpt lat="47.25666" lon="-2.32401">
        <ele>-33</ele>
        <time>2020-01-26T11:21:05.000Z</time>
      </trkpt>
      <trkpt lat="47.25673" lon="-2.32408">
        <ele>-33</ele>
        <time>2020-01-26T11:21:07.000Z</time>
      </trkpt>
      <trkpt lat="47.2568" lon="-2.32417">
        <ele>-33</ele>
        <time>2020-01-26T11:21:09.000Z</time>
      </trkpt>
      <trkpt lat="47.25692" lon="-2.3242">
        <ele>-33.400001525879</ele>
        <time>2020-01-26T11:21:11.000Z</time>
      </trkpt>
      <trkpt lat="47.25698" lon="-2.32421">
        <ele>-33.799999237061</ele>
        <time>2020-01-26T11:21:12.000Z</time>
      </trkpt>
      <trkpt lat="47.25704" lon="-2.32421">
        <ele>-34.400001525879</ele>
        <time>2020-01-26T11:21:13.000Z</time>
      </trkpt>
      <trkpt lat="47.2571" lon="-2.32421">
        <ele>-34.799999237061</ele>
        <time>2020-01-26T11:21:14.000Z</time>
      </trkpt>
      <trkpt lat="47.25717" lon="-2.32422">
        <ele>-35.200000762939</ele>
        <time>2020-01-26T11:21:15.000Z</time>
      </trkpt>
      <trkpt lat="47.25735" lon="-2.32423">
        <ele>-35.200000762939</ele>
        <time>2020-01-26T11:21:18.000Z</time>
      </trkpt>
      <trkpt lat="47.25762" lon="-2.32421">
        <ele>-35.200000762939</ele>
        <time>2020-01-26T11:21:23.000Z</time>
      </trkpt>
      <trkpt lat="47.25767" lon="-2.32418">
        <ele>-35.200000762939</ele>
        <time>2020-01-26T11:21:24.000Z</time>
      </trkpt>
      <trkpt lat="47.25784" lon="-2.32415">
        <ele>-35.200000762939</ele>
        <time>2020-01-26T11:21:28.000Z</time>
      </trkpt>
      <trkpt lat="47.25792" lon="-2.3243">
        <ele>-35.200000762939</ele>
        <time>2020-01-26T11:21:31.000Z</time>
      </trkpt>
      <trkpt lat="47.25796" lon="-2.32437">
        <ele>-35.200000762939</ele>
        <time>2020-01-26T11:21:32.000Z</time>
      </trkpt>
      <trkpt lat="47.25804" lon="-2.32448">
        <ele>-35.200000762939</ele>
        <time>2020-01-26T11:21:34.000Z</time>
      </trkpt>
      <trkpt lat="47.2581" lon="-2.32453">
        <ele>-35.200000762939</ele>
        <time>2020-01-26T11:21:35.000Z</time>
      </trkpt>
      <trkpt lat="47.2584" lon="-2.32471">
        <ele>-35.200000762939</ele>
        <time>2020-01-26T11:21:41.000Z</time>
      </trkpt>
      <trkpt lat="47.25846" lon="-2.32473">
        <ele>-35.200000762939</ele>
        <time>2020-01-26T11:21:42.000Z</time>
      </trkpt>
      <trkpt lat="47.25868" lon="-2.32474">
        <ele>-35.200000762939</ele>
        <time>2020-01-26T11:21:46.000Z</time>
      </trkpt>
      <trkpt lat="47.25891" lon="-2.32467">
        <ele>-35.200000762939</ele>
        <time>2020-01-26T11:21:50.000Z</time>
      </trkpt>
      <trkpt lat="47.25897" lon="-2.32462">
        <ele>-35.200000762939</ele>
        <time>2020-01-26T11:21:51.000Z</time>
      </trkpt>
      <trkpt lat="47.25924" lon="-2.32429">
        <ele>-35.200000762939</ele>
        <time>2020-01-26T11:21:57.000Z</time>
      </trkpt>
      <trkpt lat="47.25955" lon="-2.32389">
        <ele>-35.200000762939</ele>
        <time>2020-01-26T11:22:04.000Z</time>
      </trkpt>
      <trkpt lat="47.25986" lon="-2.32348">
        <ele>-35.200000762939</ele>
        <time>2020-01-26T11:22:11.000Z</time>
      </trkpt>
      <trkpt lat="47.26017" lon="-2.3231">
        <ele>-35.200000762939</ele>
        <time>2020-01-26T11:22:18.000Z</time>
      </trkpt>
      <trkpt lat="47.26051" lon="-2.32268">
        <ele>-35.200000762939</ele>
        <time>2020-01-26T11:22:26.000Z</time>
      </trkpt>
      <trkpt lat="47.26068" lon="-2.32247">
        <ele>-35.200000762939</ele>
        <time>2020-01-26T11:22:30.000Z</time>
      </trkpt>
      <trkpt lat="47.26072" lon="-2.32242">
        <ele>-35.200000762939</ele>
        <time>2020-01-26T11:22:31.000Z</time>
      </trkpt>
      <trkpt lat="47.26088" lon="-2.3222">
        <ele>-35.200000762939</ele>
        <time>2020-01-26T11:22:35.000Z</time>
      </trkpt>
      <trkpt lat="47.26092" lon="-2.32215">
        <ele>-35.200000762939</ele>
        <time>2020-01-26T11:22:36.000Z</time>
      </trkpt>
      <trkpt lat="47.26107" lon="-2.32189">
        <ele>-35.200000762939</ele>
        <time>2020-01-26T11:22:40.000Z</time>
      </trkpt>
      <trkpt lat="47.26109" lon="-2.32182">
        <ele>-35.200000762939</ele>
        <time>2020-01-26T11:22:41.000Z</time>
      </trkpt>
      <trkpt lat="47.26128" lon="-2.32133">
        <ele>-35.200000762939</ele>
        <time>2020-01-26T11:22:48.000Z</time>
      </trkpt>
      <trkpt lat="47.26141" lon="-2.32088">
        <ele>-35.200000762939</ele>
        <time>2020-01-26T11:22:54.000Z</time>
      </trkpt>
      <trkpt lat="47.26159" lon="-2.32026">
        <ele>-35.200000762939</ele>
        <time>2020-01-26T11:23:02.000Z</time>
      </trkpt>
      <trkpt lat="47.26162" lon="-2.32002">
        <ele>-35.200000762939</ele>
        <time>2020-01-26T11:23:05.000Z</time>
      </trkpt>
      <trkpt lat="47.26161" lon="-2.31977">
        <ele>-35.200000762939</ele>
        <time>2020-01-26T11:23:08.000Z</time>
      </trkpt>
      <trkpt lat="47.26154" lon="-2.31936">
        <ele>-35.200000762939</ele>
        <time>2020-01-26T11:23:13.000Z</time>
      </trkpt>
      <trkpt lat="47.26146" lon="-2.31886">
        <ele>-35.200000762939</ele>
        <time>2020-01-26T11:23:19.000Z</time>
      </trkpt>
      <trkpt lat="47.26141" lon="-2.31849">
        <ele>-35.200000762939</ele>
        <time>2020-01-26T11:23:24.000Z</time>
      </trkpt>
      <trkpt lat="47.26134" lon="-2.31791">
        <ele>-35.200000762939</ele>
        <time>2020-01-26T11:23:31.000Z</time>
      </trkpt>
      <trkpt lat="47.26129" lon="-2.31744">
        <ele>-35.200000762939</ele>
        <time>2020-01-26T11:23:37.000Z</time>
      </trkpt>
      <trkpt lat="47.26126" lon="-2.31715">
        <ele>-35.200000762939</ele>
        <time>2020-01-26T11:23:41.000Z</time>
      </trkpt>
      <trkpt lat="47.26125" lon="-2.31708">
        <ele>-35.200000762939</ele>
        <time>2020-01-26T11:23:42.000Z</time>
      </trkpt>
      <trkpt lat="47.2612" lon="-2.31663">
        <ele>-35.200000762939</ele>
        <time>2020-01-26T11:23:48.000Z</time>
      </trkpt>
      <trkpt lat="47.26114" lon="-2.31631">
        <ele>-35.200000762939</ele>
        <time>2020-01-26T11:23:53.000Z</time>
      </trkpt>
      <trkpt lat="47.26115" lon="-2.31625">
        <ele>-35.200000762939</ele>
        <time>2020-01-26T11:23:54.000Z</time>
      </trkpt>
      <trkpt lat="47.2612" lon="-2.31617">
        <ele>-35.200000762939</ele>
        <time>2020-01-26T11:23:56.000Z</time>
      </trkpt>
      <trkpt lat="47.26131" lon="-2.31612">
        <ele>-35.200000762939</ele>
        <time>2020-01-26T11:23:59.000Z</time>
      </trkpt>
      <trkpt lat="47.26135" lon="-2.31611">
        <ele>-35.200000762939</ele>
        <time>2020-01-26T11:24:00.000Z</time>
      </trkpt>
      <trkpt lat="47.26139" lon="-2.31611">
        <ele>-35.200000762939</ele>
        <time>2020-01-26T11:24:01.000Z</time>
      </trkpt>
      <trkpt lat="47.26153" lon="-2.31606">
        <ele>-35.200000762939</ele>
        <time>2020-01-26T11:24:04.000Z</time>
      </trkpt>
      <trkpt lat="47.26192" lon="-2.31592">
        <ele>-35.200000762939</ele>
        <time>2020-01-26T11:24:12.000Z</time>
      </trkpt>
      <trkpt lat="47.26213" lon="-2.31589">
        <ele>-35.200000762939</ele>
        <time>2020-01-26T11:24:16.000Z</time>
      </trkpt>
      <trkpt lat="47.26222" lon="-2.31593">
        <ele>-35.200000762939</ele>
        <time>2020-01-26T11:24:18.000Z</time>
      </trkpt>
      <trkpt lat="47.26231" lon="-2.31599">
        <ele>-35.200000762939</ele>
        <time>2020-01-26T11:24:20.000Z</time>
      </trkpt>
      <trkpt lat="47.26244" lon="-2.31611">
        <ele>-35.200000762939</ele>
        <time>2020-01-26T11:24:23.000Z</time>
      </trkpt>
      <trkpt lat="47.26248" lon="-2.31615">
        <ele>-35.200000762939</ele>
        <time>2020-01-26T11:24:24.000Z</time>
      </trkpt>
      <trkpt lat="47.26254" lon="-2.31625">
        <ele>-35.200000762939</ele>
        <time>2020-01-26T11:24:26.000Z</time>
      </trkpt>
      <trkpt lat="47.26259" lon="-2.31637">
        <ele>-35.200000762939</ele>
        <time>2020-01-26T11:24:28.000Z</time>
      </trkpt>
      <trkpt lat="47.26262" lon="-2.31643">
        <ele>-35.200000762939</ele>
        <time>2020-01-26T11:24:29.000Z</time>
      </trkpt>
      <trkpt lat="47.2627" lon="-2.3166">
        <ele>-35.200000762939</ele>
        <time>2020-01-26T11:24:32.000Z</time>
      </trkpt>
      <trkpt lat="47.26273" lon="-2.31665">
        <ele>-35.200000762939</ele>
        <time>2020-01-26T11:24:33.000Z</time>
      </trkpt>
      <trkpt lat="47.26285" lon="-2.31687">
        <ele>-35.200000762939</ele>
        <time>2020-01-26T11:24:37.000Z</time>
      </trkpt>
      <trkpt lat="47.26288" lon="-2.31693">
        <ele>-35.200000762939</ele>
        <time>2020-01-26T11:24:38.000Z</time>
      </trkpt>
      <trkpt lat="47.26294" lon="-2.31703">
        <ele>-35.200000762939</ele>
        <time>2020-01-26T11:24:40.000Z</time>
      </trkpt>
      <trkpt lat="47.26305" lon="-2.31711">
        <ele>-35.200000762939</ele>
        <time>2020-01-26T11:24:43.000Z</time>
      </trkpt>
      <trkpt lat="47.26313" lon="-2.31708">
        <ele>-35.200000762939</ele>
        <time>2020-01-26T11:24:45.000Z</time>
      </trkpt>
      <trkpt lat="47.2632" lon="-2.31705">
        <ele>-35.200000762939</ele>
        <time>2020-01-26T11:24:47.000Z</time>
      </trkpt>
      <trkpt lat="47.26329" lon="-2.31698">
        <ele>-35.200000762939</ele>
        <time>2020-01-26T11:24:50.000Z</time>
      </trkpt>
      <trkpt lat="47.26331" lon="-2.31694">
        <ele>-35.200000762939</ele>
        <time>2020-01-26T11:24:51.000Z</time>
      </trkpt>
      <trkpt lat="47.26338" lon="-2.31687">
        <ele>-35.200000762939</ele>
        <time>2020-01-26T11:24:54.000Z</time>
      </trkpt>
      <trkpt lat="47.26341" lon="-2.31686">
        <ele>-34.599998474121</ele>
        <time>2020-01-26T11:24:55.000Z</time>
      </trkpt>
      <trkpt lat="47.26344" lon="-2.31684">
        <ele>-34.200000762939</ele>
        <time>2020-01-26T11:24:56.000Z</time>
      </trkpt>
      <trkpt lat="47.26347" lon="-2.31682">
        <ele>-33.799999237061</ele>
        <time>2020-01-26T11:24:57.000Z</time>
      </trkpt>
      <trkpt lat="47.2635" lon="-2.3168">
        <ele>-33.400001525879</ele>
        <time>2020-01-26T11:24:58.000Z</time>
      </trkpt>
      <trkpt lat="47.26353" lon="-2.31679">
        <ele>-32.799999237061</ele>
        <time>2020-01-26T11:24:59.000Z</time>
      </trkpt>
      <trkpt lat="47.26368" lon="-2.31673">
        <ele>-32.799999237061</ele>
        <time>2020-01-26T11:25:03.000Z</time>
      </trkpt>
      <trkpt lat="47.26383" lon="-2.31665">
        <ele>-32.400001525879</ele>
        <time>2020-01-26T11:25:07.000Z</time>
      </trkpt>
      <trkpt lat="47.26386" lon="-2.31664">
        <ele>-32</ele>
        <time>2020-01-26T11:25:08.000Z</time>
      </trkpt>
      <trkpt lat="47.2639" lon="-2.31662">
        <ele>-31.60000038147</ele>
        <time>2020-01-26T11:25:09.000Z</time>
      </trkpt>
      <trkpt lat="47.26392" lon="-2.3166">
        <ele>-31</ele>
        <time>2020-01-26T11:25:10.000Z</time>
      </trkpt>
      <trkpt lat="47.26395" lon="-2.31659">
        <ele>-30.60000038147</ele>
        <time>2020-01-26T11:25:11.000Z</time>
      </trkpt>
      <trkpt lat="47.26404" lon="-2.31654">
        <ele>-30.60000038147</ele>
        <time>2020-01-26T11:25:14.000Z</time>
      </trkpt>
      <trkpt lat="47.26408" lon="-2.31648">
        <ele>-30.60000038147</ele>
        <time>2020-01-26T11:25:16.000Z</time>
      </trkpt>
      <trkpt lat="47.26408" lon="-2.31645">
        <ele>-30.60000038147</ele>
        <time>2020-01-26T11:25:17.000Z</time>
      </trkpt>
      <trkpt lat="47.26407" lon="-2.31623">
        <ele>-30.60000038147</ele>
        <time>2020-01-26T11:25:22.000Z</time>
      </trkpt>
      <trkpt lat="47.26409" lon="-2.31596">
        <ele>-30.60000038147</ele>
        <time>2020-01-26T11:25:27.000Z</time>
      </trkpt>
      <trkpt lat="47.2641" lon="-2.31577">
        <ele>-30.60000038147</ele>
        <time>2020-01-26T11:25:31.000Z</time>
      </trkpt>
      <trkpt lat="47.26411" lon="-2.31557">
        <ele>-30.60000038147</ele>
        <time>2020-01-26T11:25:36.000Z</time>
      </trkpt>
      <trkpt lat="47.26412" lon="-2.31555">
        <ele>-30.60000038147</ele>
        <time>2020-01-26T11:25:37.000Z</time>
      </trkpt>
      <trkpt lat="47.26416" lon="-2.31553">
        <ele>-30.60000038147</ele>
        <time>2020-01-26T11:25:39.000Z</time>
      </trkpt>
      <trkpt lat="47.26417" lon="-2.31553">
        <ele>-30.60000038147</ele>
        <time>2020-01-26T11:25:40.000Z</time>
      </trkpt>
    </trkseg>
  </trk>
</gpx>